<?xml version='1.0' encoding='UTF-8'?><gpx version="1.1" creator="JPX - https://github.com/jenetics/jpx" xmlns="http://www.topografix.com/GPX/1/1"><trk><trkseg><trkpt lat="43.076538923448396" lon="10.687660640864186"><ele>58.25</ele><time>2026-04-19T09:09:45.979Z</time></trkpt><trkpt lat="43.076594064162975" lon="10.687808417239731"><ele>57.5</ele><time>2026-04-19T09:09:46.979Z</time></trkpt><trkpt lat="43.07664702090354" lon="10.68794980233557"><ele>56.75</ele><time>2026-04-19T09:09:47.999Z</time></trkpt><trkpt lat="43.07670390258957" lon="10.688101149078493"><ele>56.0</ele><time>2026-04-19T09:09:48.999Z</time></trkpt><trkpt lat="43.07676558694814" lon="10.688263920767529"><ele>57.25</ele><time>2026-04-19T09:09:49.999Z</time></trkpt><trkpt lat="43.07682795329825" lon="10.688426185436676"><ele>58.5</ele><time>2026-04-19T09:09:51Z</time></trkpt><trkpt lat="43.07688727358012" lon="10.688580524845586"><ele>59.75</ele><time>2026-04-19T09:09:52Z</time></trkpt><trkpt lat="43.07694487987442" lon="10.688725635742387"><ele>61.0</ele><time>2026-04-19T09:09:53Z</time></trkpt><trkpt lat="43.07700214208884" lon="10.68886874299655"><ele>61.0</ele><time>2026-04-19T09:09:54Z</time></trkpt><trkpt lat="43.07705715445548" lon="10.689014624790074"><ele>61.0</ele><time>2026-04-19T09:09:55Z</time></trkpt><trkpt lat="43.07709840121508" lon="10.689143899457736"><ele>61.0</ele><time>2026-04-19T09:09:56Z</time></trkpt><trkpt lat="43.077126032529165" lon="10.689286203434227"><ele>61.0</ele><time>2026-04-19T09:09:57Z</time></trkpt><trkpt lat="43.07724309196744" lon="10.68940380815553"><ele>60.25</ele><time>2026-04-19T09:09:58Z</time></trkpt><trkpt lat="43.07728484901651" lon="10.689545503384542"><ele>59.5</ele><time>2026-04-19T09:09:59Z</time></trkpt><trkpt lat="43.0773017785" lon="10.689682621980841"><ele>58.75</ele><time>2026-04-19T09:10:00Z</time></trkpt><trkpt lat="43.07731069843381" lon="10.689860395308612"><ele>58.0</ele><time>2026-04-19T09:10:01Z</time></trkpt><trkpt lat="43.07729481721806" lon="10.69004286891864"><ele>58.0</ele><time>2026-04-19T09:10:02Z</time></trkpt><trkpt lat="43.077291722477725" lon="10.690256544295096"><ele>58.0</ele><time>2026-04-19T09:10:03Z</time></trkpt><trkpt lat="43.07732225289786" lon="10.690496878304302"><ele>58.0</ele><time>2026-04-19T09:10:04Z</time></trkpt><trkpt lat="43.077365248843" lon="10.690720907671302"><ele>58.666666666666664</ele><time>2026-04-19T09:10:05Z</time></trkpt><trkpt lat="43.07743712297792" lon="10.69093246681748"><ele>59.33333333333333</ele><time>2026-04-19T09:10:06Z</time></trkpt><trkpt lat="43.07750751853114" lon="10.691150720080094"><ele>60.0</ele><time>2026-04-19T09:10:07Z</time></trkpt><trkpt lat="43.07758586592655" lon="10.691393863897089"><ele>60.0</ele><time>2026-04-19T09:10:08Z</time></trkpt><trkpt lat="43.07765442899183" lon="10.69163002213601"><ele>60.0</ele><time>2026-04-19T09:10:09Z</time></trkpt><trkpt lat="43.07772382028961" lon="10.691868917912666"><ele>60.0</ele><time>2026-04-19T09:10:10Z</time></trkpt><trkpt lat="43.077796627196825" lon="10.692110134421727"><ele>59.0</ele><time>2026-04-19T09:10:11Z</time></trkpt><trkpt lat="43.07786887175288" lon="10.692339096052907"><ele>58.0</ele><time>2026-04-19T09:10:12Z</time></trkpt><trkpt lat="43.07798083862207" lon="10.692539032428446"><ele>57.0</ele><time>2026-04-19T09:10:13Z</time></trkpt><trkpt lat="43.078118518246114" lon="10.692715587229909"><ele>56.33333333333333</ele><time>2026-04-19T09:10:14Z</time></trkpt><trkpt lat="43.078238960946614" lon="10.692927332221583"><ele>55.666666666666664</ele><time>2026-04-19T09:10:15Z</time></trkpt><trkpt lat="43.078370759489005" lon="10.693115369365284"><ele>55.0</ele><time>2026-04-19T09:10:16Z</time></trkpt><trkpt lat="43.0785044250091" lon="10.693304347138616"><ele>57.0</ele><time>2026-04-19T09:10:17Z</time></trkpt><trkpt lat="43.07862656271698" lon="10.693529388210615"><ele>59.0</ele><time>2026-04-19T09:10:18Z</time></trkpt><trkpt lat="43.07871537037541" lon="10.693730483134024"><ele>61.0</ele><time>2026-04-19T09:10:19Z</time></trkpt><trkpt lat="43.078762326578136" lon="10.693948751746522"><ele>61.0</ele><time>2026-04-19T09:10:20Z</time></trkpt><trkpt lat="43.0787927024922" lon="10.694194422101832"><ele>61.0</ele><time>2026-04-19T09:10:21Z</time></trkpt><trkpt lat="43.07878504441192" lon="10.694483524539619"><ele>61.0</ele><time>2026-04-19T09:10:22Z</time></trkpt><trkpt lat="43.07875211151867" lon="10.69475925002131"><ele>60.33333333333333</ele><time>2026-04-19T09:10:23Z</time></trkpt><trkpt lat="43.07870883343741" lon="10.695043284240441"><ele>59.66666666666667</ele><time>2026-04-19T09:10:24Z</time></trkpt><trkpt lat="43.078665233325225" lon="10.695326684964108"><ele>59.0</ele><time>2026-04-19T09:10:25Z</time></trkpt><trkpt lat="43.078627171957265" lon="10.695608445421396"><ele>57.333333333333336</ele><time>2026-04-19T09:10:26Z</time></trkpt><trkpt lat="43.07858682049325" lon="10.695907006065296"><ele>55.66666666666667</ele><time>2026-04-19T09:10:27Z</time></trkpt><trkpt lat="43.07854135273215" lon="10.696201980362508"><ele>54.0</ele><time>2026-04-19T09:10:28Z</time></trkpt><trkpt lat="43.07849409952187" lon="10.696495341930458"><ele>53.66666666666667</ele><time>2026-04-19T09:10:29Z</time></trkpt><trkpt lat="43.07844966136497" lon="10.696786063124973"><ele>53.333333333333336</ele><time>2026-04-19T09:10:30Z</time></trkpt><trkpt lat="43.07840160526265" lon="10.697077706035856"><ele>53.0</ele><time>2026-04-19T09:10:31Z</time></trkpt><trkpt lat="43.07835466840667" lon="10.697368799344696"><ele>53.0</ele><time>2026-04-19T09:10:32Z</time></trkpt><trkpt lat="43.07830802589663" lon="10.697657702270657"><ele>53.0</ele><time>2026-04-19T09:10:33Z</time></trkpt><trkpt lat="43.078265212078044" lon="10.697948041647455"><ele>53.0</ele><time>2026-04-19T09:10:34Z</time></trkpt><trkpt lat="43.07822042114101" lon="10.698237916337689"><ele>52.66666666666667</ele><time>2026-04-19T09:10:35Z</time></trkpt><trkpt lat="43.078173976763786" lon="10.698529412350968"><ele>52.33333333333333</ele><time>2026-04-19T09:10:36Z</time></trkpt><trkpt lat="43.07812717449514" lon="10.698824430993263"><ele>52.0</ele><time>2026-04-19T09:10:37Z</time></trkpt><trkpt lat="43.07808210884657" lon="10.699118234339096"><ele>52.0</ele><time>2026-04-19T09:10:38Z</time></trkpt><trkpt lat="43.07803801421488" lon="10.699413127128508"><ele>52.0</ele><time>2026-04-19T09:10:39Z</time></trkpt><trkpt lat="43.07799271631616" lon="10.699705429965055"><ele>52.0</ele><time>2026-04-19T09:10:40Z</time></trkpt><trkpt lat="43.07794887158835" lon="10.699995199954662"><ele>53.666666666666664</ele><time>2026-04-19T09:10:40.999Z</time></trkpt><trkpt lat="43.07790559404815" lon="10.700285375059503"><ele>55.33333333333333</ele><time>2026-04-19T09:10:41.999Z</time></trkpt><trkpt lat="43.07785910647023" lon="10.700574183349628"><ele>57.0</ele><time>2026-04-19T09:10:42.999Z</time></trkpt><trkpt lat="43.07781475998095" lon="10.700864855470169"><ele>57.66666666666667</ele><time>2026-04-19T09:10:43.999Z</time></trkpt><trkpt lat="43.07777286943081" lon="10.701156324151402"><ele>58.333333333333336</ele><time>2026-04-19T09:10:44.999Z</time></trkpt><trkpt lat="43.07773217563257" lon="10.701444187910914"><ele>59.0</ele><time>2026-04-19T09:10:45.999Z</time></trkpt><trkpt lat="43.07768369701479" lon="10.701716478141394"><ele>59.0</ele><time>2026-04-19T09:10:46.999Z</time></trkpt><trkpt lat="43.0776161446295" lon="10.701988030811057"><ele>59.0</ele><time>2026-04-19T09:10:47.999Z</time></trkpt><trkpt lat="43.077531255212115" lon="10.702247233823822"><ele>59.0</ele><time>2026-04-19T09:10:48.999Z</time></trkpt><trkpt lat="43.07743643841388" lon="10.70249706492258"><ele>59.333333333333336</ele><time>2026-04-19T09:10:49.999Z</time></trkpt><trkpt lat="43.0773355380391" lon="10.702751784292403"><ele>59.66666666666667</ele><time>2026-04-19T09:10:50.999Z</time></trkpt><trkpt lat="43.07723906842891" lon="10.70301208077051"><ele>60.0</ele><time>2026-04-19T09:10:51.999Z</time></trkpt><trkpt lat="43.07714275263473" lon="10.70328156520429"><ele>60.0</ele><time>2026-04-19T09:10:52.999Z</time></trkpt><trkpt lat="43.077046020909805" lon="10.703544937669138"><ele>60.0</ele><time>2026-04-19T09:10:53.999Z</time></trkpt><trkpt lat="43.07694886851511" lon="10.703809511189828"><ele>60.0</ele><time>2026-04-19T09:10:54.999Z</time></trkpt><trkpt lat="43.076851850270344" lon="10.704078171945604"><ele>60.0</ele><time>2026-04-19T09:10:55.999Z</time></trkpt><trkpt lat="43.076755955504716" lon="10.704348603845794"><ele>60.0</ele><time>2026-04-19T09:10:56.999Z</time></trkpt><trkpt lat="43.07665783274877" lon="10.704618323621148"><ele>60.0</ele><time>2026-04-19T09:10:57.999Z</time></trkpt><trkpt lat="43.07656549932373" lon="10.704889924420256"><ele>60.0</ele><time>2026-04-19T09:10:58.999Z</time></trkpt><trkpt lat="43.07646884855305" lon="10.70515832550179"><ele>60.0</ele><time>2026-04-19T09:10:59.999Z</time></trkpt><trkpt lat="43.07637227187116" lon="10.705428525687216"><ele>60.0</ele><time>2026-04-19T09:11:00.999Z</time></trkpt><trkpt lat="43.076274742679594" lon="10.70570001399463"><ele>59.0</ele><time>2026-04-19T09:11:01.999Z</time></trkpt><trkpt lat="43.076186288192474" lon="10.705968602251065"><ele>58.0</ele><time>2026-04-19T09:11:02.999Z</time></trkpt><trkpt lat="43.076093922994495" lon="10.706240982969508"><ele>57.0</ele><time>2026-04-19T09:11:03.999Z</time></trkpt><trkpt lat="43.07599259291211" lon="10.706509999982307"><ele>55.66666666666667</ele><time>2026-04-19T09:11:04.999Z</time></trkpt><trkpt lat="43.0758957686388" lon="10.706776178747017"><ele>54.333333333333336</ele><time>2026-04-19T09:11:05.999Z</time></trkpt><trkpt lat="43.07579526391975" lon="10.707045890331498"><ele>53.0</ele><time>2026-04-19T09:11:06.999Z</time></trkpt><trkpt lat="43.075696119371905" lon="10.707319954022502"><ele>54.333333333333336</ele><time>2026-04-19T09:11:07.999Z</time></trkpt><trkpt lat="43.07560224003918" lon="10.70759460937744"><ele>55.66666666666667</ele><time>2026-04-19T09:11:08.999Z</time></trkpt><trkpt lat="43.07550412361488" lon="10.70786744312391"><ele>57.0</ele><time>2026-04-19T09:11:09.999Z</time></trkpt><trkpt lat="43.075403568982516" lon="10.708137743872905"><ele>57.0</ele><time>2026-04-19T09:11:10.999Z</time></trkpt><trkpt lat="43.07531620258229" lon="10.708393998415932"><ele>57.0</ele><time>2026-04-19T09:11:11.999Z</time></trkpt><trkpt lat="43.075224109766125" lon="10.708652299522122"><ele>57.0</ele><time>2026-04-19T09:11:12.999Z</time></trkpt><trkpt lat="43.07512550467374" lon="10.708908300534292"><ele>57.0</ele><time>2026-04-19T09:11:13.999Z</time></trkpt><trkpt lat="43.075008769902034" lon="10.709156929092652"><ele>57.0</ele><time>2026-04-19T09:11:14.999Z</time></trkpt><trkpt lat="43.07487330813123" lon="10.709384730581663"><ele>57.0</ele><time>2026-04-19T09:11:15.999Z</time></trkpt><trkpt lat="43.074726119301054" lon="10.709593909005292"><ele>54.33333333333333</ele><time>2026-04-19T09:11:16.999Z</time></trkpt><trkpt lat="43.074563174290894" lon="10.70979277670827"><ele>51.666666666666664</ele><time>2026-04-19T09:11:17.999Z</time></trkpt><trkpt lat="43.074406919464586" lon="10.709991095753727"><ele>49.0</ele><time>2026-04-19T09:11:18.999Z</time></trkpt><trkpt lat="43.07424426534561" lon="10.710199527863738"><ele>48.0</ele><time>2026-04-19T09:11:19.999Z</time></trkpt><trkpt lat="43.07408632172467" lon="10.710417544532232"><ele>47.0</ele><time>2026-04-19T09:11:20.999Z</time></trkpt><trkpt lat="43.073932798609974" lon="10.710645217616538"><ele>47.0</ele><time>2026-04-19T09:11:21.999Z</time></trkpt><trkpt lat="43.0737803600898" lon="10.710874192736911"><ele>47.0</ele><time>2026-04-19T09:11:22.999Z</time></trkpt><trkpt lat="43.07362655702937" lon="10.711099954920133"><ele>46.0</ele><time>2026-04-19T09:11:23.999Z</time></trkpt><trkpt lat="43.07346808505485" lon="10.711323864995459"><ele>45.0</ele><time>2026-04-19T09:11:24.999Z</time></trkpt><trkpt lat="43.073315753692945" lon="10.711544778027697"><ele>45.0</ele><time>2026-04-19T09:11:25.999Z</time></trkpt><trkpt lat="43.07316254879128" lon="10.711763445005529"><ele>45.0</ele><time>2026-04-19T09:11:26.999Z</time></trkpt><trkpt lat="43.07301895976912" lon="10.711979822112314"><ele>45.0</ele><time>2026-04-19T09:11:27.999Z</time></trkpt><trkpt lat="43.07287324168312" lon="10.712192528153178"><ele>45.0</ele><time>2026-04-19T09:11:28.999Z</time></trkpt><trkpt lat="43.07272842409774" lon="10.712400687146921"><ele>45.0</ele><time>2026-04-19T09:11:29.999Z</time></trkpt><trkpt lat="43.072591149998814" lon="10.712604448354389"><ele>45.0</ele><time>2026-04-19T09:11:30.999Z</time></trkpt><trkpt lat="43.07245837581987" lon="10.712804521476547"><ele>45.0</ele><time>2026-04-19T09:11:31.999Z</time></trkpt><trkpt lat="43.07232704435776" lon="10.7129991622807"><ele>45.0</ele><time>2026-04-19T09:11:32.999Z</time></trkpt><trkpt lat="43.07218372680283" lon="10.71318839826605"><ele>45.0</ele><time>2026-04-19T09:11:33.999Z</time></trkpt><trkpt lat="43.072056798211214" lon="10.713371277491511"><ele>45.0</ele><time>2026-04-19T09:11:34.999Z</time></trkpt><trkpt lat="43.07193535046859" lon="10.713557391296483"><ele>45.0</ele><time>2026-04-19T09:11:35.999Z</time></trkpt><trkpt lat="43.07183997468247" lon="10.713745096037794"><ele>45.0</ele><time>2026-04-19T09:11:36.998Z</time></trkpt><trkpt lat="43.07177619444029" lon="10.713949677706225"><ele>45.0</ele><time>2026-04-19T09:11:37.998Z</time></trkpt><trkpt lat="43.071767620110464" lon="10.714160450098328"><ele>45.0</ele><time>2026-04-19T09:11:38.998Z</time></trkpt><trkpt lat="43.07181849430263" lon="10.714360130342316"><ele>45.0</ele><time>2026-04-19T09:11:39.998Z</time></trkpt><trkpt lat="43.07190491590884" lon="10.714539816141247"><ele>44.666666666666664</ele><time>2026-04-19T09:11:40.998Z</time></trkpt><trkpt lat="43.07202914188044" lon="10.71469964415729"><ele>44.33333333333333</ele><time>2026-04-19T09:11:41.998Z</time></trkpt><trkpt lat="43.072172359172725" lon="10.714856730445058"><ele>44.0</ele><time>2026-04-19T09:11:42.998Z</time></trkpt><trkpt lat="43.07231021980962" lon="10.715012784412327"><ele>44.0</ele><time>2026-04-19T09:11:43.998Z</time></trkpt><trkpt lat="43.07244644852179" lon="10.715175270709452"><ele>44.0</ele><time>2026-04-19T09:11:44.998Z</time></trkpt><trkpt lat="43.07259656231174" lon="10.715361152100167"><ele>44.0</ele><time>2026-04-19T09:11:45.998Z</time></trkpt><trkpt lat="43.072747811227835" lon="10.715541402020254"><ele>44.33333333333333</ele><time>2026-04-19T09:11:46.998Z</time></trkpt><trkpt lat="43.072899506083175" lon="10.715728340398044"><ele>44.666666666666664</ele><time>2026-04-19T09:11:47.998Z</time></trkpt><trkpt lat="43.073054429709366" lon="10.715920725219272"><ele>45.0</ele><time>2026-04-19T09:11:48.998Z</time></trkpt><trkpt lat="43.073215885148684" lon="10.716120526746524"><ele>45.0</ele><time>2026-04-19T09:11:49.998Z</time></trkpt><trkpt lat="43.07337616810533" lon="10.716318810991531"><ele>45.0</ele><time>2026-04-19T09:11:50.998Z</time></trkpt><trkpt lat="43.073543199417436" lon="10.71652500710171"><ele>45.0</ele><time>2026-04-19T09:11:51.998Z</time></trkpt><trkpt lat="43.0737132138368" lon="10.716735145167553"><ele>45.0</ele><time>2026-04-19T09:11:53Z</time></trkpt><trkpt lat="43.073883746695735" lon="10.71694605990376"><ele>45.0</ele><time>2026-04-19T09:11:54Z</time></trkpt><trkpt lat="43.07405500787178" lon="10.717164693021449"><ele>45.0</ele><time>2026-04-19T09:11:55Z</time></trkpt><trkpt lat="43.0742292210587" lon="10.717380632659967"><ele>45.0</ele><time>2026-04-19T09:11:56Z</time></trkpt><trkpt lat="43.0744062519432" lon="10.717595090775832"><ele>45.0</ele><time>2026-04-19T09:11:57Z</time></trkpt><trkpt lat="43.074584098340985" lon="10.717814228123073"><ele>45.0</ele><time>2026-04-19T09:11:58Z</time></trkpt><trkpt lat="43.074760369331905" lon="10.718032715938515"><ele>45.0</ele><time>2026-04-19T09:11:59Z</time></trkpt><trkpt lat="43.074937316379575" lon="10.71825143336956"><ele>45.0</ele><time>2026-04-19T09:12:00Z</time></trkpt><trkpt lat="43.075114379090486" lon="10.71847017483351"><ele>45.5</ele><time>2026-04-19T09:12:01Z</time></trkpt><trkpt lat="43.07529098070921" lon="10.718692029115081"><ele>46.0</ele><time>2026-04-19T09:12:02Z</time></trkpt><trkpt lat="43.07546839386768" lon="10.71891089404224"><ele>46.0</ele><time>2026-04-19T09:12:03Z</time></trkpt><trkpt lat="43.075643522773724" lon="10.71912968890128"><ele>46.0</ele><time>2026-04-19T09:12:04Z</time></trkpt><trkpt lat="43.07581769089045" lon="10.71934815045991"><ele>46.5</ele><time>2026-04-19T09:12:05Z</time></trkpt><trkpt lat="43.075993121279176" lon="10.719566768441316"><ele>47.0</ele><time>2026-04-19T09:12:06Z</time></trkpt><trkpt lat="43.07616863332578" lon="10.719785612860585"><ele>47.0</ele><time>2026-04-19T09:12:07Z</time></trkpt><trkpt lat="43.07634306589152" lon="10.72000347909668"><ele>47.0</ele><time>2026-04-19T09:12:08Z</time></trkpt><trkpt lat="43.076516587129866" lon="10.720220673994962"><ele>46.0</ele><time>2026-04-19T09:12:09Z</time></trkpt><trkpt lat="43.076689399821554" lon="10.720435765275463"><ele>45.0</ele><time>2026-04-19T09:12:10Z</time></trkpt><trkpt lat="43.07686416964505" lon="10.720655751250295"><ele>45.0</ele><time>2026-04-19T09:12:11Z</time></trkpt><trkpt lat="43.07703926929184" lon="10.720869863693936"><ele>45.0</ele><time>2026-04-19T09:12:12Z</time></trkpt><trkpt lat="43.07721483659992" lon="10.721087284827952"><ele>45.5</ele><time>2026-04-19T09:12:13Z</time></trkpt><trkpt lat="43.07739106880976" lon="10.721303715758733"><ele>46.0</ele><time>2026-04-19T09:12:14Z</time></trkpt><trkpt lat="43.07756763266147" lon="10.721522913024804"><ele>46.0</ele><time>2026-04-19T09:12:15Z</time></trkpt><trkpt lat="43.077743608133424" lon="10.721744885496824"><ele>46.0</ele><time>2026-04-19T09:12:16Z</time></trkpt><trkpt lat="43.07791896633208" lon="10.721968104474934"><ele>46.5</ele><time>2026-04-19T09:12:17Z</time></trkpt><trkpt lat="43.078094246919555" lon="10.722193543550626"><ele>47.0</ele><time>2026-04-19T09:12:18Z</time></trkpt><trkpt lat="43.07827225066702" lon="10.722418650097632"><ele>47.0</ele><time>2026-04-19T09:12:19Z</time></trkpt><trkpt lat="43.0784520466283" lon="10.722640754484106"><ele>47.0</ele><time>2026-04-19T09:12:20Z</time></trkpt><trkpt lat="43.0786321413507" lon="10.722860376944384"><ele>47.0</ele><time>2026-04-19T09:12:21Z</time></trkpt><trkpt lat="43.07881115093398" lon="10.723080040422484"><ele>47.0</ele><time>2026-04-19T09:12:22Z</time></trkpt><trkpt lat="43.078988308349864" lon="10.723301209114867"><ele>47.0</ele><time>2026-04-19T09:12:23Z</time></trkpt><trkpt lat="43.07916250546991" lon="10.723523585745237"><ele>47.0</ele><time>2026-04-19T09:12:24Z</time></trkpt><trkpt lat="43.07933705408899" lon="10.723745280075947"><ele>47.5</ele><time>2026-04-19T09:12:25Z</time></trkpt><trkpt lat="43.07951225372987" lon="10.723958565363906"><ele>48.0</ele><time>2026-04-19T09:12:26Z</time></trkpt><trkpt lat="43.07968803280352" lon="10.724171434046994"><ele>48.0</ele><time>2026-04-19T09:12:27Z</time></trkpt><trkpt lat="43.079859850630015" lon="10.724386621099862"><ele>48.0</ele><time>2026-04-19T09:12:28Z</time></trkpt><trkpt lat="43.080028721128535" lon="10.724599715071337"><ele>48.0</ele><time>2026-04-19T09:12:29Z</time></trkpt><trkpt lat="43.08019361582215" lon="10.724789817935928"><ele>48.0</ele><time>2026-04-19T09:12:30Z</time></trkpt><trkpt lat="43.08035618194377" lon="10.725005678958933"><ele>48.0</ele><time>2026-04-19T09:12:31Z</time></trkpt><trkpt lat="43.080516177565386" lon="10.725199284543574"><ele>48.0</ele><time>2026-04-19T09:12:32Z</time></trkpt><trkpt lat="43.0806726198411" lon="10.725394478540144"><ele>48.0</ele><time>2026-04-19T09:12:33Z</time></trkpt><trkpt lat="43.08082660385022" lon="10.725590586440848"><ele>48.0</ele><time>2026-04-19T09:12:34Z</time></trkpt><trkpt lat="43.080981345639934" lon="10.725784939648271"><ele>48.33333333333333</ele><time>2026-04-19T09:12:35Z</time></trkpt><trkpt lat="43.08113746264007" lon="10.72598014626319"><ele>48.666666666666664</ele><time>2026-04-19T09:12:36Z</time></trkpt><trkpt lat="43.081299824089406" lon="10.726179088621038"><ele>49.0</ele><time>2026-04-19T09:12:37Z</time></trkpt><trkpt lat="43.08146659058329" lon="10.726380127292783"><ele>49.0</ele><time>2026-04-19T09:12:38Z</time></trkpt><trkpt lat="43.08162920285351" lon="10.726585870706739"><ele>49.0</ele><time>2026-04-19T09:12:39Z</time></trkpt><trkpt lat="43.08179370818734" lon="10.726791806373798"><ele>49.0</ele><time>2026-04-19T09:12:40Z</time></trkpt><trkpt lat="43.08196023186841" lon="10.726997546822533"><ele>48.5</ele><time>2026-04-19T09:12:41Z</time></trkpt><trkpt lat="43.0821268093914" lon="10.727204177439901"><ele>48.0</ele><time>2026-04-19T09:12:42Z</time></trkpt><trkpt lat="43.08229388079597" lon="10.727412870233003"><ele>48.33333333333333</ele><time>2026-04-19T09:12:42.999Z</time></trkpt><trkpt lat="43.082458184151854" lon="10.727619532945461"><ele>48.666666666666664</ele><time>2026-04-19T09:12:43.999Z</time></trkpt><trkpt lat="43.0826217213651" lon="10.727824639869814"><ele>49.0</ele><time>2026-04-19T09:12:44.999Z</time></trkpt><trkpt lat="43.08277977062354" lon="10.728025224704414"><ele>49.33333333333333</ele><time>2026-04-19T09:12:45.999Z</time></trkpt><trkpt lat="43.08293142307144" lon="10.728219984467135"><ele>49.66666666666667</ele><time>2026-04-19T09:12:46.999Z</time></trkpt><trkpt lat="43.083079436200705" lon="10.728408336640673"><ele>50.0</ele><time>2026-04-19T09:12:47.999Z</time></trkpt><trkpt lat="43.0832259768238" lon="10.728588053817177"><ele>50.66666666666667</ele><time>2026-04-19T09:12:48.999Z</time></trkpt><trkpt lat="43.08336597050733" lon="10.728759080731116"><ele>51.33333333333333</ele><time>2026-04-19T09:12:49.999Z</time></trkpt><trkpt lat="43.08350758081617" lon="10.7289188378577"><ele>52.0</ele><time>2026-04-19T09:12:50.999Z</time></trkpt><trkpt lat="43.083674549521106" lon="10.729032432444097"><ele>52.0</ele><time>2026-04-19T09:12:51.999Z</time></trkpt><trkpt lat="43.08386036994124" lon="10.729095299128995"><ele>52.0</ele><time>2026-04-19T09:12:52.999Z</time></trkpt><trkpt lat="43.08405596397424" lon="10.729139610128527"><ele>52.0</ele><time>2026-04-19T09:12:53.999Z</time></trkpt><trkpt lat="43.084259926671" lon="10.729185301929324"><ele>52.33333333333333</ele><time>2026-04-19T09:12:54.999Z</time></trkpt><trkpt lat="43.08447088862937" lon="10.729234055332634"><ele>52.66666666666667</ele><time>2026-04-19T09:12:55.999Z</time></trkpt><trkpt lat="43.08468245428706" lon="10.729282274017836"><ele>53.0</ele><time>2026-04-19T09:12:56.999Z</time></trkpt><trkpt lat="43.084898484647255" lon="10.729329686305299"><ele>53.0</ele><time>2026-04-19T09:12:57.999Z</time></trkpt><trkpt lat="43.085116085664524" lon="10.729377471520888"><ele>53.0</ele><time>2026-04-19T09:12:58.999Z</time></trkpt><trkpt lat="43.085336807533935" lon="10.729426240742852"><ele>53.0</ele><time>2026-04-19T09:12:59.999Z</time></trkpt><trkpt lat="43.08555975730476" lon="10.729474651206768"><ele>55.0</ele><time>2026-04-19T09:13:00.999Z</time></trkpt><trkpt lat="43.08578660138381" lon="10.729523304785285"><ele>57.0</ele><time>2026-04-19T09:13:01.999Z</time></trkpt><trkpt lat="43.08601530878615" lon="10.7295721508178"><ele>57.0</ele><time>2026-04-19T09:13:02.999Z</time></trkpt><trkpt lat="43.08624512363872" lon="10.729621320320984"><ele>57.0</ele><time>2026-04-19T09:13:03.999Z</time></trkpt><trkpt lat="43.08647621819766" lon="10.72966911548377"><ele>56.5</ele><time>2026-04-19T09:13:04.999Z</time></trkpt><trkpt lat="43.08670449965293" lon="10.729714577645835"><ele>56.0</ele><time>2026-04-19T09:13:05.999Z</time></trkpt><trkpt lat="43.08692951117998" lon="10.72976379335134"><ele>56.0</ele><time>2026-04-19T09:13:06.999Z</time></trkpt><trkpt lat="43.08715110957007" lon="10.729816850685587"><ele>56.0</ele><time>2026-04-19T09:13:07.999Z</time></trkpt><trkpt lat="43.087361393540725" lon="10.72986395848827"><ele>56.0</ele><time>2026-04-19T09:13:08.999Z</time></trkpt><trkpt lat="43.0875668055877" lon="10.729902532828177"><ele>56.0</ele><time>2026-04-19T09:13:09.999Z</time></trkpt><trkpt lat="43.08776918393521" lon="10.729913590045545"><ele>56.0</ele><time>2026-04-19T09:13:10.999Z</time></trkpt><trkpt lat="43.08798128855847" lon="10.729876956344139"><ele>56.0</ele><time>2026-04-19T09:13:11.999Z</time></trkpt><trkpt lat="43.08819095720841" lon="10.729812414886217"><ele>56.0</ele><time>2026-04-19T09:13:12.999Z</time></trkpt><trkpt lat="43.08840488340338" lon="10.729751030528435"><ele>56.0</ele><time>2026-04-19T09:13:13.999Z</time></trkpt><trkpt lat="43.08862545128523" lon="10.729694463262502"><ele>56.0</ele><time>2026-04-19T09:13:14.999Z</time></trkpt><trkpt lat="43.08884590467782" lon="10.729636186360457"><ele>56.0</ele><time>2026-04-19T09:13:15.999Z</time></trkpt><trkpt lat="43.08906644720494" lon="10.72957624958731"><ele>56.0</ele><time>2026-04-19T09:13:16.999Z</time></trkpt><trkpt lat="43.08928591769433" lon="10.729517133668104"><ele>56.0</ele><time>2026-04-19T09:13:17.999Z</time></trkpt><trkpt lat="43.08950520831046" lon="10.729458603864915"><ele>56.333333333333336</ele><time>2026-04-19T09:13:18.999Z</time></trkpt><trkpt lat="43.08972330661833" lon="10.729400108991044"><ele>56.66666666666667</ele><time>2026-04-19T09:13:19.999Z</time></trkpt><trkpt lat="43.08994245408036" lon="10.72934032720763"><ele>57.0</ele><time>2026-04-19T09:13:20.999Z</time></trkpt><trkpt lat="43.090162726498825" lon="10.72928100557561"><ele>57.5</ele><time>2026-04-19T09:13:21.999Z</time></trkpt><trkpt lat="43.0903849508089" lon="10.72922101054518"><ele>58.0</ele><time>2026-04-19T09:13:22.999Z</time></trkpt><trkpt lat="43.090608212933844" lon="10.72916006574306"><ele>59.0</ele><time>2026-04-19T09:13:23.999Z</time></trkpt><trkpt lat="43.09083205825098" lon="10.72910042400029"><ele>60.0</ele><time>2026-04-19T09:13:24.999Z</time></trkpt><trkpt lat="43.091057849785685" lon="10.729040922288027"><ele>60.0</ele><time>2026-04-19T09:13:25.999Z</time></trkpt><trkpt lat="43.09128319192638" lon="10.72898225737918"><ele>60.0</ele><time>2026-04-19T09:13:26.999Z</time></trkpt><trkpt lat="43.0915083625946" lon="10.72892494026428"><ele>59.5</ele><time>2026-04-19T09:13:27.999Z</time></trkpt><trkpt lat="43.09173167642894" lon="10.728863770987273"><ele>59.0</ele><time>2026-04-19T09:13:28.999Z</time></trkpt><trkpt lat="43.091952931727405" lon="10.728804172189994"><ele>59.0</ele><time>2026-04-19T09:13:29.999Z</time></trkpt><trkpt lat="43.09217314739374" lon="10.728747137400383"><ele>59.0</ele><time>2026-04-19T09:13:30.999Z</time></trkpt><trkpt lat="43.092390956155036" lon="10.728689715196415"><ele>59.0</ele><time>2026-04-19T09:13:31.999Z</time></trkpt><trkpt lat="43.09260853189822" lon="10.72863219216099"><ele>59.333333333333336</ele><time>2026-04-19T09:13:32.999Z</time></trkpt><trkpt lat="43.09282658806212" lon="10.728574449919234"><ele>59.66666666666667</ele><time>2026-04-19T09:13:33.999Z</time></trkpt><trkpt lat="43.09304436478875" lon="10.728516765139931"><ele>60.0</ele><time>2026-04-19T09:13:34.999Z</time></trkpt><trkpt lat="43.09326522385115" lon="10.728459301435771"><ele>61.5</ele><time>2026-04-19T09:13:35.999Z</time></trkpt><trkpt lat="43.09348677536619" lon="10.728400825823636"><ele>63.0</ele><time>2026-04-19T09:13:36.999Z</time></trkpt><trkpt lat="43.09370825896873" lon="10.728338851024484"><ele>63.0</ele><time>2026-04-19T09:13:37.998Z</time></trkpt><trkpt lat="43.09392979538771" lon="10.728266816949638"><ele>63.0</ele><time>2026-04-19T09:13:38.998Z</time></trkpt><trkpt lat="43.094149816454426" lon="10.728179928195921"><ele>61.5</ele><time>2026-04-19T09:13:39.998Z</time></trkpt><trkpt lat="43.094369650806186" lon="10.728083330508646"><ele>60.0</ele><time>2026-04-19T09:13:40.998Z</time></trkpt><trkpt lat="43.094589451045856" lon="10.727981753910393"><ele>60.0</ele><time>2026-04-19T09:13:41.998Z</time></trkpt><trkpt lat="43.094810520080195" lon="10.727877958836203"><ele>60.0</ele><time>2026-04-19T09:13:42.998Z</time></trkpt><trkpt lat="43.09503138028112" lon="10.727778634002847"><ele>59.0</ele><time>2026-04-19T09:13:43.998Z</time></trkpt><trkpt lat="43.0952516770214" lon="10.727680234740248"><ele>58.0</ele><time>2026-04-19T09:13:44.998Z</time></trkpt><trkpt lat="43.095468775586326" lon="10.727578365128473"><ele>58.0</ele><time>2026-04-19T09:13:45.998Z</time></trkpt><trkpt lat="43.0956856391604" lon="10.727477776767365"><ele>58.0</ele><time>2026-04-19T09:13:46.998Z</time></trkpt><trkpt lat="43.095902824328306" lon="10.727379066966686"><ele>60.0</ele><time>2026-04-19T09:13:47.998Z</time></trkpt><trkpt lat="43.09611846311678" lon="10.727281317884378"><ele>62.0</ele><time>2026-04-19T09:13:48.998Z</time></trkpt><trkpt lat="43.0963322217387" lon="10.727179465350106"><ele>62.0</ele><time>2026-04-19T09:13:49.998Z</time></trkpt><trkpt lat="43.09654786591882" lon="10.727078105067141"><ele>62.0</ele><time>2026-04-19T09:13:50.998Z</time></trkpt><trkpt lat="43.096765264629205" lon="10.726979447501218"><ele>61.0</ele><time>2026-04-19T09:13:51.998Z</time></trkpt><trkpt lat="43.09698332126488" lon="10.726879682388473"><ele>60.0</ele><time>2026-04-19T09:13:52.998Z</time></trkpt><trkpt lat="43.097200788417986" lon="10.726779721973395"><ele>60.5</ele><time>2026-04-19T09:13:53.998Z</time></trkpt><trkpt lat="43.097422382353564" lon="10.726682713392398"><ele>61.0</ele><time>2026-04-19T09:13:54.998Z</time></trkpt><trkpt lat="43.09764184621182" lon="10.72658693975472"><ele>61.0</ele><time>2026-04-19T09:13:55.998Z</time></trkpt><trkpt lat="43.09785638348099" lon="10.726489008365656"><ele>61.0</ele><time>2026-04-19T09:13:56.998Z</time></trkpt><trkpt lat="43.09806380169218" lon="10.726392681929722"><ele>61.0</ele><time>2026-04-19T09:13:57.998Z</time></trkpt><trkpt lat="43.09826147475359" lon="10.726296503990417"><ele>61.33333333333333</ele><time>2026-04-19T09:13:59Z</time></trkpt><trkpt lat="43.09845493066932" lon="10.726204823367336"><ele>61.66666666666667</ele><time>2026-04-19T09:14:00Z</time></trkpt><trkpt lat="43.09865015913314" lon="10.726125315632762"><ele>62.0</ele><time>2026-04-19T09:14:01Z</time></trkpt><trkpt lat="43.09885043611161" lon="10.726057362596995"><ele>62.0</ele><time>2026-04-19T09:14:02Z</time></trkpt><trkpt lat="43.09905854031584" lon="10.7260121466967"><ele>62.0</ele><time>2026-04-19T09:14:03Z</time></trkpt><trkpt lat="43.09927294564137" lon="10.726004718040512"><ele>62.0</ele><time>2026-04-19T09:14:04Z</time></trkpt><trkpt lat="43.09949020553864" lon="10.726025100014173"><ele>66.33333333333334</ele><time>2026-04-19T09:14:05Z</time></trkpt><trkpt lat="43.099709920698494" lon="10.726065472304187"><ele>70.66666666666667</ele><time>2026-04-19T09:14:06Z</time></trkpt><trkpt lat="43.099931244102514" lon="10.7260935865319"><ele>75.0</ele><time>2026-04-19T09:14:07Z</time></trkpt><trkpt lat="43.10015778661916" lon="10.726129657721277"><ele>75.33333333333333</ele><time>2026-04-19T09:14:08Z</time></trkpt><trkpt lat="43.100359286547146" lon="10.72606554693651"><ele>75.66666666666666</ele><time>2026-04-19T09:14:09Z</time></trkpt><trkpt lat="43.100577213605554" lon="10.726048041213145"><ele>76.0</ele><time>2026-04-19T09:14:10Z</time></trkpt><trkpt lat="43.10080106335711" lon="10.72603171651759"><ele>71.5</ele><time>2026-04-19T09:14:11Z</time></trkpt><trkpt lat="43.10102840319434" lon="10.726022004916148"><ele>67.0</ele><time>2026-04-19T09:14:12Z</time></trkpt><trkpt lat="43.10125992712459" lon="10.726012621602422"><ele>67.0</ele><time>2026-04-19T09:14:13Z</time></trkpt><trkpt lat="43.10149257181301" lon="10.726003648202964"><ele>67.0</ele><time>2026-04-19T09:14:14Z</time></trkpt><trkpt lat="43.10172360619099" lon="10.725992755917165"><ele>66.5</ele><time>2026-04-19T09:14:15Z</time></trkpt><trkpt lat="43.101954125000965" lon="10.725983214381046"><ele>66.0</ele><time>2026-04-19T09:14:16Z</time></trkpt><trkpt lat="43.102181361891894" lon="10.725973544578144"><ele>66.0</ele><time>2026-04-19T09:14:17Z</time></trkpt><trkpt lat="43.10240621066541" lon="10.725963336489144"><ele>66.0</ele><time>2026-04-19T09:14:18Z</time></trkpt><trkpt lat="43.10262617979312" lon="10.725955386494539"><ele>66.0</ele><time>2026-04-19T09:14:19Z</time></trkpt><trkpt lat="43.10284103207472" lon="10.725944413660086"><ele>66.33333333333333</ele><time>2026-04-19T09:14:20Z</time></trkpt><trkpt lat="43.103051315055964" lon="10.72592942449576"><ele>66.66666666666666</ele><time>2026-04-19T09:14:21Z</time></trkpt><trkpt lat="43.103259268646646" lon="10.72591645999649"><ele>67.0</ele><time>2026-04-19T09:14:22Z</time></trkpt><trkpt lat="43.10346654271667" lon="10.72591167819801"><ele>67.33333333333333</ele><time>2026-04-19T09:14:23Z</time></trkpt><trkpt lat="43.10367683089891" lon="10.72592112176049"><ele>67.66666666666667</ele><time>2026-04-19T09:14:24Z</time></trkpt><trkpt lat="43.103886286125466" lon="10.725953045025593"><ele>68.0</ele><time>2026-04-19T09:14:25Z</time></trkpt><trkpt lat="43.10409618488581" lon="10.725998461447011"><ele>67.0</ele><time>2026-04-19T09:14:26Z</time></trkpt><trkpt lat="43.104308510022705" lon="10.726050193494656"><ele>66.0</ele><time>2026-04-19T09:14:27Z</time></trkpt><trkpt lat="43.1045231807927" lon="10.726096136125843"><ele>65.0</ele><time>2026-04-19T09:14:28Z</time></trkpt><trkpt lat="43.104740971813726" lon="10.726140204424391"><ele>67.0</ele><time>2026-04-19T09:14:29Z</time></trkpt><trkpt lat="43.104961119129875" lon="10.72618801241975"><ele>69.0</ele><time>2026-04-19T09:14:30Z</time></trkpt><trkpt lat="43.10518429772811" lon="10.726237622099998"><ele>71.0</ele><time>2026-04-19T09:14:31Z</time></trkpt><trkpt lat="43.10540630199321" lon="10.726288298217616"><ele>71.0</ele><time>2026-04-19T09:14:32Z</time></trkpt><trkpt lat="43.10563100149003" lon="10.726340917836552"><ele>71.0</ele><time>2026-04-19T09:14:33Z</time></trkpt><trkpt lat="43.10585749987068" lon="10.7263936256958"><ele>71.0</ele><time>2026-04-19T09:14:34Z</time></trkpt><trkpt lat="43.10608389236627" lon="10.72644071754122"><ele>71.0</ele><time>2026-04-19T09:14:35Z</time></trkpt><trkpt lat="43.106309102057104" lon="10.726489363335963"><ele>71.0</ele><time>2026-04-19T09:14:36Z</time></trkpt><trkpt lat="43.10653351133062" lon="10.726547829789123"><ele>71.0</ele><time>2026-04-19T09:14:37Z</time></trkpt><trkpt lat="43.10675793807303" lon="10.726614670782684"><ele>71.5</ele><time>2026-04-19T09:14:38Z</time></trkpt><trkpt lat="43.106983513969034" lon="10.726679406713236"><ele>72.0</ele><time>2026-04-19T09:14:39Z</time></trkpt><trkpt lat="43.10720682142481" lon="10.726743042979813"><ele>71.66666666666667</ele><time>2026-04-19T09:14:40Z</time></trkpt><trkpt lat="43.10742902815911" lon="10.72680874295834"><ele>71.33333333333334</ele><time>2026-04-19T09:14:41Z</time></trkpt><trkpt lat="43.10764606488778" lon="10.726870196180318"><ele>71.0</ele><time>2026-04-19T09:14:42Z</time></trkpt><trkpt lat="43.1078566277106" lon="10.726931236842702"><ele>72.33333333333334</ele><time>2026-04-19T09:14:43Z</time></trkpt><trkpt lat="43.10805799878045" lon="10.727000692721303"><ele>73.66666666666667</ele><time>2026-04-19T09:14:44Z</time></trkpt><trkpt lat="43.108251652842476" lon="10.727077357973663"><ele>75.0</ele><time>2026-04-19T09:14:45Z</time></trkpt><trkpt lat="43.108440697508875" lon="10.727163869988859"><ele>75.33333333333333</ele><time>2026-04-19T09:14:46Z</time></trkpt><trkpt lat="43.10862366167728" lon="10.72726263339524"><ele>75.66666666666666</ele><time>2026-04-19T09:14:47Z</time></trkpt><trkpt lat="43.10879824163032" lon="10.727376701508158"><ele>76.0</ele><time>2026-04-19T09:14:48Z</time></trkpt><trkpt lat="43.10896001451464" lon="10.727510792933654"><ele>75.0</ele><time>2026-04-19T09:14:49Z</time></trkpt><trkpt lat="43.10911207882703" lon="10.727668653131488"><ele>74.0</ele><time>2026-04-19T09:14:50Z</time></trkpt><trkpt lat="43.109263419509524" lon="10.727824954229483"><ele>73.0</ele><time>2026-04-19T09:14:51Z</time></trkpt><trkpt lat="43.10941813458982" lon="10.727978225630888"><ele>77.0</ele><time>2026-04-19T09:14:52Z</time></trkpt><trkpt lat="43.10957235799646" lon="10.72812356616035"><ele>81.0</ele><time>2026-04-19T09:14:53Z</time></trkpt><trkpt lat="43.10972844506096" lon="10.728269882340445"><ele>85.0</ele><time>2026-04-19T09:14:53.999Z</time></trkpt><trkpt lat="43.1098845477718" lon="10.728411148802945"><ele>82.33333333333333</ele><time>2026-04-19T09:14:54.999Z</time></trkpt><trkpt lat="43.1100414720654" lon="10.728558293279303"><ele>79.66666666666667</ele><time>2026-04-19T09:14:55.999Z</time></trkpt><trkpt lat="43.110197583229386" lon="10.728702727836644"><ele>77.0</ele><time>2026-04-19T09:14:56.999Z</time></trkpt><trkpt lat="43.110355939594456" lon="10.72884492690213"><ele>79.0</ele><time>2026-04-19T09:14:57.999Z</time></trkpt><trkpt lat="43.11052018017907" lon="10.728979439720684"><ele>81.0</ele><time>2026-04-19T09:14:58.999Z</time></trkpt><trkpt lat="43.11069146096207" lon="10.729095791116055"><ele>83.0</ele><time>2026-04-19T09:14:59.999Z</time></trkpt><trkpt lat="43.11087500771212" lon="10.72918348503357"><ele>83.0</ele><time>2026-04-19T09:15:00.999Z</time></trkpt><trkpt lat="43.11106193151944" lon="10.729249911623027"><ele>83.0</ele><time>2026-04-19T09:15:01.999Z</time></trkpt><trkpt lat="43.1112449652017" lon="10.729329137954677"><ele>83.0</ele><time>2026-04-19T09:15:02.999Z</time></trkpt><trkpt lat="43.111413841103825" lon="10.729445537390308"><ele>84.0</ele><time>2026-04-19T09:15:03.999Z</time></trkpt><trkpt lat="43.11156849396308" lon="10.729583586162898"><ele>85.0</ele><time>2026-04-19T09:15:04.999Z</time></trkpt><trkpt lat="43.111719245331756" lon="10.72974941151904"><ele>86.0</ele><time>2026-04-19T09:15:05.999Z</time></trkpt><trkpt lat="43.111853734752394" lon="10.729904923491706"><ele>86.0</ele><time>2026-04-19T09:15:06.999Z</time></trkpt><trkpt lat="43.11197941050685" lon="10.730027043581783"><ele>86.0</ele><time>2026-04-19T09:15:07.999Z</time></trkpt><trkpt lat="43.11210408140389" lon="10.730162576048718"><ele>86.0</ele><time>2026-04-19T09:15:08.999Z</time></trkpt><trkpt lat="43.112217982572005" lon="10.730309311428773"><ele>85.0</ele><time>2026-04-19T09:15:09.999Z</time></trkpt><trkpt lat="43.112312642842646" lon="10.730495490644362"><ele>84.0</ele><time>2026-04-19T09:15:10.999Z</time></trkpt><trkpt lat="43.11238462226539" lon="10.730742361827495"><ele>83.0</ele><time>2026-04-19T09:15:11.999Z</time></trkpt><trkpt lat="43.11247336421166" lon="10.730966670466799"><ele>85.66666666666667</ele><time>2026-04-19T09:15:12.999Z</time></trkpt><trkpt lat="43.11258529739415" lon="10.731160628703881"><ele>88.33333333333333</ele><time>2026-04-19T09:15:13.999Z</time></trkpt><trkpt lat="43.112709475867746" lon="10.731352909776797"><ele>91.0</ele><time>2026-04-19T09:15:14.999Z</time></trkpt><trkpt lat="43.11284020573298" lon="10.731551120779594"><ele>91.0</ele><time>2026-04-19T09:15:15.999Z</time></trkpt><trkpt lat="43.112970921799096" lon="10.731756768039215"><ele>91.0</ele><time>2026-04-19T09:15:16.999Z</time></trkpt><trkpt lat="43.1130977829997" lon="10.731962682095178"><ele>91.0</ele><time>2026-04-19T09:15:17.999Z</time></trkpt><trkpt lat="43.113220371541665" lon="10.732177298820606"><ele>90.33333333333333</ele><time>2026-04-19T09:15:18.999Z</time></trkpt><trkpt lat="43.113337037156015" lon="10.732393376455438"><ele>89.66666666666667</ele><time>2026-04-19T09:15:19.999Z</time></trkpt><trkpt lat="43.11344909931271" lon="10.73262943535852"><ele>89.0</ele><time>2026-04-19T09:15:20.999Z</time></trkpt><trkpt lat="43.113557132377494" lon="10.732872598943672"><ele>89.0</ele><time>2026-04-19T09:15:21.999Z</time></trkpt><trkpt lat="43.1136624603979" lon="10.733123621555318"><ele>89.0</ele><time>2026-04-19T09:15:22.999Z</time></trkpt><trkpt lat="43.11376992547507" lon="10.733374425811784"><ele>89.0</ele><time>2026-04-19T09:15:23.999Z</time></trkpt><trkpt lat="43.11387974169075" lon="10.733629162139701"><ele>86.66666666666667</ele><time>2026-04-19T09:15:24.999Z</time></trkpt><trkpt lat="43.11399329101552" lon="10.733887269478998"><ele>84.33333333333333</ele><time>2026-04-19T09:15:25.999Z</time></trkpt><trkpt lat="43.114109882287416" lon="10.73414604046478"><ele>82.0</ele><time>2026-04-19T09:15:26.999Z</time></trkpt><trkpt lat="43.11422800212294" lon="10.734402459378527"><ele>82.0</ele><time>2026-04-19T09:15:27.999Z</time></trkpt><trkpt lat="43.11434368790045" lon="10.734663233164344"><ele>82.0</ele><time>2026-04-19T09:15:28.999Z</time></trkpt><trkpt lat="43.1144587037666" lon="10.734924453393846"><ele>82.0</ele><time>2026-04-19T09:15:29.999Z</time></trkpt><trkpt lat="43.11457100413882" lon="10.735186008564774"><ele>81.0</ele><time>2026-04-19T09:15:30.999Z</time></trkpt><trkpt lat="43.11468538767079" lon="10.735446454118739"><ele>80.0</ele><time>2026-04-19T09:15:31.999Z</time></trkpt><trkpt lat="43.11480152377888" lon="10.73570794173714"><ele>79.0</ele><time>2026-04-19T09:15:32.999Z</time></trkpt><trkpt lat="43.11491631210669" lon="10.735967624569877"><ele>80.0</ele><time>2026-04-19T09:15:33.999Z</time></trkpt><trkpt lat="43.1150312619837" lon="10.736228014072358"><ele>81.0</ele><time>2026-04-19T09:15:34.999Z</time></trkpt><trkpt lat="43.11514675796867" lon="10.736488615740246"><ele>82.0</ele><time>2026-04-19T09:15:35.999Z</time></trkpt><trkpt lat="43.11526251132083" lon="10.736748900700652"><ele>82.33333333333333</ele><time>2026-04-19T09:15:36.999Z</time></trkpt><trkpt lat="43.11537829095229" lon="10.737009896598538"><ele>82.66666666666667</ele><time>2026-04-19T09:15:37.999Z</time></trkpt><trkpt lat="43.115500614059" lon="10.737259067052834"><ele>83.0</ele><time>2026-04-19T09:15:38.999Z</time></trkpt><trkpt lat="43.11564172726687" lon="10.73749117989324"><ele>83.0</ele><time>2026-04-19T09:15:39.999Z</time></trkpt><trkpt lat="43.115805283203386" lon="10.737698991276082"><ele>83.0</ele><time>2026-04-19T09:15:40.999Z</time></trkpt><trkpt lat="43.11598586645235" lon="10.73788270907459"><ele>83.0</ele><time>2026-04-19T09:15:41.999Z</time></trkpt><trkpt lat="43.11617512092039" lon="10.738056060679549"><ele>83.0</ele><time>2026-04-19T09:15:42.999Z</time></trkpt><trkpt lat="43.116365544388074" lon="10.738229158658905"><ele>83.0</ele><time>2026-04-19T09:15:43.999Z</time></trkpt><trkpt lat="43.11655429221193" lon="10.738409016050529"><ele>84.5</ele><time>2026-04-19T09:15:44.999Z</time></trkpt><trkpt lat="43.1167402644078" lon="10.738592907540168"><ele>86.0</ele><time>2026-04-19T09:15:45.999Z</time></trkpt><trkpt lat="43.11692985992135" lon="10.738770652309194"><ele>86.0</ele><time>2026-04-19T09:15:46.999Z</time></trkpt><trkpt lat="43.11712084931146" lon="10.738949369515021"><ele>86.0</ele><time>2026-04-19T09:15:47.999Z</time></trkpt><trkpt lat="43.117310127624656" lon="10.739122034870277"><ele>86.0</ele><time>2026-04-19T09:15:48.999Z</time></trkpt><trkpt lat="43.11749583890969" lon="10.739293355945906"><ele>86.0</ele><time>2026-04-19T09:15:49.999Z</time></trkpt><trkpt lat="43.11767042588258" lon="10.739457557154152"><ele>86.0</ele><time>2026-04-19T09:15:50.998Z</time></trkpt><trkpt lat="43.11783852919528" lon="10.739616361598925"><ele>86.0</ele><time>2026-04-19T09:15:51.998Z</time></trkpt><trkpt lat="43.11800231853845" lon="10.739771864399648"><ele>86.0</ele><time>2026-04-19T09:15:52.998Z</time></trkpt><trkpt lat="43.11816573545264" lon="10.739924166347347"><ele>86.0</ele><time>2026-04-19T09:15:53.998Z</time></trkpt><trkpt lat="43.11832676821526" lon="10.740079000278513"><ele>88.66666666666667</ele><time>2026-04-19T09:15:54.998Z</time></trkpt><trkpt lat="43.11848640004902" lon="10.740239664677622"><ele>91.33333333333333</ele><time>2026-04-19T09:15:55.998Z</time></trkpt><trkpt lat="43.11864869335547" lon="10.74039621538042"><ele>94.0</ele><time>2026-04-19T09:15:56.998Z</time></trkpt><trkpt lat="43.11881320185049" lon="10.74054834768984"><ele>94.0</ele><time>2026-04-19T09:15:57.998Z</time></trkpt><trkpt lat="43.11897739156447" lon="10.740701500404029"><ele>94.0</ele><time>2026-04-19T09:15:58.998Z</time></trkpt><trkpt lat="43.119140022602956" lon="10.740853581939069"><ele>94.0</ele><time>2026-04-19T09:15:59.998Z</time></trkpt><trkpt lat="43.11930278930868" lon="10.741004439401811"><ele>96.33333333333333</ele><time>2026-04-19T09:16:00.998Z</time></trkpt><trkpt lat="43.11946267351611" lon="10.74115616795565"><ele>98.66666666666666</ele><time>2026-04-19T09:16:01.998Z</time></trkpt><trkpt lat="43.11961664870612" lon="10.741304136556883"><ele>101.0</ele><time>2026-04-19T09:16:02.998Z</time></trkpt><trkpt lat="43.1197716490034" lon="10.74145191934783"><ele>102.0</ele><time>2026-04-19T09:16:03.998Z</time></trkpt><trkpt lat="43.11992676446362" lon="10.741600689366301"><ele>103.0</ele><time>2026-04-19T09:16:05Z</time></trkpt><trkpt lat="43.120080907249566" lon="10.741753283025222"><ele>104.0</ele><time>2026-04-19T09:16:06Z</time></trkpt><trkpt lat="43.12023757224727" lon="10.741900857730382"><ele>104.0</ele><time>2026-04-19T09:16:07Z</time></trkpt><trkpt lat="43.120402657131926" lon="10.742035140297547"><ele>104.0</ele><time>2026-04-19T09:16:08Z</time></trkpt><trkpt lat="43.12057597598476" lon="10.742143339805887"><ele>104.0</ele><time>2026-04-19T09:16:09Z</time></trkpt><trkpt lat="43.12075586586148" lon="10.742232843683828"><ele>102.33333333333333</ele><time>2026-04-19T09:16:10Z</time></trkpt><trkpt lat="43.12093576886772" lon="10.742317633110604"><ele>100.66666666666666</ele><time>2026-04-19T09:16:11Z</time></trkpt><trkpt lat="43.12110542986843" lon="10.742402747144828"><ele>99.0</ele><time>2026-04-19T09:16:12Z</time></trkpt><trkpt lat="43.12125926009618" lon="10.742497885295272"><ele>99.0</ele><time>2026-04-19T09:16:13Z</time></trkpt><trkpt lat="43.12138983255819" lon="10.742616630196196"><ele>99.0</ele><time>2026-04-19T09:16:14Z</time></trkpt><trkpt lat="43.12149087691414" lon="10.742772851909944"><ele>99.0</ele><time>2026-04-19T09:16:15Z</time></trkpt><trkpt lat="43.121557896451364" lon="10.74296244481517"><ele>97.66666666666667</ele><time>2026-04-19T09:16:16Z</time></trkpt><trkpt lat="43.12157758247591" lon="10.74316344423763"><ele>96.33333333333334</ele><time>2026-04-19T09:16:17Z</time></trkpt><trkpt lat="43.121551665213346" lon="10.743371270356818"><ele>95.0</ele><time>2026-04-19T09:16:18Z</time></trkpt><trkpt lat="43.12151476069524" lon="10.743590209725332"><ele>100.66666666666667</ele><time>2026-04-19T09:16:19Z</time></trkpt><trkpt lat="43.12147714233191" lon="10.743819938707361"><ele>106.33333333333334</ele><time>2026-04-19T09:16:20Z</time></trkpt><trkpt lat="43.12143979794746" lon="10.744055859906991"><ele>112.0</ele><time>2026-04-19T09:16:21Z</time></trkpt><trkpt lat="43.12139211947059" lon="10.744293148163218"><ele>111.66666666666667</ele><time>2026-04-19T09:16:22Z</time></trkpt><trkpt lat="43.12131193813778" lon="10.744523092767164"><ele>111.33333333333334</ele><time>2026-04-19T09:16:23Z</time></trkpt><trkpt lat="43.121245524379404" lon="10.744766866396452"><ele>111.0</ele><time>2026-04-19T09:16:24Z</time></trkpt><trkpt lat="43.12117802566209" lon="10.745017885677862"><ele>110.0</ele><time>2026-04-19T09:16:25Z</time></trkpt><trkpt lat="43.12110986680851" lon="10.74527135454736"><ele>109.0</ele><time>2026-04-19T09:16:26Z</time></trkpt><trkpt lat="43.121040488510864" lon="10.745529606648066"><ele>108.0</ele><time>2026-04-19T09:16:27Z</time></trkpt><trkpt lat="43.120974954125735" lon="10.745779684105505"><ele>108.0</ele><time>2026-04-19T09:16:28Z</time></trkpt><trkpt lat="43.12092073269085" lon="10.746043404489448"><ele>108.0</ele><time>2026-04-19T09:16:29Z</time></trkpt><trkpt lat="43.120851935149325" lon="10.746302561458046"><ele>108.0</ele><time>2026-04-19T09:16:30Z</time></trkpt><trkpt lat="43.12077996325162" lon="10.746568112616009"><ele>114.66666666666666</ele><time>2026-04-19T09:16:31Z</time></trkpt><trkpt lat="43.120716632385864" lon="10.74682910232872"><ele>121.33333333333333</ele><time>2026-04-19T09:16:32Z</time></trkpt><trkpt lat="43.12064737630663" lon="10.747096716474779"><ele>128.0</ele><time>2026-04-19T09:16:33Z</time></trkpt><trkpt lat="43.120577529615815" lon="10.74736326892118"><ele>128.33333333333331</ele><time>2026-04-19T09:16:34Z</time></trkpt><trkpt lat="43.12050725118666" lon="10.747628392782108"><ele>128.66666666666666</ele><time>2026-04-19T09:16:35Z</time></trkpt><trkpt lat="43.12043706279495" lon="10.747888241818806"><ele>129.0</ele><time>2026-04-19T09:16:36Z</time></trkpt><trkpt lat="43.12036668664879" lon="10.748151088930593"><ele>130.66666666666666</ele><time>2026-04-19T09:16:37Z</time></trkpt><trkpt lat="43.12029487567299" lon="10.748407250101323"><ele>132.33333333333331</ele><time>2026-04-19T09:16:38Z</time></trkpt><trkpt lat="43.12023425070728" lon="10.748666662030317"><ele>134.0</ele><time>2026-04-19T09:16:39Z</time></trkpt><trkpt lat="43.12016995912889" lon="10.748925199572883"><ele>134.0</ele><time>2026-04-19T09:16:40Z</time></trkpt><trkpt lat="43.12014183826442" lon="10.749210744907892"><ele>134.0</ele><time>2026-04-19T09:16:41Z</time></trkpt><trkpt lat="43.1201047405217" lon="10.749486481034442"><ele>134.0</ele><time>2026-04-19T09:16:42Z</time></trkpt><trkpt lat="43.12007113791592" lon="10.749763980916551"><ele>132.66666666666666</ele><time>2026-04-19T09:16:43Z</time></trkpt><trkpt lat="43.12004043221938" lon="10.750047573348706"><ele>131.33333333333334</ele><time>2026-04-19T09:16:44Z</time></trkpt><trkpt lat="43.1200175618812" lon="10.750338212539793"><ele>130.0</ele><time>2026-04-19T09:16:45Z</time></trkpt><trkpt lat="43.1200006305209" lon="10.750631362261975"><ele>129.66666666666669</ele><time>2026-04-19T09:16:46Z</time></trkpt><trkpt lat="43.119989373798894" lon="10.750925588974495"><ele>129.33333333333334</ele><time>2026-04-19T09:16:47Z</time></trkpt><trkpt lat="43.11998450295897" lon="10.751225775138234"><ele>129.0</ele><time>2026-04-19T09:16:48Z</time></trkpt><trkpt lat="43.11998507134923" lon="10.751528188176996"><ele>128.66666666666666</ele><time>2026-04-19T09:16:49Z</time></trkpt><trkpt lat="43.11999275767764" lon="10.751831583098237"><ele>128.33333333333331</ele><time>2026-04-19T09:16:50Z</time></trkpt><trkpt lat="43.120007628655195" lon="10.75213442364461"><ele>128.0</ele><time>2026-04-19T09:16:51Z</time></trkpt><trkpt lat="43.120027616304306" lon="10.75243549801913"><ele>130.33333333333331</ele><time>2026-04-19T09:16:52Z</time></trkpt><trkpt lat="43.12005613680309" lon="10.752735533085728"><ele>132.66666666666666</ele><time>2026-04-19T09:16:53Z</time></trkpt><trkpt lat="43.120091162766585" lon="10.753031888583491"><ele>135.0</ele><time>2026-04-19T09:16:54Z</time></trkpt><trkpt lat="43.120130711215644" lon="10.753328127300577"><ele>135.66666666666666</ele><time>2026-04-19T09:16:55Z</time></trkpt><trkpt lat="43.12018234167169" lon="10.753622921351026"><ele>136.33333333333331</ele><time>2026-04-19T09:16:56Z</time></trkpt><trkpt lat="43.12024048294247" lon="10.753912075418596"><ele>137.0</ele><time>2026-04-19T09:16:57Z</time></trkpt><trkpt lat="43.12030014837252" lon="10.754201467323556"><ele>138.66666666666666</ele><time>2026-04-19T09:16:58Z</time></trkpt><trkpt lat="43.12036769979187" lon="10.754490734286437"><ele>140.33333333333334</ele><time>2026-04-19T09:16:59Z</time></trkpt><trkpt lat="43.12044587773183" lon="10.754781892881986"><ele>142.0</ele><time>2026-04-19T09:17:00Z</time></trkpt><trkpt lat="43.12052818726765" lon="10.755068556669972"><ele>146.5</ele><time>2026-04-19T09:17:01Z</time></trkpt><trkpt lat="43.12064463890146" lon="10.75535336009438"><ele>151.0</ele><time>2026-04-19T09:17:02Z</time></trkpt><trkpt lat="43.12077398308954" lon="10.755619550915137"><ele>151.0</ele><time>2026-04-19T09:17:02.999Z</time></trkpt><trkpt lat="43.12091081165524" lon="10.755870023444007"><ele>151.0</ele><time>2026-04-19T09:17:03.999Z</time></trkpt><trkpt lat="43.121058682630014" lon="10.756115936477697"><ele>156.5</ele><time>2026-04-19T09:17:04.999Z</time></trkpt><trkpt lat="43.12121570566632" lon="10.756350175549143"><ele>162.0</ele><time>2026-04-19T09:17:05.999Z</time></trkpt><trkpt lat="43.12138431721346" lon="10.756575955333075"><ele>162.0</ele><time>2026-04-19T09:17:06.999Z</time></trkpt><trkpt lat="43.12156411501878" lon="10.756781492265747"><ele>162.0</ele><time>2026-04-19T09:17:07.999Z</time></trkpt><trkpt lat="43.12175989616746" lon="10.756974536158038"><ele>159.0</ele><time>2026-04-19T09:17:08.999Z</time></trkpt><trkpt lat="43.12196302005207" lon="10.757133518641831"><ele>156.0</ele><time>2026-04-19T09:17:09.999Z</time></trkpt><trkpt lat="43.12217617308118" lon="10.757278061480367"><ele>156.0</ele><time>2026-04-19T09:17:10.999Z</time></trkpt><trkpt lat="43.122391569832715" lon="10.757415026495831"><ele>156.0</ele><time>2026-04-19T09:17:11.999Z</time></trkpt><trkpt lat="43.12260693583378" lon="10.757550551799289"><ele>152.5</ele><time>2026-04-19T09:17:12.999Z</time></trkpt><trkpt lat="43.122823158818505" lon="10.757679861504275"><ele>149.0</ele><time>2026-04-19T09:17:13.999Z</time></trkpt><trkpt lat="43.12304423356884" lon="10.757814762900463"><ele>141.0</ele><time>2026-04-19T09:17:14.999Z</time></trkpt><trkpt lat="43.12325878979698" lon="10.757960423035257"><ele>133.0</ele><time>2026-04-19T09:17:15.999Z</time></trkpt><trkpt lat="43.12346389769899" lon="10.758127932359283"><ele>133.0</ele><time>2026-04-19T09:17:16.999Z</time></trkpt><trkpt lat="43.12365243056737" lon="10.758324069518746"><ele>133.0</ele><time>2026-04-19T09:17:17.999Z</time></trkpt><trkpt lat="43.12380407504055" lon="10.75855929605185"><ele>136.5</ele><time>2026-04-19T09:17:18.999Z</time></trkpt><trkpt lat="43.12396854044714" lon="10.758828419295979"><ele>140.0</ele><time>2026-04-19T09:17:19.999Z</time></trkpt><trkpt lat="43.12410606211541" lon="10.759069148736694"><ele>133.0</ele><time>2026-04-19T09:17:20.999Z</time></trkpt><trkpt lat="43.12419944714099" lon="10.759360698121597"><ele>126.0</ele><time>2026-04-19T09:17:21.999Z</time></trkpt><trkpt lat="43.124288891559196" lon="10.75966472695493"><ele>126.0</ele><time>2026-04-19T09:17:22.999Z</time></trkpt><trkpt lat="43.12435810435973" lon="10.759976469659824"><ele>126.0</ele><time>2026-04-19T09:17:23.999Z</time></trkpt><trkpt lat="43.12440052220839" lon="10.760307147970444"><ele>124.0</ele><time>2026-04-19T09:17:24.999Z</time></trkpt><trkpt lat="43.12441987209226" lon="10.760654279347643"><ele>122.0</ele><time>2026-04-19T09:17:25.999Z</time></trkpt><trkpt lat="43.124409476173824" lon="10.760994867333158"><ele>119.5</ele><time>2026-04-19T09:17:26.999Z</time></trkpt><trkpt lat="43.12437636397873" lon="10.761328947601594"><ele>117.0</ele><time>2026-04-19T09:17:27.999Z</time></trkpt><trkpt lat="43.12431373995624" lon="10.761654442327384"><ele>113.0</ele><time>2026-04-19T09:17:28.999Z</time></trkpt><trkpt lat="43.12422791616655" lon="10.76197155358729"><ele>109.0</ele><time>2026-04-19T09:17:29.999Z</time></trkpt><trkpt lat="43.12411577358015" lon="10.762272692018195"><ele>112.0</ele><time>2026-04-19T09:17:30.999Z</time></trkpt><trkpt lat="43.123984170498254" lon="10.762561090251223"><ele>115.0</ele><time>2026-04-19T09:17:31.999Z</time></trkpt><trkpt lat="43.123849757033355" lon="10.762854035843676"><ele>115.0</ele><time>2026-04-19T09:17:32.999Z</time></trkpt><trkpt lat="43.12368885356452" lon="10.763123934310583"><ele>115.0</ele><time>2026-04-19T09:17:33.999Z</time></trkpt><trkpt lat="43.123526007863134" lon="10.76339021552102"><ele>114.5</ele><time>2026-04-19T09:17:34.999Z</time></trkpt><trkpt lat="43.123356220176035" lon="10.763655718207364"><ele>114.0</ele><time>2026-04-19T09:17:35.999Z</time></trkpt><trkpt lat="43.12318726829916" lon="10.763914022333323"><ele>114.0</ele><time>2026-04-19T09:17:36.999Z</time></trkpt><trkpt lat="43.12301814714759" lon="10.764166165487785"><ele>114.0</ele><time>2026-04-19T09:17:37.999Z</time></trkpt><trkpt lat="43.122832942615666" lon="10.764374612081188"><ele>108.5</ele><time>2026-04-19T09:17:38.999Z</time></trkpt><trkpt lat="43.1226536017084" lon="10.764578626896148"><ele>103.0</ele><time>2026-04-19T09:17:39.999Z</time></trkpt><trkpt lat="43.12248824965045" lon="10.764775190108148"><ele>102.66666666666667</ele><time>2026-04-19T09:17:40.999Z</time></trkpt><trkpt lat="43.12233491329035" lon="10.764977270655375"><ele>102.33333333333334</ele><time>2026-04-19T09:17:41.999Z</time></trkpt><trkpt lat="43.122187522361195" lon="10.765166960876217"><ele>102.0</ele><time>2026-04-19T09:17:42.999Z</time></trkpt><trkpt lat="43.12205712372778" lon="10.765370405724621"><ele>102.0</ele><time>2026-04-19T09:17:43.999Z</time></trkpt><trkpt lat="43.121976255948226" lon="10.765585543660434"><ele>102.0</ele><time>2026-04-19T09:17:44.999Z</time></trkpt><trkpt lat="43.121911503304304" lon="10.765799433932653"><ele>102.0</ele><time>2026-04-19T09:17:45.999Z</time></trkpt><trkpt lat="43.12193038142199" lon="10.765997123722421"><ele>101.0</ele><time>2026-04-19T09:17:46.999Z</time></trkpt><trkpt lat="43.121905171913504" lon="10.766164200045074"><ele>100.0</ele><time>2026-04-19T09:17:47.999Z</time></trkpt><trkpt lat="43.12188985180499" lon="10.766304538487075"><ele>99.0</ele><time>2026-04-19T09:17:48.999Z</time></trkpt><trkpt lat="43.12222183578465" lon="10.766524864972897"><ele>99.0</ele><time>2026-04-19T09:17:49.999Z</time></trkpt><trkpt lat="43.12237695527661" lon="10.766643229960604"><ele>99.0</ele><time>2026-04-19T09:17:50.999Z</time></trkpt><trkpt lat="43.1225311475869" lon="10.766790358026874"><ele>99.0</ele><time>2026-04-19T09:17:51.999Z</time></trkpt><trkpt lat="43.12269790873362" lon="10.766970994591336"><ele>98.0</ele><time>2026-04-19T09:17:52.999Z</time></trkpt><trkpt lat="43.12286722644449" lon="10.767132974355036"><ele>97.0</ele><time>2026-04-19T09:17:53.999Z</time></trkpt><trkpt lat="43.123041244494" lon="10.767296865587063"><ele>96.0</ele><time>2026-04-19T09:17:54.999Z</time></trkpt><trkpt lat="43.12321480106111" lon="10.76746372805342"><ele>96.33333333333334</ele><time>2026-04-19T09:17:55.999Z</time></trkpt><trkpt lat="43.12339198927282" lon="10.76763593210251"><ele>96.66666666666667</ele><time>2026-04-19T09:17:56.999Z</time></trkpt><trkpt lat="43.12357367944875" lon="10.767804917670109"><ele>97.0</ele><time>2026-04-19T09:17:57.999Z</time></trkpt><trkpt lat="43.123757691660984" lon="10.76797459494844"><ele>97.66666666666667</ele><time>2026-04-19T09:17:58.999Z</time></trkpt><trkpt lat="43.123943431741054" lon="10.76814128084493"><ele>98.33333333333334</ele><time>2026-04-19T09:17:59.999Z</time></trkpt><trkpt lat="43.1241300089279" lon="10.768306779806347"><ele>99.0</ele><time>2026-04-19T09:18:00.998Z</time></trkpt><trkpt lat="43.12431456916225" lon="10.768476052550527"><ele>99.33333333333334</ele><time>2026-04-19T09:18:01.998Z</time></trkpt><trkpt lat="43.12449694762347" lon="10.768645847960745"><ele>99.66666666666667</ele><time>2026-04-19T09:18:02.998Z</time></trkpt><trkpt lat="43.12467924552499" lon="10.768816880601557"><ele>100.0</ele><time>2026-04-19T09:18:03.998Z</time></trkpt><trkpt lat="43.124863220600794" lon="10.76898216726116"><ele>101.0</ele><time>2026-04-19T09:18:04.998Z</time></trkpt><trkpt lat="43.12504415640719" lon="10.76914524116287"><ele>102.0</ele><time>2026-04-19T09:18:05.998Z</time></trkpt><trkpt lat="43.125225248469306" lon="10.76930758478752"><ele>103.0</ele><time>2026-04-19T09:18:06.998Z</time></trkpt><trkpt lat="43.12540585382416" lon="10.769472159794121"><ele>103.0</ele><time>2026-04-19T09:18:07.998Z</time></trkpt><trkpt lat="43.125586415755244" lon="10.769635598743506"><ele>103.0</ele><time>2026-04-19T09:18:08.998Z</time></trkpt><trkpt lat="43.12576837744941" lon="10.769800986305707"><ele>103.0</ele><time>2026-04-19T09:18:09.998Z</time></trkpt><trkpt lat="43.125953215494995" lon="10.769964641366656"><ele>104.0</ele><time>2026-04-19T09:18:11Z</time></trkpt><trkpt lat="43.126139030757095" lon="10.770124757896562"><ele>105.0</ele><time>2026-04-19T09:18:12Z</time></trkpt><trkpt lat="43.12632532916333" lon="10.770284503333587"><ele>106.0</ele><time>2026-04-19T09:18:13Z</time></trkpt><trkpt lat="43.126506687304186" lon="10.770451344340126"><ele>109.0</ele><time>2026-04-19T09:18:14Z</time></trkpt><trkpt lat="43.12668307738106" lon="10.770622564447107"><ele>112.0</ele><time>2026-04-19T09:18:15Z</time></trkpt><trkpt lat="43.12685777091892" lon="10.770799663802656"><ele>115.0</ele><time>2026-04-19T09:18:16Z</time></trkpt><trkpt lat="43.12703171971021" lon="10.770969279985675"><ele>116.0</ele><time>2026-04-19T09:18:17Z</time></trkpt><trkpt lat="43.127206682803795" lon="10.771140016729603"><ele>117.0</ele><time>2026-04-19T09:18:18Z</time></trkpt><trkpt lat="43.12737013044382" lon="10.771318009273477"><ele>118.0</ele><time>2026-04-19T09:18:19Z</time></trkpt><trkpt lat="43.12752630749627" lon="10.771492189142563"><ele>118.0</ele><time>2026-04-19T09:18:20Z</time></trkpt><trkpt lat="43.12767080018791" lon="10.771661966009429"><ele>118.0</ele><time>2026-04-19T09:18:21Z</time></trkpt><trkpt lat="43.12783065375402" lon="10.771801303453271"><ele>118.0</ele><time>2026-04-19T09:18:22Z</time></trkpt><trkpt lat="43.127996725218345" lon="10.771901162774586"><ele>117.33333333333334</ele><time>2026-04-19T09:18:23Z</time></trkpt><trkpt lat="43.128201949997866" lon="10.771990294551523"><ele>116.66666666666666</ele><time>2026-04-19T09:18:24Z</time></trkpt><trkpt lat="43.128402948599664" lon="10.772079205794704"><ele>116.0</ele><time>2026-04-19T09:18:25Z</time></trkpt><trkpt lat="43.12859645228725" lon="10.772184664812904"><ele>116.0</ele><time>2026-04-19T09:18:26Z</time></trkpt><trkpt lat="43.128783301660654" lon="10.772313783618426"><ele>116.0</ele><time>2026-04-19T09:18:27Z</time></trkpt><trkpt lat="43.128961848047986" lon="10.772459362218655"><ele>116.0</ele><time>2026-04-19T09:18:28Z</time></trkpt><trkpt lat="43.12914837352142" lon="10.772584899582734"><ele>115.66666666666666</ele><time>2026-04-19T09:18:29Z</time></trkpt><trkpt lat="43.129357937574746" lon="10.772639019783108"><ele>115.33333333333334</ele><time>2026-04-19T09:18:30Z</time></trkpt><trkpt lat="43.12956678139878" lon="10.77268345542323"><ele>115.0</ele><time>2026-04-19T09:18:31Z</time></trkpt><trkpt lat="43.12976934834498" lon="10.772722895597605"><ele>118.0</ele><time>2026-04-19T09:18:32Z</time></trkpt><trkpt lat="43.12996157040352" lon="10.772758325824856"><ele>121.0</ele><time>2026-04-19T09:18:33Z</time></trkpt><trkpt lat="43.13014090095407" lon="10.7728006885224"><ele>124.0</ele><time>2026-04-19T09:18:34Z</time></trkpt><trkpt lat="43.13030917597212" lon="10.7728494125042"><ele>124.0</ele><time>2026-04-19T09:18:35Z</time></trkpt><trkpt lat="43.13046295421867" lon="10.772910601713596"><ele>124.0</ele><time>2026-04-19T09:18:36Z</time></trkpt><trkpt lat="43.13060011034704" lon="10.773011685337956"><ele>124.0</ele><time>2026-04-19T09:18:37Z</time></trkpt><trkpt lat="43.130703170813625" lon="10.773160276062157"><ele>125.66666666666667</ele><time>2026-04-19T09:18:38Z</time></trkpt><trkpt lat="43.130771504946786" lon="10.773357733910569"><ele>127.33333333333334</ele><time>2026-04-19T09:18:39Z</time></trkpt><trkpt lat="43.13082727957196" lon="10.773554653141742"><ele>129.0</ele><time>2026-04-19T09:18:40Z</time></trkpt><trkpt lat="43.130867342134586" lon="10.773785808734328"><ele>129.0</ele><time>2026-04-19T09:18:41Z</time></trkpt><trkpt lat="43.13091111951599" lon="10.774027477536345"><ele>129.0</ele><time>2026-04-19T09:18:42Z</time></trkpt><trkpt lat="43.13096915525808" lon="10.774254349020666"><ele>129.0</ele><time>2026-04-19T09:18:43Z</time></trkpt><trkpt lat="43.131032216107705" lon="10.77448000999546"><ele>128.33333333333334</ele><time>2026-04-19T09:18:44Z</time></trkpt><trkpt lat="43.13114876071144" lon="10.774665032154257"><ele>127.66666666666667</ele><time>2026-04-19T09:18:45Z</time></trkpt><trkpt lat="43.131309094184196" lon="10.774816410280215"><ele>127.0</ele><time>2026-04-19T09:18:46Z</time></trkpt><trkpt lat="43.13144516565807" lon="10.7749771492766"><ele>126.66666666666667</ele><time>2026-04-19T09:18:47Z</time></trkpt><trkpt lat="43.13159324522621" lon="10.775141875584994"><ele>126.33333333333334</ele><time>2026-04-19T09:18:48Z</time></trkpt><trkpt lat="43.13178909975325" lon="10.775287915355227"><ele>126.0</ele><time>2026-04-19T09:18:49Z</time></trkpt><trkpt lat="43.131952077259555" lon="10.775462979281434"><ele>125.33333333333334</ele><time>2026-04-19T09:18:50Z</time></trkpt><trkpt lat="43.132115742694694" lon="10.775638204553985"><ele>124.66666666666667</ele><time>2026-04-19T09:18:51Z</time></trkpt><trkpt lat="43.13226965577635" lon="10.775803569898342"><ele>124.0</ele><time>2026-04-19T09:18:52Z</time></trkpt><trkpt lat="43.132408172367626" lon="10.776001555315123"><ele>128.33333333333334</ele><time>2026-04-19T09:18:53Z</time></trkpt><trkpt lat="43.132531717136594" lon="10.776199560885468"><ele>132.66666666666666</ele><time>2026-04-19T09:18:54Z</time></trkpt><trkpt lat="43.132663649988615" lon="10.776374315799854"><ele>137.0</ele><time>2026-04-19T09:18:55Z</time></trkpt><trkpt lat="43.13282834334288" lon="10.776504119535112"><ele>137.0</ele><time>2026-04-19T09:18:56Z</time></trkpt><trkpt lat="43.133009950260025" lon="10.776566732797267"><ele>137.0</ele><time>2026-04-19T09:18:57Z</time></trkpt><trkpt lat="43.13320711527197" lon="10.776570779971307"><ele>137.0</ele><time>2026-04-19T09:18:58Z</time></trkpt><trkpt lat="43.133397883525234" lon="10.776536322484299"><ele>135.0</ele><time>2026-04-19T09:18:59Z</time></trkpt><trkpt lat="43.13358323202224" lon="10.77653406701037"><ele>133.0</ele><time>2026-04-19T09:19:00Z</time></trkpt><trkpt lat="43.13376997146151" lon="10.776526225562627"><ele>131.0</ele><time>2026-04-19T09:19:01Z</time></trkpt><trkpt lat="43.13395715435684" lon="10.776546235405414"><ele>129.66666666666666</ele><time>2026-04-19T09:19:02Z</time></trkpt><trkpt lat="43.134125809300016" lon="10.77663513493547"><ele>128.33333333333334</ele><time>2026-04-19T09:19:03Z</time></trkpt><trkpt lat="43.134284381730225" lon="10.776712251360978"><ele>127.0</ele><time>2026-04-19T09:19:04Z</time></trkpt><trkpt lat="43.13444853871997" lon="10.776799563121692"><ele>128.33333333333334</ele><time>2026-04-19T09:19:05Z</time></trkpt><trkpt lat="43.13459628854758" lon="10.776913845119015"><ele>129.66666666666666</ele><time>2026-04-19T09:19:06Z</time></trkpt><trkpt lat="43.134749805722386" lon="10.777045352058018"><ele>131.0</ele><time>2026-04-19T09:19:07Z</time></trkpt><trkpt lat="43.13490701441013" lon="10.777174018655717"><ele>131.0</ele><time>2026-04-19T09:19:08Z</time></trkpt><trkpt lat="43.135051873173545" lon="10.777320567899459"><ele>131.0</ele><time>2026-04-19T09:19:09Z</time></trkpt><trkpt lat="43.135178889061145" lon="10.777460718085832"><ele>131.0</ele><time>2026-04-19T09:19:10Z</time></trkpt><trkpt lat="43.13528428525947" lon="10.777614298197747"><ele>131.5</ele><time>2026-04-19T09:19:11Z</time></trkpt><trkpt lat="43.13532102861517" lon="10.777818940797836"><ele>132.0</ele><time>2026-04-19T09:19:12Z</time></trkpt><trkpt lat="43.135307500560444" lon="10.778004848046788"><ele>132.5</ele><time>2026-04-19T09:19:13Z</time></trkpt><trkpt lat="43.135250121738" lon="10.778197952361046"><ele>133.0</ele><time>2026-04-19T09:19:14Z</time></trkpt><trkpt lat="43.13518779611555" lon="10.778378344496208"><ele>132.8</ele><time>2026-04-19T09:19:15Z</time></trkpt><trkpt lat="43.135126401578546" lon="10.778530834161666"><ele>132.60000000000002</ele><time>2026-04-19T09:19:15.999Z</time></trkpt><trkpt lat="43.13506299280218" lon="10.77867153434439"><ele>132.39999999999998</ele><time>2026-04-19T09:19:16.999Z</time></trkpt><trkpt lat="43.13503121633709" lon="10.778769934111224"><ele>132.2</ele><time>2026-04-19T09:19:17.999Z</time></trkpt><trkpt lat="43.13503939585964" lon="10.778896469730824"><ele>132.0</ele><time>2026-04-19T09:19:18.999Z</time></trkpt><trkpt lat="43.13492167241874" lon="10.778963561883879"><ele>132.25</ele><time>2026-04-19T09:19:19.999Z</time></trkpt><trkpt lat="43.13483657716426" lon="10.778957245398228"><ele>132.5</ele><time>2026-04-19T09:19:20.999Z</time></trkpt><trkpt lat="43.134744055840436" lon="10.779013984427147"><ele>132.75</ele><time>2026-04-19T09:19:21.999Z</time></trkpt><trkpt lat="43.134634650491016" lon="10.779094385831828"><ele>133.0</ele><time>2026-04-19T09:19:22.999Z</time></trkpt><trkpt lat="43.134477169253216" lon="10.779110161110024"><ele>133.0</ele><time>2026-04-19T09:19:23.999Z</time></trkpt><trkpt lat="43.13436834931407" lon="10.779177477688652"><ele>133.0</ele><time>2026-04-19T09:19:24.999Z</time></trkpt><trkpt lat="43.13421573929698" lon="10.779201129534988"><ele>133.0</ele><time>2026-04-19T09:19:25.999Z</time></trkpt><trkpt lat="43.13409554872319" lon="10.779317945463644"><ele>133.0</ele><time>2026-04-19T09:19:26.999Z</time></trkpt><trkpt lat="43.13394004059667" lon="10.779541751977264"><ele>139.0</ele><time>2026-04-19T09:19:27.999Z</time></trkpt><trkpt lat="43.13384603018173" lon="10.77970097920914"><ele>145.0</ele><time>2026-04-19T09:19:28.999Z</time></trkpt><trkpt lat="43.133749190460776" lon="10.779885556630369"><ele>151.0</ele><time>2026-04-19T09:19:29.999Z</time></trkpt><trkpt lat="43.133688657015874" lon="10.780160879945583"><ele>148.33333333333334</ele><time>2026-04-19T09:19:30.999Z</time></trkpt><trkpt lat="43.1336546844919" lon="10.780411189368545"><ele>145.66666666666666</ele><time>2026-04-19T09:19:31.999Z</time></trkpt><trkpt lat="43.13363081615272" lon="10.780658321727785"><ele>143.0</ele><time>2026-04-19T09:19:32.999Z</time></trkpt><trkpt lat="43.13360229452401" lon="10.78089558524058"><ele>142.66666666666666</ele><time>2026-04-19T09:19:33.999Z</time></trkpt><trkpt lat="43.1335709347517" lon="10.781106430705364"><ele>142.33333333333334</ele><time>2026-04-19T09:19:34.999Z</time></trkpt><trkpt lat="43.13354375584853" lon="10.781339937994415"><ele>142.0</ele><time>2026-04-19T09:19:35.999Z</time></trkpt><trkpt lat="43.133516803035604" lon="10.781579977872628"><ele>142.0</ele><time>2026-04-19T09:19:36.999Z</time></trkpt><trkpt lat="43.13350210070588" lon="10.781813827245387"><ele>142.0</ele><time>2026-04-19T09:19:37.999Z</time></trkpt><trkpt lat="43.133484718871955" lon="10.782033747685853"><ele>142.0</ele><time>2026-04-19T09:19:38.999Z</time></trkpt><trkpt lat="43.13346728611822" lon="10.782241211818409"><ele>141.25</ele><time>2026-04-19T09:19:39.999Z</time></trkpt><trkpt lat="43.13343132292597" lon="10.782442056733421"><ele>140.5</ele><time>2026-04-19T09:19:40.999Z</time></trkpt><trkpt lat="43.1333996521439" lon="10.782634645779199"><ele>139.75</ele><time>2026-04-19T09:19:41.999Z</time></trkpt><trkpt lat="43.133397348285314" lon="10.782832691819669"><ele>139.0</ele><time>2026-04-19T09:19:42.999Z</time></trkpt><trkpt lat="43.13342011081803" lon="10.78302249582528"><ele>139.25</ele><time>2026-04-19T09:19:43.999Z</time></trkpt><trkpt lat="43.1334752116773" lon="10.783207077928829"><ele>139.5</ele><time>2026-04-19T09:19:44.999Z</time></trkpt><trkpt lat="43.13352193101094" lon="10.783387530591542"><ele>139.75</ele><time>2026-04-19T09:19:45.999Z</time></trkpt><trkpt lat="43.13355816316536" lon="10.783591593870105"><ele>140.0</ele><time>2026-04-19T09:19:46.999Z</time></trkpt><trkpt lat="43.133551296850406" lon="10.783809108432035"><ele>140.0</ele><time>2026-04-19T09:19:47.999Z</time></trkpt><trkpt lat="43.13350276904678" lon="10.784033477209379"><ele>140.0</ele><time>2026-04-19T09:19:48.999Z</time></trkpt><trkpt lat="43.13342203878291" lon="10.784229211306528"><ele>140.0</ele><time>2026-04-19T09:19:49.999Z</time></trkpt><trkpt lat="43.13333433472096" lon="10.784420135362492"><ele>141.66666666666666</ele><time>2026-04-19T09:19:50.999Z</time></trkpt><trkpt lat="43.13322736160932" lon="10.784565809330497"><ele>143.33333333333334</ele><time>2026-04-19T09:19:51.999Z</time></trkpt><trkpt lat="43.133105931989924" lon="10.784695082106838"><ele>145.0</ele><time>2026-04-19T09:19:52.999Z</time></trkpt><trkpt lat="43.13300273702025" lon="10.784850539778773"><ele>145.0</ele><time>2026-04-19T09:19:53.999Z</time></trkpt><trkpt lat="43.132912671126036" lon="10.785044627040525"><ele>145.0</ele><time>2026-04-19T09:19:54.999Z</time></trkpt><trkpt lat="43.132851285895704" lon="10.785266172751749"><ele>145.0</ele><time>2026-04-19T09:19:55.999Z</time></trkpt><trkpt lat="43.13280849327801" lon="10.785495250424637"><ele>143.66666666666669</ele><time>2026-04-19T09:19:56.999Z</time></trkpt><trkpt lat="43.13275679505381" lon="10.785713280348268"><ele>142.33333333333334</ele><time>2026-04-19T09:19:57.999Z</time></trkpt><trkpt lat="43.13270887317472" lon="10.78593928856483"><ele>141.0</ele><time>2026-04-19T09:19:58.999Z</time></trkpt><trkpt lat="43.13267358012803" lon="10.786182211582158"><ele>140.5</ele><time>2026-04-19T09:19:59.999Z</time></trkpt><trkpt lat="43.132699605631785" lon="10.786486944784336"><ele>140.0</ele><time>2026-04-19T09:20:00.999Z</time></trkpt><trkpt lat="43.13273871503284" lon="10.786825011528952"><ele>140.0</ele><time>2026-04-19T09:20:01.999Z</time></trkpt><trkpt lat="43.13277086492534" lon="10.787169145987445"><ele>140.0</ele><time>2026-04-19T09:20:02.999Z</time></trkpt><trkpt lat="43.13278921440872" lon="10.78752575332503"><ele>141.0</ele><time>2026-04-19T09:20:03.999Z</time></trkpt><trkpt lat="43.13280518592044" lon="10.787875236934434"><ele>142.0</ele><time>2026-04-19T09:20:04.999Z</time></trkpt><trkpt lat="43.132817702135526" lon="10.78821468971668"><ele>143.0</ele><time>2026-04-19T09:20:05.999Z</time></trkpt><trkpt lat="43.13281368641649" lon="10.78854100133003"><ele>144.0</ele><time>2026-04-19T09:20:06.999Z</time></trkpt><trkpt lat="43.132786420974114" lon="10.788863296877494"><ele>144.0</ele><time>2026-04-19T09:20:07.999Z</time></trkpt><trkpt lat="43.132747349053105" lon="10.789182117416734"><ele>144.0</ele><time>2026-04-19T09:20:08.999Z</time></trkpt><trkpt lat="43.13272368872115" lon="10.78949563112341"><ele>145.5</ele><time>2026-04-19T09:20:09.999Z</time></trkpt><trkpt lat="43.132690756470566" lon="10.789795347610417"><ele>147.0</ele><time>2026-04-19T09:20:10.999Z</time></trkpt><trkpt lat="43.13269413178957" lon="10.790111513106428"><ele>148.0</ele><time>2026-04-19T09:20:11.999Z</time></trkpt><trkpt lat="43.132692660313275" lon="10.790430636332914"><ele>149.0</ele><time>2026-04-19T09:20:12.999Z</time></trkpt><trkpt lat="43.13270323556403" lon="10.790760761648185"><ele>150.0</ele><time>2026-04-19T09:20:13.999Z</time></trkpt><trkpt lat="43.132722491654114" lon="10.791059215767246"><ele>151.0</ele><time>2026-04-19T09:20:14.998Z</time></trkpt><trkpt lat="43.1327343786013" lon="10.791345127506371"><ele>152.0</ele><time>2026-04-19T09:20:15.998Z</time></trkpt><trkpt lat="43.13273734542157" lon="10.791610396874265"><ele>151.5</ele><time>2026-04-19T09:20:17.001Z</time></trkpt><trkpt lat="43.13273383733814" lon="10.791850317939984"><ele>151.0</ele><time>2026-04-19T09:20:18.001Z</time></trkpt><trkpt lat="43.13272782957492" lon="10.792047403918422"><ele>150.5</ele><time>2026-04-19T09:20:19.001Z</time></trkpt><trkpt lat="43.132713858962155" lon="10.792223967556207"><ele>150.0</ele><time>2026-04-19T09:20:20.001Z</time></trkpt><trkpt lat="43.13268901092467" lon="10.79238902411295"><ele>150.0</ele><time>2026-04-19T09:20:21.001Z</time></trkpt><trkpt lat="43.13265904169584" lon="10.792534618062353"><ele>150.0</ele><time>2026-04-19T09:20:22.001Z</time></trkpt><trkpt lat="43.13262776759576" lon="10.792647767046896"><ele>150.0</ele><time>2026-04-19T09:20:23.001Z</time></trkpt><trkpt lat="43.132596315635226" lon="10.792762592634274"><ele>150.0</ele><time>2026-04-19T09:20:24.001Z</time></trkpt><trkpt lat="43.132563507659604" lon="10.792907654367045"><ele>150.0</ele><time>2026-04-19T09:20:25Z</time></trkpt><trkpt lat="43.13252368434632" lon="10.793059354762764"><ele>150.25</ele><time>2026-04-19T09:20:26.001Z</time></trkpt><trkpt lat="43.132483618363906" lon="10.793221877388369"><ele>150.5</ele><time>2026-04-19T09:20:27.001Z</time></trkpt><trkpt lat="43.13244618903611" lon="10.793384558827164"><ele>150.75</ele><time>2026-04-19T09:20:28Z</time></trkpt><trkpt lat="43.13239832656836" lon="10.793548232791684"><ele>151.0</ele><time>2026-04-19T09:20:29.001Z</time></trkpt><trkpt lat="43.13235388672639" lon="10.793721866063986"><ele>151.0</ele><time>2026-04-19T09:20:30.001Z</time></trkpt><trkpt lat="43.132318261647384" lon="10.793899245871161"><ele>151.0</ele><time>2026-04-19T09:20:31Z</time></trkpt><trkpt lat="43.132302586055836" lon="10.794083533435744"><ele>151.0</ele><time>2026-04-19T09:20:32Z</time></trkpt><trkpt lat="43.1323555250429" lon="10.794270225124789"><ele>151.0</ele><time>2026-04-19T09:20:33Z</time></trkpt><trkpt lat="43.132421353293545" lon="10.794430275050697"><ele>152.0</ele><time>2026-04-19T09:20:34Z</time></trkpt><trkpt lat="43.13249751217333" lon="10.794556030950684"><ele>153.0</ele><time>2026-04-19T09:20:35Z</time></trkpt><trkpt lat="43.132554464103926" lon="10.79470622495948"><ele>154.0</ele><time>2026-04-19T09:20:36Z</time></trkpt><trkpt lat="43.13259075185467" lon="10.79485706938473"><ele>155.0</ele><time>2026-04-19T09:20:37Z</time></trkpt><trkpt lat="43.13260164064361" lon="10.795013375425654"><ele>155.0</ele><time>2026-04-19T09:20:38Z</time></trkpt><trkpt lat="43.13260751816547" lon="10.795159633971375"><ele>155.0</ele><time>2026-04-19T09:20:39Z</time></trkpt><trkpt lat="43.132604385734226" lon="10.795321336667879"><ele>155.0</ele><time>2026-04-19T09:20:40Z</time></trkpt><trkpt lat="43.13258445833316" lon="10.795472830428947"><ele>155.0</ele><time>2026-04-19T09:20:41Z</time></trkpt><trkpt lat="43.132540179996944" lon="10.795632907493124"><ele>155.5</ele><time>2026-04-19T09:20:42Z</time></trkpt><trkpt lat="43.132483869136" lon="10.795805830947112"><ele>156.0</ele><time>2026-04-19T09:20:43Z</time></trkpt><trkpt lat="43.132416736258456" lon="10.795982654058854"><ele>156.5</ele><time>2026-04-19T09:20:44Z</time></trkpt><trkpt lat="43.13234710107626" lon="10.796161491698436"><ele>157.0</ele><time>2026-04-19T09:20:45Z</time></trkpt><trkpt lat="43.13227431513939" lon="10.796331193928614"><ele>157.0</ele><time>2026-04-19T09:20:46Z</time></trkpt><trkpt lat="43.13219649273005" lon="10.796478790176382"><ele>157.0</ele><time>2026-04-19T09:20:47Z</time></trkpt><trkpt lat="43.13211649176981" lon="10.796590907886412"><ele>157.0</ele><time>2026-04-19T09:20:48Z</time></trkpt><trkpt lat="43.13203097232413" lon="10.796672120007457"><ele>157.0</ele><time>2026-04-19T09:20:49Z</time></trkpt><trkpt lat="43.13196009913726" lon="10.79675807271689"><ele>157.0</ele><time>2026-04-19T09:20:50Z</time></trkpt><trkpt lat="43.13191342017195" lon="10.79686547708713"><ele>157.5</ele><time>2026-04-19T09:20:51Z</time></trkpt><trkpt lat="43.13188195130081" lon="10.796996843677748"><ele>158.0</ele><time>2026-04-19T09:20:52Z</time></trkpt><trkpt lat="43.13186213543302" lon="10.797142064844515"><ele>158.5</ele><time>2026-04-19T09:20:53Z</time></trkpt><trkpt lat="43.13187644030933" lon="10.797317890080972"><ele>159.0</ele><time>2026-04-19T09:20:54Z</time></trkpt><trkpt lat="43.13191194860776" lon="10.797510998336284"><ele>159.33333333333334</ele><time>2026-04-19T09:20:55Z</time></trkpt><trkpt lat="43.13195437557623" lon="10.79776710428483"><ele>159.66666666666669</ele><time>2026-04-19T09:20:56Z</time></trkpt><trkpt lat="43.131971860480235" lon="10.797989764286866"><ele>160.0</ele><time>2026-04-19T09:20:57Z</time></trkpt><trkpt lat="43.13198072977281" lon="10.798215754140806"><ele>160.0</ele><time>2026-04-19T09:20:58Z</time></trkpt><trkpt lat="43.13198390363858" lon="10.79844441726477"><ele>160.0</ele><time>2026-04-19T09:20:59Z</time></trkpt><trkpt lat="43.131958532882045" lon="10.798681349895213"><ele>160.0</ele><time>2026-04-19T09:21:00Z</time></trkpt><trkpt lat="43.131892283454626" lon="10.798931560002387"><ele>161.0</ele><time>2026-04-19T09:21:01Z</time></trkpt><trkpt lat="43.13180974657542" lon="10.799201270863042"><ele>162.0</ele><time>2026-04-19T09:21:02Z</time></trkpt><trkpt lat="43.13173663834" lon="10.799499715660644"><ele>163.0</ele><time>2026-04-19T09:21:03Z</time></trkpt><trkpt lat="43.13165557081873" lon="10.799801664202128"><ele>163.66666666666669</ele><time>2026-04-19T09:21:04Z</time></trkpt><trkpt lat="43.13158279898202" lon="10.800079219136116"><ele>164.33333333333334</ele><time>2026-04-19T09:21:05Z</time></trkpt><trkpt lat="43.131485249631545" lon="10.800363467221496"><ele>165.0</ele><time>2026-04-19T09:21:06Z</time></trkpt><trkpt lat="43.13139742317585" lon="10.800651693268698"><ele>164.0</ele><time>2026-04-19T09:21:07Z</time></trkpt><trkpt lat="43.13131377190201" lon="10.800935700314668"><ele>163.0</ele><time>2026-04-19T09:21:08Z</time></trkpt><trkpt lat="43.131236505322576" lon="10.801219576578934"><ele>162.0</ele><time>2026-04-19T09:21:09Z</time></trkpt><trkpt lat="43.1311680731926" lon="10.80151298043593"><ele>162.0</ele><time>2026-04-19T09:21:10Z</time></trkpt><trkpt lat="43.13111886234858" lon="10.801814015017586"><ele>162.0</ele><time>2026-04-19T09:21:11Z</time></trkpt><trkpt lat="43.13108942427422" lon="10.802109301516492"><ele>162.0</ele><time>2026-04-19T09:21:12Z</time></trkpt><trkpt lat="43.1310614322733" lon="10.802391278020561"><ele>162.33333333333334</ele><time>2026-04-19T09:21:13Z</time></trkpt><trkpt lat="43.131051540545194" lon="10.802661592993823"><ele>162.66666666666669</ele><time>2026-04-19T09:21:14Z</time></trkpt><trkpt lat="43.131074706904876" lon="10.802937465707409"><ele>163.0</ele><time>2026-04-19T09:21:15Z</time></trkpt><trkpt lat="43.13114841586581" lon="10.803201209070183"><ele>163.0</ele><time>2026-04-19T09:21:16Z</time></trkpt><trkpt lat="43.131234244681444" lon="10.803467435368054"><ele>163.0</ele><time>2026-04-19T09:21:17Z</time></trkpt><trkpt lat="43.13129565220925" lon="10.803747032881503"><ele>163.0</ele><time>2026-04-19T09:21:18Z</time></trkpt><trkpt lat="43.13132334441028" lon="10.804019551111557"><ele>163.33333333333334</ele><time>2026-04-19T09:21:19Z</time></trkpt><trkpt lat="43.131330192735916" lon="10.804293226649685"><ele>163.66666666666666</ele><time>2026-04-19T09:21:20Z</time></trkpt><trkpt lat="43.13135435518332" lon="10.80454243443102"><ele>164.0</ele><time>2026-04-19T09:21:21Z</time></trkpt><trkpt lat="43.13138873911405" lon="10.804764820984959"><ele>164.66666666666666</ele><time>2026-04-19T09:21:22Z</time></trkpt><trkpt lat="43.13144423694828" lon="10.804977549867896"><ele>165.33333333333334</ele><time>2026-04-19T09:21:23Z</time></trkpt><trkpt lat="43.13154268657684" lon="10.805140750800245"><ele>166.0</ele><time>2026-04-19T09:21:24Z</time></trkpt><trkpt lat="43.13167235899112" lon="10.805263148970845"><ele>167.0</ele><time>2026-04-19T09:21:25Z</time></trkpt><trkpt lat="43.13182728412797" lon="10.8053113520631"><ele>168.0</ele><time>2026-04-19T09:21:26Z</time></trkpt><trkpt lat="43.132000498294246" lon="10.805299314325785"><ele>169.0</ele><time>2026-04-19T09:21:26.999Z</time></trkpt><trkpt lat="43.132184278518054" lon="10.805308793527388"><ele>169.0</ele><time>2026-04-19T09:21:27.999Z</time></trkpt><trkpt lat="43.132374315988486" lon="10.805331350986691"><ele>169.0</ele><time>2026-04-19T09:21:28.999Z</time></trkpt><trkpt lat="43.13255300723745" lon="10.805393442005945"><ele>169.0</ele><time>2026-04-19T09:21:29.999Z</time></trkpt><trkpt lat="43.132751675112694" lon="10.805484151083533"><ele>170.0</ele><time>2026-04-19T09:21:30.999Z</time></trkpt><trkpt lat="43.132945237071965" lon="10.805570524120444"><ele>171.0</ele><time>2026-04-19T09:21:31.999Z</time></trkpt><trkpt lat="43.133136116044334" lon="10.805651693186787"><ele>172.0</ele><time>2026-04-19T09:21:32.999Z</time></trkpt><trkpt lat="43.1333395705138" lon="10.805713213538898"><ele>173.66666666666669</ele><time>2026-04-19T09:21:33.999Z</time></trkpt><trkpt lat="43.133541783390434" lon="10.805756753418466"><ele>175.33333333333334</ele><time>2026-04-19T09:21:34.999Z</time></trkpt><trkpt lat="43.13372259001856" lon="10.80580330859299"><ele>177.0</ele><time>2026-04-19T09:21:35.999Z</time></trkpt><trkpt lat="43.13389858777902" lon="10.805850249483587"><ele>177.0</ele><time>2026-04-19T09:21:36.999Z</time></trkpt><trkpt lat="43.13404660553479" lon="10.805950650921282"><ele>177.0</ele><time>2026-04-19T09:21:37.999Z</time></trkpt><trkpt lat="43.13415759017721" lon="10.806146560676968"><ele>177.0</ele><time>2026-04-19T09:21:38.999Z</time></trkpt><trkpt lat="43.134263142443224" lon="10.806344037711549"><ele>176.66666666666666</ele><time>2026-04-19T09:21:39.999Z</time></trkpt><trkpt lat="43.13436396941187" lon="10.806562616519162"><ele>176.33333333333331</ele><time>2026-04-19T09:21:40.999Z</time></trkpt><trkpt lat="43.13446627358811" lon="10.806769655719803"><ele>176.0</ele><time>2026-04-19T09:21:41.999Z</time></trkpt><trkpt lat="43.13455255880617" lon="10.806989869812467"><ele>176.0</ele><time>2026-04-19T09:21:42.999Z</time></trkpt><trkpt lat="43.13469797594645" lon="10.807255421943982"><ele>176.0</ele><time>2026-04-19T09:21:43.999Z</time></trkpt><trkpt lat="43.13481808004371" lon="10.807488978705855"><ele>177.66666666666666</ele><time>2026-04-19T09:21:44.999Z</time></trkpt><trkpt lat="43.13495965724415" lon="10.807715817940574"><ele>179.33333333333334</ele><time>2026-04-19T09:21:45.999Z</time></trkpt><trkpt lat="43.13510227617478" lon="10.807905512594907"><ele>181.0</ele><time>2026-04-19T09:21:46.999Z</time></trkpt><trkpt lat="43.1352735447667" lon="10.808070080626099"><ele>181.0</ele><time>2026-04-19T09:21:47.999Z</time></trkpt><trkpt lat="43.135469688882715" lon="10.808170941952964"><ele>181.0</ele><time>2026-04-19T09:21:48.999Z</time></trkpt><trkpt lat="43.13566332518051" lon="10.808276782215685"><ele>181.0</ele><time>2026-04-19T09:21:49.999Z</time></trkpt><trkpt lat="43.135843909478346" lon="10.808422503965707"><ele>178.66666666666669</ele><time>2026-04-19T09:21:50.999Z</time></trkpt><trkpt lat="43.13599092214864" lon="10.808583032472155"><ele>176.33333333333334</ele><time>2026-04-19T09:21:51.999Z</time></trkpt><trkpt lat="43.136138446167934" lon="10.808770270188608"><ele>174.0</ele><time>2026-04-19T09:21:52.999Z</time></trkpt><trkpt lat="43.13628012311775" lon="10.808969270197977"><ele>174.0</ele><time>2026-04-19T09:21:53.999Z</time></trkpt><trkpt lat="43.13640517619274" lon="10.809179287934057"><ele>174.0</ele><time>2026-04-19T09:21:54.999Z</time></trkpt><trkpt lat="43.1365179568614" lon="10.809379725339795"><ele>174.0</ele><time>2026-04-19T09:21:55.999Z</time></trkpt><trkpt lat="43.136638181352005" lon="10.809542649923435"><ele>175.33333333333334</ele><time>2026-04-19T09:21:56.999Z</time></trkpt><trkpt lat="43.136779479045465" lon="10.80966689277091"><ele>176.66666666666669</ele><time>2026-04-19T09:21:57.999Z</time></trkpt><trkpt lat="43.13694587917972" lon="10.809732089106664"><ele>178.0</ele><time>2026-04-19T09:21:58.999Z</time></trkpt><trkpt lat="43.137118568509976" lon="10.809738418202864"><ele>178.0</ele><time>2026-04-19T09:21:59.999Z</time></trkpt><trkpt lat="43.13729847481316" lon="10.809715453099466"><ele>178.0</ele><time>2026-04-19T09:22:00.999Z</time></trkpt><trkpt lat="43.137492893296674" lon="10.809690154996911"><ele>178.0</ele><time>2026-04-19T09:22:01.999Z</time></trkpt><trkpt lat="43.13768297992946" lon="10.8096812475405"><ele>179.0</ele><time>2026-04-19T09:22:02.999Z</time></trkpt><trkpt lat="43.1378846341646" lon="10.809683262267479"><ele>180.0</ele><time>2026-04-19T09:22:03.999Z</time></trkpt><trkpt lat="43.138072387510874" lon="10.80970336312654"><ele>181.0</ele><time>2026-04-19T09:22:04.999Z</time></trkpt><trkpt lat="43.13827653296033" lon="10.809765655671532"><ele>181.66666666666669</ele><time>2026-04-19T09:22:05.999Z</time></trkpt><trkpt lat="43.13847241124607" lon="10.80985767680997"><ele>182.33333333333334</ele><time>2026-04-19T09:22:06.999Z</time></trkpt><trkpt lat="43.13867500576126" lon="10.809949267815432"><ele>183.0</ele><time>2026-04-19T09:22:07.999Z</time></trkpt><trkpt lat="43.13889235635363" lon="10.810029107219059"><ele>185.0</ele><time>2026-04-19T09:22:08.999Z</time></trkpt><trkpt lat="43.139117537180105" lon="10.810115476430925"><ele>187.0</ele><time>2026-04-19T09:22:09.999Z</time></trkpt><trkpt lat="43.13932837514191" lon="10.810193686057923"><ele>191.5</ele><time>2026-04-19T09:22:10.999Z</time></trkpt><trkpt lat="43.13954652992811" lon="10.810275892589322"><ele>196.0</ele><time>2026-04-19T09:22:11.999Z</time></trkpt><trkpt lat="43.13976467761587" lon="10.810353453282469"><ele>197.0</ele><time>2026-04-19T09:22:12.999Z</time></trkpt><trkpt lat="43.13997582928906" lon="10.810476614413702"><ele>198.0</ele><time>2026-04-19T09:22:13.999Z</time></trkpt><trkpt lat="43.14017948496653" lon="10.810593211978516"><ele>198.0</ele><time>2026-04-19T09:22:14.999Z</time></trkpt><trkpt lat="43.14038974432679" lon="10.810691438689988"><ele>198.0</ele><time>2026-04-19T09:22:15.999Z</time></trkpt><trkpt lat="43.140604294222456" lon="10.810765462323772"><ele>198.0</ele><time>2026-04-19T09:22:16.999Z</time></trkpt><trkpt lat="43.140817065723816" lon="10.810852409221205"><ele>196.0</ele><time>2026-04-19T09:22:17.999Z</time></trkpt><trkpt lat="43.14103337406707" lon="10.810931036521806"><ele>194.0</ele><time>2026-04-19T09:22:18.999Z</time></trkpt><trkpt lat="43.14124551805795" lon="10.810995804862134"><ele>192.0</ele><time>2026-04-19T09:22:19.999Z</time></trkpt><trkpt lat="43.141462056558716" lon="10.811039788364743"><ele>195.0</ele><time>2026-04-19T09:22:20.999Z</time></trkpt><trkpt lat="43.14167405429164" lon="10.81107122123762"><ele>198.0</ele><time>2026-04-19T09:22:22.001Z</time></trkpt><trkpt lat="43.14187127539739" lon="10.811092242525147"><ele>201.0</ele><time>2026-04-19T09:22:23.001Z</time></trkpt><trkpt lat="43.142051679639515" lon="10.811128086947756"><ele>201.0</ele><time>2026-04-19T09:22:24.001Z</time></trkpt><trkpt lat="43.14222120420637" lon="10.811201599214488"><ele>201.0</ele><time>2026-04-19T09:22:25.001Z</time></trkpt><trkpt lat="43.14238307233858" lon="10.811289888257402"><ele>201.0</ele><time>2026-04-19T09:22:26.001Z</time></trkpt><trkpt lat="43.14251643222281" lon="10.811410866400875"><ele>201.0</ele><time>2026-04-19T09:22:27.001Z</time></trkpt><trkpt lat="43.142607809699875" lon="10.81157202564289"><ele>201.0</ele><time>2026-04-19T09:22:28.001Z</time></trkpt><trkpt lat="43.14265070056388" lon="10.811754152780866"><ele>201.0</ele><time>2026-04-19T09:22:29.001Z</time></trkpt><trkpt lat="43.14271279835448" lon="10.811931985791214"><ele>201.0</ele><time>2026-04-19T09:22:30.001Z</time></trkpt><trkpt lat="43.142833207743834" lon="10.812069454351212"><ele>201.0</ele><time>2026-04-19T09:22:31.001Z</time></trkpt><trkpt lat="43.142960892962314" lon="10.812208150845395"><ele>201.0</ele><time>2026-04-19T09:22:32.001Z</time></trkpt><trkpt lat="43.14307893669389" lon="10.81236068392413"><ele>201.0</ele><time>2026-04-19T09:22:33.001Z</time></trkpt><trkpt lat="43.14320601573712" lon="10.812501749014016"><ele>197.33333333333334</ele><time>2026-04-19T09:22:34.001Z</time></trkpt><trkpt lat="43.14336393280883" lon="10.812626954198045"><ele>193.66666666666669</ele><time>2026-04-19T09:22:35.001Z</time></trkpt><trkpt lat="43.14354029026759" lon="10.812722981646644"><ele>190.0</ele><time>2026-04-19T09:22:36.001Z</time></trkpt><trkpt lat="43.14372593932118" lon="10.812806258899093"><ele>190.0</ele><time>2026-04-19T09:22:37.001Z</time></trkpt><trkpt lat="43.14392027412618" lon="10.812883440862038"><ele>190.0</ele><time>2026-04-19T09:22:38.001Z</time></trkpt><trkpt lat="43.14412158009987" lon="10.812963126417479"><ele>190.0</ele><time>2026-04-19T09:22:39Z</time></trkpt><trkpt lat="43.14432457801366" lon="10.813050310547311"><ele>190.66666666666669</ele><time>2026-04-19T09:22:40Z</time></trkpt><trkpt lat="43.144533367069364" lon="10.813120592135299"><ele>191.33333333333334</ele><time>2026-04-19T09:22:41Z</time></trkpt><trkpt lat="43.14474742272217" lon="10.81317543397964"><ele>192.0</ele><time>2026-04-19T09:22:42Z</time></trkpt><trkpt lat="43.14495967703912" lon="10.813228075843103"><ele>192.0</ele><time>2026-04-19T09:22:43Z</time></trkpt><trkpt lat="43.14516843325333" lon="10.813276461424987"><ele>192.0</ele><time>2026-04-19T09:22:44Z</time></trkpt><trkpt lat="43.145374985335316" lon="10.813318779079886"><ele>192.0</ele><time>2026-04-19T09:22:45Z</time></trkpt><trkpt lat="43.1455789315612" lon="10.81335904822073"><ele>193.33333333333331</ele><time>2026-04-19T09:22:46Z</time></trkpt><trkpt lat="43.14577913716905" lon="10.813410801513541"><ele>194.66666666666666</ele><time>2026-04-19T09:22:47Z</time></trkpt><trkpt lat="43.145975463146705" lon="10.81348053507539"><ele>196.0</ele><time>2026-04-19T09:22:48Z</time></trkpt><trkpt lat="43.1461712445043" lon="10.813572571639575"><ele>198.33333333333331</ele><time>2026-04-19T09:22:49Z</time></trkpt><trkpt lat="43.1463621521234" lon="10.81368314031239"><ele>200.66666666666669</ele><time>2026-04-19T09:22:50Z</time></trkpt><trkpt lat="43.14654906721399" lon="10.81380556951226"><ele>203.0</ele><time>2026-04-19T09:22:51Z</time></trkpt><trkpt lat="43.14673032955345" lon="10.813925998769099"><ele>203.0</ele><time>2026-04-19T09:22:52Z</time></trkpt><trkpt lat="43.146895111005" lon="10.814042850506857"><ele>203.0</ele><time>2026-04-19T09:22:53Z</time></trkpt><trkpt lat="43.14704588371587" lon="10.814167113682476"><ele>203.0</ele><time>2026-04-19T09:22:54Z</time></trkpt><trkpt lat="43.14718577083079" lon="10.81431174745712"><ele>203.66666666666669</ele><time>2026-04-19T09:22:55Z</time></trkpt><trkpt lat="43.1473052521227" lon="10.81448619784293"><ele>204.33333333333331</ele><time>2026-04-19T09:22:56Z</time></trkpt><trkpt lat="43.14740183811178" lon="10.814687241448318"><ele>205.0</ele><time>2026-04-19T09:22:57Z</time></trkpt><trkpt lat="43.14749447614196" lon="10.814885724762398"><ele>205.0</ele><time>2026-04-19T09:22:58Z</time></trkpt><trkpt lat="43.147597297059455" lon="10.815059677896514"><ele>205.0</ele><time>2026-04-19T09:22:59Z</time></trkpt><trkpt lat="43.14773445858541" lon="10.815199951049795"><ele>205.0</ele><time>2026-04-19T09:23:00Z</time></trkpt><trkpt lat="43.147897312692166" lon="10.815289615184518"><ele>207.0</ele><time>2026-04-19T09:23:01Z</time></trkpt><trkpt lat="43.14805591557453" lon="10.815379120845153"><ele>209.0</ele><time>2026-04-19T09:23:02Z</time></trkpt><trkpt lat="43.1482235171235" lon="10.815445975939635"><ele>211.0</ele><time>2026-04-19T09:23:03Z</time></trkpt><trkpt lat="43.148379196197716" lon="10.815523641459272"><ele>211.0</ele><time>2026-04-19T09:23:04Z</time></trkpt><trkpt lat="43.14852940657468" lon="10.815600861230214"><ele>211.0</ele><time>2026-04-19T09:23:05Z</time></trkpt><trkpt lat="43.14866894669419" lon="10.815673670865756"><ele>211.0</ele><time>2026-04-19T09:23:06Z</time></trkpt><trkpt lat="43.148757150753504" lon="10.81579634901452"><ele>211.0</ele><time>2026-04-19T09:23:07Z</time></trkpt><trkpt lat="43.14878160213431" lon="10.815919684810078"><ele>212.60000000000002</ele><time>2026-04-19T09:23:08Z</time></trkpt><trkpt lat="43.14876421166143" lon="10.81603604236096"><ele>214.2</ele><time>2026-04-19T09:23:09Z</time></trkpt><trkpt lat="43.14869608332798" lon="10.8161217691809"><ele>215.79999999999998</ele><time>2026-04-19T09:23:10Z</time></trkpt><trkpt lat="43.14860955530969" lon="10.816233432088769"><ele>217.39999999999998</ele><time>2026-04-19T09:23:11Z</time></trkpt><trkpt lat="43.14849209766701" lon="10.816331907343532"><ele>219.0</ele><time>2026-04-19T09:23:12Z</time></trkpt><trkpt lat="43.14834861862517" lon="10.816424563675847"><ele>219.66666666666669</ele><time>2026-04-19T09:23:13Z</time></trkpt><trkpt lat="43.14819079717223" lon="10.816520630218633"><ele>220.33333333333334</ele><time>2026-04-19T09:23:14Z</time></trkpt><trkpt lat="43.148029024792116" lon="10.816617364165523"><ele>221.0</ele><time>2026-04-19T09:23:15Z</time></trkpt><trkpt lat="43.14787101109793" lon="10.816710349855736"><ele>221.0</ele><time>2026-04-19T09:23:16Z</time></trkpt><trkpt lat="43.14771381748492" lon="10.816775371467603"><ele>221.0</ele><time>2026-04-19T09:23:17Z</time></trkpt><trkpt lat="43.14756685011032" lon="10.816775534216344"><ele>221.0</ele><time>2026-04-19T09:23:18Z</time></trkpt><trkpt lat="43.147433452830356" lon="10.816714349114646"><ele>223.0</ele><time>2026-04-19T09:23:19Z</time></trkpt><trkpt lat="43.147262790737585" lon="10.816624801777948"><ele>225.0</ele><time>2026-04-19T09:23:20Z</time></trkpt><trkpt lat="43.14709106104483" lon="10.816595268970916"><ele>227.0</ele><time>2026-04-19T09:23:21Z</time></trkpt><trkpt lat="43.14690446130404" lon="10.816567724547234"><ele>227.0</ele><time>2026-04-19T09:23:22Z</time></trkpt><trkpt lat="43.146726271825074" lon="10.816584077242716"><ele>227.0</ele><time>2026-04-19T09:23:23Z</time></trkpt><trkpt lat="43.14654465049339" lon="10.816597835852436"><ele>227.0</ele><time>2026-04-19T09:23:24Z</time></trkpt><trkpt lat="43.14637320953998" lon="10.81662414324251"><ele>227.66666666666669</ele><time>2026-04-19T09:23:25Z</time></trkpt><trkpt lat="43.14621295065511" lon="10.816667092866437"><ele>228.33333333333331</ele><time>2026-04-19T09:23:26Z</time></trkpt><trkpt lat="43.146067185677715" lon="10.81675278783109"><ele>229.0</ele><time>2026-04-19T09:23:27Z</time></trkpt><trkpt lat="43.14597346980968" lon="10.816912565030362"><ele>229.0</ele><time>2026-04-19T09:23:28Z</time></trkpt><trkpt lat="43.14591140357684" lon="10.817097685324837"><ele>229.0</ele><time>2026-04-19T09:23:29Z</time></trkpt><trkpt lat="43.14588587395228" lon="10.817295951718071"><ele>229.0</ele><time>2026-04-19T09:23:30Z</time></trkpt><trkpt lat="43.145902565050335" lon="10.817522827389226"><ele>229.0</ele><time>2026-04-19T09:23:31Z</time></trkpt><trkpt lat="43.14590602975962" lon="10.817723668545256"><ele>229.0</ele><time>2026-04-19T09:23:32Z</time></trkpt><trkpt lat="43.14589870162153" lon="10.817924764366499"><ele>229.0</ele><time>2026-04-19T09:23:33Z</time></trkpt><trkpt lat="43.14590682196369" lon="10.818095600126746"><ele>229.0</ele><time>2026-04-19T09:23:33.999Z</time></trkpt><trkpt lat="43.14594635787563" lon="10.818247892876084"><ele>229.0</ele><time>2026-04-19T09:23:34.999Z</time></trkpt><trkpt lat="43.14600938021362" lon="10.818359792084925"><ele>228.99999999999997</ele><time>2026-04-19T09:23:35.999Z</time></trkpt><trkpt lat="43.14608352943394" lon="10.818451038940005"><ele>228.99999999999997</ele><time>2026-04-19T09:23:36.999Z</time></trkpt><trkpt lat="43.14617966619723" lon="10.818545779839946"><ele>229.0</ele><time>2026-04-19T09:23:37.999Z</time></trkpt><trkpt lat="43.14628878886519" lon="10.81861136213326"><ele>229.0</ele><time>2026-04-19T09:23:38.999Z</time></trkpt><trkpt lat="43.14640489923595" lon="10.818669825810268"><ele>227.33333333333331</ele><time>2026-04-19T09:23:39.999Z</time></trkpt><trkpt lat="43.14652778060899" lon="10.818718711723534"><ele>225.66666666666669</ele><time>2026-04-19T09:23:40.999Z</time></trkpt><trkpt lat="43.146676241506434" lon="10.818717274279916"><ele>224.0</ele><time>2026-04-19T09:23:41.999Z</time></trkpt><trkpt lat="43.146910434705745" lon="10.818615253782884"><ele>227.66666666666669</ele><time>2026-04-19T09:23:42.999Z</time></trkpt><trkpt lat="43.14707608806481" lon="10.818581095980678"><ele>231.33333333333331</ele><time>2026-04-19T09:23:43.999Z</time></trkpt><trkpt lat="43.147234825184476" lon="10.818572572211048"><ele>235.0</ele><time>2026-04-19T09:23:44.999Z</time></trkpt><trkpt lat="43.147394222729666" lon="10.818590504180808"><ele>238.0</ele><time>2026-04-19T09:23:45.999Z</time></trkpt><trkpt lat="43.147548849091656" lon="10.818625742765683"><ele>241.0</ele><time>2026-04-19T09:23:46.999Z</time></trkpt><trkpt lat="43.147701786180406" lon="10.818719969706633"><ele>244.0</ele><time>2026-04-19T09:23:47.999Z</time></trkpt><trkpt lat="43.14785239689082" lon="10.818788249582488"><ele>244.0</ele><time>2026-04-19T09:23:48.999Z</time></trkpt><trkpt lat="43.14797430784588" lon="10.818899313866334"><ele>244.0</ele><time>2026-04-19T09:23:49.999Z</time></trkpt><trkpt lat="43.14806947073029" lon="10.819047633816504"><ele>244.0</ele><time>2026-04-19T09:23:50.999Z</time></trkpt><trkpt lat="43.14809198320577" lon="10.81923868152925"><ele>244.0</ele><time>2026-04-19T09:23:51.999Z</time></trkpt><trkpt lat="43.14803224405065" lon="10.819425378123066"><ele>245.0</ele><time>2026-04-19T09:23:52.999Z</time></trkpt><trkpt lat="43.14799531277912" lon="10.819633605909212"><ele>246.0</ele><time>2026-04-19T09:23:53.999Z</time></trkpt><trkpt lat="43.147940192353346" lon="10.819834453622432"><ele>247.0</ele><time>2026-04-19T09:23:54.999Z</time></trkpt><trkpt lat="43.14789584586306" lon="10.820045199859136"><ele>248.66666666666666</ele><time>2026-04-19T09:23:55.999Z</time></trkpt><trkpt lat="43.14785022678798" lon="10.820261876606883"><ele>250.33333333333331</ele><time>2026-04-19T09:23:56.999Z</time></trkpt><trkpt lat="43.147797005718004" lon="10.820481423847754"><ele>252.0</ele><time>2026-04-19T09:23:57.999Z</time></trkpt><trkpt lat="43.147742498835626" lon="10.820698520438132"><ele>252.0</ele><time>2026-04-19T09:23:58.999Z</time></trkpt><trkpt lat="43.14768984346734" lon="10.820920190774713"><ele>252.0</ele><time>2026-04-19T09:23:59.999Z</time></trkpt><trkpt lat="43.147647584958165" lon="10.821143436450992"><ele>252.0</ele><time>2026-04-19T09:24:00.999Z</time></trkpt><trkpt lat="43.147627701212755" lon="10.821366583846668"><ele>251.66666666666669</ele><time>2026-04-19T09:24:01.999Z</time></trkpt><trkpt lat="43.147633505418874" lon="10.821586953984955"><ele>251.33333333333334</ele><time>2026-04-19T09:24:02.999Z</time></trkpt><trkpt lat="43.14769345057016" lon="10.821782317002748"><ele>251.0</ele><time>2026-04-19T09:24:03.999Z</time></trkpt><trkpt lat="43.147749222785286" lon="10.821962465458046"><ele>250.33333333333334</ele><time>2026-04-19T09:24:04.999Z</time></trkpt><trkpt lat="43.14778839925604" lon="10.822133318132002"><ele>249.66666666666669</ele><time>2026-04-19T09:24:05.999Z</time></trkpt><trkpt lat="43.14783678000157" lon="10.822332686188478"><ele>249.0</ele><time>2026-04-19T09:24:06.999Z</time></trkpt><trkpt lat="43.148140738480436" lon="10.82245361728171"><ele>250.0</ele><time>2026-04-19T09:24:07.999Z</time></trkpt><trkpt lat="43.148200617951076" lon="10.822679957317732"><ele>251.0</ele><time>2026-04-19T09:24:08.999Z</time></trkpt><trkpt lat="43.14826794779226" lon="10.822907593022649"><ele>252.0</ele><time>2026-04-19T09:24:09.999Z</time></trkpt><trkpt lat="43.148340048530244" lon="10.823144096418556"><ele>257.6666666666667</ele><time>2026-04-19T09:24:10.999Z</time></trkpt><trkpt lat="43.148387309199684" lon="10.82338501044681"><ele>263.33333333333337</ele><time>2026-04-19T09:24:11.999Z</time></trkpt><trkpt lat="43.148421371468636" lon="10.823629444268954"><ele>269.0</ele><time>2026-04-19T09:24:12.999Z</time></trkpt><trkpt lat="43.14846063986936" lon="10.823839324273385"><ele>269.6666666666667</ele><time>2026-04-19T09:24:13.999Z</time></trkpt><trkpt lat="43.14850974731308" lon="10.82404161572235"><ele>270.3333333333333</ele><time>2026-04-19T09:24:14.999Z</time></trkpt><trkpt lat="43.148538903972565" lon="10.824254140928007"><ele>271.0</ele><time>2026-04-19T09:24:15.999Z</time></trkpt><trkpt lat="43.148542295703606" lon="10.824480219822675"><ele>272.3333333333333</ele><time>2026-04-19T09:24:16.999Z</time></trkpt><trkpt lat="43.148511674995014" lon="10.824726380358326"><ele>273.6666666666667</ele><time>2026-04-19T09:24:17.999Z</time></trkpt><trkpt lat="43.14843656610091" lon="10.824987146193239"><ele>275.0</ele><time>2026-04-19T09:24:18.999Z</time></trkpt><trkpt lat="43.14836508874524" lon="10.825233301135013"><ele>276.33333333333337</ele><time>2026-04-19T09:24:19.999Z</time></trkpt><trkpt lat="43.14830927037251" lon="10.82546896381156"><ele>277.6666666666667</ele><time>2026-04-19T09:24:20.999Z</time></trkpt><trkpt lat="43.148237007530625" lon="10.825695628266963"><ele>279.0</ele><time>2026-04-19T09:24:21.999Z</time></trkpt><trkpt lat="43.14817955925556" lon="10.825927227571873"><ele>281.0</ele><time>2026-04-19T09:24:22.999Z</time></trkpt><trkpt lat="43.148119582249855" lon="10.826156068167588"><ele>283.0</ele><time>2026-04-19T09:24:23.999Z</time></trkpt><trkpt lat="43.14803900223088" lon="10.826361274553365"><ele>285.0</ele><time>2026-04-19T09:24:24.999Z</time></trkpt><trkpt lat="43.14792767308742" lon="10.826523625541133"><ele>285.0</ele><time>2026-04-19T09:24:25.999Z</time></trkpt><trkpt lat="43.147790522357994" lon="10.82663447743129"><ele>285.0</ele><time>2026-04-19T09:24:26.999Z</time></trkpt><trkpt lat="43.1476258456439" lon="10.826716117266043"><ele>285.0</ele><time>2026-04-19T09:24:28.001Z</time></trkpt><trkpt lat="43.14750174530015" lon="10.826839041106789"><ele>286.25</ele><time>2026-04-19T09:24:29.001Z</time></trkpt><trkpt lat="43.147417555474675" lon="10.826993190854248"><ele>287.5</ele><time>2026-04-19T09:24:30.001Z</time></trkpt><trkpt lat="43.14739912692874" lon="10.827206598515243"><ele>288.75</ele><time>2026-04-19T09:24:31.001Z</time></trkpt><trkpt lat="43.147440890846866" lon="10.82740234755226"><ele>290.0</ele><time>2026-04-19T09:24:32.001Z</time></trkpt><trkpt lat="43.14750819141739" lon="10.827575515412224"><ele>291.5</ele><time>2026-04-19T09:24:33.001Z</time></trkpt><trkpt lat="43.14755690643106" lon="10.827757762086266"><ele>293.0</ele><time>2026-04-19T09:24:34.001Z</time></trkpt><trkpt lat="43.14762417724271" lon="10.827949204585446"><ele>294.5</ele><time>2026-04-19T09:24:35.001Z</time></trkpt><trkpt lat="43.147694981866636" lon="10.828131012879835"><ele>296.0</ele><time>2026-04-19T09:24:36.001Z</time></trkpt><trkpt lat="43.14778714184572" lon="10.828293400072287"><ele>296.0</ele><time>2026-04-19T09:24:37.001Z</time></trkpt><trkpt lat="43.14789749754602" lon="10.828426090725612"><ele>296.0</ele><time>2026-04-19T09:24:38.001Z</time></trkpt><trkpt lat="43.148008186805505" lon="10.82848791882071"><ele>296.0</ele><time>2026-04-19T09:24:39.001Z</time></trkpt><trkpt lat="43.14809727574644" lon="10.828385304773276"><ele>296.0</ele><time>2026-04-19T09:24:40.001Z</time></trkpt><trkpt lat="43.14814982327493" lon="10.828212165029097"><ele>296.0</ele><time>2026-04-19T09:24:41.001Z</time></trkpt><trkpt lat="43.148187555981316" lon="10.828021376752073"><ele>296.0</ele><time>2026-04-19T09:24:42.001Z</time></trkpt><trkpt lat="43.14824874731461" lon="10.827874818095065"><ele>296.0</ele><time>2026-04-19T09:24:43.001Z</time></trkpt><trkpt lat="43.14835300487987" lon="10.827756519219967"><ele>296.0</ele><time>2026-04-19T09:24:44.001Z</time></trkpt><trkpt lat="43.14850631521931" lon="10.827626614545924"><ele>297.5</ele><time>2026-04-19T09:24:45.001Z</time></trkpt><trkpt lat="43.14860055366759" lon="10.827590985885351"><ele>299.0</ele><time>2026-04-19T09:24:46.001Z</time></trkpt><trkpt lat="43.14873814863508" lon="10.827639438242628"><ele>300.5</ele><time>2026-04-19T09:24:47.001Z</time></trkpt><trkpt lat="43.14886685328244" lon="10.827712122179506"><ele>302.0</ele><time>2026-04-19T09:24:48Z</time></trkpt><trkpt lat="43.14900300066512" lon="10.827793318708476"><ele>304.25</ele><time>2026-04-19T09:24:49Z</time></trkpt><trkpt lat="43.149128042064056" lon="10.827869413605299"><ele>306.5</ele><time>2026-04-19T09:24:50Z</time></trkpt><trkpt lat="43.14922567179116" lon="10.827959009208204"><ele>308.75</ele><time>2026-04-19T09:24:51Z</time></trkpt><trkpt lat="43.14931193270929" lon="10.828079728540438"><ele>311.0</ele><time>2026-04-19T09:24:52Z</time></trkpt><trkpt lat="43.149363849973795" lon="10.828217445052278"><ele>311.0</ele><time>2026-04-19T09:24:53Z</time></trkpt><trkpt lat="43.149409518997025" lon="10.828401100687387"><ele>311.0</ele><time>2026-04-19T09:24:54Z</time></trkpt><trkpt lat="43.14946177928886" lon="10.82857357672156"><ele>311.0</ele><time>2026-04-19T09:24:55Z</time></trkpt><trkpt lat="43.149540546807486" lon="10.828725213660126"><ele>311.0</ele><time>2026-04-19T09:24:56Z</time></trkpt><trkpt lat="43.14960906136332" lon="10.828887259455469"><ele>314.0</ele><time>2026-04-19T09:24:57Z</time></trkpt><trkpt lat="43.149736806376026" lon="10.828932671070199"><ele>317.0</ele><time>2026-04-19T09:24:58Z</time></trkpt><trkpt lat="43.149889003644205" lon="10.828990271036059"><ele>320.0</ele><time>2026-04-19T09:24:59Z</time></trkpt><trkpt lat="43.15008345584336" lon="10.828974872585324"><ele>320.0</ele><time>2026-04-19T09:25:00Z</time></trkpt><trkpt lat="43.15022260367212" lon="10.828985168423127"><ele>320.0</ele><time>2026-04-19T09:25:01Z</time></trkpt><trkpt lat="43.15034434039994" lon="10.829033361944456"><ele>320.0</ele><time>2026-04-19T09:25:02Z</time></trkpt><trkpt lat="43.15042644398644" lon="10.8291264149941"><ele>320.0</ele><time>2026-04-19T09:25:03Z</time></trkpt><trkpt lat="43.15043166222279" lon="10.829265204105528"><ele>321.0</ele><time>2026-04-19T09:25:04Z</time></trkpt><trkpt lat="43.15040234851363" lon="10.829378480686108"><ele>322.0</ele><time>2026-04-19T09:25:05Z</time></trkpt><trkpt lat="43.1503732289242" lon="10.829548224985174"><ele>323.0</ele><time>2026-04-19T09:25:06Z</time></trkpt><trkpt lat="43.150349475363136" lon="10.829753149167631"><ele>324.0</ele><time>2026-04-19T09:25:07Z</time></trkpt><trkpt lat="43.1503241676767" lon="10.82997128849838"><ele>324.3333333333333</ele><time>2026-04-19T09:25:08Z</time></trkpt><trkpt lat="43.15029900418989" lon="10.830207206626785"><ele>324.66666666666663</ele><time>2026-04-19T09:25:09Z</time></trkpt><trkpt lat="43.150281962488656" lon="10.830445589014824"><ele>325.0</ele><time>2026-04-19T09:25:10Z</time></trkpt><trkpt lat="43.15029108216575" lon="10.83068110492219"><ele>325.0</ele><time>2026-04-19T09:25:11Z</time></trkpt><trkpt lat="43.150330244388705" lon="10.830885821231252"><ele>325.0</ele><time>2026-04-19T09:25:12Z</time></trkpt><trkpt lat="43.150372451646106" lon="10.831109460307424"><ele>325.0</ele><time>2026-04-19T09:25:13Z</time></trkpt><trkpt lat="43.15049338975072" lon="10.831242608565391"><ele>326.75</ele><time>2026-04-19T09:25:14Z</time></trkpt><trkpt lat="43.15061845011711" lon="10.83136050707983"><ele>328.5</ele><time>2026-04-19T09:25:15Z</time></trkpt><trkpt lat="43.15074522984946" lon="10.831398353974642"><ele>330.25</ele><time>2026-04-19T09:25:16Z</time></trkpt><trkpt lat="43.150870172792835" lon="10.83141773241017"><ele>332.0</ele><time>2026-04-19T09:25:17Z</time></trkpt><trkpt lat="43.15109533399875" lon="10.831446570126591"><ele>333.0</ele><time>2026-04-19T09:25:18Z</time></trkpt><trkpt lat="43.151311033953775" lon="10.831456566374262"><ele>334.0</ele><time>2026-04-19T09:25:19Z</time></trkpt><trkpt lat="43.151525504983276" lon="10.831427226569412"><ele>335.0</ele><time>2026-04-19T09:25:20Z</time></trkpt><trkpt lat="43.151697162454255" lon="10.83133006247624"><ele>335.6666666666667</ele><time>2026-04-19T09:25:21Z</time></trkpt><trkpt lat="43.151860565004796" lon="10.831170639999815"><ele>336.3333333333333</ele><time>2026-04-19T09:25:22Z</time></trkpt><trkpt lat="43.15200915193169" lon="10.831023074082795"><ele>337.0</ele><time>2026-04-19T09:25:23Z</time></trkpt><trkpt lat="43.152145051648304" lon="10.83087852759406"><ele>337.25</ele><time>2026-04-19T09:25:24Z</time></trkpt><trkpt lat="43.15229797687457" lon="10.830787321573723"><ele>337.5</ele><time>2026-04-19T09:25:25Z</time></trkpt><trkpt lat="43.152454035000666" lon="10.830789170650377"><ele>337.75</ele><time>2026-04-19T09:25:26Z</time></trkpt><trkpt lat="43.152554641564684" lon="10.83087674880404"><ele>338.0</ele><time>2026-04-19T09:25:27Z</time></trkpt><trkpt lat="43.15263588420032" lon="10.830943540116522"><ele>341.6666666666667</ele><time>2026-04-19T09:25:28Z</time></trkpt><trkpt lat="43.152773122857965" lon="10.831044663358586"><ele>345.3333333333333</ele><time>2026-04-19T09:25:29Z</time></trkpt><trkpt lat="43.15293779070001" lon="10.831147110806635"><ele>349.0</ele><time>2026-04-19T09:25:30Z</time></trkpt><trkpt lat="43.15310087110432" lon="10.831240050784102"><ele>349.3333333333333</ele><time>2026-04-19T09:25:31Z</time></trkpt><trkpt lat="43.15330403774682" lon="10.831322599955143"><ele>349.6666666666667</ele><time>2026-04-19T09:25:32Z</time></trkpt><trkpt lat="43.153483035901914" lon="10.831318747865081"><ele>350.0</ele><time>2026-04-19T09:25:33Z</time></trkpt><trkpt lat="43.15364082996083" lon="10.831246658331715"><ele>350.0</ele><time>2026-04-19T09:25:34Z</time></trkpt><trkpt lat="43.15375611054873" lon="10.831199802367182"><ele>350.0</ele><time>2026-04-19T09:25:35Z</time></trkpt><trkpt lat="43.153871194913364" lon="10.831196184778594"><ele>350.0</ele><time>2026-04-19T09:25:36Z</time></trkpt><trkpt lat="43.15393512372495" lon="10.83129695095927"><ele>350.0</ele><time>2026-04-19T09:25:37Z</time></trkpt><trkpt lat="43.15398372262834" lon="10.831405417695104"><ele>350.0</ele><time>2026-04-19T09:25:38Z</time></trkpt><trkpt lat="43.1539505834223" lon="10.8315000116147"><ele>350.0</ele><time>2026-04-19T09:25:39Z</time></trkpt><trkpt lat="43.153961847824384" lon="10.831611046741253"><ele>350.0</ele><time>2026-04-19T09:25:40Z</time></trkpt><trkpt lat="43.15390919255746" lon="10.831682670863053"><ele>350.0</ele><time>2026-04-19T09:25:40.999Z</time></trkpt><trkpt lat="43.153892662965305" lon="10.83179074930592"><ele>350.0</ele><time>2026-04-19T09:25:41.999Z</time></trkpt><trkpt lat="43.15389280305422" lon="10.83160337099036"><ele>350.0</ele><time>2026-04-19T09:25:42.999Z</time></trkpt><trkpt lat="43.15382861750393" lon="10.83168148517624"><ele>350.0</ele><time>2026-04-19T09:25:43.999Z</time></trkpt><trkpt lat="43.15374118509681" lon="10.831734067908531"><ele>350.0</ele><time>2026-04-19T09:25:44.999Z</time></trkpt><trkpt lat="43.153573942625826" lon="10.831858513236874"><ele>350.0</ele><time>2026-04-19T09:25:45.999Z</time></trkpt><trkpt lat="43.15339727536465" lon="10.831983562669846"><ele>354.0</ele><time>2026-04-19T09:25:46.999Z</time></trkpt><trkpt lat="43.153191663266604" lon="10.832129005921487"><ele>358.0</ele><time>2026-04-19T09:25:47.999Z</time></trkpt><trkpt lat="43.152975747422374" lon="10.832280169868378"><ele>358.0</ele><time>2026-04-19T09:25:48.999Z</time></trkpt><trkpt lat="43.15278307720374" lon="10.8324134395972"><ele>358.0</ele><time>2026-04-19T09:25:49.999Z</time></trkpt><trkpt lat="43.15257996102585" lon="10.832558967877715"><ele>358.0</ele><time>2026-04-19T09:25:50.999Z</time></trkpt><trkpt lat="43.15238016031852" lon="10.832709924077943"><ele>361.0</ele><time>2026-04-19T09:25:51.999Z</time></trkpt><trkpt lat="43.152193167118874" lon="10.832849232573638"><ele>364.0</ele><time>2026-04-19T09:25:52.999Z</time></trkpt><trkpt lat="43.15199772008832" lon="10.832971990464568"><ele>367.0</ele><time>2026-04-19T09:25:53.999Z</time></trkpt><trkpt lat="43.151822242780696" lon="10.833056427599391"><ele>367.0</ele><time>2026-04-19T09:25:54.999Z</time></trkpt><trkpt lat="43.15165024972911" lon="10.833139566563695"><ele>367.0</ele><time>2026-04-19T09:25:55.999Z</time></trkpt><trkpt lat="43.151473874903466" lon="10.833221339523227"><ele>367.0</ele><time>2026-04-19T09:25:56.999Z</time></trkpt><trkpt lat="43.151281317520315" lon="10.833316633424412"><ele>370.0</ele><time>2026-04-19T09:25:57.999Z</time></trkpt><trkpt lat="43.15107304501008" lon="10.833506004381217"><ele>373.0</ele><time>2026-04-19T09:25:58.999Z</time></trkpt><trkpt lat="43.15093721011953" lon="10.833701230383886"><ele>376.0</ele><time>2026-04-19T09:25:59.999Z</time></trkpt><trkpt lat="43.150824300268646" lon="10.833872181023592"><ele>376.66666666666663</ele><time>2026-04-19T09:26:00.999Z</time></trkpt><trkpt lat="43.15070177628403" lon="10.834050473190986"><ele>377.3333333333333</ele><time>2026-04-19T09:26:01.999Z</time></trkpt><trkpt lat="43.150574773932895" lon="10.834219829263418"><ele>378.0</ele><time>2026-04-19T09:26:02.999Z</time></trkpt><trkpt lat="43.1504397112161" lon="10.834376459219019"><ele>378.0</ele><time>2026-04-19T09:26:03.999Z</time></trkpt><trkpt lat="43.15030573674059" lon="10.83453354599308"><ele>378.0</ele><time>2026-04-19T09:26:04.999Z</time></trkpt><trkpt lat="43.15017551640232" lon="10.834715776671885"><ele>378.0</ele><time>2026-04-19T09:26:05.999Z</time></trkpt><trkpt lat="43.150072883547416" lon="10.83493503022629"><ele>378.0</ele><time>2026-04-19T09:26:06.999Z</time></trkpt><trkpt lat="43.14998861419564" lon="10.83515676665466"><ele>378.0</ele><time>2026-04-19T09:26:07.999Z</time></trkpt><trkpt lat="43.149916671340215" lon="10.835371491174325"><ele>378.0</ele><time>2026-04-19T09:26:08.999Z</time></trkpt><trkpt lat="43.14984052020547" lon="10.835585592711547"><ele>378.0</ele><time>2026-04-19T09:26:09.999Z</time></trkpt><trkpt lat="43.1497606886361" lon="10.835781756847755"><ele>378.0</ele><time>2026-04-19T09:26:10.999Z</time></trkpt><trkpt lat="43.14970021007312" lon="10.835958879760097"><ele>378.0</ele><time>2026-04-19T09:26:11.999Z</time></trkpt><trkpt lat="43.14966942795398" lon="10.836161623512028"><ele>380.0</ele><time>2026-04-19T09:26:12.999Z</time></trkpt><trkpt lat="43.14968995193835" lon="10.836372978213063"><ele>382.0</ele><time>2026-04-19T09:26:13.999Z</time></trkpt><trkpt lat="43.14974133630729" lon="10.836574017403588"><ele>384.0</ele><time>2026-04-19T09:26:14.999Z</time></trkpt><trkpt lat="43.14978285285031" lon="10.83677611239784"><ele>387.0</ele><time>2026-04-19T09:26:15.999Z</time></trkpt><trkpt lat="43.14979563204116" lon="10.836971874199023"><ele>390.0</ele><time>2026-04-19T09:26:16.999Z</time></trkpt><trkpt lat="43.14977544028323" lon="10.837162150729004"><ele>393.0</ele><time>2026-04-19T09:26:17.999Z</time></trkpt><trkpt lat="43.149731131609684" lon="10.837371238161781"><ele>396.0</ele><time>2026-04-19T09:26:18.999Z</time></trkpt><trkpt lat="43.149666073867394" lon="10.837556012958107"><ele>399.0</ele><time>2026-04-19T09:26:19.999Z</time></trkpt><trkpt lat="43.14956284523735" lon="10.83769842515609"><ele>402.0</ele><time>2026-04-19T09:26:20.999Z</time></trkpt><trkpt lat="43.14944500133927" lon="10.837752885861642"><ele>405.0</ele><time>2026-04-19T09:26:21.999Z</time></trkpt><trkpt lat="43.149310562064564" lon="10.837773902100045"><ele>408.0</ele><time>2026-04-19T09:26:22.999Z</time></trkpt><trkpt lat="43.149160461528766" lon="10.837785231369343"><ele>410.0</ele><time>2026-04-19T09:26:23.999Z</time></trkpt><trkpt lat="43.14901034083533" lon="10.837796235525362"><ele>412.0</ele><time>2026-04-19T09:26:24.999Z</time></trkpt><trkpt lat="43.14886231490868" lon="10.837808300905708"><ele>414.0</ele><time>2026-04-19T09:26:25.999Z</time></trkpt><trkpt lat="43.148711764610596" lon="10.837840424363609"><ele>414.0</ele><time>2026-04-19T09:26:26.999Z</time></trkpt><trkpt lat="43.14855943434288" lon="10.837819804428626"><ele>414.0</ele><time>2026-04-19T09:26:27.999Z</time></trkpt><trkpt lat="43.14840167607731" lon="10.837845240912763"><ele>414.0</ele><time>2026-04-19T09:26:28.999Z</time></trkpt><trkpt lat="43.14824327544628" lon="10.837883239756497"><ele>412.5</ele><time>2026-04-19T09:26:29.999Z</time></trkpt><trkpt lat="43.14809342724128" lon="10.83790379751633"><ele>411.0</ele><time>2026-04-19T09:26:30.999Z</time></trkpt><trkpt lat="43.147950980477766" lon="10.837941850756902"><ele>409.5</ele><time>2026-04-19T09:26:31.999Z</time></trkpt><trkpt lat="43.14780608661101" lon="10.8380009802718"><ele>408.0</ele><time>2026-04-19T09:26:32.999Z</time></trkpt><trkpt lat="43.147647535727046" lon="10.838050820716482"><ele>408.0</ele><time>2026-04-19T09:26:34.001Z</time></trkpt><trkpt lat="43.14749645535516" lon="10.838084182214658"><ele>408.0</ele><time>2026-04-19T09:26:35.001Z</time></trkpt><trkpt lat="43.14746453860532" lon="10.838401411060868"><ele>408.0</ele><time>2026-04-19T09:26:36.001Z</time></trkpt><trkpt lat="43.147401277405834" lon="10.838599868995413"><ele>406.0</ele><time>2026-04-19T09:26:37.001Z</time></trkpt><trkpt lat="43.147346150217935" lon="10.838795593863573"><ele>404.0</ele><time>2026-04-19T09:26:38.001Z</time></trkpt><trkpt lat="43.1472896345095" lon="10.83900710907002"><ele>402.0</ele><time>2026-04-19T09:26:39.001Z</time></trkpt><trkpt lat="43.14721039564641" lon="10.839222287768955"><ele>406.0</ele><time>2026-04-19T09:26:40.001Z</time></trkpt><trkpt lat="43.14710303553028" lon="10.839439758014436"><ele>410.0</ele><time>2026-04-19T09:26:41.001Z</time></trkpt><trkpt lat="43.14699007570432" lon="10.839635923989306"><ele>414.0</ele><time>2026-04-19T09:26:42.001Z</time></trkpt><trkpt lat="43.1468764991319" lon="10.839822238060956"><ele>414.0</ele><time>2026-04-19T09:26:43.001Z</time></trkpt><trkpt lat="43.146779068108096" lon="10.840011622425424"><ele>414.0</ele><time>2026-04-19T09:26:44.001Z</time></trkpt><trkpt lat="43.14666231749265" lon="10.840193722661724"><ele>414.0</ele><time>2026-04-19T09:26:45.001Z</time></trkpt><trkpt lat="43.146535676573386" lon="10.840332080641243"><ele>413.33333333333337</ele><time>2026-04-19T09:26:46.001Z</time></trkpt><trkpt lat="43.14640204768128" lon="10.840437539763757"><ele>412.6666666666667</ele><time>2026-04-19T09:26:47.001Z</time></trkpt><trkpt lat="43.14627913267251" lon="10.840555281121997"><ele>412.0</ele><time>2026-04-19T09:26:48.001Z</time></trkpt><trkpt lat="43.14615531336232" lon="10.84070514179018"><ele>412.0</ele><time>2026-04-19T09:26:49.001Z</time></trkpt><trkpt lat="43.146069067236" lon="10.840888548328184"><ele>412.0</ele><time>2026-04-19T09:26:50.001Z</time></trkpt><trkpt lat="43.14601061946875" lon="10.841055644429174"><ele>412.0</ele><time>2026-04-19T09:26:51.001Z</time></trkpt><trkpt lat="43.14600018546974" lon="10.841227218804313"><ele>412.0</ele><time>2026-04-19T09:26:52.001Z</time></trkpt><trkpt lat="43.14604780669525" lon="10.841413911372268"><ele>413.6666666666667</ele><time>2026-04-19T09:26:53Z</time></trkpt><trkpt lat="43.14613342913603" lon="10.841577995601941"><ele>415.33333333333337</ele><time>2026-04-19T09:26:54Z</time></trkpt><trkpt lat="43.146227153545624" lon="10.841751990463173"><ele>417.0</ele><time>2026-04-19T09:26:55Z</time></trkpt><trkpt lat="43.14631309954564" lon="10.841940093316193"><ele>417.66666666666663</ele><time>2026-04-19T09:26:56Z</time></trkpt><trkpt lat="43.14638949838532" lon="10.842134261546196"><ele>418.3333333333333</ele><time>2026-04-19T09:26:57Z</time></trkpt><trkpt lat="43.146456315815" lon="10.84234240478207"><ele>419.0</ele><time>2026-04-19T09:26:58Z</time></trkpt><trkpt lat="43.14648521279472" lon="10.842564732175665"><ele>422.0</ele><time>2026-04-19T09:26:59Z</time></trkpt><trkpt lat="43.146452509306336" lon="10.842804691743254"><ele>425.0</ele><time>2026-04-19T09:27:00Z</time></trkpt><trkpt lat="43.14639463875971" lon="10.843022671111717"><ele>428.0</ele><time>2026-04-19T09:27:01Z</time></trkpt><trkpt lat="43.14632610794669" lon="10.843244023005438"><ele>428.0</ele><time>2026-04-19T09:27:02Z</time></trkpt><trkpt lat="43.14622598654377" lon="10.843453646079706"><ele>428.0</ele><time>2026-04-19T09:27:03Z</time></trkpt><trkpt lat="43.14611591357539" lon="10.843660482417562"><ele>428.0</ele><time>2026-04-19T09:27:04Z</time></trkpt><trkpt lat="43.14600615213695" lon="10.843860319417654"><ele>427.3333333333333</ele><time>2026-04-19T09:27:05Z</time></trkpt><trkpt lat="43.14590220734315" lon="10.844056570434104"><ele>426.66666666666663</ele><time>2026-04-19T09:27:06Z</time></trkpt><trkpt lat="43.14580168696374" lon="10.844255601916453"><ele>426.0</ele><time>2026-04-19T09:27:07Z</time></trkpt><trkpt lat="43.14570385109018" lon="10.844442698315993"><ele>426.0</ele><time>2026-04-19T09:27:08Z</time></trkpt><trkpt lat="43.145622492249686" lon="10.844635192638425"><ele>426.0</ele><time>2026-04-19T09:27:09Z</time></trkpt><trkpt lat="43.14558025211611" lon="10.844861401881916"><ele>426.0</ele><time>2026-04-19T09:27:10Z</time></trkpt><trkpt lat="43.145577559554134" lon="10.845105346053472"><ele>427.33333333333337</ele><time>2026-04-19T09:27:11Z</time></trkpt><trkpt lat="43.14557192509428" lon="10.845350419662685"><ele>428.6666666666667</ele><time>2026-04-19T09:27:12Z</time></trkpt><trkpt lat="43.14555722355191" lon="10.84559964798171"><ele>430.0</ele><time>2026-04-19T09:27:13Z</time></trkpt><trkpt lat="43.14552936217566" lon="10.845844257192299"><ele>429.6666666666667</ele><time>2026-04-19T09:27:14Z</time></trkpt><trkpt lat="43.145506170150455" lon="10.846090146367391"><ele>429.33333333333337</ele><time>2026-04-19T09:27:15Z</time></trkpt><trkpt lat="43.145493174592964" lon="10.8463311314424"><ele>429.0</ele><time>2026-04-19T09:27:16Z</time></trkpt><trkpt lat="43.14549269376055" lon="10.846577927341947"><ele>430.33333333333337</ele><time>2026-04-19T09:27:17Z</time></trkpt><trkpt lat="43.14551094456682" lon="10.84682244014573"><ele>431.6666666666667</ele><time>2026-04-19T09:27:18Z</time></trkpt><trkpt lat="43.14554468945821" lon="10.847061214122895"><ele>433.0</ele><time>2026-04-19T09:27:19Z</time></trkpt><trkpt lat="43.14559121756334" lon="10.847281332349588"><ele>433.0</ele><time>2026-04-19T09:27:20Z</time></trkpt><trkpt lat="43.14565911287386" lon="10.847483487772713"><ele>433.0</ele><time>2026-04-19T09:27:21Z</time></trkpt><trkpt lat="43.14576367906356" lon="10.847663384975139"><ele>433.0</ele><time>2026-04-19T09:27:22Z</time></trkpt><trkpt lat="43.14589450596984" lon="10.847820720583607"><ele>439.0</ele><time>2026-04-19T09:27:23Z</time></trkpt><trkpt lat="43.14601373640804" lon="10.847988404595505"><ele>445.0</ele><time>2026-04-19T09:27:24Z</time></trkpt><trkpt lat="43.14610722299303" lon="10.848184061495072"><ele>451.0</ele><time>2026-04-19T09:27:25Z</time></trkpt><trkpt lat="43.14616323858605" lon="10.84841415343396"><ele>451.0</ele><time>2026-04-19T09:27:26Z</time></trkpt><trkpt lat="43.14617024648462" lon="10.84865662234392"><ele>451.0</ele><time>2026-04-19T09:27:27Z</time></trkpt><trkpt lat="43.14615248143769" lon="10.848892798235594"><ele>451.0</ele><time>2026-04-19T09:27:28Z</time></trkpt><trkpt lat="43.146147489212694" lon="10.849116117121662"><ele>452.33333333333337</ele><time>2026-04-19T09:27:29Z</time></trkpt><trkpt lat="43.14611894887163" lon="10.849360115570768"><ele>453.66666666666663</ele><time>2026-04-19T09:27:30Z</time></trkpt><trkpt lat="43.14609488804245" lon="10.849591051922964"><ele>455.0</ele><time>2026-04-19T09:27:31Z</time></trkpt><trkpt lat="43.14608117970996" lon="10.849812976007307"><ele>455.0</ele><time>2026-04-19T09:27:32Z</time></trkpt><trkpt lat="43.14609984179779" lon="10.85003645772973"><ele>455.0</ele><time>2026-04-19T09:27:33Z</time></trkpt><trkpt lat="43.14615014421451" lon="10.85024618800931"><ele>455.0</ele><time>2026-04-19T09:27:34Z</time></trkpt><trkpt lat="43.146238535434144" lon="10.85045753428499"><ele>455.66666666666663</ele><time>2026-04-19T09:27:35Z</time></trkpt><trkpt lat="43.14631368734675" lon="10.850668303159267"><ele>456.33333333333337</ele><time>2026-04-19T09:27:36Z</time></trkpt><trkpt lat="43.14635243287421" lon="10.85091007402015"><ele>457.0</ele><time>2026-04-19T09:27:37Z</time></trkpt><trkpt lat="43.146374291438406" lon="10.851156626401465"><ele>457.0</ele><time>2026-04-19T09:27:38Z</time></trkpt><trkpt lat="43.14640890010956" lon="10.851390152376123"><ele>457.0</ele><time>2026-04-19T09:27:38.999Z</time></trkpt><trkpt lat="43.14645230361772" lon="10.851637761964742"><ele>457.0</ele><time>2026-04-19T09:27:39.999Z</time></trkpt><trkpt lat="43.146488125629205" lon="10.851886068627419"><ele>458.6666666666667</ele><time>2026-04-19T09:27:40.999Z</time></trkpt><trkpt lat="43.14651998682295" lon="10.85213341414024"><ele>460.33333333333337</ele><time>2026-04-19T09:27:41.999Z</time></trkpt><trkpt lat="43.14655446850338" lon="10.8523762424732"><ele>462.0</ele><time>2026-04-19T09:27:42.999Z</time></trkpt><trkpt lat="43.14658494967725" lon="10.852602075974595"><ele>466.25</ele><time>2026-04-19T09:27:43.999Z</time></trkpt><trkpt lat="43.146615329130775" lon="10.852802078887802"><ele>470.5</ele><time>2026-04-19T09:27:44.999Z</time></trkpt><trkpt lat="43.146660075417884" lon="10.852976825169666"><ele>474.75</ele><time>2026-04-19T09:27:45.998Z</time></trkpt><trkpt lat="43.1467333453447" lon="10.853122057797576"><ele>479.0</ele><time>2026-04-19T09:27:46.998Z</time></trkpt><trkpt lat="43.14684769534244" lon="10.853204650306862"><ele>479.0</ele><time>2026-04-19T09:27:47.998Z</time></trkpt><trkpt lat="43.14697693844968" lon="10.853191857769938"><ele>479.0</ele><time>2026-04-19T09:27:48.998Z</time></trkpt><trkpt lat="43.147104347564095" lon="10.85310729033254"><ele>479.0</ele><time>2026-04-19T09:27:49.998Z</time></trkpt><trkpt lat="43.147213518434135" lon="10.852985718555681"><ele>479.0</ele><time>2026-04-19T09:27:50.998Z</time></trkpt><trkpt lat="43.14731565494315" lon="10.852893945846134"><ele>479.5</ele><time>2026-04-19T09:27:51.998Z</time></trkpt><trkpt lat="43.14742339334212" lon="10.852789828576368"><ele>480.0</ele><time>2026-04-19T09:27:52.998Z</time></trkpt><trkpt lat="43.14754447300375" lon="10.852729671393147"><ele>480.5</ele><time>2026-04-19T09:27:53.998Z</time></trkpt><trkpt lat="43.14765458707039" lon="10.852712306466135"><ele>481.0</ele><time>2026-04-19T09:27:54.998Z</time></trkpt><trkpt lat="43.1477569762984" lon="10.852773944417917"><ele>481.0</ele><time>2026-04-19T09:27:55.998Z</time></trkpt><trkpt lat="43.14785170544228" lon="10.85286098450292"><ele>481.0</ele><time>2026-04-19T09:27:56.998Z</time></trkpt><trkpt lat="43.1479241754249" lon="10.852981732229857"><ele>481.0</ele><time>2026-04-19T09:27:57.998Z</time></trkpt><trkpt lat="43.14800234432775" lon="10.853113570239968"><ele>481.0</ele><time>2026-04-19T09:27:58.998Z</time></trkpt><trkpt lat="43.14810258126179" lon="10.853264488060628"><ele>482.5</ele><time>2026-04-19T09:27:59.998Z</time></trkpt><trkpt lat="43.14824624240824" lon="10.853316479731474"><ele>484.0</ele><time>2026-04-19T09:28:00.998Z</time></trkpt><trkpt lat="43.148342323765014" lon="10.85339841614984"><ele>485.5</ele><time>2026-04-19T09:28:01.998Z</time></trkpt><trkpt lat="43.14845274169414" lon="10.853459683049445"><ele>487.0</ele><time>2026-04-19T09:28:02.998Z</time></trkpt><trkpt lat="43.14860915302515" lon="10.8534694431392"><ele>487.0</ele><time>2026-04-19T09:28:03.998Z</time></trkpt><trkpt lat="43.14872444892107" lon="10.853546355659322"><ele>487.0</ele><time>2026-04-19T09:28:04.998Z</time></trkpt><trkpt lat="43.148787275866255" lon="10.853697092055574"><ele>487.0</ele><time>2026-04-19T09:28:05.998Z</time></trkpt><trkpt lat="43.14876606022347" lon="10.853842505078136"><ele>487.0</ele><time>2026-04-19T09:28:06.998Z</time></trkpt><trkpt lat="43.148773828935404" lon="10.854008264796907"><ele>487.0</ele><time>2026-04-19T09:28:07.998Z</time></trkpt><trkpt lat="43.14878277130131" lon="10.854213249964499"><ele>487.0</ele><time>2026-04-19T09:28:08.998Z</time></trkpt><trkpt lat="43.14878474896722" lon="10.854395398694201"><ele>487.0</ele><time>2026-04-19T09:28:09.998Z</time></trkpt><trkpt lat="43.14873845492375" lon="10.854544644705994"><ele>487.0</ele><time>2026-04-19T09:28:10.998Z</time></trkpt><trkpt lat="43.14868778486694" lon="10.854674725883239"><ele>490.0</ele><time>2026-04-19T09:28:11.998Z</time></trkpt><trkpt lat="43.14862669625189" lon="10.854787652384314"><ele>493.00000000000006</ele><time>2026-04-19T09:28:12.998Z</time></trkpt><trkpt lat="43.148544907918506" lon="10.85483438207438"><ele>496.00000000000006</ele><time>2026-04-19T09:28:13.998Z</time></trkpt><trkpt lat="43.148454463490076" lon="10.854885500922524"><ele>499.0</ele><time>2026-04-19T09:28:14.998Z</time></trkpt><trkpt lat="43.14835778237139" lon="10.854952366211823"><ele>502.0</ele><time>2026-04-19T09:28:15.998Z</time></trkpt><trkpt lat="43.148254174943375" lon="10.855013128404975"><ele>502.5</ele><time>2026-04-19T09:28:16.998Z</time></trkpt><trkpt lat="43.14814290837621" lon="10.85508201200802"><ele>503.0</ele><time>2026-04-19T09:28:17.998Z</time></trkpt><trkpt lat="43.14804139562202" lon="10.85514738737373"><ele>503.5</ele><time>2026-04-19T09:28:18.998Z</time></trkpt><trkpt lat="43.147934507191295" lon="10.855216224312757"><ele>504.0</ele><time>2026-04-19T09:28:19.998Z</time></trkpt><trkpt lat="43.14782999389347" lon="10.855306615415556"><ele>506.66666666666663</ele><time>2026-04-19T09:28:20.998Z</time></trkpt><trkpt lat="43.14772548717211" lon="10.85538096563051"><ele>509.3333333333333</ele><time>2026-04-19T09:28:21.998Z</time></trkpt><trkpt lat="43.147631570473585" lon="10.855481582469023"><ele>512.0</ele><time>2026-04-19T09:28:22.998Z</time></trkpt><trkpt lat="43.14749728761506" lon="10.855721701484054"><ele>512.0</ele><time>2026-04-19T09:28:24.998Z</time></trkpt><trkpt lat="43.14744934812492" lon="10.855828583659157"><ele>512.0</ele><time>2026-04-19T09:28:25.998Z</time></trkpt><trkpt lat="43.14739759168636" lon="10.855898192946931"><ele>512.0</ele><time>2026-04-19T09:28:26.998Z</time></trkpt><trkpt lat="43.14733780695696" lon="10.856002642026226"><ele>512.0</ele><time>2026-04-19T09:28:28.998Z</time></trkpt><trkpt lat="43.147261215736926" lon="10.855933392514473"><ele>512.0</ele><time>2026-04-19T09:28:30.998Z</time></trkpt><trkpt lat="43.14721421514814" lon="10.855773244417135"><ele>513.4285714285714</ele><time>2026-04-19T09:28:32.998Z</time></trkpt><trkpt lat="43.147178586341006" lon="10.8556964257661"><ele>514.8571428571428</ele><time>2026-04-19T09:28:33.998Z</time></trkpt><trkpt lat="43.14715775786428" lon="10.855600526456389"><ele>516.2857142857142</ele><time>2026-04-19T09:28:34.998Z</time></trkpt><trkpt lat="43.14712517383857" lon="10.855515691904982"><ele>517.7142857142857</ele><time>2026-04-19T09:28:35.998Z</time></trkpt><trkpt lat="43.147089294173206" lon="10.855422223457591"><ele>519.1428571428571</ele><time>2026-04-19T09:28:36.998Z</time></trkpt><trkpt lat="43.14705294173291" lon="10.855327320280407"><ele>520.5714285714286</ele><time>2026-04-19T09:28:37.998Z</time></trkpt><trkpt lat="43.147000652631995" lon="10.855239266081822"><ele>522.0</ele><time>2026-04-19T09:28:38.998Z</time></trkpt><trkpt lat="43.14696301247772" lon="10.855136947648772"><ele>521.5</ele><time>2026-04-19T09:28:40Z</time></trkpt><trkpt lat="43.14692355414773" lon="10.855035839006657"><ele>521.0</ele><time>2026-04-19T09:28:41Z</time></trkpt><trkpt lat="43.14687346492606" lon="10.854945640214602"><ele>520.5</ele><time>2026-04-19T09:28:42Z</time></trkpt><trkpt lat="43.14682811850798" lon="10.854852202812694"><ele>520.0</ele><time>2026-04-19T09:28:43Z</time></trkpt><trkpt lat="43.146763006928296" lon="10.854772859116714"><ele>519.5</ele><time>2026-04-19T09:28:44Z</time></trkpt><trkpt lat="43.14669229325428" lon="10.854700290129438"><ele>519.0</ele><time>2026-04-19T09:28:45Z</time></trkpt><trkpt lat="43.14661886928894" lon="10.854638712228645"><ele>520.0</ele><time>2026-04-19T09:28:46Z</time></trkpt><trkpt lat="43.146517637419606" lon="10.854644062773076"><ele>521.0</ele><time>2026-04-19T09:28:47Z</time></trkpt><trkpt lat="43.14642991653037" lon="10.854628742469393"><ele>522.0</ele><time>2026-04-19T09:28:48Z</time></trkpt><trkpt lat="43.14634840991902" lon="10.854583142966971"><ele>523.0</ele><time>2026-04-19T09:28:49Z</time></trkpt><trkpt lat="43.14626031207781" lon="10.854570413053002"><ele>524.0</ele><time>2026-04-19T09:28:50Z</time></trkpt><trkpt lat="43.146186027603186" lon="10.854529299650709"><ele>525.0</ele><time>2026-04-19T09:28:51Z</time></trkpt><trkpt lat="43.1461055740021" lon="10.854498058921267"><ele>525.0</ele><time>2026-04-19T09:28:52Z</time></trkpt><trkpt lat="43.14603570499725" lon="10.85447174483604"><ele>525.0</ele><time>2026-04-19T09:28:53Z</time></trkpt><trkpt lat="43.14595453822955" lon="10.854442244398909"><ele>525.0</ele><time>2026-04-19T09:28:54Z</time></trkpt><trkpt lat="43.145879317640215" lon="10.854410550511947"><ele>525.0</ele><time>2026-04-19T09:28:55Z</time></trkpt><trkpt lat="43.14580413651502" lon="10.854386107832765"><ele>525.0</ele><time>2026-04-19T09:28:56Z</time></trkpt><trkpt lat="43.145725224018136" lon="10.854359030540175"><ele>525.0</ele><time>2026-04-19T09:28:57Z</time></trkpt><trkpt lat="43.14564866441331" lon="10.854335405613835"><ele>523.3333333333334</ele><time>2026-04-19T09:28:57.999Z</time></trkpt><trkpt lat="43.145569844498354" lon="10.85430707841359"><ele>521.6666666666666</ele><time>2026-04-19T09:28:58.999Z</time></trkpt><trkpt lat="43.14549795903473" lon="10.854308831555002"><ele>520.0</ele><time>2026-04-19T09:28:59.999Z</time></trkpt><trkpt lat="43.14542157910906" lon="10.854323134712134"><ele>518.3333333333333</ele><time>2026-04-19T09:29:00.999Z</time></trkpt><trkpt lat="43.14534355675976" lon="10.85433683762068"><ele>516.6666666666666</ele><time>2026-04-19T09:29:01.999Z</time></trkpt><trkpt lat="43.14527557327984" lon="10.854377601924597"><ele>515.0</ele><time>2026-04-19T09:29:02.999Z</time></trkpt><trkpt lat="43.14521885095692" lon="10.854438591875919"><ele>515.0</ele><time>2026-04-19T09:29:03.999Z</time></trkpt><trkpt lat="43.14517253524945" lon="10.854510334010923"><ele>515.0</ele><time>2026-04-19T09:29:04.999Z</time></trkpt><trkpt lat="43.14513768205552" lon="10.85458764708529"><ele>515.0</ele><time>2026-04-19T09:29:05.999Z</time></trkpt><trkpt lat="43.145077999159554" lon="10.854724873804853"><ele>515.0</ele><time>2026-04-19T09:29:07.999Z</time></trkpt><trkpt lat="43.14503106147527" lon="10.854846281136924"><ele>515.0</ele><time>2026-04-19T09:29:09.999Z</time></trkpt><trkpt lat="43.144994009621485" lon="10.854934200637443"><ele>515.0</ele><time>2026-04-19T09:29:11.999Z</time></trkpt><trkpt lat="43.14495340816" lon="10.85503611246816"><ele>515.0</ele><time>2026-04-19T09:29:14.999Z</time></trkpt><trkpt lat="43.14492408931041" lon="10.855116707573005"><ele>515.0</ele><time>2026-04-19T09:29:16.999Z</time></trkpt><trkpt lat="43.14488326150569" lon="10.855202903292248"><ele>515.0</ele><time>2026-04-19T09:29:18.999Z</time></trkpt><trkpt lat="43.14483440021086" lon="10.855310717243924"><ele>515.0</ele><time>2026-04-19T09:29:20.999Z</time></trkpt><trkpt lat="43.14478293930523" lon="10.85542999093272"><ele>515.0</ele><time>2026-04-19T09:29:22.999Z</time></trkpt><trkpt lat="43.14474532402933" lon="10.855560170462063"><ele>515.0</ele><time>2026-04-19T09:29:24.999Z</time></trkpt><trkpt lat="43.144685769063884" lon="10.85569161471425"><ele>515.4</ele><time>2026-04-19T09:29:26.999Z</time></trkpt><trkpt lat="43.144619778306065" lon="10.855829992188092"><ele>515.8</ele><time>2026-04-19T09:29:28.999Z</time></trkpt><trkpt lat="43.144582547415446" lon="10.855899567134381"><ele>516.2</ele><time>2026-04-19T09:29:29.999Z</time></trkpt><trkpt lat="43.14453120893854" lon="10.85603968949035"><ele>516.6</ele><time>2026-04-19T09:29:31.999Z</time></trkpt><trkpt lat="43.1444742119981" lon="10.8561787186597"><ele>517.0</ele><time>2026-04-19T09:29:33.999Z</time></trkpt><trkpt lat="43.144417156731734" lon="10.856298539905278"><ele>517.0</ele><time>2026-04-19T09:29:35.999Z</time></trkpt><trkpt lat="43.144397215338415" lon="10.856438304414711"><ele>517.0</ele><time>2026-04-19T09:29:37.999Z</time></trkpt><trkpt lat="43.14441632829678" lon="10.856580795935928"><ele>517.0</ele><time>2026-04-19T09:29:39.999Z</time></trkpt><trkpt lat="43.14448331810797" lon="10.856598730370376"><ele>517.0</ele><time>2026-04-19T09:29:40.999Z</time></trkpt><trkpt lat="43.14453104639952" lon="10.856662513293058"><ele>517.0</ele><time>2026-04-19T09:29:42.999Z</time></trkpt><trkpt lat="43.14459935932416" lon="10.85660907071023"><ele>517.0</ele><time>2026-04-19T09:29:44.999Z</time></trkpt><trkpt lat="43.14466185016885" lon="10.856513295456594"><ele>517.0</ele><time>2026-04-19T09:29:46.999Z</time></trkpt><trkpt lat="43.14472094696918" lon="10.856413723373247"><ele>517.0</ele><time>2026-04-19T09:29:48.999Z</time></trkpt><trkpt lat="43.14484158223664" lon="10.856432448896058"><ele>517.0</ele><time>2026-04-19T09:29:50.999Z</time></trkpt><trkpt lat="43.144832296222916" lon="10.856283912284912"><ele>517.0</ele><time>2026-04-19T09:29:51.998Z</time></trkpt><trkpt lat="43.14487418843985" lon="10.856210806029512"><ele>517.0</ele><time>2026-04-19T09:29:53.998Z</time></trkpt><trkpt lat="43.144928696912466" lon="10.85612665487342"><ele>518.7142857142858</ele><time>2026-04-19T09:29:56.998Z</time></trkpt><trkpt lat="43.14496797122245" lon="10.856044206307494"><ele>520.4285714285714</ele><time>2026-04-19T09:29:58.998Z</time></trkpt><trkpt lat="43.14502265573459" lon="10.855968273210449"><ele>522.1428571428571</ele><time>2026-04-19T09:30:00.998Z</time></trkpt><trkpt lat="43.14508819830318" lon="10.855919544670774"><ele>523.8571428571429</ele><time>2026-04-19T09:30:03.998Z</time></trkpt><trkpt lat="43.1451543381884" lon="10.855896642493116"><ele>525.5714285714286</ele><time>2026-04-19T09:30:06.998Z</time></trkpt><trkpt lat="43.1452393111801" lon="10.855868935404315"><ele>527.2857142857143</ele><time>2026-04-19T09:30:09.998Z</time></trkpt><trkpt lat="43.145302199305064" lon="10.855847331171043"><ele>529.0</ele><time>2026-04-19T09:30:11.998Z</time></trkpt><trkpt lat="43.14538576007251" lon="10.855824491194289"><ele>529.0</ele><time>2026-04-19T09:30:14.998Z</time></trkpt><trkpt lat="43.145451108693656" lon="10.855797602839063"><ele>529.0</ele><time>2026-04-19T09:30:17.998Z</time></trkpt><trkpt lat="43.14553617819985" lon="10.855808143334604"><ele>529.0</ele><time>2026-04-19T09:30:31.998Z</time></trkpt><trkpt lat="43.14563520761771" lon="10.85578459163851"><ele>529.0</ele><time>2026-04-19T09:30:33.998Z</time></trkpt><trkpt lat="43.14574601047766" lon="10.85576305682915"><ele>529.0</ele><time>2026-04-19T09:30:35.998Z</time></trkpt><trkpt lat="43.14586068452705" lon="10.855748816827276"><ele>530.1666666666667</ele><time>2026-04-19T09:30:37.998Z</time></trkpt><trkpt lat="43.14592662998972" lon="10.85576762816699"><ele>531.3333333333334</ele><time>2026-04-19T09:30:38.998Z</time></trkpt><trkpt lat="43.1460378905649" lon="10.855728544203558"><ele>532.5</ele><time>2026-04-19T09:30:40.998Z</time></trkpt><trkpt lat="43.146126119614735" lon="10.855730521695092"><ele>533.6666666666666</ele><time>2026-04-19T09:30:42.998Z</time></trkpt><trkpt lat="43.146059243379476" lon="10.85574724407877"><ele>534.8333333333333</ele><time>2026-04-19T09:30:53Z</time></trkpt><trkpt lat="43.145958096692624" lon="10.855764299095236"><ele>536.0</ele><time>2026-04-19T09:30:55Z</time></trkpt><trkpt lat="43.14585219329939" lon="10.85579360913355"><ele>536.0</ele><time>2026-04-19T09:30:57Z</time></trkpt><trkpt lat="43.145740815788464" lon="10.85579743751562"><ele>536.0</ele><time>2026-04-19T09:30:59Z</time></trkpt><trkpt lat="43.145640536287196" lon="10.855785669243602"><ele>536.0</ele><time>2026-04-19T09:31:00.999Z</time></trkpt><trkpt lat="43.145577413703116" lon="10.855809013780377"><ele>536.0</ele><time>2026-04-19T09:31:02.999Z</time></trkpt><trkpt lat="43.14550925387532" lon="10.85580979393372"><ele>536.0</ele><time>2026-04-19T09:31:06.999Z</time></trkpt><trkpt lat="43.14553194126871" lon="10.8558963096663"><ele>536.0</ele><time>2026-04-19T09:31:08.999Z</time></trkpt><trkpt lat="43.145558850307935" lon="10.856002956700323"><ele>535.1666666666666</ele><time>2026-04-19T09:31:10.999Z</time></trkpt><trkpt lat="43.14560118949511" lon="10.856112330109232"><ele>534.3333333333333</ele><time>2026-04-19T09:31:13.999Z</time></trkpt><trkpt lat="43.14563341475816" lon="10.856217211327808"><ele>533.5</ele><time>2026-04-19T09:31:16.999Z</time></trkpt><trkpt lat="43.14568795085206" lon="10.856273427620737"><ele>532.6666666666666</ele><time>2026-04-19T09:31:19.999Z</time></trkpt><trkpt lat="43.14574966271524" lon="10.856340853816205"><ele>531.8333333333334</ele><time>2026-04-19T09:31:21.999Z</time></trkpt><trkpt lat="43.14582136039125" lon="10.856380349085084"><ele>531.0</ele><time>2026-04-19T09:31:24.999Z</time></trkpt><trkpt lat="43.145783186481644" lon="10.85647497358655"><ele>529.6666666666666</ele><time>2026-04-19T09:31:27.999Z</time></trkpt><trkpt lat="43.14585115202541" lon="10.856524914134374"><ele>528.3333333333334</ele><time>2026-04-19T09:31:30.999Z</time></trkpt><trkpt lat="43.14592750425588" lon="10.85656110311868"><ele>527.0</ele><time>2026-04-19T09:31:33.999Z</time></trkpt><trkpt lat="43.14598941451162" lon="10.856591318294724"><ele>525.6666666666667</ele><time>2026-04-19T09:31:36.999Z</time></trkpt><trkpt lat="43.14605969247456" lon="10.856632473851008"><ele>524.3333333333334</ele><time>2026-04-19T09:31:39.999Z</time></trkpt><trkpt lat="43.14615288597442" lon="10.856680654146574"><ele>523.0</ele><time>2026-04-19T09:31:42.999Z</time></trkpt><trkpt lat="43.14624779071612" lon="10.856684959841726"><ele>523.0</ele><time>2026-04-19T09:31:44.999Z</time></trkpt><trkpt lat="43.14634302209994" lon="10.856660673476329"><ele>523.0</ele><time>2026-04-19T09:31:46.999Z</time></trkpt><trkpt lat="43.14641332000669" lon="10.856597439194227"><ele>523.0</ele><time>2026-04-19T09:31:48.999Z</time></trkpt><trkpt lat="43.14649277151728" lon="10.856551051078636"><ele>523.0</ele><time>2026-04-19T09:31:50.999Z</time></trkpt><trkpt lat="43.1465639748656" lon="10.856507187109782"><ele>523.0</ele><time>2026-04-19T09:31:52.999Z</time></trkpt><trkpt lat="43.14664273973865" lon="10.856467606212993"><ele>523.0</ele><time>2026-04-19T09:31:54.998Z</time></trkpt><trkpt lat="43.14672329537776" lon="10.856436262593181"><ele>521.5</ele><time>2026-04-19T09:31:56.998Z</time></trkpt><trkpt lat="43.14679383231794" lon="10.856398130515714"><ele>520.0</ele><time>2026-04-19T09:31:58.998Z</time></trkpt><trkpt lat="43.1468707930116" lon="10.856363339070894"><ele>518.5</ele><time>2026-04-19T09:32:00.998Z</time></trkpt><trkpt lat="43.14692904362738" lon="10.85632929617515"><ele>517.0</ele><time>2026-04-19T09:32:02.998Z</time></trkpt><trkpt lat="43.14701237797924" lon="10.856298721754067"><ele>515.5</ele><time>2026-04-19T09:32:05.998Z</time></trkpt><trkpt lat="43.14694351300129" lon="10.856332465724716"><ele>514.0</ele><time>2026-04-19T09:32:28.998Z</time></trkpt><trkpt lat="43.14692932927125" lon="10.856452179124323"><ele>514.0</ele><time>2026-04-19T09:32:34.998Z</time></trkpt><trkpt lat="43.14697250950379" lon="10.856383172394183"><ele>514.0</ele><time>2026-04-19T09:40:23.999Z</time></trkpt><trkpt lat="43.1470384207067" lon="10.85635904287967"><ele>514.0</ele><time>2026-04-19T09:40:44.998Z</time></trkpt><trkpt lat="43.14697216019099" lon="10.856320162846789"><ele>514.0</ele><time>2026-04-19T09:40:55.998Z</time></trkpt><trkpt lat="43.147003938807906" lon="10.856235148652395"><ele>514.0</ele><time>2026-04-19T09:44:15.999Z</time></trkpt><trkpt lat="43.14705804420692" lon="10.856184567533669"><ele>514.0</ele><time>2026-04-19T09:44:24.999Z</time></trkpt><trkpt lat="43.14713802234363" lon="10.856133966264567"><ele>514.0</ele><time>2026-04-19T09:44:46.998Z</time></trkpt><trkpt lat="43.14719194762739" lon="10.856070677231566"><ele>514.0</ele><time>2026-04-19T09:45:04.998Z</time></trkpt><trkpt lat="43.14720976402004" lon="10.855965564910276"><ele>514.0</ele><time>2026-04-19T09:45:12.998Z</time></trkpt><trkpt lat="43.147185817079816" lon="10.856268207338815"><ele>514.0</ele><time>2026-04-19T09:47:59.713Z</time></trkpt><trkpt lat="43.14720627369519" lon="10.856057519275712"><ele>514.0</ele><time>2026-04-19T09:50:40.994Z</time></trkpt><trkpt lat="43.14716840583762" lon="10.856144564369899"><ele>514.0</ele><time>2026-04-19T09:50:56Z</time></trkpt><trkpt lat="43.14710338499679" lon="10.85618805727591"><ele>514.0</ele><time>2026-04-19T09:51:09Z</time></trkpt><trkpt lat="43.14705035161354" lon="10.8562464469281"><ele>514.0</ele><time>2026-04-19T09:51:19.999Z</time></trkpt><trkpt lat="43.147014372423634" lon="10.856319479117522"><ele>514.0</ele><time>2026-04-19T09:51:28.999Z</time></trkpt><trkpt lat="43.14706711352912" lon="10.856236685272197"><ele>514.0</ele><time>2026-04-19T10:00:41.998Z</time></trkpt><trkpt lat="43.147139050086956" lon="10.856177867337388"><ele>514.0</ele><time>2026-04-19T10:00:43.998Z</time></trkpt><trkpt lat="43.1472006973543" lon="10.8561130388283"><ele>514.0</ele><time>2026-04-19T10:00:45.998Z</time></trkpt><trkpt lat="43.147270498769146" lon="10.856099913062188"><ele>514.0</ele><time>2026-04-19T10:00:47.998Z</time></trkpt><trkpt lat="43.14734780963012" lon="10.856222637791756"><ele>514.0</ele><time>2026-04-19T10:00:49.998Z</time></trkpt><trkpt lat="43.147390145371666" lon="10.856322647122845"><ele>514.0</ele><time>2026-04-19T10:00:50.998Z</time></trkpt><trkpt lat="43.14742306808098" lon="10.856404627975202"><ele>514.0</ele><time>2026-04-19T10:00:51.998Z</time></trkpt><trkpt lat="43.14745592337624" lon="10.856481145230886"><ele>514.0</ele><time>2026-04-19T10:00:52.998Z</time></trkpt><trkpt lat="43.147518967493404" lon="10.85656881777558"><ele>513.3333333333334</ele><time>2026-04-19T10:00:53.998Z</time></trkpt><trkpt lat="43.14759650353634" lon="10.856576706053414"><ele>512.6666666666667</ele><time>2026-04-19T10:00:54.998Z</time></trkpt><trkpt lat="43.14766440583426" lon="10.856600069631332"><ele>512.0</ele><time>2026-04-19T10:00:55.998Z</time></trkpt><trkpt lat="43.147731826871045" lon="10.856631864406083"><ele>511.33333333333337</ele><time>2026-04-19T10:00:56.998Z</time></trkpt><trkpt lat="43.14780528448091" lon="10.85666641666117"><ele>510.6666666666667</ele><time>2026-04-19T10:00:57.998Z</time></trkpt><trkpt lat="43.14787986006987" lon="10.85671087848967"><ele>510.0</ele><time>2026-04-19T10:00:58.998Z</time></trkpt><trkpt lat="43.14795044243863" lon="10.856766393155805"><ele>510.5</ele><time>2026-04-19T10:00:59.998Z</time></trkpt><trkpt lat="43.14802581321058" lon="10.85682285829372"><ele>511.0</ele><time>2026-04-19T10:01:00.998Z</time></trkpt><trkpt lat="43.148088379440956" lon="10.856908312279892"><ele>511.5</ele><time>2026-04-19T10:01:01.998Z</time></trkpt><trkpt lat="43.148122953450105" lon="10.857015643475583"><ele>512.0</ele><time>2026-04-19T10:01:02.998Z</time></trkpt><trkpt lat="43.14814020982274" lon="10.857131805357255"><ele>512.5</ele><time>2026-04-19T10:01:03.998Z</time></trkpt><trkpt lat="43.148132431439834" lon="10.857242758868686"><ele>513.0</ele><time>2026-04-19T10:01:04.998Z</time></trkpt><trkpt lat="43.148105982543555" lon="10.857347722281524"><ele>513.0</ele><time>2026-04-19T10:01:05.998Z</time></trkpt><trkpt lat="43.148036878006366" lon="10.857436056274492"><ele>513.0</ele><time>2026-04-19T10:01:06.998Z</time></trkpt><trkpt lat="43.14795541312325" lon="10.857488644709411"><ele>513.0</ele><time>2026-04-19T10:01:07.998Z</time></trkpt><trkpt lat="43.14787039469968" lon="10.857516126971182"><ele>513.0</ele><time>2026-04-19T10:01:08.998Z</time></trkpt><trkpt lat="43.14776739006105" lon="10.857515649612317"><ele>513.0</ele><time>2026-04-19T10:01:09.998Z</time></trkpt><trkpt lat="43.147663116247536" lon="10.85754298309264"><ele>513.0</ele><time>2026-04-19T10:01:10.998Z</time></trkpt><trkpt lat="43.14756547548736" lon="10.857584558434448"><ele>513.0</ele><time>2026-04-19T10:01:11.998Z</time></trkpt><trkpt lat="43.14746927944532" lon="10.857636146946898"><ele>513.0</ele><time>2026-04-19T10:01:12.998Z</time></trkpt><trkpt lat="43.14736385359895" lon="10.857655383565122"><ele>513.0</ele><time>2026-04-19T10:01:13.998Z</time></trkpt><trkpt lat="43.147264876297555" lon="10.85769538640972"><ele>513.0</ele><time>2026-04-19T10:01:15Z</time></trkpt><trkpt lat="43.14716109152518" lon="10.85774006738248"><ele>515.4</ele><time>2026-04-19T10:01:16Z</time></trkpt><trkpt lat="43.147064660122936" lon="10.857782753292996"><ele>517.8</ele><time>2026-04-19T10:01:17Z</time></trkpt><trkpt lat="43.14695308554315" lon="10.857833155744718"><ele>520.2</ele><time>2026-04-19T10:01:18Z</time></trkpt><trkpt lat="43.14684963493379" lon="10.8578890431317"><ele>522.6</ele><time>2026-04-19T10:01:19Z</time></trkpt><trkpt lat="43.14674648793389" lon="10.857956660216058"><ele>525.0</ele><time>2026-04-19T10:01:20Z</time></trkpt><trkpt lat="43.146649125340154" lon="10.858041921484238"><ele>525.0</ele><time>2026-04-19T10:01:21Z</time></trkpt><trkpt lat="43.146546117916365" lon="10.858121109589373"><ele>525.0</ele><time>2026-04-19T10:01:22Z</time></trkpt><trkpt lat="43.14644530024512" lon="10.858201153953406"><ele>525.0</ele><time>2026-04-19T10:01:23Z</time></trkpt><trkpt lat="43.146351282998005" lon="10.858287285586508"><ele>525.0</ele><time>2026-04-19T10:01:24Z</time></trkpt><trkpt lat="43.14627156671602" lon="10.858379444310454"><ele>525.0</ele><time>2026-04-19T10:01:25Z</time></trkpt><trkpt lat="43.1461794050082" lon="10.858471090860542"><ele>525.0</ele><time>2026-04-19T10:01:26Z</time></trkpt><trkpt lat="43.146086961298664" lon="10.8585876855232"><ele>525.0</ele><time>2026-04-19T10:01:27Z</time></trkpt><trkpt lat="43.145999175363755" lon="10.858724589023698"><ele>525.0</ele><time>2026-04-19T10:01:28Z</time></trkpt><trkpt lat="43.14591408117291" lon="10.858825025720904"><ele>525.0</ele><time>2026-04-19T10:01:29Z</time></trkpt><trkpt lat="43.14582982192114" lon="10.858916333367251"><ele>525.0</ele><time>2026-04-19T10:01:30Z</time></trkpt><trkpt lat="43.145746796666614" lon="10.859013254772387"><ele>525.0</ele><time>2026-04-19T10:01:31Z</time></trkpt><trkpt lat="43.145675395489306" lon="10.859124866050806"><ele>525.0</ele><time>2026-04-19T10:01:32Z</time></trkpt><trkpt lat="43.14562465478753" lon="10.859255569690864"><ele>525.0</ele><time>2026-04-19T10:01:33Z</time></trkpt><trkpt lat="43.14559551132966" lon="10.859386253072728"><ele>523.8</ele><time>2026-04-19T10:01:34Z</time></trkpt><trkpt lat="43.14559588158728" lon="10.859525702017889"><ele>522.6</ele><time>2026-04-19T10:01:35Z</time></trkpt><trkpt lat="43.1456118033367" lon="10.859673827591598"><ele>521.4</ele><time>2026-04-19T10:01:36Z</time></trkpt><trkpt lat="43.145635359604576" lon="10.859811371711478"><ele>520.2</ele><time>2026-04-19T10:01:37Z</time></trkpt><trkpt lat="43.14564875673979" lon="10.859937690083544"><ele>519.0</ele><time>2026-04-19T10:01:38Z</time></trkpt><trkpt lat="43.14567100234197" lon="10.860050554912236"><ele>522.4</ele><time>2026-04-19T10:01:39Z</time></trkpt><trkpt lat="43.14568795208974" lon="10.860163708703658"><ele>525.8</ele><time>2026-04-19T10:01:40Z</time></trkpt><trkpt lat="43.14568618107692" lon="10.860293876483775"><ele>529.2</ele><time>2026-04-19T10:01:41Z</time></trkpt><trkpt lat="43.1456554186467" lon="10.86041013289427"><ele>532.6</ele><time>2026-04-19T10:01:42Z</time></trkpt><trkpt lat="43.1455716951762" lon="10.860474354456585"><ele>536.0</ele><time>2026-04-19T10:01:43Z</time></trkpt><trkpt lat="43.145462405967876" lon="10.860556871222968"><ele>536.0</ele><time>2026-04-19T10:01:44Z</time></trkpt><trkpt lat="43.14535452113673" lon="10.860610488295611"><ele>536.0</ele><time>2026-04-19T10:01:45Z</time></trkpt><trkpt lat="43.145247325739376" lon="10.860666325248493"><ele>536.0</ele><time>2026-04-19T10:01:46Z</time></trkpt><trkpt lat="43.14513851125693" lon="10.860709551682929"><ele>536.0</ele><time>2026-04-19T10:01:47Z</time></trkpt><trkpt lat="43.14502278399769" lon="10.86074489040606"><ele>536.0</ele><time>2026-04-19T10:01:48Z</time></trkpt><trkpt lat="43.14491388994715" lon="10.860781873854702"><ele>536.0</ele><time>2026-04-19T10:01:49Z</time></trkpt><trkpt lat="43.144804821994256" lon="10.860835186045849"><ele>536.0</ele><time>2026-04-19T10:01:50Z</time></trkpt><trkpt lat="43.14469290157777" lon="10.860876256597358"><ele>536.0</ele><time>2026-04-19T10:01:51Z</time></trkpt><trkpt lat="43.144575500203395" lon="10.860911015405994"><ele>536.0</ele><time>2026-04-19T10:01:51.999Z</time></trkpt><trkpt lat="43.14445646283773" lon="10.860952645370514"><ele>536.0</ele><time>2026-04-19T10:01:52.999Z</time></trkpt><trkpt lat="43.14433942211943" lon="10.86102074330242"><ele>536.0</ele><time>2026-04-19T10:01:53.999Z</time></trkpt><trkpt lat="43.14422102667149" lon="10.86110904818433"><ele>536.0</ele><time>2026-04-19T10:01:54.999Z</time></trkpt><trkpt lat="43.1441820875842" lon="10.861280470196736"><ele>536.0</ele><time>2026-04-19T10:01:55.999Z</time></trkpt><trkpt lat="43.14414377480674" lon="10.861428624857648"><ele>536.0</ele><time>2026-04-19T10:01:56.999Z</time></trkpt><trkpt lat="43.14415779810286" lon="10.861630649184317"><ele>536.0</ele><time>2026-04-19T10:01:57.999Z</time></trkpt><trkpt lat="43.14413226980884" lon="10.86179774783934"><ele>536.0</ele><time>2026-04-19T10:01:58.999Z</time></trkpt><trkpt lat="43.14409320311989" lon="10.861975200658913"><ele>538.5</ele><time>2026-04-19T10:01:59.999Z</time></trkpt><trkpt lat="43.14405299748185" lon="10.862144919057952"><ele>541.0</ele><time>2026-04-19T10:02:00.999Z</time></trkpt><trkpt lat="43.144006652281135" lon="10.862321467380301"><ele>543.5</ele><time>2026-04-19T10:02:01.999Z</time></trkpt><trkpt lat="43.143967302152355" lon="10.862503077371532"><ele>546.0</ele><time>2026-04-19T10:02:02.999Z</time></trkpt><trkpt lat="43.14393511062229" lon="10.862693755393055"><ele>539.75</ele><time>2026-04-19T10:02:03.999Z</time></trkpt><trkpt lat="43.143904332552424" lon="10.862874850696876"><ele>533.5</ele><time>2026-04-19T10:02:04.999Z</time></trkpt><trkpt lat="43.14388835725847" lon="10.863059531325398"><ele>527.25</ele><time>2026-04-19T10:02:05.999Z</time></trkpt><trkpt lat="43.14390099351669" lon="10.863255151776645"><ele>521.0</ele><time>2026-04-19T10:02:06.999Z</time></trkpt><trkpt lat="43.143934302381936" lon="10.863451021289492"><ele>521.0</ele><time>2026-04-19T10:02:07.999Z</time></trkpt><trkpt lat="43.14397238951993" lon="10.863647302290635"><ele>521.0</ele><time>2026-04-19T10:02:08.999Z</time></trkpt><trkpt lat="43.1440043022729" lon="10.863852066005569"><ele>521.0</ele><time>2026-04-19T10:02:09.999Z</time></trkpt><trkpt lat="43.14403138301032" lon="10.86405674700616"><ele>530.3333333333333</ele><time>2026-04-19T10:02:10.999Z</time></trkpt><trkpt lat="43.14406500344525" lon="10.86425689913118"><ele>539.6666666666666</ele><time>2026-04-19T10:02:11.999Z</time></trkpt><trkpt lat="43.14409585016992" lon="10.864456479546908"><ele>549.0</ele><time>2026-04-19T10:02:12.999Z</time></trkpt><trkpt lat="43.144121364322146" lon="10.864661977862818"><ele>549.0</ele><time>2026-04-19T10:02:13.999Z</time></trkpt><trkpt lat="43.14415205434692" lon="10.864851526562257"><ele>549.0</ele><time>2026-04-19T10:02:14.999Z</time></trkpt><trkpt lat="43.14418919550619" lon="10.865043679731448"><ele>549.0</ele><time>2026-04-19T10:02:15.999Z</time></trkpt><trkpt lat="43.14425039603106" lon="10.865231162146415"><ele>549.0</ele><time>2026-04-19T10:02:16.999Z</time></trkpt><trkpt lat="43.14433886947468" lon="10.86540555078475"><ele>549.3333333333334</ele><time>2026-04-19T10:02:17.999Z</time></trkpt><trkpt lat="43.14443513349543" lon="10.865577852913972"><ele>549.6666666666667</ele><time>2026-04-19T10:02:18.999Z</time></trkpt><trkpt lat="43.144543245526066" lon="10.865723865806261"><ele>550.0</ele><time>2026-04-19T10:02:19.999Z</time></trkpt><trkpt lat="43.144639649309156" lon="10.865868138100453"><ele>549.75</ele><time>2026-04-19T10:02:20.999Z</time></trkpt><trkpt lat="43.144731932905195" lon="10.86601656631293"><ele>549.5</ele><time>2026-04-19T10:02:21.999Z</time></trkpt><trkpt lat="43.144815797016236" lon="10.866170237110884"><ele>549.25</ele><time>2026-04-19T10:02:22.999Z</time></trkpt><trkpt lat="43.144896029819876" lon="10.866331661743866"><ele>549.0</ele><time>2026-04-19T10:02:23.999Z</time></trkpt><trkpt lat="43.144966942085006" lon="10.866490940007933"><ele>553.5</ele><time>2026-04-19T10:02:24.999Z</time></trkpt><trkpt lat="43.14503088420784" lon="10.86665885868341"><ele>558.0</ele><time>2026-04-19T10:02:25.999Z</time></trkpt><trkpt lat="43.145080818883606" lon="10.866823729819222"><ele>562.5</ele><time>2026-04-19T10:02:26.999Z</time></trkpt><trkpt lat="43.14513189246454" lon="10.866995361410437"><ele>567.0</ele><time>2026-04-19T10:02:27.999Z</time></trkpt><trkpt lat="43.14517764487317" lon="10.867170671317794"><ele>567.0</ele><time>2026-04-19T10:02:28.999Z</time></trkpt><trkpt lat="43.14522468872165" lon="10.867336550784746"><ele>567.0</ele><time>2026-04-19T10:02:29.999Z</time></trkpt><trkpt lat="43.1452715764188" lon="10.867510691179637"><ele>567.0</ele><time>2026-04-19T10:02:30.999Z</time></trkpt><trkpt lat="43.14532132922083" lon="10.867685481785548"><ele>567.0</ele><time>2026-04-19T10:02:31.999Z</time></trkpt><trkpt lat="43.145373222142354" lon="10.86785704793977"><ele>565.75</ele><time>2026-04-19T10:02:32.999Z</time></trkpt><trkpt lat="43.1454201903568" lon="10.868029208922938"><ele>564.5</ele><time>2026-04-19T10:02:33.999Z</time></trkpt><trkpt lat="43.14546538348791" lon="10.868201573404084"><ele>563.25</ele><time>2026-04-19T10:02:34.999Z</time></trkpt><trkpt lat="43.14551541763913" lon="10.868376938948023"><ele>562.0</ele><time>2026-04-19T10:02:35.999Z</time></trkpt><trkpt lat="43.14556154367636" lon="10.86854692579057"><ele>562.0</ele><time>2026-04-19T10:02:36.999Z</time></trkpt><trkpt lat="43.14560851105378" lon="10.8687148072292"><ele>562.0</ele><time>2026-04-19T10:02:37.999Z</time></trkpt><trkpt lat="43.1456535304698" lon="10.868878527965244"><ele>562.0</ele><time>2026-04-19T10:02:38.999Z</time></trkpt><trkpt lat="43.1456887666989" lon="10.869042050292094"><ele>562.0</ele><time>2026-04-19T10:02:39.999Z</time></trkpt><trkpt lat="43.145701398440224" lon="10.869209377415999"><ele>565.5</ele><time>2026-04-19T10:02:40.999Z</time></trkpt><trkpt lat="43.14567340341992" lon="10.869375005562116"><ele>569.0</ele><time>2026-04-19T10:02:41.999Z</time></trkpt><trkpt lat="43.14565585759799" lon="10.869547837717349"><ele>572.5</ele><time>2026-04-19T10:02:42.999Z</time></trkpt><trkpt lat="43.14558172651338" lon="10.869688981738731"><ele>576.0</ele><time>2026-04-19T10:02:43.999Z</time></trkpt><trkpt lat="43.145535880191595" lon="10.86985083215778"><ele>576.0</ele><time>2026-04-19T10:02:44.999Z</time></trkpt><trkpt lat="43.14546538725504" lon="10.869995116207583"><ele>576.0</ele><time>2026-04-19T10:02:45.999Z</time></trkpt><trkpt lat="43.14541091454057" lon="10.870151827087694"><ele>576.0</ele><time>2026-04-19T10:02:46.999Z</time></trkpt><trkpt lat="43.145373566997314" lon="10.87031611359288"><ele>576.0</ele><time>2026-04-19T10:02:47.998Z</time></trkpt><trkpt lat="43.14534365882833" lon="10.870486462228238"><ele>579.0</ele><time>2026-04-19T10:02:48.998Z</time></trkpt><trkpt lat="43.1453250225082" lon="10.87066335245243"><ele>582.0</ele><time>2026-04-19T10:02:49.998Z</time></trkpt><trkpt lat="43.14533850927355" lon="10.87084064126876"><ele>585.0</ele><time>2026-04-19T10:02:50.998Z</time></trkpt><trkpt lat="43.145364758440266" lon="10.871016419597087"><ele>588.0</ele><time>2026-04-19T10:02:51.998Z</time></trkpt><trkpt lat="43.145418420928976" lon="10.871178721662055"><ele>590.5</ele><time>2026-04-19T10:02:52.998Z</time></trkpt><trkpt lat="43.14547514771232" lon="10.871339488283358"><ele>593.0</ele><time>2026-04-19T10:02:53.998Z</time></trkpt><trkpt lat="43.14552885117433" lon="10.87148371546452"><ele>595.5</ele><time>2026-04-19T10:02:54.998Z</time></trkpt><trkpt lat="43.14556130367608" lon="10.87162948485046"><ele>598.0</ele><time>2026-04-19T10:02:55.998Z</time></trkpt><trkpt lat="43.14557334389994" lon="10.871772388302984"><ele>601.8</ele><time>2026-04-19T10:02:56.998Z</time></trkpt><trkpt lat="43.14554850379362" lon="10.871907067125953"><ele>605.5999999999999</ele><time>2026-04-19T10:02:57.998Z</time></trkpt><trkpt lat="43.14546507896382" lon="10.871993385834706"><ele>609.4000000000001</ele><time>2026-04-19T10:02:58.998Z</time></trkpt><trkpt lat="43.14536599459067" lon="10.872030666189676"><ele>613.2</ele><time>2026-04-19T10:02:59.998Z</time></trkpt><trkpt lat="43.14525924314025" lon="10.872041348294822"><ele>617.0</ele><time>2026-04-19T10:03:00.998Z</time></trkpt><trkpt lat="43.14515254711185" lon="10.872069416014583"><ele>617.0</ele><time>2026-04-19T10:03:01.998Z</time></trkpt><trkpt lat="43.1450057359265" lon="10.872108036522311"><ele>617.0</ele><time>2026-04-19T10:03:02.998Z</time></trkpt><trkpt lat="43.14487230853946" lon="10.872143136273175"><ele>617.0</ele><time>2026-04-19T10:03:03.998Z</time></trkpt><trkpt lat="43.14473167957454" lon="10.872180130479503"><ele>617.0</ele><time>2026-04-19T10:03:04.998Z</time></trkpt><trkpt lat="43.14459356973025" lon="10.872214447095097"><ele>613.5</ele><time>2026-04-19T10:03:05.998Z</time></trkpt><trkpt lat="43.14446015258479" lon="10.87226340109771"><ele>610.0</ele><time>2026-04-19T10:03:06.998Z</time></trkpt><trkpt lat="43.144347964979204" lon="10.872358036213647"><ele>606.5</ele><time>2026-04-19T10:03:07.998Z</time></trkpt><trkpt lat="43.14424387609256" lon="10.872448002191334"><ele>603.0</ele><time>2026-04-19T10:03:08.998Z</time></trkpt><trkpt lat="43.144143969813705" lon="10.872573906148594"><ele>606.0</ele><time>2026-04-19T10:03:09.998Z</time></trkpt><trkpt lat="43.144063000789686" lon="10.872764782943884"><ele>609.0</ele><time>2026-04-19T10:03:10.998Z</time></trkpt><trkpt lat="43.144008350030276" lon="10.87294205403601"><ele>612.0</ele><time>2026-04-19T10:03:11.998Z</time></trkpt><trkpt lat="43.1439673275352" lon="10.873121468606097"><ele>615.0</ele><time>2026-04-19T10:03:12.998Z</time></trkpt><trkpt lat="43.14394615519156" lon="10.873311194097834"><ele>611.75</ele><time>2026-04-19T10:03:13.998Z</time></trkpt><trkpt lat="43.14393042808236" lon="10.87350234673861"><ele>608.5</ele><time>2026-04-19T10:03:14.998Z</time></trkpt><trkpt lat="43.14392143046824" lon="10.873691176991677"><ele>605.25</ele><time>2026-04-19T10:03:15.998Z</time></trkpt><trkpt lat="43.143907428491886" lon="10.873886855586994"><ele>602.0</ele><time>2026-04-19T10:03:16.998Z</time></trkpt><trkpt lat="43.143887959696826" lon="10.874082757676407"><ele>605.25</ele><time>2026-04-19T10:03:17.998Z</time></trkpt><trkpt lat="43.14386679581258" lon="10.874278925773748"><ele>608.5</ele><time>2026-04-19T10:03:18.998Z</time></trkpt><trkpt lat="43.14385113614928" lon="10.874476673045411"><ele>611.75</ele><time>2026-04-19T10:03:20Z</time></trkpt><trkpt lat="43.14383613294434" lon="10.87467277274663"><ele>615.0</ele><time>2026-04-19T10:03:21Z</time></trkpt><trkpt lat="43.14384122584326" lon="10.874867934068483"><ele>615.0</ele><time>2026-04-19T10:03:22Z</time></trkpt><trkpt lat="43.1438567567732" lon="10.875062585998524"><ele>615.0</ele><time>2026-04-19T10:03:23Z</time></trkpt><trkpt lat="43.14388265591032" lon="10.875259769822677"><ele>615.0</ele><time>2026-04-19T10:03:24Z</time></trkpt><trkpt lat="43.143910996797054" lon="10.87545020087642"><ele>615.0</ele><time>2026-04-19T10:03:25Z</time></trkpt><trkpt lat="43.14394181335038" lon="10.875640092285954"><ele>615.0</ele><time>2026-04-19T10:03:26Z</time></trkpt><trkpt lat="43.14397467331076" lon="10.875822456789795"><ele>615.0</ele><time>2026-04-19T10:03:27Z</time></trkpt><trkpt lat="43.144009358338806" lon="10.876005109196903"><ele>615.0</ele><time>2026-04-19T10:03:28Z</time></trkpt><trkpt lat="43.14405098785789" lon="10.876185560220067"><ele>615.0</ele><time>2026-04-19T10:03:29Z</time></trkpt><trkpt lat="43.14410348405286" lon="10.876363140353412"><ele>614.5</ele><time>2026-04-19T10:03:30Z</time></trkpt><trkpt lat="43.14418875692584" lon="10.876524381110691"><ele>614.0</ele><time>2026-04-19T10:03:31Z</time></trkpt><trkpt lat="43.14428369552223" lon="10.876666052855912"><ele>613.5</ele><time>2026-04-19T10:03:32Z</time></trkpt><trkpt lat="43.14438815741548" lon="10.876806046559363"><ele>613.0</ele><time>2026-04-19T10:03:33Z</time></trkpt><trkpt lat="43.14449908158058" lon="10.876954676564822"><ele>613.0</ele><time>2026-04-19T10:03:34Z</time></trkpt><trkpt lat="43.14459634966722" lon="10.877123523424098"><ele>613.0</ele><time>2026-04-19T10:03:35Z</time></trkpt><trkpt lat="43.14469682766003" lon="10.877296650216989"><ele>613.0</ele><time>2026-04-19T10:03:36Z</time></trkpt><trkpt lat="43.14477822278228" lon="10.87749033141621"><ele>612.0</ele><time>2026-04-19T10:03:37Z</time></trkpt><trkpt lat="43.144843576507405" lon="10.877697887035902"><ele>611.0</ele><time>2026-04-19T10:03:38Z</time></trkpt><trkpt lat="43.144894595182734" lon="10.877918777676863"><ele>610.0</ele><time>2026-04-19T10:03:39Z</time></trkpt><trkpt lat="43.14493366580365" lon="10.878143086552113"><ele>613.6666666666667</ele><time>2026-04-19T10:03:40Z</time></trkpt><trkpt lat="43.14496442847136" lon="10.87837361916314"><ele>617.3333333333334</ele><time>2026-04-19T10:03:41Z</time></trkpt><trkpt lat="43.14499460975189" lon="10.878605314602767"><ele>621.0</ele><time>2026-04-19T10:03:42Z</time></trkpt><trkpt lat="43.14502813220224" lon="10.878853377305438"><ele>621.0</ele><time>2026-04-19T10:03:43Z</time></trkpt><trkpt lat="43.14506358007645" lon="10.879093347916585"><ele>621.0</ele><time>2026-04-19T10:03:44Z</time></trkpt><trkpt lat="43.14510711844282" lon="10.879335922982314"><ele>621.0</ele><time>2026-04-19T10:03:45Z</time></trkpt><trkpt lat="43.1451489902044" lon="10.879582465002686"><ele>620.3333333333334</ele><time>2026-04-19T10:03:46Z</time></trkpt><trkpt lat="43.14519122769812" lon="10.879833483113782"><ele>619.6666666666667</ele><time>2026-04-19T10:03:47Z</time></trkpt><trkpt lat="43.145229524069144" lon="10.880085575850183"><ele>619.0</ele><time>2026-04-19T10:03:48Z</time></trkpt><trkpt lat="43.14526494320318" lon="10.88034257209615"><ele>618.3333333333334</ele><time>2026-04-19T10:03:49Z</time></trkpt><trkpt lat="43.145300014998384" lon="10.8805903675968"><ele>617.6666666666666</ele><time>2026-04-19T10:03:50Z</time></trkpt><trkpt lat="43.1453379595061" lon="10.880829084094739"><ele>617.0</ele><time>2026-04-19T10:03:51Z</time></trkpt><trkpt lat="43.14537498719119" lon="10.88106712350559"><ele>619.0</ele><time>2026-04-19T10:03:52Z</time></trkpt><trkpt lat="43.1453986426076" lon="10.881303659013772"><ele>621.0</ele><time>2026-04-19T10:03:53Z</time></trkpt><trkpt lat="43.14539270107818" lon="10.881533485003938"><ele>623.0</ele><time>2026-04-19T10:03:54Z</time></trkpt><trkpt lat="43.14531240501584" lon="10.881729907743443"><ele>624.3333333333333</ele><time>2026-04-19T10:03:55Z</time></trkpt><trkpt lat="43.145208443424195" lon="10.8819000332996"><ele>625.6666666666666</ele><time>2026-04-19T10:03:56Z</time></trkpt><trkpt lat="43.14508220331209" lon="10.882095540331203"><ele>627.0</ele><time>2026-04-19T10:03:57Z</time></trkpt><trkpt lat="43.144964991256124" lon="10.882276742647859"><ele>627.3333333333334</ele><time>2026-04-19T10:03:57.999Z</time></trkpt><trkpt lat="43.144846502454996" lon="10.882463249955277"><ele>627.6666666666667</ele><time>2026-04-19T10:03:58.999Z</time></trkpt><trkpt lat="43.144737110728855" lon="10.882635438376647"><ele>628.0</ele><time>2026-04-19T10:03:59.999Z</time></trkpt><trkpt lat="43.144624731412556" lon="10.882804792121084"><ele>628.0</ele><time>2026-04-19T10:04:00.999Z</time></trkpt><trkpt lat="43.144549388006205" lon="10.88300817809982"><ele>628.0</ele><time>2026-04-19T10:04:01.999Z</time></trkpt><trkpt lat="43.144486517820305" lon="10.883213642550102"><ele>628.0</ele><time>2026-04-19T10:04:02.999Z</time></trkpt><trkpt lat="43.14446822171298" lon="10.883444271952817"><ele>628.0</ele><time>2026-04-19T10:04:03.999Z</time></trkpt><trkpt lat="43.14450740749533" lon="10.88369347577531"><ele>628.0</ele><time>2026-04-19T10:04:04.999Z</time></trkpt><trkpt lat="43.144551397630075" lon="10.883919234604516"><ele>628.0</ele><time>2026-04-19T10:04:05.999Z</time></trkpt><trkpt lat="43.14459352016789" lon="10.88415077983009"><ele>630.3333333333334</ele><time>2026-04-19T10:04:06.999Z</time></trkpt><trkpt lat="43.14465338025042" lon="10.884371626877524"><ele>632.6666666666666</ele><time>2026-04-19T10:04:07.999Z</time></trkpt><trkpt lat="43.144730125742754" lon="10.884580016868748"><ele>635.0</ele><time>2026-04-19T10:04:08.999Z</time></trkpt><trkpt lat="43.14483729961009" lon="10.884771924285051"><ele>634.0</ele><time>2026-04-19T10:04:09.999Z</time></trkpt><trkpt lat="43.14495384516611" lon="10.88495631943481"><ele>633.0</ele><time>2026-04-19T10:04:10.999Z</time></trkpt><trkpt lat="43.145064028576336" lon="10.885138687503543"><ele>632.0</ele><time>2026-04-19T10:04:11.999Z</time></trkpt><trkpt lat="43.14518474985808" lon="10.885324141631997"><ele>632.0</ele><time>2026-04-19T10:04:12.999Z</time></trkpt><trkpt lat="43.14527854902596" lon="10.885500007147064"><ele>632.0</ele><time>2026-04-19T10:04:13.999Z</time></trkpt><trkpt lat="43.14534327427647" lon="10.885706103294169"><ele>632.0</ele><time>2026-04-19T10:04:14.999Z</time></trkpt><trkpt lat="43.145368945137555" lon="10.885939934219804"><ele>629.6666666666666</ele><time>2026-04-19T10:04:15.999Z</time></trkpt><trkpt lat="43.145330610452646" lon="10.886168974658249"><ele>627.3333333333334</ele><time>2026-04-19T10:04:16.999Z</time></trkpt><trkpt lat="43.14530382898586" lon="10.886416979479016"><ele>625.0</ele><time>2026-04-19T10:04:17.999Z</time></trkpt><trkpt lat="43.14524859533887" lon="10.886639164823338"><ele>623.0</ele><time>2026-04-19T10:04:18.999Z</time></trkpt><trkpt lat="43.14522269761979" lon="10.886869611549987"><ele>621.0</ele><time>2026-04-19T10:04:19.999Z</time></trkpt><trkpt lat="43.1452505043033" lon="10.887082870137041"><ele>619.0</ele><time>2026-04-19T10:04:20.999Z</time></trkpt><trkpt lat="43.145351973876245" lon="10.887245220915934"><ele>619.0</ele><time>2026-04-19T10:04:21.999Z</time></trkpt><trkpt lat="43.14536979924478" lon="10.887395431642174"><ele>619.0</ele><time>2026-04-19T10:04:22.999Z</time></trkpt><trkpt lat="43.1453642383152" lon="10.887517993404472"><ele>619.0</ele><time>2026-04-19T10:04:23.999Z</time></trkpt><trkpt lat="43.14540877652401" lon="10.887593402644711"><ele>619.0</ele><time>2026-04-19T10:04:24.999Z</time></trkpt><trkpt lat="43.145510103502346" lon="10.887614550208319"><ele>619.0</ele><time>2026-04-19T10:04:26.999Z</time></trkpt><trkpt lat="43.14557170055337" lon="10.887580652063866"><ele>619.0</ele><time>2026-04-19T10:04:27.999Z</time></trkpt><trkpt lat="43.145636649982556" lon="10.887537092391801"><ele>619.0</ele><time>2026-04-19T10:04:28.999Z</time></trkpt><trkpt lat="43.14569081295046" lon="10.88744112287536"><ele>619.0</ele><time>2026-04-19T10:04:29.999Z</time></trkpt><trkpt lat="43.145767887628445" lon="10.887318841160166"><ele>619.0</ele><time>2026-04-19T10:04:30.999Z</time></trkpt><trkpt lat="43.14585727384445" lon="10.88719771484346"><ele>619.0</ele><time>2026-04-19T10:04:31.999Z</time></trkpt><trkpt lat="43.14594669210058" lon="10.887078650407954"><ele>620.0</ele><time>2026-04-19T10:04:32.999Z</time></trkpt><trkpt lat="43.14601231658236" lon="10.886932538358897"><ele>621.0</ele><time>2026-04-19T10:04:33.999Z</time></trkpt><trkpt lat="43.146042330027996" lon="10.886750146690696"><ele>622.0</ele><time>2026-04-19T10:04:34.999Z</time></trkpt><trkpt lat="43.14603184689701" lon="10.886547207934465"><ele>623.0</ele><time>2026-04-19T10:04:35.999Z</time></trkpt><trkpt lat="43.14600548758501" lon="10.886336454540398"><ele>623.0</ele><time>2026-04-19T10:04:36.999Z</time></trkpt><trkpt lat="43.145960513168674" lon="10.886118538441567"><ele>623.0</ele><time>2026-04-19T10:04:37.999Z</time></trkpt><trkpt lat="43.14592327958324" lon="10.88594012308627"><ele>623.0</ele><time>2026-04-19T10:04:38.999Z</time></trkpt><trkpt lat="43.145909045172225" lon="10.885812658903854"><ele>623.0</ele><time>2026-04-19T10:04:39.999Z</time></trkpt><trkpt lat="43.14593868275175" lon="10.885704449661715"><ele>622.6</ele><time>2026-04-19T10:04:40.999Z</time></trkpt><trkpt lat="43.145998059758284" lon="10.885661779544337"><ele>622.1999999999999</ele><time>2026-04-19T10:04:41.999Z</time></trkpt><trkpt lat="43.146065206189526" lon="10.885680964383173"><ele>621.8</ele><time>2026-04-19T10:04:42.999Z</time></trkpt><trkpt lat="43.14615637444933" lon="10.885747738881287"><ele>621.4</ele><time>2026-04-19T10:04:43.999Z</time></trkpt><trkpt lat="43.146252112458164" lon="10.88581606292019"><ele>621.0</ele><time>2026-04-19T10:04:44.999Z</time></trkpt><trkpt lat="43.14637811060394" lon="10.885861218291653"><ele>621.0</ele><time>2026-04-19T10:04:45.999Z</time></trkpt><trkpt lat="43.146544543464984" lon="10.88592086462126"><ele>621.0</ele><time>2026-04-19T10:04:47.999Z</time></trkpt><trkpt lat="43.14672981888964" lon="10.885987263754389"><ele>621.0</ele><time>2026-04-19T10:04:48.999Z</time></trkpt><trkpt lat="43.146890234166946" lon="10.88604324747821"><ele>620.0</ele><time>2026-04-19T10:04:49.999Z</time></trkpt><trkpt lat="43.14705715177157" lon="10.886085734323922"><ele>619.0</ele><time>2026-04-19T10:04:50.999Z</time></trkpt><trkpt lat="43.147258825883405" lon="10.886100878259215"><ele>618.0</ele><time>2026-04-19T10:04:51.999Z</time></trkpt><trkpt lat="43.14744993290656" lon="10.886084870528197"><ele>613.6666666666666</ele><time>2026-04-19T10:04:52.999Z</time></trkpt><trkpt lat="43.147664769373975" lon="10.886070217290664"><ele>609.3333333333333</ele><time>2026-04-19T10:04:53.998Z</time></trkpt><trkpt lat="43.14785629118871" lon="10.886087782648023"><ele>605.0</ele><time>2026-04-19T10:04:54.998Z</time></trkpt><trkpt lat="43.14799122491897" lon="10.886128508031769"><ele>605.0</ele><time>2026-04-19T10:04:55.998Z</time></trkpt><trkpt lat="43.14812813063057" lon="10.886225727258406"><ele>605.0</ele><time>2026-04-19T10:04:56.998Z</time></trkpt><trkpt lat="43.14828049270321" lon="10.886357713653195"><ele>605.0</ele><time>2026-04-19T10:04:57.998Z</time></trkpt><trkpt lat="43.14842567909009" lon="10.886485725360265"><ele>605.3333333333333</ele><time>2026-04-19T10:04:58.998Z</time></trkpt><trkpt lat="43.148572842990546" lon="10.886619487265994"><ele>605.6666666666666</ele><time>2026-04-19T10:04:59.998Z</time></trkpt><trkpt lat="43.14871964408777" lon="10.886747513212388"><ele>606.0</ele><time>2026-04-19T10:05:00.998Z</time></trkpt><trkpt lat="43.14888529707361" lon="10.886868504052583"><ele>606.0</ele><time>2026-04-19T10:05:01.998Z</time></trkpt><trkpt lat="43.14906641871593" lon="10.886945781489878"><ele>606.0</ele><time>2026-04-19T10:05:02.998Z</time></trkpt><trkpt lat="43.14923219449939" lon="10.886964464185485"><ele>606.0</ele><time>2026-04-19T10:05:03.998Z</time></trkpt><trkpt lat="43.14938155236841" lon="10.886905470056947"><ele>606.0</ele><time>2026-04-19T10:05:04.998Z</time></trkpt><trkpt lat="43.1495115058305" lon="10.88677579999786"><ele>606.0</ele><time>2026-04-19T10:05:05.998Z</time></trkpt><trkpt lat="43.149602075704706" lon="10.886595486484792"><ele>606.0</ele><time>2026-04-19T10:05:06.998Z</time></trkpt><trkpt lat="43.149679977167565" lon="10.886398677701251"><ele>608.5</ele><time>2026-04-19T10:05:07.998Z</time></trkpt><trkpt lat="43.14970710232972" lon="10.88622443868064"><ele>611.0</ele><time>2026-04-19T10:05:08.998Z</time></trkpt><trkpt lat="43.149698463243425" lon="10.88603568446245"><ele>613.5</ele><time>2026-04-19T10:05:09.998Z</time></trkpt><trkpt lat="43.149673928992726" lon="10.885842173282276"><ele>616.0</ele><time>2026-04-19T10:05:10.998Z</time></trkpt><trkpt lat="43.1496652881393" lon="10.885651963802614"><ele>616.75</ele><time>2026-04-19T10:05:11.998Z</time></trkpt><trkpt lat="43.149677713007435" lon="10.885505880401436"><ele>617.5</ele><time>2026-04-19T10:05:12.998Z</time></trkpt><trkpt lat="43.14973632498935" lon="10.885394045277105"><ele>618.25</ele><time>2026-04-19T10:05:13.998Z</time></trkpt><trkpt lat="43.14984303516631" lon="10.885350767964514"><ele>619.0</ele><time>2026-04-19T10:05:14.998Z</time></trkpt><trkpt lat="43.14997968535289" lon="10.885327665467074"><ele>616.5</ele><time>2026-04-19T10:05:15.998Z</time></trkpt><trkpt lat="43.15011484889032" lon="10.885317387611297"><ele>614.0</ele><time>2026-04-19T10:05:16.998Z</time></trkpt><trkpt lat="43.15025977388718" lon="10.88529411800054"><ele>611.5</ele><time>2026-04-19T10:05:17.998Z</time></trkpt><trkpt lat="43.15040919528665" lon="10.885264684432297"><ele>609.0</ele><time>2026-04-19T10:05:18.998Z</time></trkpt><trkpt lat="43.150570615832336" lon="10.885262228355339"><ele>606.3333333333334</ele><time>2026-04-19T10:05:19.998Z</time></trkpt><trkpt lat="43.150731427516384" lon="10.885307355127043"><ele>603.6666666666667</ele><time>2026-04-19T10:05:20.998Z</time></trkpt><trkpt lat="43.15088825794755" lon="10.885342487413974"><ele>601.0</ele><time>2026-04-19T10:05:21.998Z</time></trkpt><trkpt lat="43.15104796006576" lon="10.88530161396752"><ele>601.0</ele><time>2026-04-19T10:05:22.998Z</time></trkpt><trkpt lat="43.15117711625549" lon="10.8852536111598"><ele>601.0</ele><time>2026-04-19T10:05:23.998Z</time></trkpt><trkpt lat="43.15128111846064" lon="10.885127556337265"><ele>601.0</ele><time>2026-04-19T10:05:25Z</time></trkpt><trkpt lat="43.151358550873745" lon="10.884962118451428"><ele>601.0</ele><time>2026-04-19T10:05:26Z</time></trkpt><trkpt lat="43.15140186801459" lon="10.884772960445321"><ele>601.25</ele><time>2026-04-19T10:05:27Z</time></trkpt><trkpt lat="43.151426196913846" lon="10.88457285116015"><ele>601.5</ele><time>2026-04-19T10:05:28Z</time></trkpt><trkpt lat="43.15146327378552" lon="10.884428404984057"><ele>601.75</ele><time>2026-04-19T10:05:29Z</time></trkpt><trkpt lat="43.15154964890654" lon="10.884366341416001"><ele>602.0</ele><time>2026-04-19T10:05:30Z</time></trkpt><trkpt lat="43.15166614651159" lon="10.88431066459975"><ele>602.0</ele><time>2026-04-19T10:05:32Z</time></trkpt><trkpt lat="43.15179353181166" lon="10.884348146480631"><ele>602.0</ele><time>2026-04-19T10:05:34Z</time></trkpt><trkpt lat="43.15201951520199" lon="10.884370184498145"><ele>602.0</ele><time>2026-04-19T10:05:35Z</time></trkpt><trkpt lat="43.15222410801644" lon="10.884303985145197"><ele>605.0</ele><time>2026-04-19T10:05:36Z</time></trkpt><trkpt lat="43.1523704671397" lon="10.88424811138645"><ele>608.0</ele><time>2026-04-19T10:05:37Z</time></trkpt><trkpt lat="43.15251481384541" lon="10.884213110274894"><ele>611.0</ele><time>2026-04-19T10:05:38Z</time></trkpt><trkpt lat="43.15263925893281" lon="10.884203222774863"><ele>614.0</ele><time>2026-04-19T10:05:39Z</time></trkpt><trkpt lat="43.15275959122896" lon="10.884218092371322"><ele>609.0</ele><time>2026-04-19T10:05:40Z</time></trkpt><trkpt lat="43.15291931105423" lon="10.884279702347964"><ele>604.0</ele><time>2026-04-19T10:05:41Z</time></trkpt><trkpt lat="43.1530757103798" lon="10.884387539890309"><ele>599.0</ele><time>2026-04-19T10:05:42Z</time></trkpt><trkpt lat="43.15314018652013" lon="10.88454838983116"><ele>601.0</ele><time>2026-04-19T10:05:43Z</time></trkpt><trkpt lat="43.153260613693874" lon="10.884839112948253"><ele>603.0</ele><time>2026-04-19T10:05:44Z</time></trkpt><trkpt lat="43.153620227174954" lon="10.884832705881001"><ele>603.0</ele><time>2026-04-19T10:05:48Z</time></trkpt><trkpt lat="43.15356294274033" lon="10.884354050884845"><ele>603.0</ele><time>2026-04-19T10:05:49Z</time></trkpt><trkpt lat="43.15358323514005" lon="10.884216411010538"><ele>604.75</ele><time>2026-04-19T10:05:50Z</time></trkpt><trkpt lat="43.15361259570084" lon="10.884091255501506"><ele>606.5</ele><time>2026-04-19T10:05:51Z</time></trkpt><trkpt lat="43.15364395282653" lon="10.883952889250187"><ele>608.25</ele><time>2026-04-19T10:05:52Z</time></trkpt><trkpt lat="43.15367958500606" lon="10.883768352341928"><ele>610.0</ele><time>2026-04-19T10:05:53Z</time></trkpt><trkpt lat="43.153707585391935" lon="10.883570506253953"><ele>613.0</ele><time>2026-04-19T10:05:54Z</time></trkpt><trkpt lat="43.15377593529978" lon="10.883398854540285"><ele>616.0</ele><time>2026-04-19T10:05:55Z</time></trkpt><trkpt lat="43.15383492644782" lon="10.883235600667962"><ele>619.0</ele><time>2026-04-19T10:05:56Z</time></trkpt><trkpt lat="43.153921774123326" lon="10.883021777582362"><ele>619.0</ele><time>2026-04-19T10:05:57Z</time></trkpt><trkpt lat="43.1539737848377" lon="10.882826478297222"><ele>619.0</ele><time>2026-04-19T10:05:58Z</time></trkpt><trkpt lat="43.15394945422705" lon="10.88260359532685"><ele>619.0</ele><time>2026-04-19T10:05:59Z</time></trkpt><trkpt lat="43.15391253760395" lon="10.882410132556453"><ele>619.8</ele><time>2026-04-19T10:06:00Z</time></trkpt><trkpt lat="43.153909119219996" lon="10.882216686471219"><ele>620.5999999999999</ele><time>2026-04-19T10:06:01Z</time></trkpt><trkpt lat="43.1538823985206" lon="10.882104094435926"><ele>621.4</ele><time>2026-04-19T10:06:02Z</time></trkpt><trkpt lat="43.15394352025307" lon="10.881969645102034"><ele>622.1999999999999</ele><time>2026-04-19T10:06:03Z</time></trkpt><trkpt lat="43.15401054100039" lon="10.881863753057203"><ele>623.0</ele><time>2026-04-19T10:06:03.999Z</time></trkpt><trkpt lat="43.153952158107536" lon="10.881649427166474"><ele>620.6666666666666</ele><time>2026-04-19T10:06:04.999Z</time></trkpt><trkpt lat="43.154008826408976" lon="10.881595738022348"><ele>618.3333333333334</ele><time>2026-04-19T10:06:06.999Z</time></trkpt><trkpt lat="43.15424645907729" lon="10.881642304394292"><ele>616.0</ele><time>2026-04-19T10:06:07.999Z</time></trkpt><trkpt lat="43.154464040228866" lon="10.882095029961219"><ele>616.0</ele><time>2026-04-19T10:06:08.999Z</time></trkpt><trkpt lat="43.1546462082664" lon="10.88176001779195"><ele>616.0</ele><time>2026-04-19T10:06:09.999Z</time></trkpt><trkpt lat="43.15472676926214" lon="10.881644910573808"><ele>616.0</ele><time>2026-04-19T10:06:10.999Z</time></trkpt><trkpt lat="43.15482241096556" lon="10.88151769599257"><ele>612.6666666666667</ele><time>2026-04-19T10:06:11.999Z</time></trkpt><trkpt lat="43.15494443515813" lon="10.881357813283536"><ele>609.3333333333334</ele><time>2026-04-19T10:06:12.999Z</time></trkpt><trkpt lat="43.15505492853432" lon="10.881212601289203"><ele>606.0</ele><time>2026-04-19T10:06:13.999Z</time></trkpt><trkpt lat="43.15517309553174" lon="10.881054984956751"><ele>610.0</ele><time>2026-04-19T10:06:14.999Z</time></trkpt><trkpt lat="43.15528575254338" lon="10.880904718224517"><ele>614.0</ele><time>2026-04-19T10:06:15.999Z</time></trkpt><trkpt lat="43.15539551541493" lon="10.880757103086244"><ele>618.0</ele><time>2026-04-19T10:06:16.999Z</time></trkpt><trkpt lat="43.15549801231471" lon="10.880617867179488"><ele>618.0</ele><time>2026-04-19T10:06:17.999Z</time></trkpt><trkpt lat="43.155587048780426" lon="10.880498838060552"><ele>618.0</ele><time>2026-04-19T10:06:18.999Z</time></trkpt><trkpt lat="43.15567426243115" lon="10.880395281764033"><ele>618.0</ele><time>2026-04-19T10:06:19.999Z</time></trkpt><trkpt lat="43.155772931969594" lon="10.88032396651507"><ele>618.0</ele><time>2026-04-19T10:06:20.999Z</time></trkpt><trkpt lat="43.15589026107898" lon="10.880321984836925"><ele>615.6666666666666</ele><time>2026-04-19T10:06:21.999Z</time></trkpt><trkpt lat="43.15604247304837" lon="10.880244484283164"><ele>613.3333333333333</ele><time>2026-04-19T10:06:22.999Z</time></trkpt><trkpt lat="43.156145731188005" lon="10.880079566626835"><ele>611.0</ele><time>2026-04-19T10:06:23.999Z</time></trkpt><trkpt lat="43.15610495071463" lon="10.879830271420229"><ele>611.0</ele><time>2026-04-19T10:06:24.999Z</time></trkpt><trkpt lat="43.156085746290216" lon="10.87969316751226"><ele>611.0</ele><time>2026-04-19T10:06:25.999Z</time></trkpt><trkpt lat="43.15610532953996" lon="10.879512966784528"><ele>611.0</ele><time>2026-04-19T10:06:26.999Z</time></trkpt><trkpt lat="43.156135566456946" lon="10.879324109267468"><ele>611.0</ele><time>2026-04-19T10:06:27.999Z</time></trkpt><trkpt lat="43.15616762606879" lon="10.879206321375674"><ele>611.0</ele><time>2026-04-19T10:06:28.999Z</time></trkpt><trkpt lat="43.156205084608786" lon="10.879123470902826"><ele>611.0</ele><time>2026-04-19T10:06:29.999Z</time></trkpt><trkpt lat="43.15628308479308" lon="10.879105554346376"><ele>611.0</ele><time>2026-04-19T10:06:31.999Z</time></trkpt><trkpt lat="43.15636909676244" lon="10.879168787647465"><ele>611.0</ele><time>2026-04-19T10:06:33.999Z</time></trkpt><trkpt lat="43.1564161710905" lon="10.87942627619349"><ele>611.0</ele><time>2026-04-19T10:06:34.999Z</time></trkpt><trkpt lat="43.156553946128035" lon="10.879520042872617"><ele>606.5</ele><time>2026-04-19T10:06:35.999Z</time></trkpt><trkpt lat="43.15667279102113" lon="10.879557912833484"><ele>602.0</ele><time>2026-04-19T10:06:36.999Z</time></trkpt><trkpt lat="43.156751388028844" lon="10.879576776339833"><ele>597.5</ele><time>2026-04-19T10:06:37.999Z</time></trkpt><trkpt lat="43.15685903524922" lon="10.87953461683921"><ele>593.0</ele><time>2026-04-19T10:06:38.999Z</time></trkpt><trkpt lat="43.156992800446545" lon="10.879454803675035"><ele>593.0</ele><time>2026-04-19T10:06:39.999Z</time></trkpt><trkpt lat="43.15708820090443" lon="10.87936662971482"><ele>593.0</ele><time>2026-04-19T10:06:40.999Z</time></trkpt><trkpt lat="43.15718571726318" lon="10.87919582016364"><ele>593.0</ele><time>2026-04-19T10:06:41.999Z</time></trkpt><trkpt lat="43.157363382066" lon="10.878995375607142"><ele>593.3333333333333</ele><time>2026-04-19T10:06:42.999Z</time></trkpt><trkpt lat="43.15750992613351" lon="10.878812582186233"><ele>593.6666666666666</ele><time>2026-04-19T10:06:43.999Z</time></trkpt><trkpt lat="43.15765658146723" lon="10.878685785611273"><ele>594.0</ele><time>2026-04-19T10:06:44.999Z</time></trkpt><trkpt lat="43.15784748302334" lon="10.878571611607212"><ele>594.0</ele><time>2026-04-19T10:06:45.999Z</time></trkpt><trkpt lat="43.1580249205526" lon="10.87850802130093"><ele>594.0</ele><time>2026-04-19T10:06:46.999Z</time></trkpt><trkpt lat="43.158204541068066" lon="10.878459641903587"><ele>594.0</ele><time>2026-04-19T10:06:47.999Z</time></trkpt><trkpt lat="43.15838149467735" lon="10.878446857775934"><ele>590.0</ele><time>2026-04-19T10:06:48.999Z</time></trkpt><trkpt lat="43.158564367839816" lon="10.878449626013943"><ele>586.0</ele><time>2026-04-19T10:06:49.999Z</time></trkpt><trkpt lat="43.15873805421042" lon="10.87846335131212"><ele>582.0</ele><time>2026-04-19T10:06:50.999Z</time></trkpt><trkpt lat="43.158925564143" lon="10.878481672467737"><ele>580.3333333333334</ele><time>2026-04-19T10:06:51.999Z</time></trkpt><trkpt lat="43.159118242293516" lon="10.878496519579258"><ele>578.6666666666667</ele><time>2026-04-19T10:06:52.999Z</time></trkpt><trkpt lat="43.15931985448905" lon="10.878507766584745"><ele>577.0</ele><time>2026-04-19T10:06:53.999Z</time></trkpt><trkpt lat="43.159520729113474" lon="10.878513980121047"><ele>577.0</ele><time>2026-04-19T10:06:54.999Z</time></trkpt><trkpt lat="43.15971857323088" lon="10.878521847957813"><ele>577.0</ele><time>2026-04-19T10:06:55.999Z</time></trkpt><trkpt lat="43.15991865109647" lon="10.878536524865842"><ele>577.0</ele><time>2026-04-19T10:06:56.999Z</time></trkpt><trkpt lat="43.16011936905895" lon="10.878552450665786"><ele>575.0</ele><time>2026-04-19T10:06:57.999Z</time></trkpt><trkpt lat="43.160318584151135" lon="10.87856486848579"><ele>573.0</ele><time>2026-04-19T10:06:58.999Z</time></trkpt><trkpt lat="43.160518235200506" lon="10.87857751943263"><ele>571.0</ele><time>2026-04-19T10:06:59.998Z</time></trkpt><trkpt lat="43.16072028822146" lon="10.87859562364716"><ele>571.0</ele><time>2026-04-19T10:07:00.998Z</time></trkpt><trkpt lat="43.16091570813936" lon="10.87864129011485"><ele>571.0</ele><time>2026-04-19T10:07:01.998Z</time></trkpt><trkpt lat="43.16110776573631" lon="10.878680477790153"><ele>571.0</ele><time>2026-04-19T10:07:02.998Z</time></trkpt><trkpt lat="43.16129289521631" lon="10.878704687036908"><ele>571.0</ele><time>2026-04-19T10:07:03.998Z</time></trkpt><trkpt lat="43.161460337430604" lon="10.878781287166573"><ele>571.0</ele><time>2026-04-19T10:07:04.998Z</time></trkpt><trkpt lat="43.1616198663034" lon="10.878888956507657"><ele>571.0</ele><time>2026-04-19T10:07:05.998Z</time></trkpt><trkpt lat="43.16176674315408" lon="10.879017312439753"><ele>568.3333333333334</ele><time>2026-04-19T10:07:06.998Z</time></trkpt><trkpt lat="43.16190565419362" lon="10.879150752179175"><ele>565.6666666666666</ele><time>2026-04-19T10:07:07.998Z</time></trkpt><trkpt lat="43.162037048902036" lon="10.879286767118296"><ele>563.0</ele><time>2026-04-19T10:07:08.998Z</time></trkpt><trkpt lat="43.16216170186055" lon="10.879430769254347"><ele>559.3333333333333</ele><time>2026-04-19T10:07:09.998Z</time></trkpt><trkpt lat="43.16227787842482" lon="10.879570745671582"><ele>555.6666666666666</ele><time>2026-04-19T10:07:10.998Z</time></trkpt><trkpt lat="43.162396303722744" lon="10.879710777997984"><ele>552.0</ele><time>2026-04-19T10:07:11.998Z</time></trkpt><trkpt lat="43.162510573915185" lon="10.879858534343775"><ele>551.6666666666666</ele><time>2026-04-19T10:07:12.998Z</time></trkpt><trkpt lat="43.16263795325774" lon="10.880010841424633"><ele>551.3333333333333</ele><time>2026-04-19T10:07:13.998Z</time></trkpt><trkpt lat="43.162764487007706" lon="10.880168323883694"><ele>551.0</ele><time>2026-04-19T10:07:14.998Z</time></trkpt><trkpt lat="43.16288965870925" lon="10.880339967938538"><ele>550.3333333333333</ele><time>2026-04-19T10:07:15.998Z</time></trkpt><trkpt lat="43.16300539172823" lon="10.880536781045922"><ele>549.6666666666666</ele><time>2026-04-19T10:07:16.998Z</time></trkpt><trkpt lat="43.163110863868546" lon="10.88075530708238"><ele>549.0</ele><time>2026-04-19T10:07:17.998Z</time></trkpt><trkpt lat="43.16320984282973" lon="10.880986450301094"><ele>549.0</ele><time>2026-04-19T10:07:18.998Z</time></trkpt><trkpt lat="43.16330972199449" lon="10.881229361226106"><ele>549.0</ele><time>2026-04-19T10:07:19.998Z</time></trkpt><trkpt lat="43.1634119715418" lon="10.881468324109289"><ele>549.0</ele><time>2026-04-19T10:07:20.998Z</time></trkpt><trkpt lat="43.163519383704234" lon="10.881715048510197"><ele>546.3333333333334</ele><time>2026-04-19T10:07:21.998Z</time></trkpt><trkpt lat="43.16362696414635" lon="10.88196446792992"><ele>543.6666666666667</ele><time>2026-04-19T10:07:22.998Z</time></trkpt><trkpt lat="43.163728007145714" lon="10.882217816462802"><ele>541.0</ele><time>2026-04-19T10:07:23.998Z</time></trkpt><trkpt lat="43.163827573290654" lon="10.882460554160305"><ele>541.3333333333334</ele><time>2026-04-19T10:07:24.998Z</time></trkpt><trkpt lat="43.16392495462548" lon="10.882703365169657"><ele>541.6666666666666</ele><time>2026-04-19T10:07:25.998Z</time></trkpt><trkpt lat="43.16402514130384" lon="10.882934492196672"><ele>542.0</ele><time>2026-04-19T10:07:26.998Z</time></trkpt><trkpt lat="43.16412388172196" lon="10.883152231301944"><ele>542.0</ele><time>2026-04-19T10:07:27.998Z</time></trkpt><trkpt lat="43.164221221589784" lon="10.883343635683714"><ele>542.0</ele><time>2026-04-19T10:07:28.998Z</time></trkpt><trkpt lat="43.164318726141325" lon="10.883540310874173"><ele>542.0</ele><time>2026-04-19T10:07:29.998Z</time></trkpt><trkpt lat="43.16442795285327" lon="10.883746125487962"><ele>541.6666666666666</ele><time>2026-04-19T10:07:31Z</time></trkpt><trkpt lat="43.16454962622018" lon="10.88395474752785"><ele>541.3333333333334</ele><time>2026-04-19T10:07:32Z</time></trkpt><trkpt lat="43.16467808410628" lon="10.884169937726895"><ele>541.0</ele><time>2026-04-19T10:07:33Z</time></trkpt><trkpt lat="43.16480604755398" lon="10.88439863515952"><ele>541.0</ele><time>2026-04-19T10:07:34Z</time></trkpt><trkpt lat="43.164939695105566" lon="10.884628887447995"><ele>541.0</ele><time>2026-04-19T10:07:35Z</time></trkpt><trkpt lat="43.165080030943614" lon="10.884858895839036"><ele>541.0</ele><time>2026-04-19T10:07:36Z</time></trkpt><trkpt lat="43.16522399469018" lon="10.88509094237452"><ele>540.0</ele><time>2026-04-19T10:07:37Z</time></trkpt><trkpt lat="43.16536811137894" lon="10.885328418148006"><ele>539.0</ele><time>2026-04-19T10:07:38Z</time></trkpt><trkpt lat="43.165511582663804" lon="10.885569166414589"><ele>539.0</ele><time>2026-04-19T10:07:39Z</time></trkpt><trkpt lat="43.165653519676596" lon="10.885814499944159"><ele>539.0</ele><time>2026-04-19T10:07:40Z</time></trkpt><trkpt lat="43.16579718752661" lon="10.886055869639002"><ele>535.0</ele><time>2026-04-19T10:07:41Z</time></trkpt><trkpt lat="43.165940921361404" lon="10.886296804128285"><ele>531.0</ele><time>2026-04-19T10:07:42Z</time></trkpt><trkpt lat="43.16608607234932" lon="10.886540619868756"><ele>528.0</ele><time>2026-04-19T10:07:43Z</time></trkpt><trkpt lat="43.16624010916761" lon="10.88676515291711"><ele>525.0</ele><time>2026-04-19T10:07:44Z</time></trkpt><trkpt lat="43.16642216246194" lon="10.886958681401925"><ele>532.0</ele><time>2026-04-19T10:07:45Z</time></trkpt><trkpt lat="43.16659470394086" lon="10.88716001328913"><ele>539.0</ele><time>2026-04-19T10:07:46Z</time></trkpt><trkpt lat="43.16678871758445" lon="10.88732857495189"><ele>539.0</ele><time>2026-04-19T10:07:47Z</time></trkpt><trkpt lat="43.16698362683387" lon="10.887490043099795"><ele>539.0</ele><time>2026-04-19T10:07:48Z</time></trkpt><trkpt lat="43.167170414123596" lon="10.887658681516836"><ele>537.6666666666666</ele><time>2026-04-19T10:07:49Z</time></trkpt><trkpt lat="43.16735614113927" lon="10.88783182408247"><ele>536.3333333333334</ele><time>2026-04-19T10:07:50Z</time></trkpt><trkpt lat="43.16753896024232" lon="10.887988769957044"><ele>535.0</ele><time>2026-04-19T10:07:51Z</time></trkpt><trkpt lat="43.167735034525464" lon="10.888160049706462"><ele>538.0</ele><time>2026-04-19T10:07:52Z</time></trkpt><trkpt lat="43.167931661263204" lon="10.888321902461717"><ele>541.0</ele><time>2026-04-19T10:07:53Z</time></trkpt><trkpt lat="43.16812017814825" lon="10.888503866089273"><ele>546.0</ele><time>2026-04-19T10:07:54Z</time></trkpt><trkpt lat="43.16829676633699" lon="10.88870389030088"><ele>551.0</ele><time>2026-04-19T10:07:55Z</time></trkpt><trkpt lat="43.16847585111537" lon="10.88890031073677"><ele>551.0</ele><time>2026-04-19T10:07:56Z</time></trkpt><trkpt lat="43.168664258326245" lon="10.88907524357133"><ele>551.0</ele><time>2026-04-19T10:07:57Z</time></trkpt><trkpt lat="43.16885883584809" lon="10.88924249560531"><ele>554.5</ele><time>2026-04-19T10:07:58Z</time></trkpt><trkpt lat="43.16905029984423" lon="10.889409076934134"><ele>558.0</ele><time>2026-04-19T10:07:59Z</time></trkpt><trkpt lat="43.16923776458173" lon="10.889583154048651"><ele>558.0</ele><time>2026-04-19T10:08:00Z</time></trkpt><trkpt lat="43.16942572193887" lon="10.889757983512897"><ele>558.0</ele><time>2026-04-19T10:08:01Z</time></trkpt><trkpt lat="43.16961059394134" lon="10.889935219292031"><ele>555.5</ele><time>2026-04-19T10:08:02Z</time></trkpt><trkpt lat="43.16979245871156" lon="10.890111583275463"><ele>553.0</ele><time>2026-04-19T10:08:03Z</time></trkpt><trkpt lat="43.16997960368134" lon="10.890290706239426"><ele>558.0</ele><time>2026-04-19T10:08:04Z</time></trkpt><trkpt lat="43.17016791784334" lon="10.890468090794315"><ele>563.0</ele><time>2026-04-19T10:08:05Z</time></trkpt><trkpt lat="43.17035139856241" lon="10.89064844753902"><ele>563.0</ele><time>2026-04-19T10:08:06Z</time></trkpt><trkpt lat="43.17053104762567" lon="10.890838767512992"><ele>563.0</ele><time>2026-04-19T10:08:07Z</time></trkpt><trkpt lat="43.170697337335696" lon="10.891049280681072"><ele>568.0</ele><time>2026-04-19T10:08:08Z</time></trkpt><trkpt lat="43.17085277848268" lon="10.891283278077076"><ele>573.0</ele><time>2026-04-19T10:08:09Z</time></trkpt><trkpt lat="43.17098713572387" lon="10.8915232556258"><ele>571.3333333333334</ele><time>2026-04-19T10:08:10Z</time></trkpt><trkpt lat="43.17111399803388" lon="10.891772744018729"><ele>569.6666666666667</ele><time>2026-04-19T10:08:11Z</time></trkpt><trkpt lat="43.17123536044765" lon="10.892023005427724"><ele>568.0</ele><time>2026-04-19T10:08:12Z</time></trkpt><trkpt lat="43.17137244876367" lon="10.892277640263238"><ele>568.0</ele><time>2026-04-19T10:08:13Z</time></trkpt><trkpt lat="43.17150674598052" lon="10.892526022662942"><ele>568.0</ele><time>2026-04-19T10:08:14Z</time></trkpt><trkpt lat="43.17163312946055" lon="10.892776524345305"><ele>568.0</ele><time>2026-04-19T10:08:14.999Z</time></trkpt><trkpt lat="43.17175641680437" lon="10.89303180608115"><ele>571.0</ele><time>2026-04-19T10:08:15.999Z</time></trkpt><trkpt lat="43.171880593185705" lon="10.893293280645103"><ele>574.0</ele><time>2026-04-19T10:08:16.999Z</time></trkpt><trkpt lat="43.17200052852431" lon="10.89354677244789"><ele>577.0</ele><time>2026-04-19T10:08:17.999Z</time></trkpt><trkpt lat="43.17213975871912" lon="10.893798086999878"><ele>577.0</ele><time>2026-04-19T10:08:18.999Z</time></trkpt><trkpt lat="43.17227682314502" lon="10.894036793559733"><ele>577.0</ele><time>2026-04-19T10:08:19.999Z</time></trkpt><trkpt lat="43.17240738423856" lon="10.894273618327192"><ele>577.0</ele><time>2026-04-19T10:08:20.999Z</time></trkpt><trkpt lat="43.172536673947135" lon="10.89450882115034"><ele>581.3333333333334</ele><time>2026-04-19T10:08:21.999Z</time></trkpt><trkpt lat="43.17268133362164" lon="10.894742708664536"><ele>585.6666666666666</ele><time>2026-04-19T10:08:22.999Z</time></trkpt><trkpt lat="43.17280873148866" lon="10.894980579563317"><ele>590.0</ele><time>2026-04-19T10:08:23.999Z</time></trkpt><trkpt lat="43.17291733198074" lon="10.895229710029248"><ele>590.3333333333333</ele><time>2026-04-19T10:08:24.999Z</time></trkpt><trkpt lat="43.17300103771755" lon="10.895491995928793"><ele>590.6666666666666</ele><time>2026-04-19T10:08:25.999Z</time></trkpt><trkpt lat="43.17305886493216" lon="10.895762972977103"><ele>591.0</ele><time>2026-04-19T10:08:26.999Z</time></trkpt><trkpt lat="43.1730934019931" lon="10.896039062221517"><ele>592.0</ele><time>2026-04-19T10:08:27.999Z</time></trkpt><trkpt lat="43.17309063033509" lon="10.896331807893125"><ele>593.0</ele><time>2026-04-19T10:08:28.999Z</time></trkpt><trkpt lat="43.173033030260875" lon="10.896618736600075"><ele>594.0</ele><time>2026-04-19T10:08:29.999Z</time></trkpt><trkpt lat="43.17295516714699" lon="10.896894509192604"><ele>597.3333333333334</ele><time>2026-04-19T10:08:30.999Z</time></trkpt><trkpt lat="43.17287299649772" lon="10.89717002182876"><ele>600.6666666666667</ele><time>2026-04-19T10:08:31.999Z</time></trkpt><trkpt lat="43.172796583001166" lon="10.89744691806522"><ele>604.0</ele><time>2026-04-19T10:08:32.999Z</time></trkpt><trkpt lat="43.17272321539906" lon="10.897716576974213"><ele>606.6666666666667</ele><time>2026-04-19T10:08:33.999Z</time></trkpt><trkpt lat="43.17265455467008" lon="10.897972222414314"><ele>609.3333333333334</ele><time>2026-04-19T10:08:34.999Z</time></trkpt><trkpt lat="43.17259321570217" lon="10.898190717069593"><ele>612.0</ele><time>2026-04-19T10:08:35.999Z</time></trkpt><trkpt lat="43.17254621692085" lon="10.898387723473558"><ele>613.5</ele><time>2026-04-19T10:08:36.999Z</time></trkpt><trkpt lat="43.17253097071477" lon="10.898569202363962"><ele>615.0</ele><time>2026-04-19T10:08:37.999Z</time></trkpt><trkpt lat="43.17253551919974" lon="10.898764977550925"><ele>616.5</ele><time>2026-04-19T10:08:38.999Z</time></trkpt><trkpt lat="43.172570282426584" lon="10.898943372756705"><ele>618.0</ele><time>2026-04-19T10:08:39.999Z</time></trkpt><trkpt lat="43.17261869342064" lon="10.899154095996611"><ele>617.0</ele><time>2026-04-19T10:08:40.999Z</time></trkpt><trkpt lat="43.17257484123612" lon="10.89933849859166"><ele>616.0</ele><time>2026-04-19T10:08:41.999Z</time></trkpt><trkpt lat="43.17246448811247" lon="10.89948653963011"><ele>615.0</ele><time>2026-04-19T10:08:42.999Z</time></trkpt><trkpt lat="43.17235404048001" lon="10.899620865030732"><ele>614.0</ele><time>2026-04-19T10:08:43.999Z</time></trkpt><trkpt lat="43.17227130174383" lon="10.899757879266273"><ele>614.0</ele><time>2026-04-19T10:08:44.999Z</time></trkpt><trkpt lat="43.17218932815165" lon="10.89993376966317"><ele>614.0</ele><time>2026-04-19T10:08:45.999Z</time></trkpt><trkpt lat="43.17212792534342" lon="10.900130426990314"><ele>614.0</ele><time>2026-04-19T10:08:46.999Z</time></trkpt><trkpt lat="43.172095205502366" lon="10.900366077913729"><ele>614.0</ele><time>2026-04-19T10:08:47.999Z</time></trkpt><trkpt lat="43.17209229311118" lon="10.900592743746525"><ele>614.0</ele><time>2026-04-19T10:08:48.999Z</time></trkpt><trkpt lat="43.172113028336696" lon="10.900835109323422"><ele>614.0</ele><time>2026-04-19T10:08:49.999Z</time></trkpt><trkpt lat="43.17214808563469" lon="10.901076282373667"><ele>614.0</ele><time>2026-04-19T10:08:50.999Z</time></trkpt><trkpt lat="43.17218926277657" lon="10.901317749090934"><ele>614.0</ele><time>2026-04-19T10:08:51.999Z</time></trkpt><trkpt lat="43.17223486559181" lon="10.901564505782424"><ele>614.0</ele><time>2026-04-19T10:08:52.999Z</time></trkpt><trkpt lat="43.1722782124508" lon="10.90181334959549"><ele>615.0</ele><time>2026-04-19T10:08:53.999Z</time></trkpt><trkpt lat="43.172322595036576" lon="10.9020673428408"><ele>616.0</ele><time>2026-04-19T10:08:54.999Z</time></trkpt><trkpt lat="43.1723654013174" lon="10.902320650960585"><ele>617.0</ele><time>2026-04-19T10:08:55.999Z</time></trkpt><trkpt lat="43.17241095231986" lon="10.902575159907432"><ele>626.3333333333333</ele><time>2026-04-19T10:08:56.999Z</time></trkpt><trkpt lat="43.172452037933475" lon="10.902827207386894"><ele>635.6666666666666</ele><time>2026-04-19T10:08:57.999Z</time></trkpt><trkpt lat="43.1724990370391" lon="10.903079860223619"><ele>645.0</ele><time>2026-04-19T10:08:58.999Z</time></trkpt><trkpt lat="43.17255896954618" lon="10.903334723127566"><ele>646.3333333333334</ele><time>2026-04-19T10:08:59.999Z</time></trkpt><trkpt lat="43.17263933305463" lon="10.90358596427694"><ele>647.6666666666667</ele><time>2026-04-19T10:09:00.999Z</time></trkpt><trkpt lat="43.172741660141256" lon="10.9038179279706"><ele>649.0</ele><time>2026-04-19T10:09:01.999Z</time></trkpt><trkpt lat="43.17286657418004" lon="10.904027164009722"><ele>649.0</ele><time>2026-04-19T10:09:02.999Z</time></trkpt><trkpt lat="43.1730046490463" lon="10.90422593616988"><ele>649.0</ele><time>2026-04-19T10:09:03.999Z</time></trkpt><trkpt lat="43.173145520787784" lon="10.904417221046117"><ele>649.0</ele><time>2026-04-19T10:09:04.999Z</time></trkpt><trkpt lat="43.17328603172096" lon="10.904596875391922"><ele>648.0</ele><time>2026-04-19T10:09:05.999Z</time></trkpt><trkpt lat="43.173425432919764" lon="10.9047803151032"><ele>647.0</ele><time>2026-04-19T10:09:06.999Z</time></trkpt><trkpt lat="43.173570489681744" lon="10.90496220406819"><ele>646.0</ele><time>2026-04-19T10:09:07.999Z</time></trkpt><trkpt lat="43.17370192044218" lon="10.905137665611443"><ele>646.0</ele><time>2026-04-19T10:09:08.999Z</time></trkpt><trkpt lat="43.173842626980104" lon="10.905320034368463"><ele>646.0</ele><time>2026-04-19T10:09:09.999Z</time></trkpt><trkpt lat="43.173972396922565" lon="10.905505654536631"><ele>646.0</ele><time>2026-04-19T10:09:10.998Z</time></trkpt><trkpt lat="43.174096969319955" lon="10.905698717671598"><ele>653.3333333333334</ele><time>2026-04-19T10:09:11.998Z</time></trkpt><trkpt lat="43.17421176650612" lon="10.905906744277832"><ele>660.6666666666666</ele><time>2026-04-19T10:09:12.998Z</time></trkpt><trkpt lat="43.174294119639576" lon="10.906144432251322"><ele>668.0</ele><time>2026-04-19T10:09:13.998Z</time></trkpt><trkpt lat="43.17436253947153" lon="10.906390888053851"><ele>668.0</ele><time>2026-04-19T10:09:14.998Z</time></trkpt><trkpt lat="43.17443869788537" lon="10.9066450971225"><ele>668.0</ele><time>2026-04-19T10:09:15.998Z</time></trkpt><trkpt lat="43.174510688284684" lon="10.906894388326723"><ele>668.0</ele><time>2026-04-19T10:09:16.998Z</time></trkpt><trkpt lat="43.174572270334636" lon="10.907141084245215"><ele>667.6666666666666</ele><time>2026-04-19T10:09:17.998Z</time></trkpt><trkpt lat="43.17461620058077" lon="10.907376066288654"><ele>667.3333333333334</ele><time>2026-04-19T10:09:18.998Z</time></trkpt><trkpt lat="43.1746303508015" lon="10.907620795369589"><ele>667.0</ele><time>2026-04-19T10:09:19.998Z</time></trkpt><trkpt lat="43.17460285183664" lon="10.907860977768497"><ele>667.0</ele><time>2026-04-19T10:09:20.998Z</time></trkpt><trkpt lat="43.1745586077162" lon="10.908082080201822"><ele>667.0</ele><time>2026-04-19T10:09:21.998Z</time></trkpt><trkpt lat="43.1745228316335" lon="10.908303416832995"><ele>667.0</ele><time>2026-04-19T10:09:22.998Z</time></trkpt><trkpt lat="43.174535415100905" lon="10.908539493340367"><ele>667.0</ele><time>2026-04-19T10:09:23.998Z</time></trkpt><trkpt lat="43.17457653171668" lon="10.90878919544437"><ele>667.0</ele><time>2026-04-19T10:09:24.998Z</time></trkpt><trkpt lat="43.174639961449465" lon="10.909027678420586"><ele>667.0</ele><time>2026-04-19T10:09:25.998Z</time></trkpt><trkpt lat="43.174730156279175" lon="10.909269447319927"><ele>667.3333333333334</ele><time>2026-04-19T10:09:26.998Z</time></trkpt><trkpt lat="43.174838403714325" lon="10.909526933366163"><ele>667.6666666666666</ele><time>2026-04-19T10:09:27.998Z</time></trkpt><trkpt lat="43.174939023499945" lon="10.9097460517147"><ele>668.0</ele><time>2026-04-19T10:09:28.998Z</time></trkpt><trkpt lat="43.175069676037666" lon="10.909914089183934"><ele>663.6666666666666</ele><time>2026-04-19T10:09:29.998Z</time></trkpt><trkpt lat="43.175247479046426" lon="10.910081348753183"><ele>659.3333333333334</ele><time>2026-04-19T10:09:30.998Z</time></trkpt><trkpt lat="43.175419307304004" lon="10.910237404952683"><ele>655.0</ele><time>2026-04-19T10:09:31.998Z</time></trkpt><trkpt lat="43.17561220837966" lon="10.910322802310674"><ele>657.6666666666667</ele><time>2026-04-19T10:09:32.998Z</time></trkpt><trkpt lat="43.17581653804078" lon="10.910393609137849"><ele>660.3333333333334</ele><time>2026-04-19T10:09:33.998Z</time></trkpt><trkpt lat="43.17602428656635" lon="10.910450446783098"><ele>663.0</ele><time>2026-04-19T10:09:34.998Z</time></trkpt><trkpt lat="43.17623178982022" lon="10.91049561360818"><ele>663.0</ele><time>2026-04-19T10:09:35.998Z</time></trkpt><trkpt lat="43.17645356410324" lon="10.910539191599414"><ele>663.0</ele><time>2026-04-19T10:09:37Z</time></trkpt><trkpt lat="43.17667795839007" lon="10.910573050269827"><ele>665.3333333333334</ele><time>2026-04-19T10:09:38Z</time></trkpt><trkpt lat="43.1768915162469" lon="10.91061494911029"><ele>667.6666666666667</ele><time>2026-04-19T10:09:39Z</time></trkpt><trkpt lat="43.177115299323575" lon="10.910662302754378"><ele>670.0</ele><time>2026-04-19T10:09:40Z</time></trkpt><trkpt lat="43.17732471017804" lon="10.910723315417165"><ele>671.6666666666667</ele><time>2026-04-19T10:09:41Z</time></trkpt><trkpt lat="43.1775371877297" lon="10.910773252955865"><ele>673.3333333333334</ele><time>2026-04-19T10:09:42Z</time></trkpt><trkpt lat="43.17775621824605" lon="10.910823219936288"><ele>675.0</ele><time>2026-04-19T10:09:43Z</time></trkpt><trkpt lat="43.1779741670004" lon="10.91087416472746"><ele>675.0</ele><time>2026-04-19T10:09:44Z</time></trkpt><trkpt lat="43.178184383122876" lon="10.91092383560498"><ele>675.0</ele><time>2026-04-19T10:09:45Z</time></trkpt><trkpt lat="43.178390467913765" lon="10.910940912927412"><ele>675.0</ele><time>2026-04-19T10:09:46Z</time></trkpt><trkpt lat="43.17859228502952" lon="10.91090100729818"><ele>675.0</ele><time>2026-04-19T10:09:47Z</time></trkpt><trkpt lat="43.178790604828116" lon="10.910824079419939"><ele>675.0</ele><time>2026-04-19T10:09:48Z</time></trkpt><trkpt lat="43.1789797198529" lon="10.91071953082518"><ele>675.0</ele><time>2026-04-19T10:09:49Z</time></trkpt><trkpt lat="43.17914334090231" lon="10.910588681118277"><ele>675.0</ele><time>2026-04-19T10:09:50Z</time></trkpt><trkpt lat="43.17931344121084" lon="10.91040053687049"><ele>675.0</ele><time>2026-04-19T10:09:51Z</time></trkpt><trkpt lat="43.17947943525055" lon="10.910213654163678"><ele>675.0</ele><time>2026-04-19T10:09:52Z</time></trkpt><trkpt lat="43.179646377853764" lon="10.910037939065989"><ele>673.0</ele><time>2026-04-19T10:09:53Z</time></trkpt><trkpt lat="43.17978369191866" lon="10.909861687194525"><ele>671.0</ele><time>2026-04-19T10:09:54Z</time></trkpt><trkpt lat="43.17987137394911" lon="10.90964100870524"><ele>669.0</ele><time>2026-04-19T10:09:55Z</time></trkpt><trkpt lat="43.17991694288617" lon="10.909367090641485"><ele>672.0</ele><time>2026-04-19T10:09:56Z</time></trkpt><trkpt lat="43.17991688877349" lon="10.90909658157941"><ele>675.0</ele><time>2026-04-19T10:09:57Z</time></trkpt><trkpt lat="43.179870662401456" lon="10.908821616828094"><ele>678.0</ele><time>2026-04-19T10:09:58Z</time></trkpt><trkpt lat="43.179825332090374" lon="10.908555418014389"><ele>677.0</ele><time>2026-04-19T10:09:59Z</time></trkpt><trkpt lat="43.17981049512096" lon="10.908290368059712"><ele>676.0</ele><time>2026-04-19T10:10:00Z</time></trkpt><trkpt lat="43.17981527609285" lon="10.908094320491522"><ele>675.0</ele><time>2026-04-19T10:10:01Z</time></trkpt><trkpt lat="43.179895422930535" lon="10.90791493400549"><ele>675.0</ele><time>2026-04-19T10:10:02Z</time></trkpt><trkpt lat="43.18000235195993" lon="10.907747506826338"><ele>675.0</ele><time>2026-04-19T10:10:03Z</time></trkpt><trkpt lat="43.180153462714884" lon="10.90762115531195"><ele>675.0</ele><time>2026-04-19T10:10:04Z</time></trkpt><trkpt lat="43.18027513360137" lon="10.907515832330107"><ele>676.0</ele><time>2026-04-19T10:10:05Z</time></trkpt><trkpt lat="43.18048273068697" lon="10.907466376065587"><ele>677.0</ele><time>2026-04-19T10:10:06Z</time></trkpt><trkpt lat="43.18068745772269" lon="10.907444291364408"><ele>678.0</ele><time>2026-04-19T10:10:07Z</time></trkpt><trkpt lat="43.18089044749739" lon="10.907432147422707"><ele>678.0</ele><time>2026-04-19T10:10:08Z</time></trkpt><trkpt lat="43.181117500030865" lon="10.907398848822446"><ele>678.0</ele><time>2026-04-19T10:10:09Z</time></trkpt><trkpt lat="43.18134056342967" lon="10.90737548741306"><ele>675.0</ele><time>2026-04-19T10:10:10Z</time></trkpt><trkpt lat="43.18156913141741" lon="10.907351351197754"><ele>672.0</ele><time>2026-04-19T10:10:11Z</time></trkpt><trkpt lat="43.18179648704376" lon="10.907316565850715"><ele>672.0</ele><time>2026-04-19T10:10:12Z</time></trkpt><trkpt lat="43.18201540593132" lon="10.907267429484074"><ele>672.0</ele><time>2026-04-19T10:10:13Z</time></trkpt><trkpt lat="43.18222766492921" lon="10.9072370203246"><ele>672.0</ele><time>2026-04-19T10:10:14Z</time></trkpt><trkpt lat="43.18244371013107" lon="10.9072335419376"><ele>668.6666666666666</ele><time>2026-04-19T10:10:15Z</time></trkpt><trkpt lat="43.18265463488226" lon="10.90727339583438"><ele>665.3333333333333</ele><time>2026-04-19T10:10:16Z</time></trkpt><trkpt lat="43.182851477927876" lon="10.907357556810695"><ele>662.0</ele><time>2026-04-19T10:10:17Z</time></trkpt><trkpt lat="43.183064224874336" lon="10.907483454420085"><ele>661.0</ele><time>2026-04-19T10:10:18Z</time></trkpt><trkpt lat="43.183262548310324" lon="10.90758679981113"><ele>660.0</ele><time>2026-04-19T10:10:19Z</time></trkpt><trkpt lat="43.18346795895125" lon="10.907665066940117"><ele>659.0</ele><time>2026-04-19T10:10:20Z</time></trkpt><trkpt lat="43.183679070978485" lon="10.907735011867706"><ele>659.0</ele><time>2026-04-19T10:10:21Z</time></trkpt><trkpt lat="43.183890504211064" lon="10.90777504657635"><ele>659.0</ele><time>2026-04-19T10:10:22Z</time></trkpt><trkpt lat="43.18411009566619" lon="10.907794144030218"><ele>659.0</ele><time>2026-04-19T10:10:23Z</time></trkpt><trkpt lat="43.184342418322935" lon="10.907809480426403"><ele>662.5</ele><time>2026-04-19T10:10:23.999Z</time></trkpt><trkpt lat="43.18458590310841" lon="10.90781336273402"><ele>666.0</ele><time>2026-04-19T10:10:24.999Z</time></trkpt><trkpt lat="43.184822072565204" lon="10.907794404181711"><ele>659.5</ele><time>2026-04-19T10:10:25.999Z</time></trkpt><trkpt lat="43.18506061148963" lon="10.907789371716216"><ele>653.0</ele><time>2026-04-19T10:10:26.999Z</time></trkpt><trkpt lat="43.18527927147069" lon="10.9077789203216"><ele>653.0</ele><time>2026-04-19T10:10:27.999Z</time></trkpt><trkpt lat="43.185486566306295" lon="10.907779928643462"><ele>653.0</ele><time>2026-04-19T10:10:28.999Z</time></trkpt><trkpt lat="43.185689492016664" lon="10.907768472562795"><ele>653.0</ele><time>2026-04-19T10:10:29.999Z</time></trkpt><trkpt lat="43.18589090708168" lon="10.907733620904366"><ele>654.3333333333333</ele><time>2026-04-19T10:10:30.999Z</time></trkpt><trkpt lat="43.18606802414241" lon="10.907613376719938"><ele>655.6666666666666</ele><time>2026-04-19T10:10:31.999Z</time></trkpt><trkpt lat="43.18623047640834" lon="10.907457268375843"><ele>657.0</ele><time>2026-04-19T10:10:32.999Z</time></trkpt><trkpt lat="43.186381391557404" lon="10.907268140404376"><ele>657.0</ele><time>2026-04-19T10:10:33.999Z</time></trkpt><trkpt lat="43.1864995033339" lon="10.90703732966618"><ele>657.0</ele><time>2026-04-19T10:10:34.999Z</time></trkpt><trkpt lat="43.18659440827353" lon="10.906788973026796"><ele>657.0</ele><time>2026-04-19T10:10:35.999Z</time></trkpt><trkpt lat="43.1866881290293" lon="10.906523913234624"><ele>652.0</ele><time>2026-04-19T10:10:36.999Z</time></trkpt><trkpt lat="43.1867779638671" lon="10.906263466790904"><ele>647.0</ele><time>2026-04-19T10:10:37.999Z</time></trkpt><trkpt lat="43.18683843233635" lon="10.906011093552765"><ele>642.0</ele><time>2026-04-19T10:10:38.999Z</time></trkpt><trkpt lat="43.186906122160174" lon="10.905772796406243"><ele>642.0</ele><time>2026-04-19T10:10:39.999Z</time></trkpt><trkpt lat="43.187000637993826" lon="10.90555125058337"><ele>642.0</ele><time>2026-04-19T10:10:40.999Z</time></trkpt><trkpt lat="43.18711978940541" lon="10.905410964990063"><ele>642.0</ele><time>2026-04-19T10:10:41.999Z</time></trkpt><trkpt lat="43.18725938419895" lon="10.905324523342433"><ele>633.0</ele><time>2026-04-19T10:10:42.999Z</time></trkpt><trkpt lat="43.18742512791475" lon="10.90530133072492"><ele>624.0</ele><time>2026-04-19T10:10:43.999Z</time></trkpt><trkpt lat="43.18758509442146" lon="10.905295856777714"><ele>615.0</ele><time>2026-04-19T10:10:44.999Z</time></trkpt><trkpt lat="43.18776902699548" lon="10.905389075030504"><ele>615.0</ele><time>2026-04-19T10:10:45.999Z</time></trkpt><trkpt lat="43.1879904547695" lon="10.905534628455271"><ele>615.0</ele><time>2026-04-19T10:10:46.999Z</time></trkpt><trkpt lat="43.188268231178014" lon="10.9056613699783"><ele>615.0</ele><time>2026-04-19T10:10:47.999Z</time></trkpt><trkpt lat="43.18850719114884" lon="10.905751664061055"><ele>615.0</ele><time>2026-04-19T10:10:48.999Z</time></trkpt><trkpt lat="43.188753330220415" lon="10.905867243987487"><ele>606.0</ele><time>2026-04-19T10:10:49.999Z</time></trkpt><trkpt lat="43.18900242933175" lon="10.906003792388919"><ele>597.0</ele><time>2026-04-19T10:10:50.999Z</time></trkpt><trkpt lat="43.18925638524144" lon="10.90610234928187"><ele>597.0</ele><time>2026-04-19T10:10:51.999Z</time></trkpt><trkpt lat="43.189495231635256" lon="10.90616834021961"><ele>597.0</ele><time>2026-04-19T10:10:52.999Z</time></trkpt><trkpt lat="43.18972182250505" lon="10.906279042537589"><ele>596.6666666666666</ele><time>2026-04-19T10:10:53.999Z</time></trkpt><trkpt lat="43.189937622717316" lon="10.906359910717425"><ele>596.3333333333333</ele><time>2026-04-19T10:10:54.999Z</time></trkpt><trkpt lat="43.19013590243876" lon="10.90643243075366"><ele>596.0</ele><time>2026-04-19T10:10:55.999Z</time></trkpt><trkpt lat="43.190312493109964" lon="10.906551849537276"><ele>596.0</ele><time>2026-04-19T10:10:56.999Z</time></trkpt><trkpt lat="43.19045046402407" lon="10.906726585678669"><ele>596.0</ele><time>2026-04-19T10:10:57.999Z</time></trkpt><trkpt lat="43.190547521863145" lon="10.906935338244368"><ele>596.0</ele><time>2026-04-19T10:10:58.999Z</time></trkpt><trkpt lat="43.19063978741609" lon="10.907160439907969"><ele>592.3333333333333</ele><time>2026-04-19T10:10:59.999Z</time></trkpt><trkpt lat="43.190751082253826" lon="10.907380698074622"><ele>588.6666666666666</ele><time>2026-04-19T10:11:00.999Z</time></trkpt><trkpt lat="43.19088001272662" lon="10.907597289112664"><ele>585.0</ele><time>2026-04-19T10:11:01.999Z</time></trkpt><trkpt lat="43.1910453742608" lon="10.907792002555986"><ele>585.0</ele><time>2026-04-19T10:11:02.999Z</time></trkpt><trkpt lat="43.19122002100058" lon="10.907963875996888"><ele>585.0</ele><time>2026-04-19T10:11:03.999Z</time></trkpt><trkpt lat="43.19140135521999" lon="10.908075426869075"><ele>585.0</ele><time>2026-04-19T10:11:04.999Z</time></trkpt><trkpt lat="43.19158759573898" lon="10.908166761886362"><ele>595.3333333333334</ele><time>2026-04-19T10:11:05.999Z</time></trkpt><trkpt lat="43.191780025337295" lon="10.90823742638572"><ele>605.6666666666667</ele><time>2026-04-19T10:11:06.999Z</time></trkpt><trkpt lat="43.191987388062124" lon="10.908274919739151"><ele>616.0</ele><time>2026-04-19T10:11:07.999Z</time></trkpt><trkpt lat="43.1921984715268" lon="10.908293087892798"><ele>611.6666666666667</ele><time>2026-04-19T10:11:08.999Z</time></trkpt><trkpt lat="43.19241072896027" lon="10.908330813294176"><ele>607.3333333333334</ele><time>2026-04-19T10:11:09.999Z</time></trkpt><trkpt lat="43.19263118164362" lon="10.908374509213273"><ele>603.0</ele><time>2026-04-19T10:11:10.999Z</time></trkpt><trkpt lat="43.192841591285294" lon="10.908421061257359"><ele>603.0</ele><time>2026-04-19T10:11:11.999Z</time></trkpt><trkpt lat="43.193042518336505" lon="10.908463653419325"><ele>603.0</ele><time>2026-04-19T10:11:12.999Z</time></trkpt><trkpt lat="43.19323608915236" lon="10.908501642430153"><ele>603.0</ele><time>2026-04-19T10:11:13.999Z</time></trkpt><trkpt lat="43.193431462554244" lon="10.908536640101472"><ele>606.6666666666666</ele><time>2026-04-19T10:11:14.999Z</time></trkpt><trkpt lat="43.19362872590871" lon="10.908553422052389"><ele>610.3333333333333</ele><time>2026-04-19T10:11:15.999Z</time></trkpt><trkpt lat="43.19381841370355" lon="10.908540434166008"><ele>614.0</ele><time>2026-04-19T10:11:16.999Z</time></trkpt><trkpt lat="43.194000869591044" lon="10.908478458279227"><ele>624.3333333333333</ele><time>2026-04-19T10:11:17.999Z</time></trkpt><trkpt lat="43.19418807360347" lon="10.908380326512066"><ele>634.6666666666666</ele><time>2026-04-19T10:11:18.999Z</time></trkpt><trkpt lat="43.194363422711675" lon="10.908251765031482"><ele>645.0</ele><time>2026-04-19T10:11:19.998Z</time></trkpt><trkpt lat="43.194513461384496" lon="10.908094118644048"><ele>645.0</ele><time>2026-04-19T10:11:20.998Z</time></trkpt><trkpt lat="43.194630313558164" lon="10.907917681297087"><ele>645.0</ele><time>2026-04-19T10:11:21.998Z</time></trkpt><trkpt lat="43.19473282733458" lon="10.90772439028438"><ele>645.0</ele><time>2026-04-19T10:11:22.998Z</time></trkpt><trkpt lat="43.19482612742489" lon="10.907502130133551"><ele>645.6666666666666</ele><time>2026-04-19T10:11:23.998Z</time></trkpt><trkpt lat="43.19494568783607" lon="10.907309557405512"><ele>646.3333333333333</ele><time>2026-04-19T10:11:24.998Z</time></trkpt><trkpt lat="43.19509070904236" lon="10.907158511371627"><ele>647.0</ele><time>2026-04-19T10:11:25.998Z</time></trkpt><trkpt lat="43.1952522551687" lon="10.90706905799287"><ele>647.0</ele><time>2026-04-19T10:11:26.998Z</time></trkpt><trkpt lat="43.195453062370134" lon="10.907050774096419"><ele>647.0</ele><time>2026-04-19T10:11:27.998Z</time></trkpt><trkpt lat="43.19564537733507" lon="10.907062304444384"><ele>647.0</ele><time>2026-04-19T10:11:28.998Z</time></trkpt><trkpt lat="43.19580799868179" lon="10.907060319095171"><ele>643.6666666666666</ele><time>2026-04-19T10:11:29.998Z</time></trkpt><trkpt lat="43.195988759025234" lon="10.907032858186936"><ele>640.3333333333334</ele><time>2026-04-19T10:11:30.998Z</time></trkpt><trkpt lat="43.19618243677765" lon="10.907037199932299"><ele>637.0</ele><time>2026-04-19T10:11:31.998Z</time></trkpt><trkpt lat="43.19634451472077" lon="10.907057176818448"><ele>637.0</ele><time>2026-04-19T10:11:32.998Z</time></trkpt><trkpt lat="43.19648705731314" lon="10.907123453965662"><ele>637.0</ele><time>2026-04-19T10:11:33.998Z</time></trkpt><trkpt lat="43.19661574803423" lon="10.907187902435865"><ele>637.0</ele><time>2026-04-19T10:11:34.998Z</time></trkpt><trkpt lat="43.19677334763892" lon="10.907225072057194"><ele>637.0</ele><time>2026-04-19T10:11:35.998Z</time></trkpt><trkpt lat="43.196950505894314" lon="10.907259360829876"><ele>639.0</ele><time>2026-04-19T10:11:36.998Z</time></trkpt><trkpt lat="43.197107330205704" lon="10.907368503594531"><ele>641.0</ele><time>2026-04-19T10:11:37.998Z</time></trkpt><trkpt lat="43.19727464143734" lon="10.907368320331626"><ele>643.0</ele><time>2026-04-19T10:11:38.998Z</time></trkpt><trkpt lat="43.197450016159756" lon="10.90731433787265"><ele>644.0</ele><time>2026-04-19T10:11:39.998Z</time></trkpt><trkpt lat="43.1975772431391" lon="10.907170705776444"><ele>645.0</ele><time>2026-04-19T10:11:40.998Z</time></trkpt><trkpt lat="43.197696425569575" lon="10.907001742529708"><ele>646.0</ele><time>2026-04-19T10:11:41.998Z</time></trkpt><trkpt lat="43.197816569785594" lon="10.906835331793447"><ele>646.0</ele><time>2026-04-19T10:11:43Z</time></trkpt><trkpt lat="43.19795405472766" lon="10.90667850579829"><ele>646.0</ele><time>2026-04-19T10:11:44Z</time></trkpt><trkpt lat="43.1981071278863" lon="10.906552287162262"><ele>646.0</ele><time>2026-04-19T10:11:45Z</time></trkpt><trkpt lat="43.19825247651553" lon="10.906454520483656"><ele>646.0</ele><time>2026-04-19T10:11:46Z</time></trkpt><trkpt lat="43.19838644163087" lon="10.90641998303556"><ele>646.0</ele><time>2026-04-19T10:11:47Z</time></trkpt><trkpt lat="43.198519494862936" lon="10.906464142780024"><ele>646.0</ele><time>2026-04-19T10:11:48Z</time></trkpt><trkpt lat="43.19866122375248" lon="10.906540419647426"><ele>646.0</ele><time>2026-04-19T10:11:49Z</time></trkpt><trkpt lat="43.19882462469344" lon="10.906540840348386"><ele>646.0</ele><time>2026-04-19T10:11:50Z</time></trkpt><trkpt lat="43.19897023787837" lon="10.906545612998611"><ele>646.0</ele><time>2026-04-19T10:11:51Z</time></trkpt><trkpt lat="43.199107477068864" lon="10.906499562637213"><ele>646.0</ele><time>2026-04-19T10:11:52Z</time></trkpt><trkpt lat="43.19925252429734" lon="10.906426976059894"><ele>646.0</ele><time>2026-04-19T10:11:53Z</time></trkpt><trkpt lat="43.19940030096342" lon="10.906279359890847"><ele>642.6666666666667</ele><time>2026-04-19T10:11:54Z</time></trkpt><trkpt lat="43.19942827987594" lon="10.905969291149654"><ele>639.3333333333334</ele><time>2026-04-19T10:11:55Z</time></trkpt><trkpt lat="43.19956034298043" lon="10.905794323501953"><ele>636.0</ele><time>2026-04-19T10:11:56Z</time></trkpt><trkpt lat="43.19966130666006" lon="10.90557899055169"><ele>638.6666666666666</ele><time>2026-04-19T10:11:57Z</time></trkpt><trkpt lat="43.19978833222314" lon="10.905403112064873"><ele>641.3333333333333</ele><time>2026-04-19T10:11:58Z</time></trkpt><trkpt lat="43.19991186861176" lon="10.905244428133283"><ele>644.0</ele><time>2026-04-19T10:11:59Z</time></trkpt><trkpt lat="43.20003896018928" lon="10.90507116153812"><ele>644.0</ele><time>2026-04-19T10:12:00Z</time></trkpt><trkpt lat="43.20015926781999" lon="10.904960937220002"><ele>644.0</ele><time>2026-04-19T10:12:01Z</time></trkpt><trkpt lat="43.200288449276606" lon="10.904755398488682"><ele>644.0</ele><time>2026-04-19T10:12:02Z</time></trkpt><trkpt lat="43.200422760328465" lon="10.904546859928558"><ele>644.0</ele><time>2026-04-19T10:12:03Z</time></trkpt><trkpt lat="43.200553512552275" lon="10.904355122208422"><ele>644.0</ele><time>2026-04-19T10:12:04Z</time></trkpt><trkpt lat="43.20069246421819" lon="10.904162820197477"><ele>644.0</ele><time>2026-04-19T10:12:05Z</time></trkpt><trkpt lat="43.20084362285748" lon="10.903982417050992"><ele>643.6666666666666</ele><time>2026-04-19T10:12:06Z</time></trkpt><trkpt lat="43.201013616484005" lon="10.90382761323343"><ele>643.3333333333334</ele><time>2026-04-19T10:12:07Z</time></trkpt><trkpt lat="43.201191563044986" lon="10.903699150916857"><ele>643.0</ele><time>2026-04-19T10:12:08Z</time></trkpt><trkpt lat="43.201385981698614" lon="10.903650552097076"><ele>640.6666666666667</ele><time>2026-04-19T10:12:09Z</time></trkpt><trkpt lat="43.20158212976035" lon="10.903643155240824"><ele>638.3333333333334</ele><time>2026-04-19T10:12:10Z</time></trkpt><trkpt lat="43.20179114699905" lon="10.903689100168611"><ele>636.0</ele><time>2026-04-19T10:12:11Z</time></trkpt><trkpt lat="43.201989296546266" lon="10.903776666099624"><ele>636.0</ele><time>2026-04-19T10:12:12Z</time></trkpt><trkpt lat="43.20216958348341" lon="10.903908669179641"><ele>636.0</ele><time>2026-04-19T10:12:13Z</time></trkpt><trkpt lat="43.202341006157845" lon="10.904075265753601"><ele>636.0</ele><time>2026-04-19T10:12:14Z</time></trkpt><trkpt lat="43.20250192580236" lon="10.904255344224495"><ele>630.0</ele><time>2026-04-19T10:12:15Z</time></trkpt><trkpt lat="43.20267465016584" lon="10.904419274937919"><ele>624.0</ele><time>2026-04-19T10:12:16Z</time></trkpt><trkpt lat="43.202859299588795" lon="10.904544170481802"><ele>618.0</ele><time>2026-04-19T10:12:17Z</time></trkpt><trkpt lat="43.20306480409113" lon="10.904623342032874"><ele>624.3333333333334</ele><time>2026-04-19T10:12:18Z</time></trkpt><trkpt lat="43.20327851905815" lon="10.904656366606918"><ele>630.6666666666667</ele><time>2026-04-19T10:12:19Z</time></trkpt><trkpt lat="43.20349510808543" lon="10.90463186720301"><ele>637.0</ele><time>2026-04-19T10:12:20Z</time></trkpt><trkpt lat="43.203707632555776" lon="10.90456196031918"><ele>637.0</ele><time>2026-04-19T10:12:21Z</time></trkpt><trkpt lat="43.20390012537275" lon="10.904438048794697"><ele>637.0</ele><time>2026-04-19T10:12:22Z</time></trkpt><trkpt lat="43.204080829835924" lon="10.904299536669065"><ele>637.0</ele><time>2026-04-19T10:12:23Z</time></trkpt><trkpt lat="43.20424520599577" lon="10.904156523797218"><ele>637.5</ele><time>2026-04-19T10:12:24Z</time></trkpt><trkpt lat="43.20441319572542" lon="10.903967837810177"><ele>638.0</ele><time>2026-04-19T10:12:25Z</time></trkpt><trkpt lat="43.20458089739263" lon="10.903744210492544"><ele>638.0</ele><time>2026-04-19T10:12:26Z</time></trkpt><trkpt lat="43.204715289499035" lon="10.90349290284865"><ele>638.0</ele><time>2026-04-19T10:12:27Z</time></trkpt><trkpt lat="43.204811943893546" lon="10.903199574327294"><ele>633.0</ele><time>2026-04-19T10:12:28Z</time></trkpt><trkpt lat="43.20485848648281" lon="10.902891128591254"><ele>628.0</ele><time>2026-04-19T10:12:29Z</time></trkpt><trkpt lat="43.20493283010291" lon="10.902605469617594"><ele>636.0</ele><time>2026-04-19T10:12:30Z</time></trkpt><trkpt lat="43.20503395025498" lon="10.902334921660435"><ele>644.0</ele><time>2026-04-19T10:12:30.999Z</time></trkpt><trkpt lat="43.2051741503465" lon="10.902087216390314"><ele>644.0</ele><time>2026-04-19T10:12:31.999Z</time></trkpt><trkpt lat="43.20533490379261" lon="10.901876859210967"><ele>644.0</ele><time>2026-04-19T10:12:32.999Z</time></trkpt><trkpt lat="43.20550949238215" lon="10.901683742231834"><ele>644.0</ele><time>2026-04-19T10:12:33.999Z</time></trkpt><trkpt lat="43.20570481539227" lon="10.901526844611666"><ele>646.6666666666666</ele><time>2026-04-19T10:12:34.999Z</time></trkpt><trkpt lat="43.20589478631241" lon="10.901389098025676"><ele>649.3333333333334</ele><time>2026-04-19T10:12:35.999Z</time></trkpt><trkpt lat="43.20607847020041" lon="10.901237204532764"><ele>652.0</ele><time>2026-04-19T10:12:36.999Z</time></trkpt><trkpt lat="43.20626150508674" lon="10.901070978878277"><ele>652.6666666666667</ele><time>2026-04-19T10:12:37.999Z</time></trkpt><trkpt lat="43.20643969322195" lon="10.90088949977311"><ele>653.3333333333334</ele><time>2026-04-19T10:12:38.999Z</time></trkpt><trkpt lat="43.20661013736381" lon="10.900687963251514"><ele>654.0</ele><time>2026-04-19T10:12:39.999Z</time></trkpt><trkpt lat="43.20676174514505" lon="10.900468411898403"><ele>654.0</ele><time>2026-04-19T10:12:40.999Z</time></trkpt><trkpt lat="43.20689017550091" lon="10.900201870485944"><ele>654.0</ele><time>2026-04-19T10:12:41.999Z</time></trkpt><trkpt lat="43.20700160364694" lon="10.899927938565463"><ele>656.5</ele><time>2026-04-19T10:12:42.999Z</time></trkpt><trkpt lat="43.20710978115533" lon="10.89964509380096"><ele>659.0</ele><time>2026-04-19T10:12:43.999Z</time></trkpt><trkpt lat="43.20722345094121" lon="10.899355220253883"><ele>650.5</ele><time>2026-04-19T10:12:44.999Z</time></trkpt><trkpt lat="43.207343187298804" lon="10.899063796994215"><ele>642.0</ele><time>2026-04-19T10:12:45.999Z</time></trkpt><trkpt lat="43.207465764585066" lon="10.898766135330323"><ele>642.0</ele><time>2026-04-19T10:12:46.999Z</time></trkpt><trkpt lat="43.20758411323856" lon="10.898464750319338"><ele>642.0</ele><time>2026-04-19T10:12:47.999Z</time></trkpt><trkpt lat="43.207705901066134" lon="10.898165837881349"><ele>644.0</ele><time>2026-04-19T10:12:48.999Z</time></trkpt><trkpt lat="43.207829410684006" lon="10.897869343179135"><ele>646.0</ele><time>2026-04-19T10:12:49.999Z</time></trkpt><trkpt lat="43.20795307145007" lon="10.89758223191628"><ele>651.0</ele><time>2026-04-19T10:12:50.999Z</time></trkpt><trkpt lat="43.20807694522358" lon="10.897301307356283"><ele>656.0</ele><time>2026-04-19T10:12:51.999Z</time></trkpt><trkpt lat="43.20819893989526" lon="10.897029100012249"><ele>650.0</ele><time>2026-04-19T10:12:52.999Z</time></trkpt><trkpt lat="43.20832759121652" lon="10.896765266954564"><ele>644.0</ele><time>2026-04-19T10:12:53.999Z</time></trkpt><trkpt lat="43.208468837369786" lon="10.896523261472977"><ele>644.0</ele><time>2026-04-19T10:12:54.999Z</time></trkpt><trkpt lat="43.20863352750045" lon="10.89630863133229"><ele>644.0</ele><time>2026-04-19T10:12:55.999Z</time></trkpt><trkpt lat="43.20881609548872" lon="10.896129141586664"><ele>638.5</ele><time>2026-04-19T10:12:56.999Z</time></trkpt><trkpt lat="43.20902743122834" lon="10.895985370119066"><ele>633.0</ele><time>2026-04-19T10:12:57.999Z</time></trkpt><trkpt lat="43.20925214088443" lon="10.895872064516746"><ele>633.0</ele><time>2026-04-19T10:12:58.999Z</time></trkpt><trkpt lat="43.20947731375891" lon="10.895796020807827"><ele>633.0</ele><time>2026-04-19T10:12:59.999Z</time></trkpt><trkpt lat="43.209710892830934" lon="10.895757596401335"><ele>629.0</ele><time>2026-04-19T10:13:00.999Z</time></trkpt><trkpt lat="43.209958693893874" lon="10.89576041068256"><ele>625.0</ele><time>2026-04-19T10:13:01.999Z</time></trkpt><trkpt lat="43.21019351758647" lon="10.895812383058503"><ele>625.0</ele><time>2026-04-19T10:13:02.999Z</time></trkpt><trkpt lat="43.210430596349696" lon="10.895912046883772"><ele>625.0</ele><time>2026-04-19T10:13:03.999Z</time></trkpt><trkpt lat="43.21065681997987" lon="10.896040876203676"><ele>625.0</ele><time>2026-04-19T10:13:04.999Z</time></trkpt><trkpt lat="43.210881327724096" lon="10.896185527261666"><ele>625.0</ele><time>2026-04-19T10:13:05.999Z</time></trkpt><trkpt lat="43.21110291988243" lon="10.896332725922717"><ele>625.0</ele><time>2026-04-19T10:13:06.999Z</time></trkpt><trkpt lat="43.21132697956416" lon="10.896475889424325"><ele>625.0</ele><time>2026-04-19T10:13:07.999Z</time></trkpt><trkpt lat="43.21155323919257" lon="10.896612317561358"><ele>624.5</ele><time>2026-04-19T10:13:08.999Z</time></trkpt><trkpt lat="43.211782757768034" lon="10.896751083984375"><ele>624.0</ele><time>2026-04-19T10:13:09.999Z</time></trkpt><trkpt lat="43.21201292875584" lon="10.89688838459357"><ele>624.0</ele><time>2026-04-19T10:13:10.999Z</time></trkpt><trkpt lat="43.2122392741068" lon="10.897024096810478"><ele>624.0</ele><time>2026-04-19T10:13:11.999Z</time></trkpt><trkpt lat="43.21246408979865" lon="10.897165509027564"><ele>623.0</ele><time>2026-04-19T10:13:12.999Z</time></trkpt><trkpt lat="43.2126824231935" lon="10.897310497580827"><ele>622.0</ele><time>2026-04-19T10:13:13.999Z</time></trkpt><trkpt lat="43.212892169362995" lon="10.897444610411268"><ele>622.0</ele><time>2026-04-19T10:13:14.999Z</time></trkpt><trkpt lat="43.21309757862877" lon="10.897575832889405"><ele>622.0</ele><time>2026-04-19T10:13:15.999Z</time></trkpt><trkpt lat="43.21329868175664" lon="10.897706390001659"><ele>622.0</ele><time>2026-04-19T10:13:16.999Z</time></trkpt><trkpt lat="43.21347994771244" lon="10.897821270589395"><ele>619.0</ele><time>2026-04-19T10:13:17.999Z</time></trkpt><trkpt lat="43.21364608166939" lon="10.897927506235295"><ele>616.0</ele><time>2026-04-19T10:13:18.999Z</time></trkpt><trkpt lat="43.21380669658976" lon="10.898026364574768"><ele>613.0</ele><time>2026-04-19T10:13:19.999Z</time></trkpt><trkpt lat="43.21395925895845" lon="10.898123291001792"><ele>612.0</ele><time>2026-04-19T10:13:20.999Z</time></trkpt><trkpt lat="43.21410930013326" lon="10.898216202869643"><ele>611.0</ele><time>2026-04-19T10:13:21.999Z</time></trkpt><trkpt lat="43.21425640810679" lon="10.898303583225767"><ele>610.0</ele><time>2026-04-19T10:13:22.999Z</time></trkpt><trkpt lat="43.214403373220954" lon="10.89839254989321"><ele>609.25</ele><time>2026-04-19T10:13:23.999Z</time></trkpt><trkpt lat="43.21454705634725" lon="10.898485675716373"><ele>608.5</ele><time>2026-04-19T10:13:24.999Z</time></trkpt><trkpt lat="43.21468446711011" lon="10.898571530115438"><ele>607.75</ele><time>2026-04-19T10:13:25.999Z</time></trkpt><trkpt lat="43.21480887069133" lon="10.89864418654296"><ele>607.0</ele><time>2026-04-19T10:13:26.998Z</time></trkpt><trkpt lat="43.21491889361255" lon="10.898710139046903"><ele>607.0</ele><time>2026-04-19T10:13:27.998Z</time></trkpt><trkpt lat="43.215011926315924" lon="10.898787187346711"><ele>607.0</ele><time>2026-04-19T10:13:28.998Z</time></trkpt><trkpt lat="43.21511206718429" lon="10.898829119358187"><ele>607.0</ele><time>2026-04-19T10:13:29.998Z</time></trkpt><trkpt lat="43.215147898129324" lon="10.899001535225098"><ele>607.0</ele><time>2026-04-19T10:13:30.998Z</time></trkpt><trkpt lat="43.21519962735175" lon="10.899109369504906"><ele>607.0</ele><time>2026-04-19T10:13:31.998Z</time></trkpt><trkpt lat="43.21529201897395" lon="10.899138647611375"><ele>607.0</ele><time>2026-04-19T10:13:32.998Z</time></trkpt><trkpt lat="43.215360001895554" lon="10.899110695411789"><ele>607.0</ele><time>2026-04-19T10:13:33.998Z</time></trkpt><trkpt lat="43.21543691428664" lon="10.899006710988413"><ele>607.0</ele><time>2026-04-19T10:13:34.998Z</time></trkpt><trkpt lat="43.21549981021454" lon="10.898867032287617"><ele>607.0</ele><time>2026-04-19T10:13:35.998Z</time></trkpt><trkpt lat="43.215497166927605" lon="10.898705038985163"><ele>607.0</ele><time>2026-04-19T10:13:36.998Z</time></trkpt><trkpt lat="43.21571106298139" lon="10.898706324325236"><ele>607.25</ele><time>2026-04-19T10:13:37.998Z</time></trkpt><trkpt lat="43.215839447850456" lon="10.898621978270803"><ele>607.5</ele><time>2026-04-19T10:13:38.998Z</time></trkpt><trkpt lat="43.21598538322119" lon="10.898576996486154"><ele>607.75</ele><time>2026-04-19T10:13:39.998Z</time></trkpt><trkpt lat="43.216123524784436" lon="10.898494120895728"><ele>608.0</ele><time>2026-04-19T10:13:40.998Z</time></trkpt><trkpt lat="43.21627379235943" lon="10.898412749493428"><ele>608.6666666666666</ele><time>2026-04-19T10:13:41.998Z</time></trkpt><trkpt lat="43.2164212956796" lon="10.898330191200131"><ele>609.3333333333334</ele><time>2026-04-19T10:13:42.998Z</time></trkpt><trkpt lat="43.21658145217765" lon="10.89827922115583"><ele>610.0</ele><time>2026-04-19T10:13:43.998Z</time></trkpt><trkpt lat="43.21673028511434" lon="10.898206111231174"><ele>610.6666666666667</ele><time>2026-04-19T10:13:44.998Z</time></trkpt><trkpt lat="43.216882897344746" lon="10.898131326310454"><ele>611.3333333333334</ele><time>2026-04-19T10:13:45.998Z</time></trkpt><trkpt lat="43.21703779458031" lon="10.89805408131776"><ele>612.0</ele><time>2026-04-19T10:13:46.998Z</time></trkpt><trkpt lat="43.21719568313023" lon="10.897972535685986"><ele>612.6666666666666</ele><time>2026-04-19T10:13:47.998Z</time></trkpt><trkpt lat="43.217358479295996" lon="10.897888786167073"><ele>613.3333333333333</ele><time>2026-04-19T10:13:49Z</time></trkpt><trkpt lat="43.217523448928844" lon="10.897804278309676"><ele>614.0</ele><time>2026-04-19T10:13:50Z</time></trkpt><trkpt lat="43.217690264621915" lon="10.897718824650667"><ele>614.0</ele><time>2026-04-19T10:13:51Z</time></trkpt><trkpt lat="43.217863038449785" lon="10.897632907069038"><ele>614.0</ele><time>2026-04-19T10:13:52Z</time></trkpt><trkpt lat="43.21803607467401" lon="10.897544805974379"><ele>614.0</ele><time>2026-04-19T10:13:53Z</time></trkpt><trkpt lat="43.21821070732586" lon="10.897455892036854"><ele>613.0</ele><time>2026-04-19T10:13:54Z</time></trkpt><trkpt lat="43.21838043076311" lon="10.897334479835518"><ele>612.0</ele><time>2026-04-19T10:13:55Z</time></trkpt><trkpt lat="43.218562381219854" lon="10.897241453616656"><ele>611.0</ele><time>2026-04-19T10:13:56Z</time></trkpt><trkpt lat="43.21874661248842" lon="10.897153369506956"><ele>611.0</ele><time>2026-04-19T10:13:57Z</time></trkpt><trkpt lat="43.21892973732522" lon="10.897058148483755"><ele>611.0</ele><time>2026-04-19T10:13:58Z</time></trkpt><trkpt lat="43.21911750320467" lon="10.896961962040795"><ele>611.0</ele><time>2026-04-19T10:13:59Z</time></trkpt><trkpt lat="43.21930553749991" lon="10.896858711011134"><ele>610.0</ele><time>2026-04-19T10:14:00Z</time></trkpt><trkpt lat="43.21948777904977" lon="10.896733667710286"><ele>609.0</ele><time>2026-04-19T10:14:01Z</time></trkpt><trkpt lat="43.21966492377655" lon="10.89662574873414"><ele>608.0</ele><time>2026-04-19T10:14:02Z</time></trkpt><trkpt lat="43.21984463361872" lon="10.896538700279079"><ele>607.0</ele><time>2026-04-19T10:14:03Z</time></trkpt><trkpt lat="43.22001042326853" lon="10.896421659968532"><ele>606.0</ele><time>2026-04-19T10:14:04Z</time></trkpt><trkpt lat="43.220156614974286" lon="10.896260112622079"><ele>605.0</ele><time>2026-04-19T10:14:05Z</time></trkpt><trkpt lat="43.220297863623166" lon="10.896109336123052"><ele>602.0</ele><time>2026-04-19T10:14:06Z</time></trkpt><trkpt lat="43.220414631681244" lon="10.895894154799059"><ele>599.0</ele><time>2026-04-19T10:14:07Z</time></trkpt><trkpt lat="43.220510747841146" lon="10.895670069526219"><ele>596.0</ele><time>2026-04-19T10:14:08Z</time></trkpt><trkpt lat="43.22058409706243" lon="10.895432944625373"><ele>596.0</ele><time>2026-04-19T10:14:09Z</time></trkpt><trkpt lat="43.220619924700756" lon="10.895178600294145"><ele>596.0</ele><time>2026-04-19T10:14:10Z</time></trkpt><trkpt lat="43.220631989702184" lon="10.894888923190988"><ele>596.0</ele><time>2026-04-19T10:14:11Z</time></trkpt><trkpt lat="43.220612477244245" lon="10.894606078633167"><ele>595.0</ele><time>2026-04-19T10:14:12Z</time></trkpt><trkpt lat="43.220573353140296" lon="10.89434207966824"><ele>594.0</ele><time>2026-04-19T10:14:13Z</time></trkpt><trkpt lat="43.22052896141291" lon="10.894064377173478"><ele>593.0</ele><time>2026-04-19T10:14:14Z</time></trkpt><trkpt lat="43.220484580839916" lon="10.893786744481273"><ele>591.6666666666666</ele><time>2026-04-19T10:14:15Z</time></trkpt><trkpt lat="43.22043942122083" lon="10.89350216468295"><ele>590.3333333333334</ele><time>2026-04-19T10:14:16Z</time></trkpt><trkpt lat="43.22039418728576" lon="10.89321540383927"><ele>589.0</ele><time>2026-04-19T10:14:17Z</time></trkpt><trkpt lat="43.22034787294151" lon="10.892920264103452"><ele>585.6666666666667</ele><time>2026-04-19T10:14:18Z</time></trkpt><trkpt lat="43.22030248748901" lon="10.892624720119272"><ele>582.3333333333334</ele><time>2026-04-19T10:14:19Z</time></trkpt><trkpt lat="43.22025631523648" lon="10.8923408463561"><ele>579.0</ele><time>2026-04-19T10:14:20Z</time></trkpt><trkpt lat="43.220216481392505" lon="10.892071272850103"><ele>575.3333333333334</ele><time>2026-04-19T10:14:21Z</time></trkpt><trkpt lat="43.22018470250564" lon="10.89182705724223"><ele>571.6666666666667</ele><time>2026-04-19T10:14:22Z</time></trkpt><trkpt lat="43.220180427998066" lon="10.891602125205562"><ele>568.0</ele><time>2026-04-19T10:14:23Z</time></trkpt><trkpt lat="43.22021912645165" lon="10.891377782173489"><ele>565.0</ele><time>2026-04-19T10:14:24Z</time></trkpt><trkpt lat="43.2202977599192" lon="10.89119181211816"><ele>562.0</ele><time>2026-04-19T10:14:25Z</time></trkpt><trkpt lat="43.220408355333355" lon="10.891015571865783"><ele>559.0</ele><time>2026-04-19T10:14:26Z</time></trkpt><trkpt lat="43.22054990653273" lon="10.89089630667949"><ele>554.3333333333334</ele><time>2026-04-19T10:14:27Z</time></trkpt><trkpt lat="43.220708582141924" lon="10.890835672714637"><ele>549.6666666666666</ele><time>2026-04-19T10:14:28Z</time></trkpt><trkpt lat="43.220890931735084" lon="10.890820663407425"><ele>545.0</ele><time>2026-04-19T10:14:29Z</time></trkpt><trkpt lat="43.221068443582595" lon="10.890886859493946"><ele>544.6666666666666</ele><time>2026-04-19T10:14:30Z</time></trkpt><trkpt lat="43.221246500518404" lon="10.89096651085799"><ele>544.3333333333334</ele><time>2026-04-19T10:14:31Z</time></trkpt><trkpt lat="43.22142067553531" lon="10.891044839332885"><ele>544.0</ele><time>2026-04-19T10:14:32Z</time></trkpt><trkpt lat="43.2216155866057" lon="10.891122452618609"><ele>544.0</ele><time>2026-04-19T10:14:33Z</time></trkpt><trkpt lat="43.22178769887803" lon="10.89112647527447"><ele>544.0</ele><time>2026-04-19T10:14:34Z</time></trkpt><trkpt lat="43.22197176955464" lon="10.891125924437189"><ele>544.0</ele><time>2026-04-19T10:14:35Z</time></trkpt><trkpt lat="43.22213983848864" lon="10.891047083711207"><ele>541.6666666666667</ele><time>2026-04-19T10:14:36Z</time></trkpt><trkpt lat="43.222312002653915" lon="10.890891639164511"><ele>539.3333333333334</ele><time>2026-04-19T10:14:37Z</time></trkpt><trkpt lat="43.222540052538825" lon="10.89082624578567"><ele>537.0</ele><time>2026-04-19T10:14:38Z</time></trkpt><trkpt lat="43.22264583484777" lon="10.890807578347104"><ele>537.6666666666666</ele><time>2026-04-19T10:14:39Z</time></trkpt><trkpt lat="43.22280012909678" lon="10.890800453696087"><ele>538.3333333333333</ele><time>2026-04-19T10:14:39.999Z</time></trkpt><trkpt lat="43.2229401981541" lon="10.890939140507896"><ele>539.0</ele><time>2026-04-19T10:14:40.999Z</time></trkpt><trkpt lat="43.22309213837313" lon="10.891057449118044"><ele>532.6666666666666</ele><time>2026-04-19T10:14:41.999Z</time></trkpt><trkpt lat="43.22327174055422" lon="10.891202749250944"><ele>526.3333333333334</ele><time>2026-04-19T10:14:42.999Z</time></trkpt><trkpt lat="43.223478884204674" lon="10.89136864507804"><ele>520.0</ele><time>2026-04-19T10:14:43.999Z</time></trkpt><trkpt lat="43.2236753557703" lon="10.891523250451517"><ele>520.0</ele><time>2026-04-19T10:14:44.999Z</time></trkpt><trkpt lat="43.22387002988733" lon="10.891660391952033"><ele>520.0</ele><time>2026-04-19T10:14:45.999Z</time></trkpt><trkpt lat="43.22401368728322" lon="10.891824275712732"><ele>520.0</ele><time>2026-04-19T10:14:46.999Z</time></trkpt><trkpt lat="43.22414326219055" lon="10.891944425423175"><ele>522.25</ele><time>2026-04-19T10:14:47.999Z</time></trkpt><trkpt lat="43.224292150984496" lon="10.891978234956115"><ele>524.5</ele><time>2026-04-19T10:14:48.999Z</time></trkpt><trkpt lat="43.22442061426599" lon="10.89194232565873"><ele>526.75</ele><time>2026-04-19T10:14:49.999Z</time></trkpt><trkpt lat="43.224557198391565" lon="10.891842609108496"><ele>529.0</ele><time>2026-04-19T10:14:50.999Z</time></trkpt><trkpt lat="43.22467378029666" lon="10.891709575349884"><ele>524.5</ele><time>2026-04-19T10:14:51.999Z</time></trkpt><trkpt lat="43.22473051846897" lon="10.891557500712162"><ele>520.0</ele><time>2026-04-19T10:14:52.999Z</time></trkpt><trkpt lat="43.224777011030994" lon="10.891397539467262"><ele>515.5</ele><time>2026-04-19T10:14:53.999Z</time></trkpt><trkpt lat="43.22484864795135" lon="10.891256214369498"><ele>511.0</ele><time>2026-04-19T10:14:54.999Z</time></trkpt><trkpt lat="43.22479858418656" lon="10.891070593201258"><ele>507.33333333333337</ele><time>2026-04-19T10:14:55.999Z</time></trkpt><trkpt lat="43.22470482382356" lon="10.890920608032445"><ele>503.66666666666663</ele><time>2026-04-19T10:14:56.999Z</time></trkpt><trkpt lat="43.22457392907753" lon="10.890753916279829"><ele>500.0</ele><time>2026-04-19T10:14:57.999Z</time></trkpt><trkpt lat="43.22435350033055" lon="10.890572141181565"><ele>500.0</ele><time>2026-04-19T10:14:58.999Z</time></trkpt><trkpt lat="43.224227874162736" lon="10.890361304407024"><ele>500.0</ele><time>2026-04-19T10:14:59.999Z</time></trkpt><trkpt lat="43.22409977045733" lon="10.890127138462363"><ele>500.0</ele><time>2026-04-19T10:15:00.999Z</time></trkpt><trkpt lat="43.22399762085549" lon="10.889910829976364"><ele>502.3333333333333</ele><time>2026-04-19T10:15:01.999Z</time></trkpt><trkpt lat="43.2239090659041" lon="10.889650363012073"><ele>504.66666666666663</ele><time>2026-04-19T10:15:02.999Z</time></trkpt><trkpt lat="43.2239582571212" lon="10.889430348353734"><ele>507.0</ele><time>2026-04-19T10:15:03.999Z</time></trkpt><trkpt lat="43.224011803381416" lon="10.889324305832794"><ele>503.25</ele><time>2026-04-19T10:15:04.999Z</time></trkpt><trkpt lat="43.224116202245185" lon="10.889299921308291"><ele>499.5</ele><time>2026-04-19T10:15:05.999Z</time></trkpt><trkpt lat="43.22421255913863" lon="10.88932251970399"><ele>495.75</ele><time>2026-04-19T10:15:06.999Z</time></trkpt><trkpt lat="43.2243062534637" lon="10.889375575308515"><ele>492.0</ele><time>2026-04-19T10:15:07.999Z</time></trkpt><trkpt lat="43.2244844001487" lon="10.88944026207839"><ele>492.0</ele><time>2026-04-19T10:15:08.999Z</time></trkpt><trkpt lat="43.22463387644363" lon="10.88949479187429"><ele>492.0</ele><time>2026-04-19T10:15:09.999Z</time></trkpt><trkpt lat="43.22478432123257" lon="10.889552123656921"><ele>492.0</ele><time>2026-04-19T10:15:10.999Z</time></trkpt><trkpt lat="43.2249372137572" lon="10.889591775276607"><ele>490.8</ele><time>2026-04-19T10:15:11.999Z</time></trkpt><trkpt lat="43.22506553296132" lon="10.889552944666168"><ele>489.6</ele><time>2026-04-19T10:15:12.999Z</time></trkpt><trkpt lat="43.22511166798703" lon="10.889466914011978"><ele>488.40000000000003</ele><time>2026-04-19T10:15:13.999Z</time></trkpt><trkpt lat="43.22506138590688" lon="10.889322170732637"><ele>487.20000000000005</ele><time>2026-04-19T10:15:15.999Z</time></trkpt><trkpt lat="43.22497232816037" lon="10.889284263119249"><ele>486.0</ele><time>2026-04-19T10:15:16.999Z</time></trkpt><trkpt lat="43.22503862985764" lon="10.889318853889467"><ele>485.0</ele><time>2026-04-19T10:15:17.999Z</time></trkpt><trkpt lat="43.224756214500864" lon="10.889152228000421"><ele>484.0</ele><time>2026-04-19T10:15:18.999Z</time></trkpt><trkpt lat="43.224630306399696" lon="10.889082183864303"><ele>483.0</ele><time>2026-04-19T10:15:19.999Z</time></trkpt><trkpt lat="43.22449523336045" lon="10.888990437918547"><ele>483.0</ele><time>2026-04-19T10:15:20.999Z</time></trkpt><trkpt lat="43.22437636214425" lon="10.88888699224106"><ele>482.99999999999994</ele><time>2026-04-19T10:15:21.999Z</time></trkpt><trkpt lat="43.224302738744555" lon="10.888777788942626"><ele>482.99999999999994</ele><time>2026-04-19T10:15:22.999Z</time></trkpt><trkpt lat="43.224307604437236" lon="10.888644633104681"><ele>483.0</ele><time>2026-04-19T10:15:23.999Z</time></trkpt><trkpt lat="43.22439588371134" lon="10.888645068690638"><ele>483.0</ele><time>2026-04-19T10:15:24.999Z</time></trkpt><trkpt lat="43.224661370679875" lon="10.888786883778533"><ele>483.0</ele><time>2026-04-19T10:15:25.999Z</time></trkpt><trkpt lat="43.224787956188194" lon="10.888847325858492"><ele>483.0</ele><time>2026-04-19T10:15:26.999Z</time></trkpt><trkpt lat="43.224911824285016" lon="10.888939911255127"><ele>483.0</ele><time>2026-04-19T10:15:27.999Z</time></trkpt><trkpt lat="43.22501216981786" lon="10.88897757568076"><ele>483.0</ele><time>2026-04-19T10:15:28.999Z</time></trkpt><trkpt lat="43.225100596574755" lon="10.888942228010146"><ele>481.0</ele><time>2026-04-19T10:15:29.999Z</time></trkpt><trkpt lat="43.22515553114823" lon="10.888844266682737"><ele>479.0</ele><time>2026-04-19T10:15:30.999Z</time></trkpt><trkpt lat="43.225147663609455" lon="10.888708650890077"><ele>477.0</ele><time>2026-04-19T10:15:31.999Z</time></trkpt><trkpt lat="43.2250456996921" lon="10.88858636576547"><ele>475.0</ele><time>2026-04-19T10:15:32.999Z</time></trkpt><trkpt lat="43.224917885722675" lon="10.88850331285493"><ele>472.25</ele><time>2026-04-19T10:15:33.998Z</time></trkpt><trkpt lat="43.224786411345995" lon="10.888416644824211"><ele>469.5</ele><time>2026-04-19T10:15:34.998Z</time></trkpt><trkpt lat="43.22466711046108" lon="10.888313169018089"><ele>466.75</ele><time>2026-04-19T10:15:35.998Z</time></trkpt><trkpt lat="43.22454067464788" lon="10.888177698769818"><ele>464.0</ele><time>2026-04-19T10:15:36.998Z</time></trkpt><trkpt lat="43.224437055053244" lon="10.888070298377219"><ele>464.0</ele><time>2026-04-19T10:15:37.998Z</time></trkpt><trkpt lat="43.22435359389885" lon="10.887994273872065"><ele>464.0</ele><time>2026-04-19T10:15:38.998Z</time></trkpt><trkpt lat="43.22430196237676" lon="10.887909826045142"><ele>464.0</ele><time>2026-04-19T10:15:39.998Z</time></trkpt><trkpt lat="43.22427513060442" lon="10.887734908142514"><ele>464.0</ele><time>2026-04-19T10:15:41.998Z</time></trkpt><trkpt lat="43.22434742893566" lon="10.887640819894811"><ele>464.0</ele><time>2026-04-19T10:15:42.998Z</time></trkpt><trkpt lat="43.22444969343349" lon="10.887580912680692"><ele>463.25</ele><time>2026-04-19T10:15:43.998Z</time></trkpt><trkpt lat="43.224573267569056" lon="10.88749506097394"><ele>462.5</ele><time>2026-04-19T10:15:44.998Z</time></trkpt><trkpt lat="43.224698056386394" lon="10.8874065808983"><ele>461.75</ele><time>2026-04-19T10:15:45.998Z</time></trkpt><trkpt lat="43.2248196470664" lon="10.887315529422597"><ele>461.0</ele><time>2026-04-19T10:15:46.998Z</time></trkpt><trkpt lat="43.22494175212512" lon="10.887223099787319"><ele>461.0</ele><time>2026-04-19T10:15:47.998Z</time></trkpt><trkpt lat="43.225072990123735" lon="10.887126030591004"><ele>461.0</ele><time>2026-04-19T10:15:48.998Z</time></trkpt><trkpt lat="43.22523207029833" lon="10.887011981124306"><ele>461.0</ele><time>2026-04-19T10:15:49.998Z</time></trkpt><trkpt lat="43.22540034736126" lon="10.886891338134156"><ele>461.0</ele><time>2026-04-19T10:15:50.998Z</time></trkpt><trkpt lat="43.225552917148256" lon="10.886781956167052"><ele>461.0</ele><time>2026-04-19T10:15:51.998Z</time></trkpt><trkpt lat="43.22567343854595" lon="10.886699101690052"><ele>461.0</ele><time>2026-04-19T10:15:52.998Z</time></trkpt><trkpt lat="43.22580159008193" lon="10.886576048599572"><ele>459.66666666666663</ele><time>2026-04-19T10:15:53.998Z</time></trkpt><trkpt lat="43.22584557845256" lon="10.88631034101395"><ele>458.33333333333337</ele><time>2026-04-19T10:15:55Z</time></trkpt><trkpt lat="43.22588646479507" lon="10.886077575576072"><ele>457.0</ele><time>2026-04-19T10:15:56Z</time></trkpt><trkpt lat="43.225900909731244" lon="10.885822806002366"><ele>461.33333333333337</ele><time>2026-04-19T10:15:57Z</time></trkpt><trkpt lat="43.225927251303276" lon="10.885568647144105"><ele>465.66666666666663</ele><time>2026-04-19T10:15:58Z</time></trkpt><trkpt lat="43.22606556811974" lon="10.885331628309423"><ele>470.0</ele><time>2026-04-19T10:15:59Z</time></trkpt><trkpt lat="43.22611247919566" lon="10.88505903487616"><ele>473.66666666666663</ele><time>2026-04-19T10:16:00Z</time></trkpt><trkpt lat="43.22615955228323" lon="10.884789876640223"><ele>477.33333333333337</ele><time>2026-04-19T10:16:01Z</time></trkpt><trkpt lat="43.22620510696744" lon="10.88450736602447"><ele>481.0</ele><time>2026-04-19T10:16:02Z</time></trkpt><trkpt lat="43.22624815356172" lon="10.88422274403616"><ele>481.33333333333337</ele><time>2026-04-19T10:16:03Z</time></trkpt><trkpt lat="43.22629354770422" lon="10.883928729267156"><ele>481.66666666666663</ele><time>2026-04-19T10:16:04Z</time></trkpt><trkpt lat="43.226343704100785" lon="10.883637710975318"><ele>482.0</ele><time>2026-04-19T10:16:05Z</time></trkpt><trkpt lat="43.22639162232189" lon="10.883359455671794"><ele>483.66666666666663</ele><time>2026-04-19T10:16:06Z</time></trkpt><trkpt lat="43.22643327534309" lon="10.88309987977368"><ele>485.33333333333337</ele><time>2026-04-19T10:16:07Z</time></trkpt><trkpt lat="43.226471933251005" lon="10.882870495878628"><ele>487.0</ele><time>2026-04-19T10:16:08Z</time></trkpt><trkpt lat="43.22652556923222" lon="10.882679486131511"><ele>482.33333333333337</ele><time>2026-04-19T10:16:09Z</time></trkpt><trkpt lat="43.22662824802238" lon="10.882502594294374"><ele>477.66666666666663</ele><time>2026-04-19T10:16:10Z</time></trkpt><trkpt lat="43.22675437851958" lon="10.882313256459993"><ele>473.0</ele><time>2026-04-19T10:16:11Z</time></trkpt><trkpt lat="43.22688606119002" lon="10.882131344274379"><ele>473.0</ele><time>2026-04-19T10:16:12Z</time></trkpt><trkpt lat="43.22703003806605" lon="10.881948114159421"><ele>473.0</ele><time>2026-04-19T10:16:13Z</time></trkpt><trkpt lat="43.22717694195041" lon="10.881772788613281"><ele>473.0</ele><time>2026-04-19T10:16:14Z</time></trkpt><trkpt lat="43.227330720209" lon="10.881599351757313"><ele>474.3333333333333</ele><time>2026-04-19T10:16:15Z</time></trkpt><trkpt lat="43.227490599900015" lon="10.881434375896147"><ele>475.66666666666663</ele><time>2026-04-19T10:16:16Z</time></trkpt><trkpt lat="43.22765262862913" lon="10.88127215464501"><ele>477.0</ele><time>2026-04-19T10:16:17Z</time></trkpt><trkpt lat="43.22781664364791" lon="10.881108329898169"><ele>477.0</ele><time>2026-04-19T10:16:18Z</time></trkpt><trkpt lat="43.227981291445" lon="10.880941262354954"><ele>477.0</ele><time>2026-04-19T10:16:19Z</time></trkpt><trkpt lat="43.228145109484764" lon="10.880766525010072"><ele>477.0</ele><time>2026-04-19T10:16:20Z</time></trkpt><trkpt lat="43.22829484287202" lon="10.880559493963064"><ele>477.0</ele><time>2026-04-19T10:16:21Z</time></trkpt><trkpt lat="43.22841562704298" lon="10.880311864530638"><ele>477.0</ele><time>2026-04-19T10:16:22Z</time></trkpt><trkpt lat="43.22850611916953" lon="10.880045071580739"><ele>477.0</ele><time>2026-04-19T10:16:23Z</time></trkpt><trkpt lat="43.22858679741465" lon="10.879765847953006"><ele>479.33333333333337</ele><time>2026-04-19T10:16:24Z</time></trkpt><trkpt lat="43.22866077968106" lon="10.879493354956377"><ele>481.6666666666667</ele><time>2026-04-19T10:16:25Z</time></trkpt><trkpt lat="43.228728515921894" lon="10.879237521003057"><ele>484.0</ele><time>2026-04-19T10:16:26Z</time></trkpt><trkpt lat="43.22878277860804" lon="10.879003600202214"><ele>485.33333333333337</ele><time>2026-04-19T10:16:27Z</time></trkpt><trkpt lat="43.228810807852135" lon="10.878735670439077"><ele>486.66666666666663</ele><time>2026-04-19T10:16:28Z</time></trkpt><trkpt lat="43.228793371858515" lon="10.878455619751827"><ele>488.0</ele><time>2026-04-19T10:16:29Z</time></trkpt><trkpt lat="43.22874348315625" lon="10.878197667375455"><ele>489.0</ele><time>2026-04-19T10:16:30Z</time></trkpt><trkpt lat="43.228708042678136" lon="10.877958394690092"><ele>490.0</ele><time>2026-04-19T10:16:31Z</time></trkpt><trkpt lat="43.22872000429527" lon="10.877736403388873"><ele>491.0</ele><time>2026-04-19T10:16:32Z</time></trkpt><trkpt lat="43.22876142480795" lon="10.877514429171118"><ele>494.66666666666663</ele><time>2026-04-19T10:16:33Z</time></trkpt><trkpt lat="43.228813383627156" lon="10.877271402241032"><ele>498.33333333333337</ele><time>2026-04-19T10:16:34Z</time></trkpt><trkpt lat="43.228869144535466" lon="10.877037388465805"><ele>502.0</ele><time>2026-04-19T10:16:35Z</time></trkpt><trkpt lat="43.228941647734175" lon="10.876825082571228"><ele>495.6666666666667</ele><time>2026-04-19T10:16:36Z</time></trkpt><trkpt lat="43.22903949404193" lon="10.876652042974156"><ele>489.33333333333337</ele><time>2026-04-19T10:16:37Z</time></trkpt><trkpt lat="43.229170808266865" lon="10.876523020900406"><ele>483.0</ele><time>2026-04-19T10:16:38Z</time></trkpt><trkpt lat="43.22933023369769" lon="10.876422487719575"><ele>483.0</ele><time>2026-04-19T10:16:39Z</time></trkpt><trkpt lat="43.229513539615944" lon="10.876372857314866"><ele>483.0</ele><time>2026-04-19T10:16:40Z</time></trkpt><trkpt lat="43.22970934779597" lon="10.876339972985782"><ele>483.0</ele><time>2026-04-19T10:16:41Z</time></trkpt><trkpt lat="43.229902610604896" lon="10.876307429645749"><ele>481.66666666666663</ele><time>2026-04-19T10:16:42Z</time></trkpt><trkpt lat="43.23010108711757" lon="10.876273200412687"><ele>480.3333333333333</ele><time>2026-04-19T10:16:42.999Z</time></trkpt><trkpt lat="43.230307397385104" lon="10.87623557631692"><ele>479.0</ele><time>2026-04-19T10:16:43.999Z</time></trkpt><trkpt lat="43.2305165027363" lon="10.876192004329775"><ele>478.3333333333333</ele><time>2026-04-19T10:16:44.999Z</time></trkpt><trkpt lat="43.23072660187106" lon="10.876140246729522"><ele>477.66666666666663</ele><time>2026-04-19T10:16:45.999Z</time></trkpt><trkpt lat="43.230936275358694" lon="10.87608054012745"><ele>477.0</ele><time>2026-04-19T10:16:46.999Z</time></trkpt><trkpt lat="43.2311423977501" lon="10.876016180424996"><ele>477.0</ele><time>2026-04-19T10:16:47.999Z</time></trkpt><trkpt lat="43.23134127215407" lon="10.8759445985215"><ele>477.0</ele><time>2026-04-19T10:16:48.999Z</time></trkpt><trkpt lat="43.23152501693388" lon="10.875873776122294"><ele>477.0</ele><time>2026-04-19T10:16:49.999Z</time></trkpt><trkpt lat="43.23171473375136" lon="10.875796662430545"><ele>480.0</ele><time>2026-04-19T10:16:50.999Z</time></trkpt><trkpt lat="43.231909999124696" lon="10.875712406872477"><ele>483.0</ele><time>2026-04-19T10:16:51.999Z</time></trkpt><trkpt lat="43.232107226804956" lon="10.875626244278642"><ele>486.0</ele><time>2026-04-19T10:16:52.999Z</time></trkpt><trkpt lat="43.23230639842331" lon="10.875537903418147"><ele>482.33333333333337</ele><time>2026-04-19T10:16:53.999Z</time></trkpt><trkpt lat="43.232502002763006" lon="10.875446211736627"><ele>478.6666666666667</ele><time>2026-04-19T10:16:54.999Z</time></trkpt><trkpt lat="43.232700939546525" lon="10.875344929130323"><ele>475.0</ele><time>2026-04-19T10:16:55.999Z</time></trkpt><trkpt lat="43.232893446935435" lon="10.875211082346018"><ele>473.33333333333337</ele><time>2026-04-19T10:16:56.999Z</time></trkpt><trkpt lat="43.23307574647448" lon="10.875074934263738"><ele>471.66666666666663</ele><time>2026-04-19T10:16:57.999Z</time></trkpt><trkpt lat="43.23326024498234" lon="10.874954688124317"><ele>470.0</ele><time>2026-04-19T10:16:58.999Z</time></trkpt><trkpt lat="43.233456054136816" lon="10.874879594921998"><ele>470.0</ele><time>2026-04-19T10:16:59.999Z</time></trkpt><trkpt lat="43.23365540521465" lon="10.87483824835903"><ele>470.0</ele><time>2026-04-19T10:17:00.999Z</time></trkpt><trkpt lat="43.233859488715964" lon="10.874802905228297"><ele>470.0</ele><time>2026-04-19T10:17:01.999Z</time></trkpt><trkpt lat="43.23405363993744" lon="10.874757786107043"><ele>466.66666666666663</ele><time>2026-04-19T10:17:02.999Z</time></trkpt><trkpt lat="43.23425028908589" lon="10.874654729762776"><ele>463.33333333333337</ele><time>2026-04-19T10:17:03.999Z</time></trkpt><trkpt lat="43.234434127880704" lon="10.87450868197257"><ele>460.0</ele><time>2026-04-19T10:17:04.999Z</time></trkpt><trkpt lat="43.234609119149766" lon="10.874362221110085"><ele>458.6666666666667</ele><time>2026-04-19T10:17:05.999Z</time></trkpt><trkpt lat="43.23478531288118" lon="10.874230034332866"><ele>457.33333333333337</ele><time>2026-04-19T10:17:06.999Z</time></trkpt><trkpt lat="43.23497469791949" lon="10.874142376764173"><ele>456.0</ele><time>2026-04-19T10:17:07.999Z</time></trkpt><trkpt lat="43.2351793031892" lon="10.874112412072472"><ele>456.0</ele><time>2026-04-19T10:17:08.999Z</time></trkpt><trkpt lat="43.23538911036562" lon="10.874134599377635"><ele>456.0</ele><time>2026-04-19T10:17:09.999Z</time></trkpt><trkpt lat="43.235600014114524" lon="10.874161918193684"><ele>456.0</ele><time>2026-04-19T10:17:10.999Z</time></trkpt><trkpt lat="43.235808074234036" lon="10.87418790699968"><ele>455.33333333333337</ele><time>2026-04-19T10:17:11.999Z</time></trkpt><trkpt lat="43.23601837535475" lon="10.874216127231836"><ele>454.6666666666667</ele><time>2026-04-19T10:17:12.999Z</time></trkpt><trkpt lat="43.23622700541077" lon="10.874239952745096"><ele>454.0</ele><time>2026-04-19T10:17:13.999Z</time></trkpt><trkpt lat="43.23642648332434" lon="10.874289652427825"><ele>450.33333333333337</ele><time>2026-04-19T10:17:14.999Z</time></trkpt><trkpt lat="43.23662818237221" lon="10.874321602096988"><ele>446.66666666666663</ele><time>2026-04-19T10:17:15.999Z</time></trkpt><trkpt lat="43.236827023007045" lon="10.874339991397559"><ele>443.0</ele><time>2026-04-19T10:17:16.999Z</time></trkpt><trkpt lat="43.23701779915936" lon="10.874400619586442"><ele>443.0</ele><time>2026-04-19T10:17:17.999Z</time></trkpt><trkpt lat="43.23719969113999" lon="10.874484557701008"><ele>443.0</ele><time>2026-04-19T10:17:18.999Z</time></trkpt><trkpt lat="43.23737217509622" lon="10.874588496556981"><ele>443.0</ele><time>2026-04-19T10:17:19.999Z</time></trkpt><trkpt lat="43.23753781243035" lon="10.874693913000758"><ele>441.0</ele><time>2026-04-19T10:17:20.999Z</time></trkpt><trkpt lat="43.23769485549664" lon="10.874790685529508"><ele>439.0</ele><time>2026-04-19T10:17:21.999Z</time></trkpt><trkpt lat="43.23784327996597" lon="10.874874919349157"><ele>437.0</ele><time>2026-04-19T10:17:22.999Z</time></trkpt><trkpt lat="43.23798517858556" lon="10.874961160050699"><ele>437.0</ele><time>2026-04-19T10:17:23.999Z</time></trkpt><trkpt lat="43.23811066493235" lon="10.875084695390509"><ele>437.0</ele><time>2026-04-19T10:17:24.999Z</time></trkpt><trkpt lat="43.238208016280915" lon="10.875251365270294"><ele>437.0</ele><time>2026-04-19T10:17:25.999Z</time></trkpt><trkpt lat="43.23827813186146" lon="10.875445338944912"><ele>435.66666666666663</ele><time>2026-04-19T10:17:26.999Z</time></trkpt><trkpt lat="43.23836173336474" lon="10.875612510659225"><ele>434.33333333333337</ele><time>2026-04-19T10:17:27.999Z</time></trkpt><trkpt lat="43.238482709439594" lon="10.875753613373048"><ele>433.0</ele><time>2026-04-19T10:17:28.999Z</time></trkpt><trkpt lat="43.23864888362712" lon="10.875818799514944"><ele>433.0</ele><time>2026-04-19T10:17:29.999Z</time></trkpt><trkpt lat="43.23881512366799" lon="10.875863996501252"><ele>433.0</ele><time>2026-04-19T10:17:30.999Z</time></trkpt><trkpt lat="43.23898225210658" lon="10.875908762974403"><ele>433.0</ele><time>2026-04-19T10:17:31.999Z</time></trkpt><trkpt lat="43.23913088176993" lon="10.876007908829008"><ele>431.33333333333337</ele><time>2026-04-19T10:17:32.999Z</time></trkpt><trkpt lat="43.239249360024374" lon="10.87617451191687"><ele>429.66666666666663</ele><time>2026-04-19T10:17:33.999Z</time></trkpt><trkpt lat="43.23932916692672" lon="10.876390969162154"><ele>428.0</ele><time>2026-04-19T10:17:34.999Z</time></trkpt><trkpt lat="43.239363390105666" lon="10.876659725732056"><ele>426.66666666666663</ele><time>2026-04-19T10:17:35.999Z</time></trkpt><trkpt lat="43.239385494238334" lon="10.876910900679576"><ele>425.33333333333337</ele><time>2026-04-19T10:17:36.998Z</time></trkpt><trkpt lat="43.239414045336275" lon="10.877153789323703"><ele>424.0</ele><time>2026-04-19T10:17:37.998Z</time></trkpt><trkpt lat="43.23944663033751" lon="10.877386939661344"><ele>425.33333333333337</ele><time>2026-04-19T10:17:38.998Z</time></trkpt><trkpt lat="43.23950326854316" lon="10.877622320439821"><ele>426.66666666666663</ele><time>2026-04-19T10:17:39.998Z</time></trkpt><trkpt lat="43.2395809375765" lon="10.877819680297957"><ele>428.0</ele><time>2026-04-19T10:17:40.998Z</time></trkpt><trkpt lat="43.23969055909035" lon="10.87797933264409"><ele>424.3333333333333</ele><time>2026-04-19T10:17:41.998Z</time></trkpt><trkpt lat="43.23983196978037" lon="10.878090396674962"><ele>420.66666666666663</ele><time>2026-04-19T10:17:42.998Z</time></trkpt><trkpt lat="43.23998504162071" lon="10.878146467765298"><ele>417.0</ele><time>2026-04-19T10:17:43.998Z</time></trkpt><trkpt lat="43.24015957959993" lon="10.878161303712607"><ele>417.0</ele><time>2026-04-19T10:17:44.998Z</time></trkpt><trkpt lat="43.2403088493144" lon="10.878080384252002"><ele>417.0</ele><time>2026-04-19T10:17:45.998Z</time></trkpt><trkpt lat="43.2404902636397" lon="10.877968780615069"><ele>417.0</ele><time>2026-04-19T10:17:46.998Z</time></trkpt><trkpt lat="43.24065544100328" lon="10.87781827911028"><ele>416.33333333333337</ele><time>2026-04-19T10:17:47.998Z</time></trkpt><trkpt lat="43.24081899031827" lon="10.87765241229421"><ele>415.6666666666667</ele><time>2026-04-19T10:17:48.998Z</time></trkpt><trkpt lat="43.240994533931854" lon="10.877508508012191"><ele>415.0</ele><time>2026-04-19T10:17:49.998Z</time></trkpt><trkpt lat="43.241160498261785" lon="10.877350530057129"><ele>415.0</ele><time>2026-04-19T10:17:50.998Z</time></trkpt><trkpt lat="43.24133079078988" lon="10.877197250222348"><ele>415.0</ele><time>2026-04-19T10:17:51.998Z</time></trkpt><trkpt lat="43.24150420513213" lon="10.877057252939057"><ele>415.0</ele><time>2026-04-19T10:17:52.998Z</time></trkpt><trkpt lat="43.24167567340687" lon="10.876934459998383"><ele>414.6666666666667</ele><time>2026-04-19T10:17:53.998Z</time></trkpt><trkpt lat="43.24185441715204" lon="10.876839536722965"><ele>414.33333333333337</ele><time>2026-04-19T10:17:54.998Z</time></trkpt><trkpt lat="43.24204084574875" lon="10.87678194636255"><ele>414.0</ele><time>2026-04-19T10:17:55.998Z</time></trkpt><trkpt lat="43.24224180690392" lon="10.876750232461154"><ele>411.66666666666663</ele><time>2026-04-19T10:17:56.998Z</time></trkpt><trkpt lat="43.242449081230596" lon="10.87675233508386"><ele>409.3333333333333</ele><time>2026-04-19T10:17:57.998Z</time></trkpt><trkpt lat="43.24265835170558" lon="10.876796540796793"><ele>407.0</ele><time>2026-04-19T10:17:58.998Z</time></trkpt><trkpt lat="43.24287456677363" lon="10.876870858622205"><ele>404.3333333333333</ele><time>2026-04-19T10:18:00Z</time></trkpt><trkpt lat="43.24307919260081" lon="10.87697206731201"><ele>401.66666666666663</ele><time>2026-04-19T10:18:01Z</time></trkpt><trkpt lat="43.2432553033725" lon="10.8770963837047"><ele>399.0</ele><time>2026-04-19T10:18:02Z</time></trkpt><trkpt lat="43.24342064443102" lon="10.877217735220126"><ele>399.0</ele><time>2026-04-19T10:18:03Z</time></trkpt><trkpt lat="43.24357751349259" lon="10.877334474460817"><ele>399.0</ele><time>2026-04-19T10:18:04Z</time></trkpt><trkpt lat="43.24374517353882" lon="10.877424012960146"><ele>399.0</ele><time>2026-04-19T10:18:05Z</time></trkpt><trkpt lat="43.243935642537906" lon="10.877469898675423"><ele>398.0</ele><time>2026-04-19T10:18:06Z</time></trkpt><trkpt lat="43.24413251277782" lon="10.87742979004584"><ele>397.0</ele><time>2026-04-19T10:18:07Z</time></trkpt><trkpt lat="43.24432540457849" lon="10.877357949401915"><ele>396.0</ele><time>2026-04-19T10:18:08Z</time></trkpt><trkpt lat="43.2444977302209" lon="10.877257917244158"><ele>396.0</ele><time>2026-04-19T10:18:09Z</time></trkpt><trkpt lat="43.24467937431955" lon="10.87714950107725"><ele>396.0</ele><time>2026-04-19T10:18:10Z</time></trkpt><trkpt lat="43.24486409904079" lon="10.87708513401288"><ele>396.0</ele><time>2026-04-19T10:18:11Z</time></trkpt><trkpt lat="43.245050780142996" lon="10.877047392955962"><ele>393.0</ele><time>2026-04-19T10:18:12Z</time></trkpt><trkpt lat="43.24520397894291" lon="10.876973715420627"><ele>390.0</ele><time>2026-04-19T10:18:13Z</time></trkpt><trkpt lat="43.24534975020555" lon="10.876905651532201"><ele>387.0</ele><time>2026-04-19T10:18:14Z</time></trkpt><trkpt lat="43.24547797586803" lon="10.87684817205884"><ele>387.0</ele><time>2026-04-19T10:18:15Z</time></trkpt><trkpt lat="43.24559791026837" lon="10.876855551025875"><ele>387.0</ele><time>2026-04-19T10:18:16Z</time></trkpt><trkpt lat="43.24571178934202" lon="10.876902250655409"><ele>387.0</ele><time>2026-04-19T10:18:17Z</time></trkpt><trkpt lat="43.245822765325066" lon="10.87699596261404"><ele>387.0</ele><time>2026-04-19T10:18:18Z</time></trkpt><trkpt lat="43.24592802848459" lon="10.877120674577869"><ele>386.25</ele><time>2026-04-19T10:18:19Z</time></trkpt><trkpt lat="43.2460304252513" lon="10.877256342137985"><ele>385.5</ele><time>2026-04-19T10:18:20Z</time></trkpt><trkpt lat="43.24615481151155" lon="10.877379300239351"><ele>384.75</ele><time>2026-04-19T10:18:21Z</time></trkpt><trkpt lat="43.24629504887269" lon="10.87746590525306"><ele>384.0</ele><time>2026-04-19T10:18:22Z</time></trkpt><trkpt lat="43.24644062091529" lon="10.877526228082857"><ele>386.25</ele><time>2026-04-19T10:18:23Z</time></trkpt><trkpt lat="43.2465885873355" lon="10.877544945531247"><ele>388.5</ele><time>2026-04-19T10:18:24Z</time></trkpt><trkpt lat="43.24674238516874" lon="10.877536557590496"><ele>390.75</ele><time>2026-04-19T10:18:25Z</time></trkpt><trkpt lat="43.24687870715313" lon="10.877491228525546"><ele>393.0</ele><time>2026-04-19T10:18:26Z</time></trkpt><trkpt lat="43.24698817259354" lon="10.877423090856814"><ele>393.0</ele><time>2026-04-19T10:18:27Z</time></trkpt><trkpt lat="43.24708780291744" lon="10.877371522584445"><ele>393.0</ele><time>2026-04-19T10:18:28Z</time></trkpt><trkpt lat="43.247150951942004" lon="10.87736981536853"><ele>393.0</ele><time>2026-04-19T10:18:29Z</time></trkpt><trkpt lat="43.24719460908424" lon="10.87744266413321"><ele>393.0</ele><time>2026-04-19T10:18:30Z</time></trkpt><trkpt lat="43.24717269295931" lon="10.877648217187275"><ele>393.0</ele><time>2026-04-19T10:18:32Z</time></trkpt><trkpt lat="43.247157235239776" lon="10.877744088962608"><ele>394.0</ele><time>2026-04-19T10:18:33Z</time></trkpt><trkpt lat="43.24714615755006" lon="10.877913278312235"><ele>395.0</ele><time>2026-04-19T10:18:34Z</time></trkpt><trkpt lat="43.24717987555174" lon="10.87804705691604"><ele>396.0</ele><time>2026-04-19T10:18:35Z</time></trkpt><trkpt lat="43.247233692159014" lon="10.878135100294116"><ele>397.0</ele><time>2026-04-19T10:18:36Z</time></trkpt><trkpt lat="43.247310763930194" lon="10.878223206989722"><ele>398.0</ele><time>2026-04-19T10:18:37Z</time></trkpt><trkpt lat="43.24748251069355" lon="10.878232051196484"><ele>398.0</ele><time>2026-04-19T10:18:39Z</time></trkpt><trkpt lat="43.24756233656712" lon="10.878182880644452"><ele>398.0</ele><time>2026-04-19T10:18:40Z</time></trkpt><trkpt lat="43.247701409511805" lon="10.878167560149466"><ele>398.0</ele><time>2026-04-19T10:18:41Z</time></trkpt><trkpt lat="43.247802902843084" lon="10.878154979844885"><ele>398.0</ele><time>2026-04-19T10:18:42Z</time></trkpt><trkpt lat="43.24786669007582" lon="10.878169653413368"><ele>398.0</ele><time>2026-04-19T10:18:43Z</time></trkpt><trkpt lat="43.247923506361914" lon="10.878260856427874"><ele>397.99999999999994</ele><time>2026-04-19T10:18:44Z</time></trkpt><trkpt lat="43.24797345984784" lon="10.878366344534687"><ele>398.0</ele><time>2026-04-19T10:18:45Z</time></trkpt><trkpt lat="43.24803813421964" lon="10.878452503183327"><ele>398.0</ele><time>2026-04-19T10:18:46Z</time></trkpt><trkpt lat="43.24809461713341" lon="10.878524844745359"><ele>398.0</ele><time>2026-04-19T10:18:47Z</time></trkpt><trkpt lat="43.24817335317756" lon="10.878597195569762"><ele>397.99999999999994</ele><time>2026-04-19T10:18:48Z</time></trkpt><trkpt lat="43.24825784343407" lon="10.878657767279076"><ele>398.0</ele><time>2026-04-19T10:18:49Z</time></trkpt><trkpt lat="43.24834467935885" lon="10.878719608730371"><ele>397.79999999999995</ele><time>2026-04-19T10:18:49.999Z</time></trkpt><trkpt lat="43.24842196763115" lon="10.878780925353745"><ele>397.6</ele><time>2026-04-19T10:18:50.999Z</time></trkpt><trkpt lat="43.24850180929478" lon="10.87883421796909"><ele>397.4</ele><time>2026-04-19T10:18:51.999Z</time></trkpt><trkpt lat="43.248592849326634" lon="10.878864168426915"><ele>397.20000000000005</ele><time>2026-04-19T10:18:52.999Z</time></trkpt><trkpt lat="43.24868674324269" lon="10.878889407241116"><ele>397.0</ele><time>2026-04-19T10:18:53.999Z</time></trkpt><trkpt lat="43.2487717663938" lon="10.878895523708335"><ele>397.00000000000006</ele><time>2026-04-19T10:18:54.999Z</time></trkpt><trkpt lat="43.24885416260763" lon="10.8789073202932"><ele>397.0</ele><time>2026-04-19T10:18:55.999Z</time></trkpt><trkpt lat="43.24892553267391" lon="10.878920281352658"><ele>397.0</ele><time>2026-04-19T10:18:56.999Z</time></trkpt><trkpt lat="43.24898995055063" lon="10.878947905670541"><ele>397.0</ele><time>2026-04-19T10:18:57.999Z</time></trkpt><trkpt lat="43.24908856492742" lon="10.878987528873788"><ele>397.00000000000006</ele><time>2026-04-19T10:18:59.999Z</time></trkpt><trkpt lat="43.249150495867895" lon="10.87901802410547"><ele>397.0</ele><time>2026-04-19T10:19:00.999Z</time></trkpt><trkpt lat="43.24922874588385" lon="10.879027626989107"><ele>399.6</ele><time>2026-04-19T10:19:01.999Z</time></trkpt><trkpt lat="43.24933396907436" lon="10.879042396860504"><ele>402.20000000000005</ele><time>2026-04-19T10:19:02.999Z</time></trkpt><trkpt lat="43.249431370367375" lon="10.879060032362322"><ele>404.8</ele><time>2026-04-19T10:19:03.999Z</time></trkpt><trkpt lat="43.24951538924461" lon="10.879098136767128"><ele>407.4</ele><time>2026-04-19T10:19:04.999Z</time></trkpt><trkpt lat="43.24959708206696" lon="10.879170152964413"><ele>410.0</ele><time>2026-04-19T10:19:05.999Z</time></trkpt><trkpt lat="43.24965419681225" lon="10.879253043724242"><ele>409.6</ele><time>2026-04-19T10:19:06.999Z</time></trkpt><trkpt lat="43.249699875837" lon="10.87935650961026"><ele>409.2</ele><time>2026-04-19T10:19:07.999Z</time></trkpt><trkpt lat="43.24967479634608" lon="10.879515400224792"><ele>408.79999999999995</ele><time>2026-04-19T10:19:08.999Z</time></trkpt><trkpt lat="43.2495922637077" lon="10.879629853439202"><ele>408.4</ele><time>2026-04-19T10:19:09.999Z</time></trkpt><trkpt lat="43.249534970964014" lon="10.879735280142206"><ele>408.0</ele><time>2026-04-19T10:19:10.999Z</time></trkpt><trkpt lat="43.2494923206226" lon="10.879854079449034"><ele>408.0</ele><time>2026-04-19T10:19:11.999Z</time></trkpt><trkpt lat="43.24942699204832" lon="10.879958347051105"><ele>408.0</ele><time>2026-04-19T10:19:12.999Z</time></trkpt><trkpt lat="43.24937728279924" lon="10.880086449098737"><ele>408.0</ele><time>2026-04-19T10:19:13.999Z</time></trkpt><trkpt lat="43.249330067910854" lon="10.880202163309757"><ele>408.0</ele><time>2026-04-19T10:19:14.999Z</time></trkpt><trkpt lat="43.24929089923481" lon="10.88032586219696"><ele>408.0</ele><time>2026-04-19T10:19:15.999Z</time></trkpt><trkpt lat="43.249289966372004" lon="10.880447723826277"><ele>407.4</ele><time>2026-04-19T10:19:16.999Z</time></trkpt><trkpt lat="43.249299595647365" lon="10.88053652976435"><ele>406.79999999999995</ele><time>2026-04-19T10:19:17.999Z</time></trkpt><trkpt lat="43.24939000514733" lon="10.880601865074695"><ele>406.2</ele><time>2026-04-19T10:19:18.999Z</time></trkpt><trkpt lat="43.24949054923732" lon="10.880610255862223"><ele>405.6</ele><time>2026-04-19T10:19:19.999Z</time></trkpt><trkpt lat="43.249604087478865" lon="10.880588696883605"><ele>405.0</ele><time>2026-04-19T10:19:20.999Z</time></trkpt><trkpt lat="43.24971054957004" lon="10.88058129635959"><ele>407.8</ele><time>2026-04-19T10:19:21.999Z</time></trkpt><trkpt lat="43.249825485792655" lon="10.88058359198611"><ele>410.6</ele><time>2026-04-19T10:19:22.999Z</time></trkpt><trkpt lat="43.2499356958653" lon="10.880545445454374"><ele>413.4</ele><time>2026-04-19T10:19:23.999Z</time></trkpt><trkpt lat="43.250028865555024" lon="10.88047935069846"><ele>416.2</ele><time>2026-04-19T10:19:24.999Z</time></trkpt><trkpt lat="43.25013255018863" lon="10.880419249558493"><ele>419.0</ele><time>2026-04-19T10:19:25.999Z</time></trkpt><trkpt lat="43.25022201267738" lon="10.880350724044597"><ele>419.0</ele><time>2026-04-19T10:19:26.999Z</time></trkpt><trkpt lat="43.25031851601201" lon="10.880276805251073"><ele>419.0</ele><time>2026-04-19T10:19:27.999Z</time></trkpt><trkpt lat="43.25042719504953" lon="10.88019275085022"><ele>419.0</ele><time>2026-04-19T10:19:28.999Z</time></trkpt><trkpt lat="43.25054597457505" lon="10.880102365169778"><ele>419.0</ele><time>2026-04-19T10:19:29.999Z</time></trkpt><trkpt lat="43.25067559024441" lon="10.880006192182158"><ele>421.0</ele><time>2026-04-19T10:19:30.999Z</time></trkpt><trkpt lat="43.25081248688362" lon="10.879904088123384"><ele>423.0</ele><time>2026-04-19T10:19:31.999Z</time></trkpt><trkpt lat="43.25094184196308" lon="10.87980634271681"><ele>425.0</ele><time>2026-04-19T10:19:32.999Z</time></trkpt><trkpt lat="43.25105945658056" lon="10.879716479556372"><ele>427.0</ele><time>2026-04-19T10:19:33.999Z</time></trkpt><trkpt lat="43.25117612958571" lon="10.87962331251198"><ele>427.0</ele><time>2026-04-19T10:19:34.999Z</time></trkpt><trkpt lat="43.25129579555772" lon="10.879524206428634"><ele>427.0</ele><time>2026-04-19T10:19:35.999Z</time></trkpt><trkpt lat="43.25142028543486" lon="10.87942338260014"><ele>427.0</ele><time>2026-04-19T10:19:36.999Z</time></trkpt><trkpt lat="43.25154799073908" lon="10.879321319797114"><ele>427.0</ele><time>2026-04-19T10:19:37.999Z</time></trkpt><trkpt lat="43.25167454825655" lon="10.879216503566544"><ele>427.75</ele><time>2026-04-19T10:19:38.999Z</time></trkpt><trkpt lat="43.251800392783494" lon="10.879111583200023"><ele>428.5</ele><time>2026-04-19T10:19:39.999Z</time></trkpt><trkpt lat="43.251924865742055" lon="10.879009276658806"><ele>429.25</ele><time>2026-04-19T10:19:40.999Z</time></trkpt><trkpt lat="43.25204670307792" lon="10.878908085693498"><ele>430.0</ele><time>2026-04-19T10:19:41.999Z</time></trkpt><trkpt lat="43.25216622629249" lon="10.878805787498479"><ele>429.33333333333337</ele><time>2026-04-19T10:19:42.999Z</time></trkpt><trkpt lat="43.25229037469927" lon="10.878697410042347"><ele>428.66666666666663</ele><time>2026-04-19T10:19:43.998Z</time></trkpt><trkpt lat="43.25241461050529" lon="10.878582241349907"><ele>428.0</ele><time>2026-04-19T10:19:44.998Z</time></trkpt><trkpt lat="43.25254568428573" lon="10.878450288254783"><ele>429.66666666666663</ele><time>2026-04-19T10:19:45.998Z</time></trkpt><trkpt lat="43.25264593220332" lon="10.878242444651196"><ele>431.33333333333337</ele><time>2026-04-19T10:19:46.998Z</time></trkpt><trkpt lat="43.252785530955556" lon="10.87811851494577"><ele>433.0</ele><time>2026-04-19T10:19:47.998Z</time></trkpt><trkpt lat="43.25294115176131" lon="10.878028006828366"><ele>433.0</ele><time>2026-04-19T10:19:48.998Z</time></trkpt><trkpt lat="43.253108571566806" lon="10.877991375959123"><ele>433.0</ele><time>2026-04-19T10:19:49.998Z</time></trkpt><trkpt lat="43.25327890228106" lon="10.878010236489061"><ele>433.0</ele><time>2026-04-19T10:19:50.998Z</time></trkpt><trkpt lat="43.25343575652147" lon="10.878081397922045"><ele>432.6666666666667</ele><time>2026-04-19T10:19:51.998Z</time></trkpt><trkpt lat="43.253584473535184" lon="10.87817935276704"><ele>432.33333333333337</ele><time>2026-04-19T10:19:52.998Z</time></trkpt><trkpt lat="43.25373959610872" lon="10.878260843785506"><ele>432.0</ele><time>2026-04-19T10:19:53.998Z</time></trkpt><trkpt lat="43.25392135461916" lon="10.87831598654536"><ele>431.0</ele><time>2026-04-19T10:19:54.998Z</time></trkpt><trkpt lat="43.25411676055921" lon="10.878287841685898"><ele>430.0</ele><time>2026-04-19T10:19:55.998Z</time></trkpt><trkpt lat="43.254294651396116" lon="10.878226466132336"><ele>429.0</ele><time>2026-04-19T10:19:56.998Z</time></trkpt><trkpt lat="43.25448667783794" lon="10.878147763183366"><ele>429.0</ele><time>2026-04-19T10:19:57.998Z</time></trkpt><trkpt lat="43.25466306130858" lon="10.878074705727853"><ele>429.0</ele><time>2026-04-19T10:19:58.998Z</time></trkpt><trkpt lat="43.254827293047526" lon="10.878008128997857"><ele>429.0</ele><time>2026-04-19T10:19:59.998Z</time></trkpt><trkpt lat="43.25499015620657" lon="10.877939080299662"><ele>429.33333333333337</ele><time>2026-04-19T10:20:00.998Z</time></trkpt><trkpt lat="43.25517263546863" lon="10.877930572503487"><ele>429.6666666666667</ele><time>2026-04-19T10:20:01.998Z</time></trkpt><trkpt lat="43.25533968340492" lon="10.877908876073858"><ele>430.0</ele><time>2026-04-19T10:20:02.998Z</time></trkpt><trkpt lat="43.25549887475516" lon="10.877833699028153"><ele>433.33333333333337</ele><time>2026-04-19T10:20:03.998Z</time></trkpt><trkpt lat="43.25563817311641" lon="10.87768822179237"><ele>436.66666666666663</ele><time>2026-04-19T10:20:04.998Z</time></trkpt><trkpt lat="43.25575963079999" lon="10.877532851373136"><ele>440.0</ele><time>2026-04-19T10:20:06Z</time></trkpt><trkpt lat="43.25588309256651" lon="10.877358708404408"><ele>432.3333333333333</ele><time>2026-04-19T10:20:07Z</time></trkpt><trkpt lat="43.25603674869087" lon="10.877297756288575"><ele>424.66666666666663</ele><time>2026-04-19T10:20:08Z</time></trkpt><trkpt lat="43.25621642344372" lon="10.877258224729207"><ele>417.0</ele><time>2026-04-19T10:20:09Z</time></trkpt><trkpt lat="43.25640602588263" lon="10.877270273086108"><ele>418.66666666666663</ele><time>2026-04-19T10:20:10Z</time></trkpt><trkpt lat="43.256587523496485" lon="10.877268915134831"><ele>420.3333333333333</ele><time>2026-04-19T10:20:11Z</time></trkpt><trkpt lat="43.25676745851136" lon="10.877265410296019"><ele>422.0</ele><time>2026-04-19T10:20:12Z</time></trkpt><trkpt lat="43.256947758177155" lon="10.877320667990928"><ele>422.0</ele><time>2026-04-19T10:20:13Z</time></trkpt><trkpt lat="43.257110349079305" lon="10.877434381571565"><ele>422.0</ele><time>2026-04-19T10:20:14Z</time></trkpt><trkpt lat="43.25725676812713" lon="10.877585988205047"><ele>422.0</ele><time>2026-04-19T10:20:15Z</time></trkpt><trkpt lat="43.2573990126049" lon="10.877737822003116"><ele>424.0</ele><time>2026-04-19T10:20:16Z</time></trkpt><trkpt lat="43.257575633099115" lon="10.877878287752463"><ele>426.0</ele><time>2026-04-19T10:20:17Z</time></trkpt><trkpt lat="43.25775581832111" lon="10.877950420666963"><ele>428.0</ele><time>2026-04-19T10:20:18Z</time></trkpt><trkpt lat="43.25794402338939" lon="10.877944339600466"><ele>428.0</ele><time>2026-04-19T10:20:19Z</time></trkpt><trkpt lat="43.2581178243404" lon="10.877918031768186"><ele>428.0</ele><time>2026-04-19T10:20:20Z</time></trkpt><trkpt lat="43.25832029761589" lon="10.877938998092064"><ele>428.0</ele><time>2026-04-19T10:20:21Z</time></trkpt><trkpt lat="43.258504630328346" lon="10.878027748953924"><ele>424.3333333333333</ele><time>2026-04-19T10:20:22Z</time></trkpt><trkpt lat="43.25864572098628" lon="10.878149807871232"><ele>420.66666666666663</ele><time>2026-04-19T10:20:23Z</time></trkpt><trkpt lat="43.2587859539526" lon="10.878266493327908"><ele>417.0</ele><time>2026-04-19T10:20:24Z</time></trkpt><trkpt lat="43.25890748369061" lon="10.878425482883511"><ele>414.33333333333337</ele><time>2026-04-19T10:20:25Z</time></trkpt><trkpt lat="43.2590460911277" lon="10.878598345067527"><ele>411.6666666666667</ele><time>2026-04-19T10:20:26Z</time></trkpt><trkpt lat="43.25921872722379" lon="10.878778617709342"><ele>409.0</ele><time>2026-04-19T10:20:27Z</time></trkpt><trkpt lat="43.259375394986755" lon="10.87893200196005"><ele>409.0</ele><time>2026-04-19T10:20:28Z</time></trkpt><trkpt lat="43.25954111757402" lon="10.879094251040284"><ele>409.0</ele><time>2026-04-19T10:20:29Z</time></trkpt><trkpt lat="43.25968407432068" lon="10.879242631935805"><ele>409.0</ele><time>2026-04-19T10:20:30Z</time></trkpt><trkpt lat="43.25980443602238" lon="10.879422361514115"><ele>403.75</ele><time>2026-04-19T10:20:31Z</time></trkpt><trkpt lat="43.25987688603944" lon="10.87962662302758"><ele>398.5</ele><time>2026-04-19T10:20:32Z</time></trkpt><trkpt lat="43.25989777281784" lon="10.879846827687542"><ele>393.25</ele><time>2026-04-19T10:20:33Z</time></trkpt><trkpt lat="43.259860646311246" lon="10.879993853478156"><ele>388.0</ele><time>2026-04-19T10:20:34Z</time></trkpt><trkpt lat="43.25981789059468" lon="10.880411612251907"><ele>387.33333333333337</ele><time>2026-04-19T10:20:35Z</time></trkpt><trkpt lat="43.25978873697245" lon="10.880657531210613"><ele>386.66666666666663</ele><time>2026-04-19T10:20:36Z</time></trkpt><trkpt lat="43.25983014987164" lon="10.880922240259387"><ele>386.0</ele><time>2026-04-19T10:20:37Z</time></trkpt><trkpt lat="43.25992140103736" lon="10.881162057954182"><ele>386.0</ele><time>2026-04-19T10:20:38Z</time></trkpt><trkpt lat="43.260002126682565" lon="10.881423666021178"><ele>386.0</ele><time>2026-04-19T10:20:39Z</time></trkpt><trkpt lat="43.2600635774534" lon="10.881674586885332"><ele>386.0</ele><time>2026-04-19T10:20:40Z</time></trkpt><trkpt lat="43.26011411884976" lon="10.881915812269913"><ele>384.0</ele><time>2026-04-19T10:20:41Z</time></trkpt><trkpt lat="43.26015992083552" lon="10.882154420993636"><ele>382.0</ele><time>2026-04-19T10:20:42Z</time></trkpt><trkpt lat="43.26026795348362" lon="10.882311494311045"><ele>380.0</ele><time>2026-04-19T10:20:43Z</time></trkpt><trkpt lat="43.260377124398715" lon="10.882423634810529"><ele>380.0</ele><time>2026-04-19T10:20:44Z</time></trkpt><trkpt lat="43.2605098592261" lon="10.882489142726152"><ele>380.0</ele><time>2026-04-19T10:20:45Z</time></trkpt><trkpt lat="43.26065438358539" lon="10.88253336342203"><ele>380.0</ele><time>2026-04-19T10:20:46Z</time></trkpt><trkpt lat="43.2608460235924" lon="10.882538738409758"><ele>380.0</ele><time>2026-04-19T10:20:47Z</time></trkpt><trkpt lat="43.26091989693032" lon="10.882525709196745"><ele>380.0</ele><time>2026-04-19T10:20:48Z</time></trkpt><trkpt lat="43.261022020855656" lon="10.88248048675669"><ele>380.0</ele><time>2026-04-19T10:20:49Z</time></trkpt><trkpt lat="43.26111453046835" lon="10.882398687013485"><ele>380.0</ele><time>2026-04-19T10:20:50Z</time></trkpt><trkpt lat="43.26126061678825" lon="10.882276197268327"><ele>380.0</ele><time>2026-04-19T10:20:51Z</time></trkpt><trkpt lat="43.261398914328026" lon="10.882170586036697"><ele>380.0</ele><time>2026-04-19T10:20:52Z</time></trkpt><trkpt lat="43.26151483125402" lon="10.881834737827052"><ele>380.0</ele><time>2026-04-19T10:20:53Z</time></trkpt><trkpt lat="43.26173677611142" lon="10.8816063221222"><ele>378.6666666666667</ele><time>2026-04-19T10:20:54Z</time></trkpt><trkpt lat="43.26191055680531" lon="10.881456472626276"><ele>377.3333333333333</ele><time>2026-04-19T10:20:55Z</time></trkpt><trkpt lat="43.26205847390892" lon="10.881278133830463"><ele>376.0</ele><time>2026-04-19T10:20:56Z</time></trkpt><trkpt lat="43.26215812633209" lon="10.881042282173508"><ele>374.3333333333333</ele><time>2026-04-19T10:20:57Z</time></trkpt><trkpt lat="43.26228968031679" lon="10.8808465888233"><ele>372.6666666666667</ele><time>2026-04-19T10:20:58Z</time></trkpt><trkpt lat="43.262458584037866" lon="10.880697435642706"><ele>371.0</ele><time>2026-04-19T10:20:59Z</time></trkpt><trkpt lat="43.26264196164727" lon="10.880627360407212"><ele>371.0</ele><time>2026-04-19T10:21:00Z</time></trkpt><trkpt lat="43.26282808884024" lon="10.880629579741662"><ele>371.0</ele><time>2026-04-19T10:21:01Z</time></trkpt><trkpt lat="43.26298073236058" lon="10.880600287624622"><ele>371.0</ele><time>2026-04-19T10:21:02Z</time></trkpt><trkpt lat="43.26311542483728" lon="10.880465218174232"><ele>370.0</ele><time>2026-04-19T10:21:02.999Z</time></trkpt><trkpt lat="43.263209644940545" lon="10.880263407581856"><ele>369.0</ele><time>2026-04-19T10:21:03.999Z</time></trkpt><trkpt lat="43.263298429968366" lon="10.880050094826014"><ele>368.0</ele><time>2026-04-19T10:21:04.999Z</time></trkpt><trkpt lat="43.26341110876914" lon="10.879856275508113"><ele>368.0</ele><time>2026-04-19T10:21:05.999Z</time></trkpt><trkpt lat="43.263545675534075" lon="10.87968644900601"><ele>368.0</ele><time>2026-04-19T10:21:06.999Z</time></trkpt><trkpt lat="43.26369455969726" lon="10.87952537460681"><ele>368.0</ele><time>2026-04-19T10:21:07.999Z</time></trkpt><trkpt lat="43.26386060205056" lon="10.879403112132737"><ele>367.33333333333337</ele><time>2026-04-19T10:21:08.999Z</time></trkpt><trkpt lat="43.263997111928184" lon="10.879270350337306"><ele>366.6666666666667</ele><time>2026-04-19T10:21:09.999Z</time></trkpt><trkpt lat="43.26408827954208" lon="10.879074441297726"><ele>366.0</ele><time>2026-04-19T10:21:10.999Z</time></trkpt><trkpt lat="43.264171188315736" lon="10.878852716413114"><ele>366.0</ele><time>2026-04-19T10:21:11.999Z</time></trkpt><trkpt lat="43.26423835014091" lon="10.878627487110348"><ele>366.0</ele><time>2026-04-19T10:21:12.999Z</time></trkpt><trkpt lat="43.26433191191908" lon="10.878441114217534"><ele>366.0</ele><time>2026-04-19T10:21:13.999Z</time></trkpt><trkpt lat="43.2644718929325" lon="10.87829713417237"><ele>366.0</ele><time>2026-04-19T10:21:14.999Z</time></trkpt><trkpt lat="43.264642150910426" lon="10.878223170195023"><ele>366.0</ele><time>2026-04-19T10:21:15.999Z</time></trkpt><trkpt lat="43.2648265364845" lon="10.878168283418349"><ele>366.0</ele><time>2026-04-19T10:21:16.999Z</time></trkpt><trkpt lat="43.265005996966714" lon="10.87809969942384"><ele>366.0</ele><time>2026-04-19T10:21:17.999Z</time></trkpt><trkpt lat="43.26519341955936" lon="10.878115004061817"><ele>366.0</ele><time>2026-04-19T10:21:18.999Z</time></trkpt><trkpt lat="43.26538686692364" lon="10.878150623446421"><ele>366.0</ele><time>2026-04-19T10:21:19.999Z</time></trkpt><trkpt lat="43.2655820830187" lon="10.878234593732966"><ele>365.3333333333333</ele><time>2026-04-19T10:21:20.999Z</time></trkpt><trkpt lat="43.265757361543095" lon="10.8783040958881"><ele>364.66666666666663</ele><time>2026-04-19T10:21:21.999Z</time></trkpt><trkpt lat="43.26593734378129" lon="10.878313620886853"><ele>364.0</ele><time>2026-04-19T10:21:22.999Z</time></trkpt><trkpt lat="43.266120213968534" lon="10.878300110483162"><ele>364.0</ele><time>2026-04-19T10:21:23.999Z</time></trkpt><trkpt lat="43.26629260792947" lon="10.878183439489575"><ele>364.0</ele><time>2026-04-19T10:21:24.999Z</time></trkpt><trkpt lat="43.266454783969905" lon="10.87805412515233"><ele>364.0</ele><time>2026-04-19T10:21:25.999Z</time></trkpt><trkpt lat="43.26663855293058" lon="10.87791187041143"><ele>365.5</ele><time>2026-04-19T10:21:26.999Z</time></trkpt><trkpt lat="43.26685969530962" lon="10.87783323614514"><ele>367.0</ele><time>2026-04-19T10:21:27.999Z</time></trkpt><trkpt lat="43.26707746734167" lon="10.877933998218527"><ele>367.0</ele><time>2026-04-19T10:21:28.999Z</time></trkpt><trkpt lat="43.26723755736106" lon="10.878025796686154"><ele>367.0</ele><time>2026-04-19T10:21:30.999Z</time></trkpt><trkpt lat="43.267376205356946" lon="10.878138386263938"><ele>367.0</ele><time>2026-04-19T10:21:31.999Z</time></trkpt><trkpt lat="43.267507042131605" lon="10.8782795725618"><ele>364.3333333333333</ele><time>2026-04-19T10:21:32.999Z</time></trkpt><trkpt lat="43.26760197298766" lon="10.878480346118877"><ele>361.6666666666667</ele><time>2026-04-19T10:21:33.999Z</time></trkpt><trkpt lat="43.267699994007884" lon="10.878704652465478"><ele>359.0</ele><time>2026-04-19T10:21:34.999Z</time></trkpt><trkpt lat="43.26778252180551" lon="10.878858157980337"><ele>359.0</ele><time>2026-04-19T10:21:35.999Z</time></trkpt><trkpt lat="43.26791504278242" lon="10.879117619399377"><ele>359.0</ele><time>2026-04-19T10:21:36.999Z</time></trkpt><trkpt lat="43.26806021596038" lon="10.87929606026522"><ele>359.0</ele><time>2026-04-19T10:21:37.999Z</time></trkpt><trkpt lat="43.26819741109249" lon="10.879484303019815"><ele>354.0</ele><time>2026-04-19T10:21:38.999Z</time></trkpt><trkpt lat="43.268295991891684" lon="10.879645650741358"><ele>349.0</ele><time>2026-04-19T10:21:39.999Z</time></trkpt><trkpt lat="43.268323429379805" lon="10.879820720862725"><ele>344.0</ele><time>2026-04-19T10:21:40.999Z</time></trkpt><trkpt lat="43.2682776054241" lon="10.879995200073438"><ele>339.0</ele><time>2026-04-19T10:21:41.999Z</time></trkpt><trkpt lat="43.26818755998282" lon="10.880107209179139"><ele>337.3333333333333</ele><time>2026-04-19T10:21:42.999Z</time></trkpt><trkpt lat="43.26813594786781" lon="10.880302617793204"><ele>335.66666666666663</ele><time>2026-04-19T10:21:43.999Z</time></trkpt><trkpt lat="43.26809022901554" lon="10.880531013684813"><ele>334.0</ele><time>2026-04-19T10:21:44.999Z</time></trkpt><trkpt lat="43.26805276735759" lon="10.880756133056453"><ele>336.3333333333333</ele><time>2026-04-19T10:21:45.999Z</time></trkpt><trkpt lat="43.268013219536826" lon="10.88098713353082"><ele>338.6666666666667</ele><time>2026-04-19T10:21:46.999Z</time></trkpt><trkpt lat="43.26795681646287" lon="10.881184483541855"><ele>341.0</ele><time>2026-04-19T10:21:47.999Z</time></trkpt><trkpt lat="43.2678801841066" lon="10.881380716368978"><ele>341.0</ele><time>2026-04-19T10:21:48.999Z</time></trkpt><trkpt lat="43.26776495505578" lon="10.881489122565583"><ele>341.0</ele><time>2026-04-19T10:21:49.999Z</time></trkpt><trkpt lat="43.267636232487426" lon="10.881659124925578"><ele>341.0</ele><time>2026-04-19T10:21:50.999Z</time></trkpt><trkpt lat="43.26752948450932" lon="10.881859180853288"><ele>337.33333333333337</ele><time>2026-04-19T10:21:51.999Z</time></trkpt><trkpt lat="43.26745499754533" lon="10.882098665829147"><ele>333.6666666666667</ele><time>2026-04-19T10:21:52.999Z</time></trkpt><trkpt lat="43.267404288021424" lon="10.882344707756822"><ele>330.0</ele><time>2026-04-19T10:21:53.999Z</time></trkpt><trkpt lat="43.26735641069306" lon="10.882578679484746"><ele>329.3333333333333</ele><time>2026-04-19T10:21:54.999Z</time></trkpt><trkpt lat="43.26730785116351" lon="10.882815985038933"><ele>328.66666666666663</ele><time>2026-04-19T10:21:55.999Z</time></trkpt><trkpt lat="43.267271423802484" lon="10.883061156274984"><ele>328.0</ele><time>2026-04-19T10:21:56.999Z</time></trkpt><trkpt lat="43.267204528567625" lon="10.883275315173227"><ele>329.0</ele><time>2026-04-19T10:21:57.998Z</time></trkpt><trkpt lat="43.26717845699074" lon="10.883458481825413"><ele>330.0</ele><time>2026-04-19T10:21:58.998Z</time></trkpt><trkpt lat="43.26721305861819" lon="10.883615869918591"><ele>331.0</ele><time>2026-04-19T10:21:59.998Z</time></trkpt><trkpt lat="43.26731845326243" lon="10.883722227754214"><ele>332.0</ele><time>2026-04-19T10:22:00.998Z</time></trkpt><trkpt lat="43.26745763680382" lon="10.883777956521941"><ele>332.0</ele><time>2026-04-19T10:22:01.998Z</time></trkpt><trkpt lat="43.267614364066915" lon="10.883794346806354"><ele>332.0</ele><time>2026-04-19T10:22:02.998Z</time></trkpt><trkpt lat="43.26777306142341" lon="10.8838398796213"><ele>332.0</ele><time>2026-04-19T10:22:03.998Z</time></trkpt><trkpt lat="43.26792012746842" lon="10.883928672164835"><ele>332.0</ele><time>2026-04-19T10:22:04.998Z</time></trkpt><trkpt lat="43.268063466582056" lon="10.884062130234009"><ele>332.0</ele><time>2026-04-19T10:22:05.998Z</time></trkpt><trkpt lat="43.268194087410755" lon="10.884249372915182"><ele>332.0</ele><time>2026-04-19T10:22:06.998Z</time></trkpt><trkpt lat="43.26832701887476" lon="10.88440230098705"><ele>330.0</ele><time>2026-04-19T10:22:07.998Z</time></trkpt><trkpt lat="43.26846582344335" lon="10.884575161314235"><ele>328.0</ele><time>2026-04-19T10:22:08.998Z</time></trkpt><trkpt lat="43.268582006229764" lon="10.884711663840537"><ele>326.0</ele><time>2026-04-19T10:22:09.998Z</time></trkpt><trkpt lat="43.26867153533831" lon="10.88485992344625"><ele>326.0</ele><time>2026-04-19T10:22:10.998Z</time></trkpt><trkpt lat="43.26871817470735" lon="10.885043268299599"><ele>326.0</ele><time>2026-04-19T10:22:12Z</time></trkpt><trkpt lat="43.268681028877275" lon="10.885199814407528"><ele>326.0</ele><time>2026-04-19T10:22:13Z</time></trkpt><trkpt lat="43.26865522807497" lon="10.885395956160327"><ele>326.0</ele><time>2026-04-19T10:22:14Z</time></trkpt><trkpt lat="43.26867779238882" lon="10.885617656009"><ele>327.0</ele><time>2026-04-19T10:22:15Z</time></trkpt><trkpt lat="43.26872668048621" lon="10.885804667086935"><ele>328.0</ele><time>2026-04-19T10:22:16Z</time></trkpt><trkpt lat="43.26885093898473" lon="10.885944380750994"><ele>329.0</ele><time>2026-04-19T10:22:17Z</time></trkpt><trkpt lat="43.2689833685926" lon="10.886063180349137"><ele>325.75</ele><time>2026-04-19T10:22:18Z</time></trkpt><trkpt lat="43.269114506427094" lon="10.886136339936"><ele>322.5</ele><time>2026-04-19T10:22:19Z</time></trkpt><trkpt lat="43.269250867099565" lon="10.886247628361527"><ele>319.25</ele><time>2026-04-19T10:22:20Z</time></trkpt><trkpt lat="43.269346273505654" lon="10.886381199730241"><ele>316.0</ele><time>2026-04-19T10:22:21Z</time></trkpt><trkpt lat="43.26936969662482" lon="10.886564927734318"><ele>316.0</ele><time>2026-04-19T10:22:22Z</time></trkpt><trkpt lat="43.26930322887833" lon="10.88670147507906"><ele>316.0</ele><time>2026-04-19T10:22:23Z</time></trkpt><trkpt lat="43.26923897240218" lon="10.886829266132933"><ele>316.0</ele><time>2026-04-19T10:22:24Z</time></trkpt><trkpt lat="43.269176258185894" lon="10.887039949908887"><ele>316.0</ele><time>2026-04-19T10:22:25Z</time></trkpt><trkpt lat="43.269148186151504" lon="10.88723757190724"><ele>314.66666666666663</ele><time>2026-04-19T10:22:26Z</time></trkpt><trkpt lat="43.26913974884066" lon="10.887484958101599"><ele>313.3333333333333</ele><time>2026-04-19T10:22:27Z</time></trkpt><trkpt lat="43.26918343456144" lon="10.88772999403025"><ele>312.0</ele><time>2026-04-19T10:22:28Z</time></trkpt><trkpt lat="43.269231255323255" lon="10.887960176680316"><ele>310.6666666666667</ele><time>2026-04-19T10:22:29Z</time></trkpt><trkpt lat="43.26923860825833" lon="10.888170584599921"><ele>309.33333333333337</ele><time>2026-04-19T10:22:30Z</time></trkpt><trkpt lat="43.26920452062791" lon="10.888388869852877"><ele>308.0</ele><time>2026-04-19T10:22:31Z</time></trkpt><trkpt lat="43.26915131198915" lon="10.888582782284326"><ele>307.33333333333337</ele><time>2026-04-19T10:22:32Z</time></trkpt><trkpt lat="43.26912689232756" lon="10.888799764641464"><ele>306.6666666666667</ele><time>2026-04-19T10:22:33Z</time></trkpt><trkpt lat="43.26913235793335" lon="10.889023065794444"><ele>306.0</ele><time>2026-04-19T10:22:34Z</time></trkpt><trkpt lat="43.269178227870285" lon="10.889241954754988"><ele>305.0</ele><time>2026-04-19T10:22:35Z</time></trkpt><trkpt lat="43.26923755799282" lon="10.889470978327454"><ele>304.0</ele><time>2026-04-19T10:22:36Z</time></trkpt><trkpt lat="43.269269793176264" lon="10.889724668336003"><ele>303.0</ele><time>2026-04-19T10:22:37Z</time></trkpt><trkpt lat="43.269299463055646" lon="10.889955152995766"><ele>301.6666666666667</ele><time>2026-04-19T10:22:38Z</time></trkpt><trkpt lat="43.26931074880453" lon="10.89018388922797"><ele>300.33333333333337</ele><time>2026-04-19T10:22:39Z</time></trkpt><trkpt lat="43.26929594875648" lon="10.890417199650182"><ele>299.0</ele><time>2026-04-19T10:22:40Z</time></trkpt><trkpt lat="43.2692601682627" lon="10.890646772798103"><ele>299.0</ele><time>2026-04-19T10:22:41Z</time></trkpt><trkpt lat="43.26921235931309" lon="10.890889574211009"><ele>299.0</ele><time>2026-04-19T10:22:42Z</time></trkpt><trkpt lat="43.26916637110098" lon="10.89113387222493"><ele>299.0</ele><time>2026-04-19T10:22:43Z</time></trkpt><trkpt lat="43.26912151713051" lon="10.891372212155364"><ele>295.6666666666667</ele><time>2026-04-19T10:22:44Z</time></trkpt><trkpt lat="43.26907915882585" lon="10.891597291163958"><ele>292.3333333333333</ele><time>2026-04-19T10:22:45Z</time></trkpt><trkpt lat="43.26903252542882" lon="10.89179672369771"><ele>289.0</ele><time>2026-04-19T10:22:46Z</time></trkpt><trkpt lat="43.268964309379434" lon="10.89194661418544"><ele>291.0</ele><time>2026-04-19T10:22:47Z</time></trkpt><trkpt lat="43.268876487970616" lon="10.892062751814835"><ele>293.0</ele><time>2026-04-19T10:22:48Z</time></trkpt><trkpt lat="43.26879537697633" lon="10.892183517269464"><ele>295.0</ele><time>2026-04-19T10:22:49Z</time></trkpt><trkpt lat="43.26873568502122" lon="10.892289151148168"><ele>297.0</ele><time>2026-04-19T10:22:50Z</time></trkpt><trkpt lat="43.26875119989485" lon="10.892429686717726"><ele>299.0</ele><time>2026-04-19T10:22:51Z</time></trkpt><trkpt lat="43.26878551590272" lon="10.892559181305357"><ele>297.6666666666667</ele><time>2026-04-19T10:22:52Z</time></trkpt><trkpt lat="43.26889209278493" lon="10.892696090808274"><ele>296.3333333333333</ele><time>2026-04-19T10:22:53Z</time></trkpt><trkpt lat="43.26903340802567" lon="10.892815223869231"><ele>295.0</ele><time>2026-04-19T10:22:54Z</time></trkpt><trkpt lat="43.269194699844874" lon="10.892930439248827"><ele>291.3333333333333</ele><time>2026-04-19T10:22:55Z</time></trkpt><trkpt lat="43.269363452514554" lon="10.893061957629888"><ele>287.6666666666667</ele><time>2026-04-19T10:22:56Z</time></trkpt><trkpt lat="43.26953567072213" lon="10.893227484224791"><ele>284.0</ele><time>2026-04-19T10:22:57Z</time></trkpt><trkpt lat="43.26970989432339" lon="10.893388215102595"><ele>282.33333333333337</ele><time>2026-04-19T10:22:58Z</time></trkpt><trkpt lat="43.26988979816016" lon="10.893543475346075"><ele>280.6666666666667</ele><time>2026-04-19T10:22:59Z</time></trkpt><trkpt lat="43.27008506394404" lon="10.893719722586779"><ele>279.0</ele><time>2026-04-19T10:23:00Z</time></trkpt><trkpt lat="43.270278967908816" lon="10.893897946521662"><ele>279.0</ele><time>2026-04-19T10:23:01Z</time></trkpt><trkpt lat="43.27047759319672" lon="10.894032760808459"><ele>279.0</ele><time>2026-04-19T10:23:02Z</time></trkpt><trkpt lat="43.27068868415128" lon="10.894122253852677"><ele>279.0</ele><time>2026-04-19T10:23:03Z</time></trkpt><trkpt lat="43.27091693197261" lon="10.894182175694931"><ele>280.3333333333333</ele><time>2026-04-19T10:23:04Z</time></trkpt><trkpt lat="43.271141607395556" lon="10.894233214416854"><ele>281.66666666666663</ele><time>2026-04-19T10:23:05Z</time></trkpt><trkpt lat="43.27135791341836" lon="10.89429045266068"><ele>283.0</ele><time>2026-04-19T10:23:06Z</time></trkpt><trkpt lat="43.2715595254547" lon="10.894349131328665"><ele>284.0</ele><time>2026-04-19T10:23:07Z</time></trkpt><trkpt lat="43.27176127143369" lon="10.894387591552091"><ele>285.0</ele><time>2026-04-19T10:23:08Z</time></trkpt><trkpt lat="43.27197594754466" lon="10.894375823639486"><ele>286.0</ele><time>2026-04-19T10:23:08.999Z</time></trkpt><trkpt lat="43.27219865608222" lon="10.894295721807607"><ele>280.0</ele><time>2026-04-19T10:23:09.999Z</time></trkpt><trkpt lat="43.27242733541442" lon="10.894181133388457"><ele>274.0</ele><time>2026-04-19T10:23:10.999Z</time></trkpt><trkpt lat="43.27266754481971" lon="10.894061598942736"><ele>274.0</ele><time>2026-04-19T10:23:11.999Z</time></trkpt><trkpt lat="43.27290785639554" lon="10.893952819645367"><ele>274.0</ele><time>2026-04-19T10:23:12.999Z</time></trkpt><trkpt lat="43.27314692015988" lon="10.89384797627554"><ele>274.5</ele><time>2026-04-19T10:23:13.999Z</time></trkpt><trkpt lat="43.27338646761446" lon="10.89374628528495"><ele>275.0</ele><time>2026-04-19T10:23:14.999Z</time></trkpt><trkpt lat="43.27361527198242" lon="10.893645056025806"><ele>275.0</ele><time>2026-04-19T10:23:15.999Z</time></trkpt><trkpt lat="43.273833766997924" lon="10.89355799996292"><ele>275.0</ele><time>2026-04-19T10:23:16.999Z</time></trkpt><trkpt lat="43.274046035713624" lon="10.893499735510257"><ele>275.0</ele><time>2026-04-19T10:23:17.999Z</time></trkpt><trkpt lat="43.27424894096223" lon="10.893496022069773"><ele>277.0</ele><time>2026-04-19T10:23:18.999Z</time></trkpt><trkpt lat="43.27444323515153" lon="10.89355550818329"><ele>279.0</ele><time>2026-04-19T10:23:19.999Z</time></trkpt><trkpt lat="43.27463284419922" lon="10.893647209540758"><ele>281.0</ele><time>2026-04-19T10:23:20.999Z</time></trkpt><trkpt lat="43.274821476614036" lon="10.893752950239943"><ele>281.0</ele><time>2026-04-19T10:23:21.999Z</time></trkpt><trkpt lat="43.27501462374299" lon="10.893843229776367"><ele>281.0</ele><time>2026-04-19T10:23:22.999Z</time></trkpt><trkpt lat="43.275220606339104" lon="10.893933383563411"><ele>281.0</ele><time>2026-04-19T10:23:23.999Z</time></trkpt><trkpt lat="43.2754396025927" lon="10.894014017279677"><ele>280.0</ele><time>2026-04-19T10:23:24.999Z</time></trkpt><trkpt lat="43.2756604476203" lon="10.894105241070642"><ele>279.0</ele><time>2026-04-19T10:23:25.999Z</time></trkpt><trkpt lat="43.275874408229164" lon="10.894201516611261"><ele>279.5</ele><time>2026-04-19T10:23:26.999Z</time></trkpt><trkpt lat="43.27610279267594" lon="10.894285683985938"><ele>280.0</ele><time>2026-04-19T10:23:27.999Z</time></trkpt><trkpt lat="43.276338250261446" lon="10.894310873570728"><ele>279.0</ele><time>2026-04-19T10:23:28.999Z</time></trkpt><trkpt lat="43.27657254426004" lon="10.89429464977825"><ele>278.0</ele><time>2026-04-19T10:23:29.999Z</time></trkpt><trkpt lat="43.276796151635544" lon="10.89422003933625"><ele>278.0</ele><time>2026-04-19T10:23:30.999Z</time></trkpt><trkpt lat="43.27702316849668" lon="10.894140643036492"><ele>278.0</ele><time>2026-04-19T10:23:31.999Z</time></trkpt><trkpt lat="43.27728440692459" lon="10.894052472912099"><ele>279.5</ele><time>2026-04-19T10:23:32.999Z</time></trkpt><trkpt lat="43.27754388139409" lon="10.893944659555872"><ele>281.0</ele><time>2026-04-19T10:23:33.999Z</time></trkpt><trkpt lat="43.277800723789234" lon="10.893839574026437"><ele>281.0</ele><time>2026-04-19T10:23:34.999Z</time></trkpt><trkpt lat="43.278050533175836" lon="10.893733821767107"><ele>281.0</ele><time>2026-04-19T10:23:35.999Z</time></trkpt><trkpt lat="43.27828310452407" lon="10.893647720477793"><ele>280.33333333333337</ele><time>2026-04-19T10:23:36.999Z</time></trkpt><trkpt lat="43.27850714388489" lon="10.893570282776386"><ele>279.6666666666667</ele><time>2026-04-19T10:23:37.999Z</time></trkpt><trkpt lat="43.27871265682849" lon="10.893493753852386"><ele>279.0</ele><time>2026-04-19T10:23:38.999Z</time></trkpt><trkpt lat="43.27891293588507" lon="10.893402626223507"><ele>280.5</ele><time>2026-04-19T10:23:39.999Z</time></trkpt><trkpt lat="43.27913208702606" lon="10.893273926949277"><ele>282.0</ele><time>2026-04-19T10:23:40.999Z</time></trkpt><trkpt lat="43.279328806574156" lon="10.893095230315147"><ele>282.0</ele><time>2026-04-19T10:23:41.999Z</time></trkpt><trkpt lat="43.2795080353546" lon="10.89291982325533"><ele>282.0</ele><time>2026-04-19T10:23:42.999Z</time></trkpt><trkpt lat="43.279691177969006" lon="10.892817596741455"><ele>282.0</ele><time>2026-04-19T10:23:43.999Z</time></trkpt><trkpt lat="43.27985698323781" lon="10.892757825990248"><ele>281.6666666666667</ele><time>2026-04-19T10:23:44.999Z</time></trkpt><trkpt lat="43.28001537547658" lon="10.892721845776702"><ele>281.33333333333337</ele><time>2026-04-19T10:23:45.999Z</time></trkpt><trkpt lat="43.28016596064067" lon="10.892692298937195"><ele>281.0</ele><time>2026-04-19T10:23:46.999Z</time></trkpt><trkpt lat="43.280313614173885" lon="10.892663327324192"><ele>281.0</ele><time>2026-04-19T10:23:47.999Z</time></trkpt><trkpt lat="43.280468435477765" lon="10.892617300271674"><ele>281.0</ele><time>2026-04-19T10:23:48.999Z</time></trkpt><trkpt lat="43.2806146472826" lon="10.892538971952964"><ele>281.0</ele><time>2026-04-19T10:23:49.999Z</time></trkpt><trkpt lat="43.28075432753383" lon="10.892429400387641"><ele>285.0</ele><time>2026-04-19T10:23:50.999Z</time></trkpt><trkpt lat="43.28088826929255" lon="10.892272126796785"><ele>289.0</ele><time>2026-04-19T10:23:51.999Z</time></trkpt><trkpt lat="43.28100423962986" lon="10.89205616900654"><ele>293.0</ele><time>2026-04-19T10:23:52.999Z</time></trkpt><trkpt lat="43.28113964910682" lon="10.891830778861165"><ele>293.33333333333337</ele><time>2026-04-19T10:23:53.999Z</time></trkpt><trkpt lat="43.28129030755685" lon="10.891591105351596"><ele>293.6666666666667</ele><time>2026-04-19T10:23:54.999Z</time></trkpt><trkpt lat="43.28146198293933" lon="10.891421808688618"><ele>294.0</ele><time>2026-04-19T10:23:55.999Z</time></trkpt><trkpt lat="43.28167386943232" lon="10.891311718285188"><ele>295.5</ele><time>2026-04-19T10:23:56.999Z</time></trkpt><trkpt lat="43.28189732533574" lon="10.891229554498606"><ele>297.0</ele><time>2026-04-19T10:23:57.999Z</time></trkpt><trkpt lat="43.28212962818585" lon="10.891139629285863"><ele>298.5</ele><time>2026-04-19T10:23:58.999Z</time></trkpt><trkpt lat="43.28236072913016" lon="10.891052229599426"><ele>300.0</ele><time>2026-04-19T10:23:59.999Z</time></trkpt><trkpt lat="43.28258165723879" lon="10.890962586923917"><ele>302.3333333333333</ele><time>2026-04-19T10:24:00.999Z</time></trkpt><trkpt lat="43.28280060621259" lon="10.89088414900306"><ele>304.66666666666663</ele><time>2026-04-19T10:24:01.999Z</time></trkpt><trkpt lat="43.28301891093237" lon="10.89083204954439"><ele>307.0</ele><time>2026-04-19T10:24:02.998Z</time></trkpt><trkpt lat="43.28325300972958" lon="10.890835100052545"><ele>308.0</ele><time>2026-04-19T10:24:03.998Z</time></trkpt><trkpt lat="43.28350359693143" lon="10.890891199867495"><ele>309.0</ele><time>2026-04-19T10:24:04.998Z</time></trkpt><trkpt lat="43.28374643374441" lon="10.890951133390654"><ele>307.5</ele><time>2026-04-19T10:24:05.998Z</time></trkpt><trkpt lat="43.28399089555193" lon="10.89099112077409"><ele>306.0</ele><time>2026-04-19T10:24:06.998Z</time></trkpt><trkpt lat="43.28423398772457" lon="10.891000801377984"><ele>306.0</ele><time>2026-04-19T10:24:07.998Z</time></trkpt><trkpt lat="43.28446789663486" lon="10.890946156448264"><ele>306.0</ele><time>2026-04-19T10:24:08.998Z</time></trkpt><trkpt lat="43.284709262977614" lon="10.89084651356423"><ele>310.0</ele><time>2026-04-19T10:24:09.998Z</time></trkpt><trkpt lat="43.28494108220469" lon="10.89072710286222"><ele>314.0</ele><time>2026-04-19T10:24:10.998Z</time></trkpt><trkpt lat="43.28517479676808" lon="10.890630506184197"><ele>314.0</ele><time>2026-04-19T10:24:11.998Z</time></trkpt><trkpt lat="43.28540484135884" lon="10.890537514226024"><ele>314.0</ele><time>2026-04-19T10:24:12.998Z</time></trkpt><trkpt lat="43.285634257046304" lon="10.890457740066749"><ele>314.6666666666667</ele><time>2026-04-19T10:24:13.998Z</time></trkpt><trkpt lat="43.28584388459427" lon="10.890352547249302"><ele>315.3333333333333</ele><time>2026-04-19T10:24:14.998Z</time></trkpt><trkpt lat="43.28604343952127" lon="10.890220625998548"><ele>316.0</ele><time>2026-04-19T10:24:15.998Z</time></trkpt><trkpt lat="43.28619820789787" lon="10.89002432053769"><ele>317.66666666666663</ele><time>2026-04-19T10:24:16.998Z</time></trkpt><trkpt lat="43.28631980879225" lon="10.889796381635428"><ele>319.3333333333333</ele><time>2026-04-19T10:24:18Z</time></trkpt><trkpt lat="43.28639939540543" lon="10.88953062957711"><ele>321.0</ele><time>2026-04-19T10:24:19Z</time></trkpt><trkpt lat="43.286430020017114" lon="10.889246378681767"><ele>320.6666666666667</ele><time>2026-04-19T10:24:20Z</time></trkpt><trkpt lat="43.286426224425966" lon="10.88895258829359"><ele>320.33333333333337</ele><time>2026-04-19T10:24:21Z</time></trkpt><trkpt lat="43.286382932632606" lon="10.888677023709542"><ele>320.0</ele><time>2026-04-19T10:24:22Z</time></trkpt><trkpt lat="43.28628517087806" lon="10.888422275994824"><ele>319.0</ele><time>2026-04-19T10:24:23Z</time></trkpt><trkpt lat="43.286152127904806" lon="10.888198647780555"><ele>318.0</ele><time>2026-04-19T10:24:24Z</time></trkpt><trkpt lat="43.2860111667741" lon="10.887962692844852"><ele>317.0</ele><time>2026-04-19T10:24:25Z</time></trkpt><trkpt lat="43.285887349103255" lon="10.887757830172509"><ele>319.0</ele><time>2026-04-19T10:24:26Z</time></trkpt><trkpt lat="43.285813908601874" lon="10.887504618069356"><ele>321.0</ele><time>2026-04-19T10:24:27Z</time></trkpt><trkpt lat="43.28579032536909" lon="10.887241757799092"><ele>323.0</ele><time>2026-04-19T10:24:28Z</time></trkpt><trkpt lat="43.28580582862671" lon="10.886970758245706"><ele>323.0</ele><time>2026-04-19T10:24:29Z</time></trkpt><trkpt lat="43.28585615834366" lon="10.886713511514808"><ele>323.0</ele><time>2026-04-19T10:24:30Z</time></trkpt><trkpt lat="43.28594914445465" lon="10.886462628671621"><ele>323.0</ele><time>2026-04-19T10:24:31Z</time></trkpt><trkpt lat="43.28607464276949" lon="10.886244181471142"><ele>323.0</ele><time>2026-04-19T10:24:32Z</time></trkpt><trkpt lat="43.28622211707094" lon="10.886042678256425"><ele>323.0</ele><time>2026-04-19T10:24:33Z</time></trkpt><trkpt lat="43.286369108007875" lon="10.885849469349571"><ele>323.0</ele><time>2026-04-19T10:24:34Z</time></trkpt><trkpt lat="43.28652001883546" lon="10.885639747586183"><ele>325.6666666666667</ele><time>2026-04-19T10:24:35Z</time></trkpt><trkpt lat="43.28667500331327" lon="10.88545239063626"><ele>328.3333333333333</ele><time>2026-04-19T10:24:36Z</time></trkpt><trkpt lat="43.2868650216239" lon="10.885296032873514"><ele>331.0</ele><time>2026-04-19T10:24:37Z</time></trkpt><trkpt lat="43.28705862230745" lon="10.88515709271722"><ele>330.66666666666663</ele><time>2026-04-19T10:24:38Z</time></trkpt><trkpt lat="43.28724616859548" lon="10.885013526384135"><ele>330.3333333333333</ele><time>2026-04-19T10:24:39Z</time></trkpt><trkpt lat="43.287420608594196" lon="10.884863275140107"><ele>330.0</ele><time>2026-04-19T10:24:40Z</time></trkpt><trkpt lat="43.28755552717152" lon="10.884671673761696"><ele>330.0</ele><time>2026-04-19T10:24:41Z</time></trkpt><trkpt lat="43.28766213067598" lon="10.884462479785688"><ele>330.0</ele><time>2026-04-19T10:24:42Z</time></trkpt><trkpt lat="43.28776352868968" lon="10.88427097951155"><ele>330.0</ele><time>2026-04-19T10:24:43Z</time></trkpt><trkpt lat="43.287884137929424" lon="10.884127182269475"><ele>328.6666666666667</ele><time>2026-04-19T10:24:44Z</time></trkpt><trkpt lat="43.288043463067154" lon="10.884016015808372"><ele>327.33333333333337</ele><time>2026-04-19T10:24:45Z</time></trkpt><trkpt lat="43.288220358293344" lon="10.883915456798768"><ele>326.0</ele><time>2026-04-19T10:24:46Z</time></trkpt><trkpt lat="43.28837275138315" lon="10.883826436236534"><ele>326.0</ele><time>2026-04-19T10:24:47Z</time></trkpt><trkpt lat="43.28851539202131" lon="10.883700477871965"><ele>326.0</ele><time>2026-04-19T10:24:48Z</time></trkpt><trkpt lat="43.28865598094586" lon="10.883541383303228"><ele>326.0</ele><time>2026-04-19T10:24:49Z</time></trkpt><trkpt lat="43.28878465383941" lon="10.883357959299582"><ele>323.0</ele><time>2026-04-19T10:24:50Z</time></trkpt><trkpt lat="43.28885533061583" lon="10.883114430936278"><ele>320.0</ele><time>2026-04-19T10:24:51Z</time></trkpt><trkpt lat="43.28885164258795" lon="10.882824051991852"><ele>317.0</ele><time>2026-04-19T10:24:52Z</time></trkpt><trkpt lat="43.28885252675608" lon="10.88254712246914"><ele>315.33333333333337</ele><time>2026-04-19T10:24:53Z</time></trkpt><trkpt lat="43.28883237888614" lon="10.882271856715532"><ele>313.6666666666667</ele><time>2026-04-19T10:24:54Z</time></trkpt><trkpt lat="43.28875752537215" lon="10.882004124684398"><ele>312.0</ele><time>2026-04-19T10:24:55Z</time></trkpt><trkpt lat="43.288655153525234" lon="10.881748135892584"><ele>311.3333333333333</ele><time>2026-04-19T10:24:56Z</time></trkpt><trkpt lat="43.288540712349985" lon="10.88147549289644"><ele>310.66666666666663</ele><time>2026-04-19T10:24:57Z</time></trkpt><trkpt lat="43.288480308541274" lon="10.881227930475639"><ele>310.0</ele><time>2026-04-19T10:24:58Z</time></trkpt><trkpt lat="43.28844957689247" lon="10.880969051183948"><ele>310.66666666666663</ele><time>2026-04-19T10:24:59Z</time></trkpt><trkpt lat="43.2884288583587" lon="10.880710809371488"><ele>311.3333333333333</ele><time>2026-04-19T10:25:00Z</time></trkpt><trkpt lat="43.28842528362445" lon="10.880435161732875"><ele>312.0</ele><time>2026-04-19T10:25:01Z</time></trkpt><trkpt lat="43.2884473195298" lon="10.8801692839175"><ele>313.0</ele><time>2026-04-19T10:25:02Z</time></trkpt><trkpt lat="43.28849529966006" lon="10.879906823679933"><ele>314.0</ele><time>2026-04-19T10:25:03Z</time></trkpt><trkpt lat="43.288561820810976" lon="10.879647597662432"><ele>315.0</ele><time>2026-04-19T10:25:04Z</time></trkpt><trkpt lat="43.28863906633716" lon="10.879412914531354"><ele>315.3333333333333</ele><time>2026-04-19T10:25:05Z</time></trkpt><trkpt lat="43.288743922762606" lon="10.879201259388697"><ele>315.66666666666663</ele><time>2026-04-19T10:25:06Z</time></trkpt><trkpt lat="43.28886466922782" lon="10.879027013675108"><ele>316.0</ele><time>2026-04-19T10:25:07Z</time></trkpt><trkpt lat="43.28897554653907" lon="10.878865401719686"><ele>315.66666666666663</ele><time>2026-04-19T10:25:08Z</time></trkpt><trkpt lat="43.28909463976429" lon="10.878735177950738"><ele>315.3333333333333</ele><time>2026-04-19T10:25:09Z</time></trkpt><trkpt lat="43.28915354834224" lon="10.87854581848686"><ele>315.0</ele><time>2026-04-19T10:25:10Z</time></trkpt><trkpt lat="43.28924402157839" lon="10.878381961015593"><ele>315.0</ele><time>2026-04-19T10:25:11Z</time></trkpt><trkpt lat="43.28933839233982" lon="10.87821770870761"><ele>315.0</ele><time>2026-04-19T10:25:12Z</time></trkpt><trkpt lat="43.289426757201994" lon="10.878056493496189"><ele>315.0</ele><time>2026-04-19T10:25:12.999Z</time></trkpt><trkpt lat="43.28955484238201" lon="10.87792801192581"><ele>315.0</ele><time>2026-04-19T10:25:13.999Z</time></trkpt><trkpt lat="43.28964577991923" lon="10.877767673151567"><ele>315.0</ele><time>2026-04-19T10:25:14.999Z</time></trkpt><trkpt lat="43.28973257688936" lon="10.87761277082341"><ele>315.0</ele><time>2026-04-19T10:25:15.999Z</time></trkpt><trkpt lat="43.289818633213535" lon="10.87745919029303"><ele>315.0</ele><time>2026-04-19T10:25:16.999Z</time></trkpt><trkpt lat="43.289902796483865" lon="10.877308988200552"><ele>315.0</ele><time>2026-04-19T10:25:17.999Z</time></trkpt><trkpt lat="43.28998656187082" lon="10.877159550559815"><ele>315.0</ele><time>2026-04-19T10:25:18.999Z</time></trkpt><trkpt lat="43.29006913982079" lon="10.877014045287176"><ele>315.0</ele><time>2026-04-19T10:25:19.999Z</time></trkpt><trkpt lat="43.290151055937834" lon="10.876871081980557"><ele>315.0</ele><time>2026-04-19T10:25:20.999Z</time></trkpt><trkpt lat="43.29023231564965" lon="10.87672926425913"><ele>315.75</ele><time>2026-04-19T10:25:21.999Z</time></trkpt><trkpt lat="43.29031254694649" lon="10.876593450815434"><ele>316.5</ele><time>2026-04-19T10:25:22.999Z</time></trkpt><trkpt lat="43.290398435326004" lon="10.876468570402679"><ele>317.25</ele><time>2026-04-19T10:25:23.999Z</time></trkpt><trkpt lat="43.29048847576072" lon="10.876353562932444"><ele>318.0</ele><time>2026-04-19T10:25:24.999Z</time></trkpt><trkpt lat="43.29058470824488" lon="10.876255665308486"><ele>318.5</ele><time>2026-04-19T10:25:25.999Z</time></trkpt><trkpt lat="43.290690028102084" lon="10.876168705940495"><ele>319.0</ele><time>2026-04-19T10:25:26.999Z</time></trkpt><trkpt lat="43.29079746587463" lon="10.876094406951893"><ele>319.5</ele><time>2026-04-19T10:25:27.999Z</time></trkpt><trkpt lat="43.290908010213336" lon="10.876034502059804"><ele>320.0</ele><time>2026-04-19T10:25:28.999Z</time></trkpt><trkpt lat="43.29102004877089" lon="10.875982294698678"><ele>320.0</ele><time>2026-04-19T10:25:29.999Z</time></trkpt><trkpt lat="43.29113567576052" lon="10.875939808965121"><ele>320.0</ele><time>2026-04-19T10:25:30.999Z</time></trkpt><trkpt lat="43.291251904109764" lon="10.875898604003472"><ele>320.0</ele><time>2026-04-19T10:25:31.999Z</time></trkpt><trkpt lat="43.291366238566624" lon="10.875858476072239"><ele>320.0</ele><time>2026-04-19T10:25:32.999Z</time></trkpt><trkpt lat="43.291482289333544" lon="10.875817745769085"><ele>322.0</ele><time>2026-04-19T10:25:33.999Z</time></trkpt><trkpt lat="43.29159685158711" lon="10.875777537886199"><ele>324.0</ele><time>2026-04-19T10:25:34.999Z</time></trkpt><trkpt lat="43.29171255347008" lon="10.875736930031518"><ele>326.0</ele><time>2026-04-19T10:25:35.999Z</time></trkpt><trkpt lat="43.291830604436626" lon="10.875682972773701"><ele>328.0</ele><time>2026-04-19T10:25:36.999Z</time></trkpt><trkpt lat="43.29194468004749" lon="10.875616052955367"><ele>328.0</ele><time>2026-04-19T10:25:37.999Z</time></trkpt><trkpt lat="43.29205893865464" lon="10.87553282773142"><ele>328.0</ele><time>2026-04-19T10:25:38.999Z</time></trkpt><trkpt lat="43.292168346053415" lon="10.875449300264483"><ele>328.0</ele><time>2026-04-19T10:25:39.999Z</time></trkpt><trkpt lat="43.292277204755884" lon="10.875363744441074"><ele>328.0</ele><time>2026-04-19T10:25:40.999Z</time></trkpt><trkpt lat="43.292385645217024" lon="10.875278517324942"><ele>328.0</ele><time>2026-04-19T10:25:41.999Z</time></trkpt><trkpt lat="43.29249476502749" lon="10.87519190130181"><ele>328.0</ele><time>2026-04-19T10:25:42.999Z</time></trkpt><trkpt lat="43.292603037240234" lon="10.875104730774966"><ele>328.0</ele><time>2026-04-19T10:25:43.999Z</time></trkpt><trkpt lat="43.29270999701875" lon="10.87501861689811"><ele>328.0</ele><time>2026-04-19T10:25:44.999Z</time></trkpt><trkpt lat="43.2928181054999" lon="10.874931757062022"><ele>328.25</ele><time>2026-04-19T10:25:45.999Z</time></trkpt><trkpt lat="43.292927007595985" lon="10.874844329231793"><ele>328.5</ele><time>2026-04-19T10:25:46.999Z</time></trkpt><trkpt lat="43.29303442400253" lon="10.874758770774607"><ele>328.75</ele><time>2026-04-19T10:25:47.999Z</time></trkpt><trkpt lat="43.2931412579087" lon="10.87467536429566"><ele>329.0</ele><time>2026-04-19T10:25:48.999Z</time></trkpt><trkpt lat="43.2932501408996" lon="10.874595274225923"><ele>329.0</ele><time>2026-04-19T10:25:49.999Z</time></trkpt><trkpt lat="43.29335924375249" lon="10.874521216941186"><ele>329.0</ele><time>2026-04-19T10:25:50.999Z</time></trkpt><trkpt lat="43.29347250685803" lon="10.874449992308287"><ele>329.0</ele><time>2026-04-19T10:25:51.999Z</time></trkpt><trkpt lat="43.29358900398446" lon="10.874384996038534"><ele>329.0</ele><time>2026-04-19T10:25:52.999Z</time></trkpt><trkpt lat="43.29370932032739" lon="10.874326623973364"><ele>329.0</ele><time>2026-04-19T10:25:53.999Z</time></trkpt><trkpt lat="43.293834465663785" lon="10.874274625751166"><ele>329.0</ele><time>2026-04-19T10:25:54.999Z</time></trkpt><trkpt lat="43.29395866443814" lon="10.874226550906714"><ele>329.0</ele><time>2026-04-19T10:25:55.999Z</time></trkpt><trkpt lat="43.2940848608158" lon="10.874185548903206"><ele>329.0</ele><time>2026-04-19T10:25:56.999Z</time></trkpt><trkpt lat="43.29421519983429" lon="10.874155238867932"><ele>330.75</ele><time>2026-04-19T10:25:57.999Z</time></trkpt><trkpt lat="43.29434434135715" lon="10.874126105407514"><ele>332.5</ele><time>2026-04-19T10:25:58.999Z</time></trkpt><trkpt lat="43.29447096590273" lon="10.874097970514464"><ele>334.25</ele><time>2026-04-19T10:25:59.999Z</time></trkpt><trkpt lat="43.29459616746319" lon="10.874071635100872"><ele>336.0</ele><time>2026-04-19T10:26:00.999Z</time></trkpt><trkpt lat="43.29471771310542" lon="10.874046068682087"><ele>337.75</ele><time>2026-04-19T10:26:01.999Z</time></trkpt><trkpt lat="43.29483563426497" lon="10.874021264661968"><ele>339.5</ele><time>2026-04-19T10:26:02.999Z</time></trkpt><trkpt lat="43.294951052392655" lon="10.87399698715506"><ele>341.25</ele><time>2026-04-19T10:26:03.999Z</time></trkpt><trkpt lat="43.29506558355109" lon="10.873972790098517"><ele>343.0</ele><time>2026-04-19T10:26:04.999Z</time></trkpt><trkpt lat="43.29517632457787" lon="10.87394724018617"><ele>343.0</ele><time>2026-04-19T10:26:05.999Z</time></trkpt><trkpt lat="43.29528487945805" lon="10.873925580615609"><ele>343.0</ele><time>2026-04-19T10:26:06.998Z</time></trkpt><trkpt lat="43.29538936515191" lon="10.87390519091048"><ele>343.0</ele><time>2026-04-19T10:26:07.998Z</time></trkpt><trkpt lat="43.29548127671297" lon="10.873865413269673"><ele>343.0</ele><time>2026-04-19T10:26:08.998Z</time></trkpt><trkpt lat="43.29556767858859" lon="10.873871145016453"><ele>343.0</ele><time>2026-04-19T10:26:09.998Z</time></trkpt><trkpt lat="43.295647724049" lon="10.873896568559468"><ele>344.0</ele><time>2026-04-19T10:26:10.998Z</time></trkpt><trkpt lat="43.29572656171427" lon="10.873922291152988"><ele>345.0</ele><time>2026-04-19T10:26:11.998Z</time></trkpt><trkpt lat="43.2958049974165" lon="10.873942948995175"><ele>346.0</ele><time>2026-04-19T10:26:12.998Z</time></trkpt><trkpt lat="43.29587993174887" lon="10.873925764548371"><ele>347.0</ele><time>2026-04-19T10:26:13.998Z</time></trkpt><trkpt lat="43.29596741179792" lon="10.873879746075161"><ele>348.0</ele><time>2026-04-19T10:26:14.998Z</time></trkpt><trkpt lat="43.29606759033424" lon="10.873830902073768"><ele>349.0</ele><time>2026-04-19T10:26:15.998Z</time></trkpt><trkpt lat="43.29614749442778" lon="10.8737616822238"><ele>349.0</ele><time>2026-04-19T10:26:16.998Z</time></trkpt><trkpt lat="43.29625316489508" lon="10.873723230929917"><ele>349.0</ele><time>2026-04-19T10:26:17.998Z</time></trkpt><trkpt lat="43.29635820787547" lon="10.873686299845472"><ele>349.0</ele><time>2026-04-19T10:26:18.998Z</time></trkpt><trkpt lat="43.296467868262894" lon="10.873647056313857"><ele>349.0</ele><time>2026-04-19T10:26:19.998Z</time></trkpt><trkpt lat="43.296578170439396" lon="10.873602420942637"><ele>349.0</ele><time>2026-04-19T10:26:20.998Z</time></trkpt><trkpt lat="43.29669169995128" lon="10.873553654422162"><ele>349.5</ele><time>2026-04-19T10:26:21.998Z</time></trkpt><trkpt lat="43.296805387114766" lon="10.873498698946186"><ele>350.0</ele><time>2026-04-19T10:26:23Z</time></trkpt><trkpt lat="43.296920215327795" lon="10.87343592726089"><ele>350.5</ele><time>2026-04-19T10:26:24Z</time></trkpt><trkpt lat="43.29703335429821" lon="10.873363884167594"><ele>351.0</ele><time>2026-04-19T10:26:25Z</time></trkpt><trkpt lat="43.29714371263116" lon="10.873285639184903"><ele>352.5</ele><time>2026-04-19T10:26:26Z</time></trkpt><trkpt lat="43.297254294213275" lon="10.873203974007465"><ele>354.0</ele><time>2026-04-19T10:26:27Z</time></trkpt><trkpt lat="43.2973653211057" lon="10.873114697793033"><ele>355.5</ele><time>2026-04-19T10:26:28Z</time></trkpt><trkpt lat="43.29747222285072" lon="10.873017708192538"><ele>357.0</ele><time>2026-04-19T10:26:29Z</time></trkpt><trkpt lat="43.29757687300607" lon="10.872914401592444"><ele>357.0</ele><time>2026-04-19T10:26:30Z</time></trkpt><trkpt lat="43.29767973683588" lon="10.872806438609144"><ele>357.0</ele><time>2026-04-19T10:26:31Z</time></trkpt><trkpt lat="43.29778050277287" lon="10.872692689681971"><ele>357.0</ele><time>2026-04-19T10:26:32Z</time></trkpt><trkpt lat="43.2978772617132" lon="10.872577125977855"><ele>357.0</ele><time>2026-04-19T10:26:33Z</time></trkpt><trkpt lat="43.29796967655151" lon="10.872464070604442"><ele>357.5</ele><time>2026-04-19T10:26:34Z</time></trkpt><trkpt lat="43.298055211751745" lon="10.872355518157242"><ele>358.0</ele><time>2026-04-19T10:26:35Z</time></trkpt><trkpt lat="43.29814041309752" lon="10.872247389281295"><ele>358.5</ele><time>2026-04-19T10:26:36Z</time></trkpt><trkpt lat="43.29822236090444" lon="10.87214338950432"><ele>359.0</ele><time>2026-04-19T10:26:37Z</time></trkpt><trkpt lat="43.29830163905491" lon="10.87204277803792"><ele>359.0</ele><time>2026-04-19T10:26:38Z</time></trkpt><trkpt lat="43.29837364620723" lon="10.871951032649166"><ele>359.0</ele><time>2026-04-19T10:26:39Z</time></trkpt><trkpt lat="43.298439295461186" lon="10.871867488039282"><ele>359.0</ele><time>2026-04-19T10:26:40Z</time></trkpt><trkpt lat="43.29849711153727" lon="10.871793909179887"><ele>359.0</ele><time>2026-04-19T10:26:41Z</time></trkpt><trkpt lat="43.29854993886973" lon="10.871726654415617"><ele>359.0</ele><time>2026-04-19T10:26:42Z</time></trkpt><trkpt lat="43.29859197549778" lon="10.871656653457983"><ele>359.0</ele><time>2026-04-19T10:26:43Z</time></trkpt><trkpt lat="43.29865532818669" lon="10.871611641282774"><ele>360.0</ele><time>2026-04-19T10:26:44Z</time></trkpt><trkpt lat="43.29870910032721" lon="10.871527503523605"><ele>361.0</ele><time>2026-04-19T10:26:45Z</time></trkpt><trkpt lat="43.298749976772825" lon="10.871417161144631"><ele>362.0</ele><time>2026-04-19T10:26:46Z</time></trkpt><trkpt lat="43.29881889083997" lon="10.871338737984109"><ele>363.0</ele><time>2026-04-19T10:26:47Z</time></trkpt><trkpt lat="43.29889164948815" lon="10.87123806022052"><ele>364.0</ele><time>2026-04-19T10:26:48Z</time></trkpt><trkpt lat="43.29896907067812" lon="10.871129403034104"><ele>364.0</ele><time>2026-04-19T10:26:49Z</time></trkpt><trkpt lat="43.29904412644105" lon="10.871023824579218"><ele>364.0</ele><time>2026-04-19T10:26:50Z</time></trkpt><trkpt lat="43.29912168648356" lon="10.870913002386853"><ele>364.0</ele><time>2026-04-19T10:26:51Z</time></trkpt><trkpt lat="43.29919875222714" lon="10.87079419513031"><ele>364.0</ele><time>2026-04-19T10:26:52Z</time></trkpt><trkpt lat="43.29927028312667" lon="10.870672161757797"><ele>364.0</ele><time>2026-04-19T10:26:53Z</time></trkpt><trkpt lat="43.299342079360976" lon="10.870549141471187"><ele>364.0</ele><time>2026-04-19T10:26:54Z</time></trkpt><trkpt lat="43.299414221949405" lon="10.870422975941885"><ele>364.0</ele><time>2026-04-19T10:26:55Z</time></trkpt><trkpt lat="43.2994876495144" lon="10.870294563197445"><ele>364.0</ele><time>2026-04-19T10:26:56Z</time></trkpt><trkpt lat="43.29956433846864" lon="10.8701604468058"><ele>364.0</ele><time>2026-04-19T10:26:57Z</time></trkpt><trkpt lat="43.299646080069984" lon="10.87001722833913"><ele>364.25</ele><time>2026-04-19T10:26:58Z</time></trkpt><trkpt lat="43.29972897275395" lon="10.869870109337386"><ele>364.5</ele><time>2026-04-19T10:26:59Z</time></trkpt><trkpt lat="43.29981283457841" lon="10.869720783259833"><ele>364.75</ele><time>2026-04-19T10:27:00Z</time></trkpt><trkpt lat="43.29990085653746" lon="10.869566356224743"><ele>365.0</ele><time>2026-04-19T10:27:01Z</time></trkpt><trkpt lat="43.29999399036884" lon="10.869407085468483"><ele>361.75</ele><time>2026-04-19T10:27:02Z</time></trkpt><trkpt lat="43.30008478683378" lon="10.869248674373953"><ele>358.5</ele><time>2026-04-19T10:27:03Z</time></trkpt><trkpt lat="43.300175159691946" lon="10.869085222692732"><ele>355.25</ele><time>2026-04-19T10:27:04Z</time></trkpt><trkpt lat="43.30026258343163" lon="10.868923176269998"><ele>352.0</ele><time>2026-04-19T10:27:05Z</time></trkpt><trkpt lat="43.30034734224123" lon="10.868756350677005"><ele>352.0</ele><time>2026-04-19T10:27:06Z</time></trkpt><trkpt lat="43.30042195866194" lon="10.86857828486947"><ele>352.0</ele><time>2026-04-19T10:27:07Z</time></trkpt><trkpt lat="43.30048984185028" lon="10.86839350185803"><ele>352.0</ele><time>2026-04-19T10:27:08Z</time></trkpt><trkpt lat="43.300545747381626" lon="10.86819872215782"><ele>350.3333333333333</ele><time>2026-04-19T10:27:09Z</time></trkpt><trkpt lat="43.30058912243448" lon="10.867996192612832"><ele>348.6666666666667</ele><time>2026-04-19T10:27:10Z</time></trkpt><trkpt lat="43.300624205179666" lon="10.867790613592925"><ele>347.0</ele><time>2026-04-19T10:27:11Z</time></trkpt><trkpt lat="43.300645941136366" lon="10.86758397923558"><ele>345.33333333333337</ele><time>2026-04-19T10:27:12Z</time></trkpt><trkpt lat="43.30065374590478" lon="10.867364209345439"><ele>343.6666666666667</ele><time>2026-04-19T10:27:13Z</time></trkpt><trkpt lat="43.300607352499696" lon="10.86714866169659"><ele>342.0</ele><time>2026-04-19T10:27:14Z</time></trkpt><trkpt lat="43.300608111093226" lon="10.866931988526135"><ele>340.6666666666667</ele><time>2026-04-19T10:27:15Z</time></trkpt><trkpt lat="43.30061521127295" lon="10.86671742488639"><ele>339.33333333333337</ele><time>2026-04-19T10:27:16Z</time></trkpt><trkpt lat="43.300634631719" lon="10.866497612607859"><ele>338.0</ele><time>2026-04-19T10:27:17Z</time></trkpt><trkpt lat="43.30070335360725" lon="10.866289223576548"><ele>338.0</ele><time>2026-04-19T10:27:18Z</time></trkpt><trkpt lat="43.3007275374301" lon="10.866079474684023"><ele>338.0</ele><time>2026-04-19T10:27:19Z</time></trkpt><trkpt lat="43.300753740362204" lon="10.86587457181093"><ele>338.0</ele><time>2026-04-19T10:27:19.999Z</time></trkpt><trkpt lat="43.30077351608995" lon="10.8656812227241"><ele>338.0</ele><time>2026-04-19T10:27:20.999Z</time></trkpt><trkpt lat="43.30073981639054" lon="10.865496167584974"><ele>338.0</ele><time>2026-04-19T10:27:21.999Z</time></trkpt><trkpt lat="43.30073310436122" lon="10.865329685564811"><ele>338.0</ele><time>2026-04-19T10:27:22.999Z</time></trkpt><trkpt lat="43.30069842039087" lon="10.865176609244987"><ele>338.0</ele><time>2026-04-19T10:27:23.999Z</time></trkpt><trkpt lat="43.300631238803795" lon="10.865036418320138"><ele>338.0</ele><time>2026-04-19T10:27:24.999Z</time></trkpt><trkpt lat="43.300544749119425" lon="10.86491359650948"><ele>338.25</ele><time>2026-04-19T10:27:25.999Z</time></trkpt><trkpt lat="43.30045710541352" lon="10.864775093681656"><ele>338.5</ele><time>2026-04-19T10:27:26.999Z</time></trkpt><trkpt lat="43.30039968343754" lon="10.864605208594629"><ele>338.75</ele><time>2026-04-19T10:27:27.999Z</time></trkpt><trkpt lat="43.30034468935205" lon="10.864437926621456"><ele>339.0</ele><time>2026-04-19T10:27:28.999Z</time></trkpt><trkpt lat="43.30028958830458" lon="10.86427709977915"><ele>339.0</ele><time>2026-04-19T10:27:29.999Z</time></trkpt><trkpt lat="43.30022200634828" lon="10.864121970737209"><ele>339.0</ele><time>2026-04-19T10:27:30.999Z</time></trkpt><trkpt lat="43.300164058631225" lon="10.863948472545715"><ele>339.0</ele><time>2026-04-19T10:27:31.999Z</time></trkpt><trkpt lat="43.30010217229867" lon="10.8637797932224"><ele>339.0</ele><time>2026-04-19T10:27:32.999Z</time></trkpt><trkpt lat="43.30004143022818" lon="10.863608637362992"><ele>336.75</ele><time>2026-04-19T10:27:33.999Z</time></trkpt><trkpt lat="43.30001637865713" lon="10.863418482764585"><ele>334.5</ele><time>2026-04-19T10:27:34.999Z</time></trkpt><trkpt lat="43.29999449603523" lon="10.863232878742679"><ele>332.25</ele><time>2026-04-19T10:27:35.999Z</time></trkpt><trkpt lat="43.29998023324791" lon="10.863053268684713"><ele>330.0</ele><time>2026-04-19T10:27:36.999Z</time></trkpt><trkpt lat="43.29998490369068" lon="10.862878051713643"><ele>330.0</ele><time>2026-04-19T10:27:37.999Z</time></trkpt><trkpt lat="43.300005777799534" lon="10.86269720316933"><ele>330.0</ele><time>2026-04-19T10:27:38.999Z</time></trkpt><trkpt lat="43.30004524993581" lon="10.862519197966789"><ele>330.0</ele><time>2026-04-19T10:27:39.999Z</time></trkpt><trkpt lat="43.300102361065456" lon="10.862338896377778"><ele>330.0</ele><time>2026-04-19T10:27:40.999Z</time></trkpt><trkpt lat="43.30016809700264" lon="10.862141148880156"><ele>330.0</ele><time>2026-04-19T10:27:41.999Z</time></trkpt><trkpt lat="43.30023308555844" lon="10.861945312341271"><ele>330.0</ele><time>2026-04-19T10:27:42.999Z</time></trkpt><trkpt lat="43.30029999662307" lon="10.861743020108104"><ele>330.0</ele><time>2026-04-19T10:27:43.999Z</time></trkpt><trkpt lat="43.30035628456025" lon="10.8615292130375"><ele>330.6666666666667</ele><time>2026-04-19T10:27:44.999Z</time></trkpt><trkpt lat="43.30036682270922" lon="10.861299903517928"><ele>331.33333333333337</ele><time>2026-04-19T10:27:45.999Z</time></trkpt><trkpt lat="43.300353236816356" lon="10.861093383896895"><ele>332.0</ele><time>2026-04-19T10:27:46.999Z</time></trkpt><trkpt lat="43.300304990652144" lon="10.860875971903768"><ele>330.33333333333337</ele><time>2026-04-19T10:27:47.999Z</time></trkpt><trkpt lat="43.30023324175073" lon="10.860667736800568"><ele>328.6666666666667</ele><time>2026-04-19T10:27:48.999Z</time></trkpt><trkpt lat="43.30014693041419" lon="10.860458900223046"><ele>327.0</ele><time>2026-04-19T10:27:49.999Z</time></trkpt><trkpt lat="43.30006345435179" lon="10.860277323290056"><ele>323.0</ele><time>2026-04-19T10:27:50.999Z</time></trkpt><trkpt lat="43.30003297927977" lon="10.860051978850013"><ele>319.0</ele><time>2026-04-19T10:27:51.999Z</time></trkpt><trkpt lat="43.29998192798582" lon="10.859826218661192"><ele>315.0</ele><time>2026-04-19T10:27:52.999Z</time></trkpt><trkpt lat="43.29997075536857" lon="10.859594578295457"><ele>315.0</ele><time>2026-04-19T10:27:53.999Z</time></trkpt><trkpt lat="43.2999470435162" lon="10.859367915358133"><ele>315.0</ele><time>2026-04-19T10:27:54.999Z</time></trkpt><trkpt lat="43.299930046023334" lon="10.859150351357515"><ele>315.0</ele><time>2026-04-19T10:27:55.999Z</time></trkpt><trkpt lat="43.29992145106525" lon="10.858928044619377"><ele>313.75</ele><time>2026-04-19T10:27:56.999Z</time></trkpt><trkpt lat="43.299940952652385" lon="10.85872132728794"><ele>312.5</ele><time>2026-04-19T10:27:57.999Z</time></trkpt><trkpt lat="43.29999268672048" lon="10.858530050816404"><ele>311.25</ele><time>2026-04-19T10:27:58.999Z</time></trkpt><trkpt lat="43.30006863263789" lon="10.858357199866575"><ele>310.0</ele><time>2026-04-19T10:27:59.999Z</time></trkpt><trkpt lat="43.30014855685179" lon="10.858169597331834"><ele>310.0</ele><time>2026-04-19T10:28:00.999Z</time></trkpt><trkpt lat="43.300213256359" lon="10.857960998673182"><ele>310.0</ele><time>2026-04-19T10:28:01.999Z</time></trkpt><trkpt lat="43.300244301719296" lon="10.8577464243676"><ele>310.0</ele><time>2026-04-19T10:28:02.999Z</time></trkpt><trkpt lat="43.30024398326135" lon="10.85752648513355"><ele>309.3333333333333</ele><time>2026-04-19T10:28:03.999Z</time></trkpt><trkpt lat="43.30020140022131" lon="10.857313280106947"><ele>308.6666666666667</ele><time>2026-04-19T10:28:04.999Z</time></trkpt><trkpt lat="43.300193074168284" lon="10.857097119961482"><ele>308.0</ele><time>2026-04-19T10:28:05.999Z</time></trkpt><trkpt lat="43.30018908360015" lon="10.85689826246829"><ele>305.75</ele><time>2026-04-19T10:28:06.999Z</time></trkpt><trkpt lat="43.30024098486276" lon="10.856735564981614"><ele>303.5</ele><time>2026-04-19T10:28:07.999Z</time></trkpt><trkpt lat="43.300308634361215" lon="10.856540023185596"><ele>301.25</ele><time>2026-04-19T10:28:08.999Z</time></trkpt><trkpt lat="43.30041094366237" lon="10.85637396001822"><ele>299.0</ele><time>2026-04-19T10:28:09.999Z</time></trkpt><trkpt lat="43.30053395541104" lon="10.856236956603603"><ele>295.6666666666667</ele><time>2026-04-19T10:28:10.999Z</time></trkpt><trkpt lat="43.30067804526223" lon="10.85611623113394"><ele>292.3333333333333</ele><time>2026-04-19T10:28:11.999Z</time></trkpt><trkpt lat="43.300824843531124" lon="10.856007959405572"><ele>289.0</ele><time>2026-04-19T10:28:12.999Z</time></trkpt><trkpt lat="43.30096812768615" lon="10.85590700020564"><ele>287.75</ele><time>2026-04-19T10:28:13.998Z</time></trkpt><trkpt lat="43.301094660033975" lon="10.85582608554462"><ele>286.5</ele><time>2026-04-19T10:28:14.998Z</time></trkpt><trkpt lat="43.30121921266975" lon="10.855777743094942"><ele>285.25</ele><time>2026-04-19T10:28:15.998Z</time></trkpt><trkpt lat="43.30134679480876" lon="10.855788557080926"><ele>284.0</ele><time>2026-04-19T10:28:16.998Z</time></trkpt><trkpt lat="43.301471461095765" lon="10.855846814292043"><ele>281.6666666666667</ele><time>2026-04-19T10:28:17.998Z</time></trkpt><trkpt lat="43.30161751834307" lon="10.85590838189252"><ele>279.3333333333333</ele><time>2026-04-19T10:28:18.998Z</time></trkpt><trkpt lat="43.30176301003037" lon="10.855916354268185"><ele>277.0</ele><time>2026-04-19T10:28:19.998Z</time></trkpt><trkpt lat="43.301915085778234" lon="10.855925799710725"><ele>276.3333333333333</ele><time>2026-04-19T10:28:20.998Z</time></trkpt><trkpt lat="43.302071615871874" lon="10.85595626189639"><ele>275.6666666666667</ele><time>2026-04-19T10:28:21.998Z</time></trkpt><trkpt lat="43.30222956745269" lon="10.85596797928472"><ele>275.0</ele><time>2026-04-19T10:28:22.998Z</time></trkpt><trkpt lat="43.30237952778537" lon="10.855939252364083"><ele>274.25</ele><time>2026-04-19T10:28:23.998Z</time></trkpt><trkpt lat="43.302525535761596" lon="10.855906753313446"><ele>273.5</ele><time>2026-04-19T10:28:24.998Z</time></trkpt><trkpt lat="43.302662030122065" lon="10.855840205811457"><ele>272.75</ele><time>2026-04-19T10:28:25.998Z</time></trkpt><trkpt lat="43.302774675550026" lon="10.855728793559198"><ele>272.0</ele><time>2026-04-19T10:28:26.998Z</time></trkpt><trkpt lat="43.302870520371734" lon="10.855587374633986"><ele>272.0</ele><time>2026-04-19T10:28:27.998Z</time></trkpt><trkpt lat="43.302979170961905" lon="10.855446866096262"><ele>272.0</ele><time>2026-04-19T10:28:29Z</time></trkpt><trkpt lat="43.30306870274366" lon="10.855294758636704"><ele>272.0</ele><time>2026-04-19T10:28:30Z</time></trkpt><trkpt lat="43.30314755781723" lon="10.855158481512499"><ele>272.0</ele><time>2026-04-19T10:28:31Z</time></trkpt><trkpt lat="43.303222889688314" lon="10.855028293507427"><ele>272.83333333333337</ele><time>2026-04-19T10:28:32Z</time></trkpt><trkpt lat="43.30329181620489" lon="10.854909362920006"><ele>273.6666666666667</ele><time>2026-04-19T10:28:33Z</time></trkpt><trkpt lat="43.30335288486252" lon="10.85480520694748"><ele>274.5</ele><time>2026-04-19T10:28:34Z</time></trkpt><trkpt lat="43.30340612071998" lon="10.854714410259946"><ele>275.3333333333333</ele><time>2026-04-19T10:28:35Z</time></trkpt><trkpt lat="43.30344156781662" lon="10.85463968351117"><ele>276.16666666666663</ele><time>2026-04-19T10:28:36Z</time></trkpt><trkpt lat="43.303500219517595" lon="10.854562526158727"><ele>277.0</ele><time>2026-04-19T10:28:38Z</time></trkpt><trkpt lat="43.303535753593295" lon="10.854479589232898"><ele>277.0</ele><time>2026-04-19T10:28:42Z</time></trkpt><trkpt lat="43.303595692600766" lon="10.854412414158148"><ele>277.0</ele><time>2026-04-19T10:32:15.999Z</time></trkpt><trkpt lat="43.303659169432514" lon="10.854279988530513"><ele>277.0</ele><time>2026-04-19T10:32:17.999Z</time></trkpt><trkpt lat="43.30369779307097" lon="10.854211094163361"><ele>277.0</ele><time>2026-04-19T10:32:18.999Z</time></trkpt><trkpt lat="43.30375048861361" lon="10.854126807365775"><ele>277.0</ele><time>2026-04-19T10:32:19.999Z</time></trkpt><trkpt lat="43.30380463020191" lon="10.8540376357396"><ele>277.0</ele><time>2026-04-19T10:32:20.999Z</time></trkpt><trkpt lat="43.30386024741826" lon="10.85394929100157"><ele>276.4</ele><time>2026-04-19T10:32:21.999Z</time></trkpt><trkpt lat="43.303927816723615" lon="10.853857377701354"><ele>275.79999999999995</ele><time>2026-04-19T10:32:22.999Z</time></trkpt><trkpt lat="43.304006932417515" lon="10.853758604865261"><ele>275.2</ele><time>2026-04-19T10:32:23.999Z</time></trkpt><trkpt lat="43.30409084529657" lon="10.853659046818642"><ele>274.59999999999997</ele><time>2026-04-19T10:32:24.999Z</time></trkpt><trkpt lat="43.304179754489034" lon="10.853550432651085"><ele>274.0</ele><time>2026-04-19T10:32:25.999Z</time></trkpt><trkpt lat="43.304268065223226" lon="10.853451418179556"><ele>276.0</ele><time>2026-04-19T10:32:26.999Z</time></trkpt><trkpt lat="43.30437005125054" lon="10.853346485766405"><ele>278.0</ele><time>2026-04-19T10:32:27.999Z</time></trkpt><trkpt lat="43.304475402358385" lon="10.853249540950507"><ele>280.0</ele><time>2026-04-19T10:32:28.998Z</time></trkpt><trkpt lat="43.304589497727925" lon="10.853161072166056"><ele>282.0</ele><time>2026-04-19T10:32:29.998Z</time></trkpt><trkpt lat="43.30471246146876" lon="10.853070725348706"><ele>280.0</ele><time>2026-04-19T10:32:30.998Z</time></trkpt><trkpt lat="43.304840653705476" lon="10.852980799852189"><ele>278.0</ele><time>2026-04-19T10:32:31.998Z</time></trkpt><trkpt lat="43.30497539287848" lon="10.852896736547526"><ele>276.0</ele><time>2026-04-19T10:32:32.998Z</time></trkpt><trkpt lat="43.305119845781185" lon="10.852820584481872"><ele>274.0</ele><time>2026-04-19T10:32:33.998Z</time></trkpt><trkpt lat="43.305269976197934" lon="10.852752487814149"><ele>274.0</ele><time>2026-04-19T10:32:34.998Z</time></trkpt><trkpt lat="43.30542802396242" lon="10.852688238899077"><ele>274.0</ele><time>2026-04-19T10:32:35.998Z</time></trkpt><trkpt lat="43.305583429620775" lon="10.852627961328785"><ele>274.0</ele><time>2026-04-19T10:32:36.998Z</time></trkpt><trkpt lat="43.30574498934408" lon="10.852563974705133"><ele>275.0</ele><time>2026-04-19T10:32:37.998Z</time></trkpt><trkpt lat="43.30590589493461" lon="10.852496025374034"><ele>276.0</ele><time>2026-04-19T10:32:38.998Z</time></trkpt><trkpt lat="43.3060682743409" lon="10.852420903706202"><ele>277.0</ele><time>2026-04-19T10:32:39.998Z</time></trkpt><trkpt lat="43.30623618078068" lon="10.852339760606752"><ele>277.0</ele><time>2026-04-19T10:32:41Z</time></trkpt><trkpt lat="43.306402579140055" lon="10.852248460197066"><ele>277.0</ele><time>2026-04-19T10:32:42Z</time></trkpt><trkpt lat="43.30657005695492" lon="10.852140056101042"><ele>277.0</ele><time>2026-04-19T10:32:43Z</time></trkpt><trkpt lat="43.306738630203476" lon="10.852026844583161"><ele>276.0</ele><time>2026-04-19T10:32:44Z</time></trkpt><trkpt lat="43.306905752414266" lon="10.851905601082844"><ele>275.0</ele><time>2026-04-19T10:32:45Z</time></trkpt><trkpt lat="43.30707486250591" lon="10.851785690679046"><ele>274.0</ele><time>2026-04-19T10:32:46Z</time></trkpt><trkpt lat="43.307241783593646" lon="10.851665594364068"><ele>273.3333333333333</ele><time>2026-04-19T10:32:47Z</time></trkpt><trkpt lat="43.30740427244812" lon="10.851547411646916"><ele>272.6666666666667</ele><time>2026-04-19T10:32:48Z</time></trkpt><trkpt lat="43.307563119535274" lon="10.851430223901184"><ele>272.0</ele><time>2026-04-19T10:32:49Z</time></trkpt><trkpt lat="43.30771774413183" lon="10.851309569327"><ele>272.0</ele><time>2026-04-19T10:32:50Z</time></trkpt><trkpt lat="43.30786848113106" lon="10.851189492318134"><ele>272.0</ele><time>2026-04-19T10:32:51Z</time></trkpt><trkpt lat="43.30801754301702" lon="10.85106600582779"><ele>272.0</ele><time>2026-04-19T10:32:52Z</time></trkpt><trkpt lat="43.308172547389105" lon="10.850965768311811"><ele>273.0</ele><time>2026-04-19T10:32:53Z</time></trkpt><trkpt lat="43.30831830246645" lon="10.850848488929216"><ele>274.0</ele><time>2026-04-19T10:32:54Z</time></trkpt><trkpt lat="43.308454386001365" lon="10.850720936687754"><ele>275.0</ele><time>2026-04-19T10:32:55Z</time></trkpt><trkpt lat="43.308594238887316" lon="10.850614296339954"><ele>275.0</ele><time>2026-04-19T10:32:56Z</time></trkpt><trkpt lat="43.308729376449996" lon="10.85050261991113"><ele>275.0</ele><time>2026-04-19T10:32:57Z</time></trkpt><trkpt lat="43.308867900865856" lon="10.850406996898752"><ele>275.0</ele><time>2026-04-19T10:32:58Z</time></trkpt><trkpt lat="43.30898339758319" lon="10.850274046957118"><ele>275.75</ele><time>2026-04-19T10:32:59Z</time></trkpt><trkpt lat="43.3090835654929" lon="10.850119848775112"><ele>276.5</ele><time>2026-04-19T10:33:00Z</time></trkpt><trkpt lat="43.30916381037747" lon="10.849952776709042"><ele>277.25</ele><time>2026-04-19T10:33:01Z</time></trkpt><trkpt lat="43.309233980970404" lon="10.849785961248523"><ele>278.0</ele><time>2026-04-19T10:33:02Z</time></trkpt><trkpt lat="43.30929688540443" lon="10.84962132585669"><ele>278.0</ele><time>2026-04-19T10:33:03Z</time></trkpt><trkpt lat="43.30935549408692" lon="10.849462770119963"><ele>278.0</ele><time>2026-04-19T10:33:04Z</time></trkpt><trkpt lat="43.309411218685085" lon="10.849307357163562"><ele>278.0</ele><time>2026-04-19T10:33:05Z</time></trkpt><trkpt lat="43.30946755423313" lon="10.849158594534211"><ele>278.0</ele><time>2026-04-19T10:33:06Z</time></trkpt><trkpt lat="43.30953117994798" lon="10.849031661310642"><ele>278.5</ele><time>2026-04-19T10:33:07Z</time></trkpt><trkpt lat="43.309603932471475" lon="10.848914400537017"><ele>279.0</ele><time>2026-04-19T10:33:08Z</time></trkpt><trkpt lat="43.30969005143408" lon="10.848815296424288"><ele>279.5</ele><time>2026-04-19T10:33:09Z</time></trkpt><trkpt lat="43.30979415897157" lon="10.848738080026022"><ele>280.0</ele><time>2026-04-19T10:33:10Z</time></trkpt><trkpt lat="43.309901497523335" lon="10.848668936253237"><ele>280.0</ele><time>2026-04-19T10:33:11Z</time></trkpt><trkpt lat="43.31001492894962" lon="10.848606610371366"><ele>280.0</ele><time>2026-04-19T10:33:12Z</time></trkpt><trkpt lat="43.3101243573479" lon="10.848520596219698"><ele>280.0</ele><time>2026-04-19T10:33:13Z</time></trkpt><trkpt lat="43.31023350067224" lon="10.848410453705636"><ele>280.0</ele><time>2026-04-19T10:33:14Z</time></trkpt><trkpt lat="43.31034570411576" lon="10.848288572427803"><ele>280.3333333333333</ele><time>2026-04-19T10:33:15Z</time></trkpt><trkpt lat="43.31046182626012" lon="10.84816243450687"><ele>280.6666666666667</ele><time>2026-04-19T10:33:16Z</time></trkpt><trkpt lat="43.31057937978606" lon="10.848032532119552"><ele>281.0</ele><time>2026-04-19T10:33:17Z</time></trkpt><trkpt lat="43.31070539072642" lon="10.847894262055165"><ele>281.0</ele><time>2026-04-19T10:33:18Z</time></trkpt><trkpt lat="43.31083109142072" lon="10.84775649709681"><ele>281.0</ele><time>2026-04-19T10:33:19Z</time></trkpt><trkpt lat="43.3109507904294" lon="10.84762530982909"><ele>281.0</ele><time>2026-04-19T10:33:20Z</time></trkpt><trkpt lat="43.31108055547951" lon="10.847490280678318"><ele>279.0</ele><time>2026-04-19T10:33:21Z</time></trkpt><trkpt lat="43.311205355678666" lon="10.847375039850538"><ele>277.0</ele><time>2026-04-19T10:33:22Z</time></trkpt><trkpt lat="43.31133810781075" lon="10.847325725964431"><ele>275.0</ele><time>2026-04-19T10:33:23Z</time></trkpt><trkpt lat="43.311453484689515" lon="10.847324461838955"><ele>273.0</ele><time>2026-04-19T10:33:24Z</time></trkpt><trkpt lat="43.311590055468464" lon="10.84737304812143"><ele>272.75</ele><time>2026-04-19T10:33:25Z</time></trkpt><trkpt lat="43.31170401961791" lon="10.847492450076098"><ele>272.5</ele><time>2026-04-19T10:33:26Z</time></trkpt><trkpt lat="43.31179859646082" lon="10.8476447607374"><ele>272.25</ele><time>2026-04-19T10:33:27Z</time></trkpt><trkpt lat="43.31188788329949" lon="10.847795125591071"><ele>272.0</ele><time>2026-04-19T10:33:28Z</time></trkpt><trkpt lat="43.31198470462163" lon="10.847918469552305"><ele>272.25</ele><time>2026-04-19T10:33:29Z</time></trkpt><trkpt lat="43.31211044940915" lon="10.847989132835151"><ele>272.5</ele><time>2026-04-19T10:33:30Z</time></trkpt><trkpt lat="43.31225613751874" lon="10.84800614167754"><ele>272.75</ele><time>2026-04-19T10:33:31Z</time></trkpt><trkpt lat="43.31240779408292" lon="10.848008019344118"><ele>273.0</ele><time>2026-04-19T10:33:32Z</time></trkpt><trkpt lat="43.312556982801105" lon="10.847956632086518"><ele>273.0</ele><time>2026-04-19T10:33:33Z</time></trkpt><trkpt lat="43.312689507901744" lon="10.84789767231293"><ele>273.0</ele><time>2026-04-19T10:33:34Z</time></trkpt><trkpt lat="43.31281288449996" lon="10.847845246960118"><ele>273.0</ele><time>2026-04-19T10:33:35Z</time></trkpt><trkpt lat="43.31293263879124" lon="10.847836721685454"><ele>273.0</ele><time>2026-04-19T10:33:36Z</time></trkpt><trkpt lat="43.31305129951378" lon="10.847876852883678"><ele>271.75</ele><time>2026-04-19T10:33:37Z</time></trkpt><trkpt lat="43.313151263451466" lon="10.84800389466051"><ele>270.5</ele><time>2026-04-19T10:33:38Z</time></trkpt><trkpt lat="43.31325357128732" lon="10.848126367364868"><ele>269.25</ele><time>2026-04-19T10:33:39Z</time></trkpt><trkpt lat="43.31339424251362" lon="10.848179845435707"><ele>268.0</ele><time>2026-04-19T10:33:39.999Z</time></trkpt><trkpt lat="43.31355230329392" lon="10.848153577224513"><ele>268.0</ele><time>2026-04-19T10:33:40.999Z</time></trkpt><trkpt lat="43.313707653697435" lon="10.848072298220673"><ele>268.0</ele><time>2026-04-19T10:33:41.999Z</time></trkpt><trkpt lat="43.31387657990995" lon="10.848015151818673"><ele>268.0</ele><time>2026-04-19T10:33:42.999Z</time></trkpt><trkpt lat="43.31403987721871" lon="10.847940955742942"><ele>268.0</ele><time>2026-04-19T10:33:43.999Z</time></trkpt><trkpt lat="43.31419487586988" lon="10.847826354574016"><ele>268.0</ele><time>2026-04-19T10:33:44.999Z</time></trkpt><trkpt lat="43.31435500085205" lon="10.847775794426632"><ele>268.0</ele><time>2026-04-19T10:33:45.999Z</time></trkpt><trkpt lat="43.314509583845684" lon="10.847756017719353"><ele>268.0</ele><time>2026-04-19T10:33:46.999Z</time></trkpt><trkpt lat="43.31466203538501" lon="10.847793960409362"><ele>268.0</ele><time>2026-04-19T10:33:47.999Z</time></trkpt><trkpt lat="43.31480420862778" lon="10.847872152958477"><ele>268.0</ele><time>2026-04-19T10:33:48.999Z</time></trkpt><trkpt lat="43.314946637985905" lon="10.847956752644517"><ele>266.5</ele><time>2026-04-19T10:33:49.999Z</time></trkpt><trkpt lat="43.315089741425446" lon="10.84796556189496"><ele>265.0</ele><time>2026-04-19T10:33:50.999Z</time></trkpt><trkpt lat="43.31521646116072" lon="10.847872603736034"><ele>263.5</ele><time>2026-04-19T10:33:51.999Z</time></trkpt><trkpt lat="43.31532691475086" lon="10.847748163262812"><ele>262.0</ele><time>2026-04-19T10:33:52.999Z</time></trkpt><trkpt lat="43.315436694796595" lon="10.847650831482017"><ele>261.0</ele><time>2026-04-19T10:33:53.999Z</time></trkpt><trkpt lat="43.31555770975422" lon="10.84761112295868"><ele>260.0</ele><time>2026-04-19T10:33:54.999Z</time></trkpt><trkpt lat="43.315683325432474" lon="10.847626742900736"><ele>259.0</ele><time>2026-04-19T10:33:55.999Z</time></trkpt><trkpt lat="43.3158097716775" lon="10.847675500642861"><ele>258.0</ele><time>2026-04-19T10:33:56.999Z</time></trkpt><trkpt lat="43.315944213020856" lon="10.847705320644362"><ele>256.75</ele><time>2026-04-19T10:33:57.999Z</time></trkpt><trkpt lat="43.31608039528956" lon="10.847703758225036"><ele>255.5</ele><time>2026-04-19T10:33:58.999Z</time></trkpt><trkpt lat="43.31622986649532" lon="10.84768701537203"><ele>254.25</ele><time>2026-04-19T10:33:59.999Z</time></trkpt><trkpt lat="43.316383909332515" lon="10.84771058484599"><ele>253.0</ele><time>2026-04-19T10:34:00.999Z</time></trkpt><trkpt lat="43.31655048898843" lon="10.847757853966234"><ele>249.66666666666666</ele><time>2026-04-19T10:34:01.999Z</time></trkpt><trkpt lat="43.31671758670991" lon="10.84780345188436"><ele>246.33333333333331</ele><time>2026-04-19T10:34:02.999Z</time></trkpt><trkpt lat="43.316881730310406" lon="10.847839962944422"><ele>243.0</ele><time>2026-04-19T10:34:03.999Z</time></trkpt><trkpt lat="43.3170442427504" lon="10.847868528335734"><ele>243.0</ele><time>2026-04-19T10:34:04.999Z</time></trkpt><trkpt lat="43.317206210151326" lon="10.84790163814629"><ele>243.0</ele><time>2026-04-19T10:34:05.999Z</time></trkpt><trkpt lat="43.317366592060985" lon="10.847935692978174"><ele>243.0</ele><time>2026-04-19T10:34:06.999Z</time></trkpt><trkpt lat="43.31752646286392" lon="10.847961010774823"><ele>242.0</ele><time>2026-04-19T10:34:07.999Z</time></trkpt><trkpt lat="43.3176882877285" lon="10.84795680637861"><ele>241.0</ele><time>2026-04-19T10:34:08.999Z</time></trkpt><trkpt lat="43.31784036112281" lon="10.847913687099073"><ele>240.0</ele><time>2026-04-19T10:34:09.999Z</time></trkpt><trkpt lat="43.318001820130505" lon="10.847843356709753"><ele>240.66666666666669</ele><time>2026-04-19T10:34:10.999Z</time></trkpt><trkpt lat="43.318150664345005" lon="10.847739490279588"><ele>241.33333333333334</ele><time>2026-04-19T10:34:11.999Z</time></trkpt><trkpt lat="43.3182816612414" lon="10.847602665515574"><ele>242.0</ele><time>2026-04-19T10:34:12.999Z</time></trkpt><trkpt lat="43.31841711231911" lon="10.847484424469558"><ele>242.0</ele><time>2026-04-19T10:34:13.999Z</time></trkpt><trkpt lat="43.31853555043933" lon="10.847354459286121"><ele>242.0</ele><time>2026-04-19T10:34:14.999Z</time></trkpt><trkpt lat="43.31864663162184" lon="10.847232044334755"><ele>242.0</ele><time>2026-04-19T10:34:15.999Z</time></trkpt><trkpt lat="43.31875295988227" lon="10.847123649381311"><ele>242.0</ele><time>2026-04-19T10:34:16.999Z</time></trkpt><trkpt lat="43.318857306305034" lon="10.847038911585889"><ele>239.39999999999998</ele><time>2026-04-19T10:34:17.999Z</time></trkpt><trkpt lat="43.31896039166626" lon="10.847004125542382"><ele>236.79999999999998</ele><time>2026-04-19T10:34:18.999Z</time></trkpt><trkpt lat="43.31905423688291" lon="10.847016968723961"><ele>234.2</ele><time>2026-04-19T10:34:19.999Z</time></trkpt><trkpt lat="43.31911668756076" lon="10.847112761683357"><ele>231.6</ele><time>2026-04-19T10:34:20.999Z</time></trkpt><trkpt lat="43.319142407409906" lon="10.847248630672874"><ele>229.0</ele><time>2026-04-19T10:34:21.999Z</time></trkpt><trkpt lat="43.31913926603396" lon="10.847397156378785"><ele>229.0</ele><time>2026-04-19T10:34:22.999Z</time></trkpt><trkpt lat="43.31912854532258" lon="10.847541878268839"><ele>229.0</ele><time>2026-04-19T10:34:23.999Z</time></trkpt><trkpt lat="43.3191183522529" lon="10.847691604815926"><ele>229.0</ele><time>2026-04-19T10:34:24.999Z</time></trkpt><trkpt lat="43.31908908681268" lon="10.847861060476953"><ele>229.0</ele><time>2026-04-19T10:34:25.999Z</time></trkpt><trkpt lat="43.3190884905678" lon="10.848020028789591"><ele>228.75</ele><time>2026-04-19T10:34:26.999Z</time></trkpt><trkpt lat="43.31911241801579" lon="10.848173008441895"><ele>228.5</ele><time>2026-04-19T10:34:27.999Z</time></trkpt><trkpt lat="43.3191444383116" lon="10.848328318745324"><ele>228.25</ele><time>2026-04-19T10:34:28.999Z</time></trkpt><trkpt lat="43.31917004432203" lon="10.84850580781763"><ele>228.0</ele><time>2026-04-19T10:34:29.999Z</time></trkpt><trkpt lat="43.31924544216543" lon="10.848701473209175"><ele>228.0</ele><time>2026-04-19T10:34:30.999Z</time></trkpt><trkpt lat="43.319326426541835" lon="10.848919451110769"><ele>228.0</ele><time>2026-04-19T10:34:31.999Z</time></trkpt><trkpt lat="43.31942096051127" lon="10.849119029354203"><ele>228.0</ele><time>2026-04-19T10:34:32.999Z</time></trkpt><trkpt lat="43.31949528249747" lon="10.849297946622983"><ele>226.33333333333331</ele><time>2026-04-19T10:34:33.998Z</time></trkpt><trkpt lat="43.319577390083325" lon="10.849483136466954"><ele>224.66666666666666</ele><time>2026-04-19T10:34:34.998Z</time></trkpt><trkpt lat="43.31966293788122" lon="10.849658359734194"><ele>223.0</ele><time>2026-04-19T10:34:35.998Z</time></trkpt><trkpt lat="43.31974345931884" lon="10.849867436198075"><ele>220.0</ele><time>2026-04-19T10:34:36.998Z</time></trkpt><trkpt lat="43.319834640456016" lon="10.850068265983767"><ele>217.0</ele><time>2026-04-19T10:34:37.998Z</time></trkpt><trkpt lat="43.31992366028425" lon="10.850281618005884"><ele>214.0</ele><time>2026-04-19T10:34:38.998Z</time></trkpt><trkpt lat="43.320012773668516" lon="10.850497365084896"><ele>212.66666666666666</ele><time>2026-04-19T10:34:39.998Z</time></trkpt><trkpt lat="43.32009519440484" lon="10.850707328875112"><ele>211.33333333333331</ele><time>2026-04-19T10:34:40.998Z</time></trkpt><trkpt lat="43.32018273798023" lon="10.850914438027159"><ele>210.0</ele><time>2026-04-19T10:34:41.998Z</time></trkpt><trkpt lat="43.3202710377769" lon="10.851114848351664"><ele>207.66666666666669</ele><time>2026-04-19T10:34:42.998Z</time></trkpt><trkpt lat="43.32038083039411" lon="10.851311000959445"><ele>205.33333333333334</ele><time>2026-04-19T10:34:43.998Z</time></trkpt><trkpt lat="43.32050578556852" lon="10.851494978108207"><ele>203.0</ele><time>2026-04-19T10:34:44.998Z</time></trkpt><trkpt lat="43.32063782582736" lon="10.851683784367902"><ele>201.0</ele><time>2026-04-19T10:34:45.998Z</time></trkpt><trkpt lat="43.32076846943359" lon="10.851874519288481"><ele>199.0</ele><time>2026-04-19T10:34:47Z</time></trkpt><trkpt lat="43.32089864680339" lon="10.852074043046436"><ele>197.0</ele><time>2026-04-19T10:34:48Z</time></trkpt><trkpt lat="43.321030289172135" lon="10.852274426203596"><ele>197.0</ele><time>2026-04-19T10:34:49Z</time></trkpt><trkpt lat="43.32116702907159" lon="10.85247922797817"><ele>197.0</ele><time>2026-04-19T10:34:50Z</time></trkpt><trkpt lat="43.32130874226009" lon="10.852682258249487"><ele>197.0</ele><time>2026-04-19T10:34:51Z</time></trkpt><trkpt lat="43.32144271989009" lon="10.852889932573607"><ele>196.33333333333334</ele><time>2026-04-19T10:34:52Z</time></trkpt><trkpt lat="43.321580032290285" lon="10.853099981349308"><ele>195.66666666666669</ele><time>2026-04-19T10:34:53Z</time></trkpt><trkpt lat="43.32171335839197" lon="10.853297433868386"><ele>195.0</ele><time>2026-04-19T10:34:54Z</time></trkpt><trkpt lat="43.32184817876431" lon="10.853499869135229"><ele>194.66666666666669</ele><time>2026-04-19T10:34:55Z</time></trkpt><trkpt lat="43.32198232509636" lon="10.853702829088318"><ele>194.33333333333334</ele><time>2026-04-19T10:34:56Z</time></trkpt><trkpt lat="43.32211280462828" lon="10.853904892620735"><ele>194.0</ele><time>2026-04-19T10:34:57Z</time></trkpt><trkpt lat="43.322238659392234" lon="10.854100017728536"><ele>192.0</ele><time>2026-04-19T10:34:58Z</time></trkpt><trkpt lat="43.322360164227995" lon="10.85429290399612"><ele>190.0</ele><time>2026-04-19T10:34:59Z</time></trkpt><trkpt lat="43.32246942315351" lon="10.854472659619693"><ele>188.0</ele><time>2026-04-19T10:35:00Z</time></trkpt><trkpt lat="43.32256270371073" lon="10.854671861430289"><ele>188.0</ele><time>2026-04-19T10:35:01Z</time></trkpt><trkpt lat="43.3226097113336" lon="10.854905562317894"><ele>188.0</ele><time>2026-04-19T10:35:02Z</time></trkpt><trkpt lat="43.322665213245635" lon="10.85514969242997"><ele>188.0</ele><time>2026-04-19T10:35:03Z</time></trkpt><trkpt lat="43.32269059108355" lon="10.8553962755289"><ele>186.0</ele><time>2026-04-19T10:35:04Z</time></trkpt><trkpt lat="43.32272640688665" lon="10.855631190043335"><ele>184.0</ele><time>2026-04-19T10:35:05Z</time></trkpt><trkpt lat="43.322770069253636" lon="10.855840361832875"><ele>182.0</ele><time>2026-04-19T10:35:06Z</time></trkpt><trkpt lat="43.32282797831054" lon="10.856020065951705"><ele>180.5</ele><time>2026-04-19T10:35:07Z</time></trkpt><trkpt lat="43.322915544819196" lon="10.856176610835547"><ele>179.0</ele><time>2026-04-19T10:35:08Z</time></trkpt><trkpt lat="43.32303161280689" lon="10.856291594820645"><ele>177.5</ele><time>2026-04-19T10:35:09Z</time></trkpt><trkpt lat="43.323159610916996" lon="10.856367847669512"><ele>176.0</ele><time>2026-04-19T10:35:10Z</time></trkpt><trkpt lat="43.323292279473016" lon="10.856444739482741"><ele>176.0</ele><time>2026-04-19T10:35:11Z</time></trkpt><trkpt lat="43.323413945348555" lon="10.856538917805064"><ele>176.0</ele><time>2026-04-19T10:35:12Z</time></trkpt><trkpt lat="43.32353632235036" lon="10.85663626545853"><ele>176.0</ele><time>2026-04-19T10:35:13Z</time></trkpt><trkpt lat="43.32365761611183" lon="10.856725059832506"><ele>176.0</ele><time>2026-04-19T10:35:14Z</time></trkpt><trkpt lat="43.32378114947715" lon="10.856822654389441"><ele>173.5</ele><time>2026-04-19T10:35:15Z</time></trkpt><trkpt lat="43.3239026964911" lon="10.856903319362186"><ele>171.0</ele><time>2026-04-19T10:35:16Z</time></trkpt><trkpt lat="43.32401974388367" lon="10.856973020620417"><ele>168.5</ele><time>2026-04-19T10:35:17Z</time></trkpt><trkpt lat="43.32413507029618" lon="10.857017293763304"><ele>166.0</ele><time>2026-04-19T10:35:18Z</time></trkpt><trkpt lat="43.32423765750579" lon="10.85700385753883"><ele>166.0</ele><time>2026-04-19T10:35:19Z</time></trkpt><trkpt lat="43.32433080713783" lon="10.856966685328162"><ele>166.0</ele><time>2026-04-19T10:35:20Z</time></trkpt><trkpt lat="43.32441374883155" lon="10.856895586407623"><ele>166.0</ele><time>2026-04-19T10:35:21Z</time></trkpt><trkpt lat="43.32447232934245" lon="10.856790524919358"><ele>166.0</ele><time>2026-04-19T10:35:22Z</time></trkpt><trkpt lat="43.32450409342766" lon="10.856665996526562"><ele>166.0</ele><time>2026-04-19T10:35:23Z</time></trkpt><trkpt lat="43.324522630667445" lon="10.85652201141306"><ele>166.25</ele><time>2026-04-19T10:35:24Z</time></trkpt><trkpt lat="43.324520563439954" lon="10.856364674057785"><ele>166.5</ele><time>2026-04-19T10:35:25Z</time></trkpt><trkpt lat="43.32448123227571" lon="10.856210323248314"><ele>166.75</ele><time>2026-04-19T10:35:26Z</time></trkpt><trkpt lat="43.3244240252313" lon="10.856076898705675"><ele>167.0</ele><time>2026-04-19T10:35:27Z</time></trkpt><trkpt lat="43.32434298542506" lon="10.855948150391843"><ele>167.0</ele><time>2026-04-19T10:35:28Z</time></trkpt><trkpt lat="43.32427721089203" lon="10.85581839518724"><ele>167.0</ele><time>2026-04-19T10:35:29Z</time></trkpt><trkpt lat="43.3241941201037" lon="10.855671936947614"><ele>167.0</ele><time>2026-04-19T10:35:30Z</time></trkpt><trkpt lat="43.32412237444971" lon="10.855523293757042"><ele>167.0</ele><time>2026-04-19T10:35:31Z</time></trkpt><trkpt lat="43.324077631805885" lon="10.855369056038334"><ele>167.0</ele><time>2026-04-19T10:35:32Z</time></trkpt><trkpt lat="43.32406236720738" lon="10.855188496395133"><ele>167.0</ele><time>2026-04-19T10:35:33Z</time></trkpt><trkpt lat="43.32405811253104" lon="10.854999300559099"><ele>167.0</ele><time>2026-04-19T10:35:34Z</time></trkpt><trkpt lat="43.32405147227445" lon="10.854815495842168"><ele>167.0</ele><time>2026-04-19T10:35:35Z</time></trkpt><trkpt lat="43.324030864712114" lon="10.854629964574814"><ele>165.5</ele><time>2026-04-19T10:35:36Z</time></trkpt><trkpt lat="43.32400062968019" lon="10.854464263218546"><ele>164.0</ele><time>2026-04-19T10:35:37Z</time></trkpt><trkpt lat="43.32396342614588" lon="10.854304382499775"><ele>162.5</ele><time>2026-04-19T10:35:38Z</time></trkpt><trkpt lat="43.3239784871925" lon="10.854133593456567"><ele>161.0</ele><time>2026-04-19T10:35:39Z</time></trkpt><trkpt lat="43.324008605874745" lon="10.853989761674532"><ele>160.0</ele><time>2026-04-19T10:35:40Z</time></trkpt><trkpt lat="43.324055424536894" lon="10.853864626729507"><ele>159.0</ele><time>2026-04-19T10:35:41Z</time></trkpt><trkpt lat="43.32411143099763" lon="10.853738589667557"><ele>158.0</ele><time>2026-04-19T10:35:42Z</time></trkpt><trkpt lat="43.324186078945374" lon="10.853624874773612"><ele>157.0</ele><time>2026-04-19T10:35:43Z</time></trkpt><trkpt lat="43.32428342564175" lon="10.853526914006244"><ele>156.0</ele><time>2026-04-19T10:35:44Z</time></trkpt><trkpt lat="43.324389605280594" lon="10.853473778366775"><ele>155.75</ele><time>2026-04-19T10:35:44.999Z</time></trkpt><trkpt lat="43.32450764299215" lon="10.853448696569796"><ele>155.5</ele><time>2026-04-19T10:35:45.999Z</time></trkpt><trkpt lat="43.324638541784836" lon="10.853442007172749"><ele>155.25</ele><time>2026-04-19T10:35:46.999Z</time></trkpt><trkpt lat="43.324780991976624" lon="10.853448691799432"><ele>155.0</ele><time>2026-04-19T10:35:47.999Z</time></trkpt><trkpt lat="43.32492333705358" lon="10.853462797492048"><ele>152.0</ele><time>2026-04-19T10:35:48.999Z</time></trkpt><trkpt lat="43.325067693379125" lon="10.853481470323343"><ele>149.0</ele><time>2026-04-19T10:35:49.999Z</time></trkpt><trkpt lat="43.32521930149412" lon="10.853505957948657"><ele>146.0</ele><time>2026-04-19T10:35:50.999Z</time></trkpt><trkpt lat="43.32537663909871" lon="10.853548286894892"><ele>146.0</ele><time>2026-04-19T10:35:51.999Z</time></trkpt><trkpt lat="43.32554027986443" lon="10.853604894948676"><ele>146.0</ele><time>2026-04-19T10:35:52.999Z</time></trkpt><trkpt lat="43.32569771107039" lon="10.85367575880373"><ele>146.0</ele><time>2026-04-19T10:35:53.999Z</time></trkpt><trkpt lat="43.32585824551123" lon="10.85373476323179"><ele>144.33333333333331</ele><time>2026-04-19T10:35:54.999Z</time></trkpt><trkpt lat="43.32600580252183" lon="10.85383736061882"><ele>142.66666666666666</ele><time>2026-04-19T10:35:55.999Z</time></trkpt><trkpt lat="43.326152769960046" lon="10.853963293276767"><ele>141.0</ele><time>2026-04-19T10:35:56.999Z</time></trkpt><trkpt lat="43.32629752159289" lon="10.854112828240972"><ele>139.0</ele><time>2026-04-19T10:35:57.999Z</time></trkpt><trkpt lat="43.326439069633814" lon="10.85427997151709"><ele>137.0</ele><time>2026-04-19T10:35:58.999Z</time></trkpt><trkpt lat="43.326571924244" lon="10.854451677275202"><ele>135.0</ele><time>2026-04-19T10:35:59.999Z</time></trkpt><trkpt lat="43.3266980236696" lon="10.854631270768875"><ele>134.66666666666666</ele><time>2026-04-19T10:36:00.999Z</time></trkpt><trkpt lat="43.32681533480946" lon="10.854810513281736"><ele>134.33333333333331</ele><time>2026-04-19T10:36:01.999Z</time></trkpt><trkpt lat="43.32693506522644" lon="10.854997838905586"><ele>134.0</ele><time>2026-04-19T10:36:02.999Z</time></trkpt><trkpt lat="43.32703744558702" lon="10.855190770345096"><ele>134.66666666666666</ele><time>2026-04-19T10:36:03.999Z</time></trkpt><trkpt lat="43.32710771508777" lon="10.85540455274599"><ele>135.33333333333334</ele><time>2026-04-19T10:36:04.999Z</time></trkpt><trkpt lat="43.32717541222978" lon="10.855627531366569"><ele>136.0</ele><time>2026-04-19T10:36:05.999Z</time></trkpt><trkpt lat="43.32725571708522" lon="10.855842387720129"><ele>135.33333333333334</ele><time>2026-04-19T10:36:06.999Z</time></trkpt><trkpt lat="43.32739054668838" lon="10.856030269284084"><ele>134.66666666666666</ele><time>2026-04-19T10:36:07.999Z</time></trkpt><trkpt lat="43.32752899223209" lon="10.856166520532254"><ele>134.0</ele><time>2026-04-19T10:36:08.999Z</time></trkpt><trkpt lat="43.327647423474055" lon="10.856266500552058"><ele>134.0</ele><time>2026-04-19T10:36:09.999Z</time></trkpt><trkpt lat="43.3277711860927" lon="10.856389484925216"><ele>134.0</ele><time>2026-04-19T10:36:10.999Z</time></trkpt><trkpt lat="43.327901384593346" lon="10.856513147987998"><ele>134.0</ele><time>2026-04-19T10:36:11.999Z</time></trkpt><trkpt lat="43.3280406234711" lon="10.856624619156431"><ele>133.0</ele><time>2026-04-19T10:36:12.999Z</time></trkpt><trkpt lat="43.32819441715902" lon="10.856713249628514"><ele>132.0</ele><time>2026-04-19T10:36:13.999Z</time></trkpt><trkpt lat="43.32835108911258" lon="10.85678210664985"><ele>131.0</ele><time>2026-04-19T10:36:14.999Z</time></trkpt><trkpt lat="43.328505373295464" lon="10.856847765944483"><ele>131.0</ele><time>2026-04-19T10:36:15.999Z</time></trkpt><trkpt lat="43.328653670348615" lon="10.856932677647888"><ele>131.0</ele><time>2026-04-19T10:36:16.999Z</time></trkpt><trkpt lat="43.32879416204339" lon="10.85700648971599"><ele>131.0</ele><time>2026-04-19T10:36:17.999Z</time></trkpt><trkpt lat="43.32893580764011" lon="10.857074907289144"><ele>127.5</ele><time>2026-04-19T10:36:18.999Z</time></trkpt><trkpt lat="43.3290770157575" lon="10.85710316414292"><ele>124.0</ele><time>2026-04-19T10:36:19.999Z</time></trkpt><trkpt lat="43.329213864725794" lon="10.857098714242085"><ele>120.5</ele><time>2026-04-19T10:36:20.999Z</time></trkpt><trkpt lat="43.32934371856873" lon="10.857098354682611"><ele>117.0</ele><time>2026-04-19T10:36:21.999Z</time></trkpt><trkpt lat="43.3294560930791" lon="10.857128470335212"><ele>117.0</ele><time>2026-04-19T10:36:22.999Z</time></trkpt><trkpt lat="43.329553782689366" lon="10.857211977147134"><ele>117.0</ele><time>2026-04-19T10:36:23.999Z</time></trkpt><trkpt lat="43.329625991261636" lon="10.857344473194624"><ele>117.0</ele><time>2026-04-19T10:36:24.999Z</time></trkpt><trkpt lat="43.32967555285242" lon="10.857489797975568"><ele>117.0</ele><time>2026-04-19T10:36:25.999Z</time></trkpt><trkpt lat="43.32970688954691" lon="10.857651493119043"><ele>117.75</ele><time>2026-04-19T10:36:26.999Z</time></trkpt><trkpt lat="43.32972354215998" lon="10.85782227020362"><ele>118.5</ele><time>2026-04-19T10:36:27.999Z</time></trkpt><trkpt lat="43.32973678141583" lon="10.858004925414233"><ele>119.25</ele><time>2026-04-19T10:36:28.999Z</time></trkpt><trkpt lat="43.32975052703398" lon="10.858186949814934"><ele>120.0</ele><time>2026-04-19T10:36:29.999Z</time></trkpt><trkpt lat="43.3297718555534" lon="10.858370051507716"><ele>114.25</ele><time>2026-04-19T10:36:30.999Z</time></trkpt><trkpt lat="43.32979120849193" lon="10.858554825710977"><ele>108.5</ele><time>2026-04-19T10:36:31.999Z</time></trkpt><trkpt lat="43.329831744299035" lon="10.858720078355804"><ele>102.75</ele><time>2026-04-19T10:36:32.999Z</time></trkpt><trkpt lat="43.32989628440806" lon="10.858859451842184"><ele>97.0</ele><time>2026-04-19T10:36:33.999Z</time></trkpt><trkpt lat="43.3299838542502" lon="10.85897874893418"><ele>97.0</ele><time>2026-04-19T10:36:34.999Z</time></trkpt><trkpt lat="43.33009228063358" lon="10.859075968102356"><ele>97.0</ele><time>2026-04-19T10:36:35.999Z</time></trkpt><trkpt lat="43.33021920261812" lon="10.859129207278926"><ele>97.0</ele><time>2026-04-19T10:36:36.999Z</time></trkpt><trkpt lat="43.33035685327205" lon="10.859126384214518"><ele>97.0</ele><time>2026-04-19T10:36:37.999Z</time></trkpt><trkpt lat="43.33051779495678" lon="10.859096289593408"><ele>94.0</ele><time>2026-04-19T10:36:38.999Z</time></trkpt><trkpt lat="43.33069601374939" lon="10.859072386998882"><ele>91.0</ele><time>2026-04-19T10:36:39.998Z</time></trkpt><trkpt lat="43.33088151044175" lon="10.859043515292543"><ele>88.0</ele><time>2026-04-19T10:36:40.998Z</time></trkpt><trkpt lat="43.33107674189405" lon="10.859035304487433"><ele>88.0</ele><time>2026-04-19T10:36:41.998Z</time></trkpt><trkpt lat="43.33127865301456" lon="10.859036092190697"><ele>88.0</ele><time>2026-04-19T10:36:42.998Z</time></trkpt><trkpt lat="43.33146582133488" lon="10.859036540827674"><ele>88.0</ele><time>2026-04-19T10:36:43.998Z</time></trkpt><trkpt lat="43.33167846009477" lon="10.859008949567489"><ele>87.33333333333333</ele><time>2026-04-19T10:36:44.998Z</time></trkpt><trkpt lat="43.33189429410068" lon="10.858983479268627"><ele>86.66666666666667</ele><time>2026-04-19T10:36:45.998Z</time></trkpt><trkpt lat="43.33211696979439" lon="10.858969158602346"><ele>86.0</ele><time>2026-04-19T10:36:46.998Z</time></trkpt><trkpt lat="43.332335833467205" lon="10.858953817312614"><ele>85.0</ele><time>2026-04-19T10:36:47.998Z</time></trkpt><trkpt lat="43.33255350014345" lon="10.858929402686105"><ele>84.0</ele><time>2026-04-19T10:36:48.998Z</time></trkpt><trkpt lat="43.33276984884806" lon="10.8589052799861"><ele>83.0</ele><time>2026-04-19T10:36:49.998Z</time></trkpt><trkpt lat="43.33298918749241" lon="10.858869229452827"><ele>83.66666666666667</ele><time>2026-04-19T10:36:50.998Z</time></trkpt><trkpt lat="43.33320169100643" lon="10.858796473204858"><ele>84.33333333333333</ele><time>2026-04-19T10:36:51.998Z</time></trkpt><trkpt lat="43.33340886273308" lon="10.858686763351415"><ele>85.0</ele><time>2026-04-19T10:36:53Z</time></trkpt><trkpt lat="43.33361628128617" lon="10.858564801953175"><ele>84.0</ele><time>2026-04-19T10:36:54Z</time></trkpt><trkpt lat="43.33382220582037" lon="10.858428199888815"><ele>83.0</ele><time>2026-04-19T10:36:55Z</time></trkpt><trkpt lat="43.33402262107625" lon="10.858284940731664"><ele>83.0</ele><time>2026-04-19T10:36:56Z</time></trkpt><trkpt lat="43.33422187117006" lon="10.858124334323056"><ele>83.0</ele><time>2026-04-19T10:36:57Z</time></trkpt><trkpt lat="43.33441268050035" lon="10.857937279579614"><ele>83.0</ele><time>2026-04-19T10:36:58Z</time></trkpt><trkpt lat="43.334596138627305" lon="10.85772841963861"><ele>83.0</ele><time>2026-04-19T10:36:59Z</time></trkpt><trkpt lat="43.334773119687135" lon="10.857505015488034"><ele>86.0</ele><time>2026-04-19T10:37:00Z</time></trkpt><trkpt lat="43.33494094696393" lon="10.857272232090345"><ele>89.0</ele><time>2026-04-19T10:37:01Z</time></trkpt><trkpt lat="43.33509683558196" lon="10.857027461594887"><ele>86.5</ele><time>2026-04-19T10:37:02Z</time></trkpt><trkpt lat="43.33523686799087" lon="10.856766260013698"><ele>84.0</ele><time>2026-04-19T10:37:03Z</time></trkpt><trkpt lat="43.3353580076342" lon="10.856493142550512"><ele>84.0</ele><time>2026-04-19T10:37:04Z</time></trkpt><trkpt lat="43.33546605459022" lon="10.856198844514696"><ele>84.0</ele><time>2026-04-19T10:37:05Z</time></trkpt><trkpt lat="43.33556789403541" lon="10.855908182950065"><ele>89.0</ele><time>2026-04-19T10:37:06Z</time></trkpt><trkpt lat="43.33569393320065" lon="10.855633467934362"><ele>94.0</ele><time>2026-04-19T10:37:07Z</time></trkpt><trkpt lat="43.33579759203763" lon="10.855344335284139"><ele>91.5</ele><time>2026-04-19T10:37:08Z</time></trkpt><trkpt lat="43.335940389339015" lon="10.855096761761818"><ele>89.0</ele><time>2026-04-19T10:37:09Z</time></trkpt><trkpt lat="43.336087344731695" lon="10.854842344109358"><ele>89.0</ele><time>2026-04-19T10:37:10Z</time></trkpt><trkpt lat="43.33622232006941" lon="10.854592840622797"><ele>89.0</ele><time>2026-04-19T10:37:11Z</time></trkpt><trkpt lat="43.33635715344645" lon="10.854374877280657"><ele>89.0</ele><time>2026-04-19T10:37:12Z</time></trkpt><trkpt lat="43.336454556632134" lon="10.854150068296315"><ele>89.0</ele><time>2026-04-19T10:37:13Z</time></trkpt><trkpt lat="43.33651504484548" lon="10.853897007410865"><ele>89.0</ele><time>2026-04-19T10:37:14Z</time></trkpt><trkpt lat="43.33654890618899" lon="10.853618712862502"><ele>89.0</ele><time>2026-04-19T10:37:15Z</time></trkpt><trkpt lat="43.33657588599211" lon="10.8533342450523"><ele>89.0</ele><time>2026-04-19T10:37:16Z</time></trkpt><trkpt lat="43.33666940104044" lon="10.853084139317673"><ele>89.0</ele><time>2026-04-19T10:37:17Z</time></trkpt><trkpt lat="43.336749167876256" lon="10.85283200158436"><ele>89.0</ele><time>2026-04-19T10:37:18Z</time></trkpt><trkpt lat="43.33682760905434" lon="10.852574721295529"><ele>87.66666666666667</ele><time>2026-04-19T10:37:19Z</time></trkpt><trkpt lat="43.336907434674984" lon="10.852305872618127"><ele>86.33333333333333</ele><time>2026-04-19T10:37:20Z</time></trkpt><trkpt lat="43.33699188939512" lon="10.852036286155487"><ele>85.0</ele><time>2026-04-19T10:37:21Z</time></trkpt><trkpt lat="43.337085590526584" lon="10.85177156640638"><ele>83.33333333333333</ele><time>2026-04-19T10:37:22Z</time></trkpt><trkpt lat="43.33718699662228" lon="10.851511122303412"><ele>81.66666666666667</ele><time>2026-04-19T10:37:23Z</time></trkpt><trkpt lat="43.33729278237464" lon="10.851259124572548"><ele>80.0</ele><time>2026-04-19T10:37:24Z</time></trkpt><trkpt lat="43.33740084595968" lon="10.85100333184222"><ele>81.33333333333334</ele><time>2026-04-19T10:37:25Z</time></trkpt><trkpt lat="43.3375132841606" lon="10.850739969728556"><ele>82.66666666666667</ele><time>2026-04-19T10:37:26Z</time></trkpt><trkpt lat="43.33762793779479" lon="10.85047200871275"><ele>84.0</ele><time>2026-04-19T10:37:27Z</time></trkpt><trkpt lat="43.33774393408558" lon="10.850201809371518"><ele>83.5</ele><time>2026-04-19T10:37:28Z</time></trkpt><trkpt lat="43.33786200920324" lon="10.849926767532423"><ele>83.0</ele><time>2026-04-19T10:37:29Z</time></trkpt><trkpt lat="43.33798294328553" lon="10.849645059141771"><ele>83.5</ele><time>2026-04-19T10:37:30Z</time></trkpt><trkpt lat="43.338104292332" lon="10.849362381261207"><ele>84.0</ele><time>2026-04-19T10:37:31Z</time></trkpt><trkpt lat="43.33821973513096" lon="10.849090408318432"><ele>84.5</ele><time>2026-04-19T10:37:32Z</time></trkpt><trkpt lat="43.338336038731164" lon="10.848816266422148"><ele>85.0</ele><time>2026-04-19T10:37:33Z</time></trkpt><trkpt lat="43.33842863391981" lon="10.848534362798244"><ele>84.33333333333333</ele><time>2026-04-19T10:37:34Z</time></trkpt><trkpt lat="43.33853763531539" lon="10.848269969730955"><ele>83.66666666666667</ele><time>2026-04-19T10:37:35Z</time></trkpt><trkpt lat="43.33864248728888" lon="10.848013730335547"><ele>83.0</ele><time>2026-04-19T10:37:36Z</time></trkpt><trkpt lat="43.33874821996126" lon="10.84776379413009"><ele>83.0</ele><time>2026-04-19T10:37:37Z</time></trkpt><trkpt lat="43.33885401653073" lon="10.847519071093929"><ele>83.0</ele><time>2026-04-19T10:37:38Z</time></trkpt><trkpt lat="43.33896453175948" lon="10.847279741232942"><ele>83.0</ele><time>2026-04-19T10:37:39Z</time></trkpt><trkpt lat="43.33908577033107" lon="10.847043979147463"><ele>83.66666666666667</ele><time>2026-04-19T10:37:40Z</time></trkpt><trkpt lat="43.339219825049376" lon="10.846815943087805"><ele>84.33333333333333</ele><time>2026-04-19T10:37:41Z</time></trkpt><trkpt lat="43.33935756159066" lon="10.846596756673973"><ele>85.0</ele><time>2026-04-19T10:37:42Z</time></trkpt><trkpt lat="43.33949508822739" lon="10.846376779648669"><ele>85.0</ele><time>2026-04-19T10:37:43Z</time></trkpt><trkpt lat="43.339625588847" lon="10.846155642822593"><ele>85.0</ele><time>2026-04-19T10:37:44Z</time></trkpt><trkpt lat="43.339755175008655" lon="10.845941509308753"><ele>85.0</ele><time>2026-04-19T10:37:45Z</time></trkpt><trkpt lat="43.339886187684684" lon="10.845740510455457"><ele>85.33333333333333</ele><time>2026-04-19T10:37:46Z</time></trkpt><trkpt lat="43.34001757879321" lon="10.845553937171784"><ele>85.66666666666667</ele><time>2026-04-19T10:37:47Z</time></trkpt><trkpt lat="43.340168356957065" lon="10.845397566319283"><ele>86.0</ele><time>2026-04-19T10:37:48Z</time></trkpt><trkpt lat="43.34034340601752" lon="10.845267165924767"><ele>86.0</ele><time>2026-04-19T10:37:49Z</time></trkpt><trkpt lat="43.34052961361126" lon="10.845143546033599"><ele>86.0</ele><time>2026-04-19T10:37:50Z</time></trkpt><trkpt lat="43.34071298345304" lon="10.845005735041644"><ele>86.0</ele><time>2026-04-19T10:37:51Z</time></trkpt><trkpt lat="43.34089826311665" lon="10.844858809547425"><ele>85.33333333333334</ele><time>2026-04-19T10:37:52Z</time></trkpt><trkpt lat="43.34108575045387" lon="10.844715812885214"><ele>84.66666666666667</ele><time>2026-04-19T10:37:53Z</time></trkpt><trkpt lat="43.341275457088926" lon="10.844575922723333"><ele>84.0</ele><time>2026-04-19T10:37:54Z</time></trkpt><trkpt lat="43.341456992751404" lon="10.844430003986183"><ele>83.33333333333333</ele><time>2026-04-19T10:37:54.999Z</time></trkpt><trkpt lat="43.34164352926615" lon="10.844291142823915"><ele>82.66666666666666</ele><time>2026-04-19T10:37:55.999Z</time></trkpt><trkpt lat="43.341827020681556" lon="10.844154974192254"><ele>82.0</ele><time>2026-04-19T10:37:56.999Z</time></trkpt><trkpt lat="43.34200736400444" lon="10.844019679207452"><ele>82.0</ele><time>2026-04-19T10:37:57.999Z</time></trkpt><trkpt lat="43.34218408552199" lon="10.843880999242193"><ele>82.0</ele><time>2026-04-19T10:37:58.999Z</time></trkpt><trkpt lat="43.34234512519647" lon="10.843720699641521"><ele>82.0</ele><time>2026-04-19T10:37:59.999Z</time></trkpt><trkpt lat="43.34248421229823" lon="10.843517200871535"><ele>82.33333333333333</ele><time>2026-04-19T10:38:00.999Z</time></trkpt><trkpt lat="43.342602473830304" lon="10.843278588550252"><ele>82.66666666666667</ele><time>2026-04-19T10:38:01.999Z</time></trkpt><trkpt lat="43.34271106668113" lon="10.843023362156769"><ele>83.0</ele><time>2026-04-19T10:38:02.999Z</time></trkpt><trkpt lat="43.34282752839922" lon="10.842767005942369"><ele>81.66666666666667</ele><time>2026-04-19T10:38:03.999Z</time></trkpt><trkpt lat="43.342950472800766" lon="10.842514133865237"><ele>80.33333333333333</ele><time>2026-04-19T10:38:04.999Z</time></trkpt><trkpt lat="43.343074462915574" lon="10.84226061903128"><ele>79.0</ele><time>2026-04-19T10:38:05.999Z</time></trkpt><trkpt lat="43.343198291352266" lon="10.842001386564348"><ele>80.0</ele><time>2026-04-19T10:38:06.999Z</time></trkpt><trkpt lat="43.343325542214124" lon="10.841746970135686"><ele>81.0</ele><time>2026-04-19T10:38:07.999Z</time></trkpt><trkpt lat="43.34344654789318" lon="10.841489259168492"><ele>82.0</ele><time>2026-04-19T10:38:08.999Z</time></trkpt><trkpt lat="43.34356370055212" lon="10.841225736201807"><ele>82.0</ele><time>2026-04-19T10:38:09.999Z</time></trkpt><trkpt lat="43.34368666436335" lon="10.840970854885567"><ele>82.0</ele><time>2026-04-19T10:38:10.999Z</time></trkpt><trkpt lat="43.34381131715347" lon="10.840716589180733"><ele>82.0</ele><time>2026-04-19T10:38:11.999Z</time></trkpt><trkpt lat="43.34395018370734" lon="10.840466680568543"><ele>81.66666666666666</ele><time>2026-04-19T10:38:12.999Z</time></trkpt><trkpt lat="43.34406626039093" lon="10.840219703092995"><ele>81.33333333333333</ele><time>2026-04-19T10:38:13.999Z</time></trkpt><trkpt lat="43.344186902766" lon="10.839974575566298"><ele>81.0</ele><time>2026-04-19T10:38:14.999Z</time></trkpt><trkpt lat="43.3442951572988" lon="10.839745978777396"><ele>81.0</ele><time>2026-04-19T10:38:15.999Z</time></trkpt><trkpt lat="43.344395797769884" lon="10.839529615425976"><ele>81.0</ele><time>2026-04-19T10:38:16.999Z</time></trkpt><trkpt lat="43.34452301932097" lon="10.839321023530355"><ele>81.0</ele><time>2026-04-19T10:38:17.999Z</time></trkpt><trkpt lat="43.344684173463" lon="10.839136083732733"><ele>81.66666666666667</ele><time>2026-04-19T10:38:18.999Z</time></trkpt><trkpt lat="43.34483944251657" lon="10.839013095205079"><ele>82.33333333333334</ele><time>2026-04-19T10:38:19.999Z</time></trkpt><trkpt lat="43.34501145919138" lon="10.838926735572482"><ele>83.0</ele><time>2026-04-19T10:38:20.999Z</time></trkpt><trkpt lat="43.34520413401168" lon="10.83880810106101"><ele>83.0</ele><time>2026-04-19T10:38:21.999Z</time></trkpt><trkpt lat="43.34536373156605" lon="10.838688123703001"><ele>83.0</ele><time>2026-04-19T10:38:22.999Z</time></trkpt><trkpt lat="43.345534834769225" lon="10.838534732461039"><ele>83.0</ele><time>2026-04-19T10:38:23.999Z</time></trkpt><trkpt lat="43.3456888701565" lon="10.83837331477027"><ele>82.33333333333334</ele><time>2026-04-19T10:38:24.999Z</time></trkpt><trkpt lat="43.34584163246029" lon="10.83820352589886"><ele>81.66666666666667</ele><time>2026-04-19T10:38:25.999Z</time></trkpt><trkpt lat="43.345979637962266" lon="10.838009261900567"><ele>81.0</ele><time>2026-04-19T10:38:26.999Z</time></trkpt><trkpt lat="43.34609119980427" lon="10.837783377849465"><ele>79.66666666666667</ele><time>2026-04-19T10:38:27.999Z</time></trkpt><trkpt lat="43.34617046716163" lon="10.83752395996323"><ele>78.33333333333334</ele><time>2026-04-19T10:38:28.999Z</time></trkpt><trkpt lat="43.34623076890297" lon="10.837247793951052"><ele>77.0</ele><time>2026-04-19T10:38:29.999Z</time></trkpt><trkpt lat="43.34629103664241" lon="10.836968952702973"><ele>76.33333333333334</ele><time>2026-04-19T10:38:30.999Z</time></trkpt><trkpt lat="43.34635037711116" lon="10.836687993087923"><ele>75.66666666666667</ele><time>2026-04-19T10:38:31.999Z</time></trkpt><trkpt lat="43.34642005297698" lon="10.836405255130973"><ele>75.0</ele><time>2026-04-19T10:38:32.999Z</time></trkpt><trkpt lat="43.34648988396104" lon="10.83612459702396"><ele>77.33333333333333</ele><time>2026-04-19T10:38:33.999Z</time></trkpt><trkpt lat="43.346563621479184" lon="10.835843218022381"><ele>79.66666666666666</ele><time>2026-04-19T10:38:34.999Z</time></trkpt><trkpt lat="43.34664351831901" lon="10.835566622137181"><ele>82.0</ele><time>2026-04-19T10:38:35.999Z</time></trkpt><trkpt lat="43.346735931452734" lon="10.835284973725374"><ele>79.0</ele><time>2026-04-19T10:38:36.999Z</time></trkpt><trkpt lat="43.346826849438735" lon="10.835003233225471"><ele>76.0</ele><time>2026-04-19T10:38:37.999Z</time></trkpt><trkpt lat="43.34691814236715" lon="10.834716518894076"><ele>76.0</ele><time>2026-04-19T10:38:38.999Z</time></trkpt><trkpt lat="43.34699927931218" lon="10.834421674507565"><ele>76.0</ele><time>2026-04-19T10:38:39.999Z</time></trkpt><trkpt lat="43.347068798142864" lon="10.834120863706985"><ele>75.0</ele><time>2026-04-19T10:38:40.999Z</time></trkpt><trkpt lat="43.34714154341566" lon="10.833818882513865"><ele>74.0</ele><time>2026-04-19T10:38:41.999Z</time></trkpt><trkpt lat="43.34725635603401" lon="10.8335359899616"><ele>77.0</ele><time>2026-04-19T10:38:42.999Z</time></trkpt><trkpt lat="43.347334922965935" lon="10.833235587901363"><ele>80.0</ele><time>2026-04-19T10:38:43.999Z</time></trkpt><trkpt lat="43.34741155475557" lon="10.8329352915093"><ele>80.0</ele><time>2026-04-19T10:38:44.999Z</time></trkpt><trkpt lat="43.3474897159866" lon="10.832648400554323"><ele>80.0</ele><time>2026-04-19T10:38:45.999Z</time></trkpt><trkpt lat="43.34758481863101" lon="10.832384063476693"><ele>80.0</ele><time>2026-04-19T10:38:46.999Z</time></trkpt><trkpt lat="43.34770080342708" lon="10.832143821094256"><ele>80.0</ele><time>2026-04-19T10:38:47.999Z</time></trkpt><trkpt lat="43.34784106333211" lon="10.831921046082206"><ele>80.0</ele><time>2026-04-19T10:38:48.999Z</time></trkpt><trkpt lat="43.347989118141435" lon="10.831694667770451"><ele>80.0</ele><time>2026-04-19T10:38:49.998Z</time></trkpt><trkpt lat="43.34813151374533" lon="10.83148101701893"><ele>81.66666666666667</ele><time>2026-04-19T10:38:50.998Z</time></trkpt><trkpt lat="43.34827758385263" lon="10.831262632596902"><ele>83.33333333333333</ele><time>2026-04-19T10:38:51.998Z</time></trkpt><trkpt lat="43.3484200988964" lon="10.831049563203884"><ele>85.0</ele><time>2026-04-19T10:38:52.998Z</time></trkpt><trkpt lat="43.34856495364453" lon="10.830832995820998"><ele>85.0</ele><time>2026-04-19T10:38:53.998Z</time></trkpt><trkpt lat="43.34871010609195" lon="10.830616978717456"><ele>85.0</ele><time>2026-04-19T10:38:54.998Z</time></trkpt><trkpt lat="43.3488558326188" lon="10.830399269221754"><ele>85.0</ele><time>2026-04-19T10:38:55.998Z</time></trkpt><trkpt lat="43.34899602592608" lon="10.830182991483928"><ele>89.33333333333333</ele><time>2026-04-19T10:38:56.998Z</time></trkpt><trkpt lat="43.34912520258716" lon="10.829962225433304"><ele>93.66666666666666</ele><time>2026-04-19T10:38:57.998Z</time></trkpt><trkpt lat="43.34923899241977" lon="10.829732615508568"><ele>98.0</ele><time>2026-04-19T10:38:59Z</time></trkpt><trkpt lat="43.34936265748992" lon="10.829516248892364"><ele>98.0</ele><time>2026-04-19T10:39:00Z</time></trkpt><trkpt lat="43.34950501078399" lon="10.829316053129256"><ele>98.0</ele><time>2026-04-19T10:39:01Z</time></trkpt><trkpt lat="43.349660237065024" lon="10.829140854318943"><ele>98.0</ele><time>2026-04-19T10:39:02Z</time></trkpt><trkpt lat="43.349818566100375" lon="10.828972260277903"><ele>99.66666666666666</ele><time>2026-04-19T10:39:03Z</time></trkpt><trkpt lat="43.34997832155551" lon="10.828802147269727"><ele>101.33333333333334</ele><time>2026-04-19T10:39:04Z</time></trkpt><trkpt lat="43.35013690810644" lon="10.828633279064587"><ele>103.0</ele><time>2026-04-19T10:39:05Z</time></trkpt><trkpt lat="43.35029569149688" lon="10.828452284199834"><ele>103.0</ele><time>2026-04-19T10:39:06Z</time></trkpt><trkpt lat="43.35044095423516" lon="10.828261201351074"><ele>103.0</ele><time>2026-04-19T10:39:07Z</time></trkpt><trkpt lat="43.3505723589205" lon="10.828046254021501"><ele>103.0</ele><time>2026-04-19T10:39:08Z</time></trkpt><trkpt lat="43.350676319356424" lon="10.827808644786028"><ele>108.33333333333334</ele><time>2026-04-19T10:39:09Z</time></trkpt><trkpt lat="43.35076482344423" lon="10.827563507472991"><ele>113.66666666666666</ele><time>2026-04-19T10:39:10Z</time></trkpt><trkpt lat="43.35085340412497" lon="10.827330078218464"><ele>119.0</ele><time>2026-04-19T10:39:11Z</time></trkpt><trkpt lat="43.350957309079334" lon="10.827124727420507"><ele>119.0</ele><time>2026-04-19T10:39:12Z</time></trkpt><trkpt lat="43.35108948429073" lon="10.82695309374241"><ele>119.0</ele><time>2026-04-19T10:39:13Z</time></trkpt><trkpt lat="43.35123860048995" lon="10.826784500800086"><ele>119.0</ele><time>2026-04-19T10:39:14Z</time></trkpt><trkpt lat="43.35137570962147" lon="10.826632199354604"><ele>122.66666666666666</ele><time>2026-04-19T10:39:15Z</time></trkpt><trkpt lat="43.35151301962334" lon="10.826469566323818"><ele>126.33333333333334</ele><time>2026-04-19T10:39:16Z</time></trkpt><trkpt lat="43.3516209516578" lon="10.826267577434756"><ele>130.0</ele><time>2026-04-19T10:39:17Z</time></trkpt><trkpt lat="43.35168976051207" lon="10.826020447464668"><ele>128.33333333333334</ele><time>2026-04-19T10:39:18Z</time></trkpt><trkpt lat="43.351739434529975" lon="10.825776846820789"><ele>126.66666666666666</ele><time>2026-04-19T10:39:19Z</time></trkpt><trkpt lat="43.35181047683604" lon="10.825570048315884"><ele>125.0</ele><time>2026-04-19T10:39:20Z</time></trkpt><trkpt lat="43.351899757258536" lon="10.825392222127313"><ele>125.0</ele><time>2026-04-19T10:39:21Z</time></trkpt><trkpt lat="43.352010623671966" lon="10.825237714595932"><ele>125.0</ele><time>2026-04-19T10:39:22Z</time></trkpt><trkpt lat="43.352150143075896" lon="10.82510927507631"><ele>125.0</ele><time>2026-04-19T10:39:23Z</time></trkpt><trkpt lat="43.352286133280785" lon="10.825057823509951"><ele>127.66666666666666</ele><time>2026-04-19T10:39:24Z</time></trkpt><trkpt lat="43.35247565244917" lon="10.825002290893545"><ele>130.33333333333334</ele><time>2026-04-19T10:39:25Z</time></trkpt><trkpt lat="43.3526553468976" lon="10.824926928086654"><ele>133.0</ele><time>2026-04-19T10:39:26Z</time></trkpt><trkpt lat="43.3528194540612" lon="10.824808067296209"><ele>133.0</ele><time>2026-04-19T10:39:27Z</time></trkpt><trkpt lat="43.352956525186315" lon="10.824648089261366"><ele>133.0</ele><time>2026-04-19T10:39:28Z</time></trkpt><trkpt lat="43.353068424703544" lon="10.824439474333657"><ele>133.0</ele><time>2026-04-19T10:39:29Z</time></trkpt><trkpt lat="43.35314019498997" lon="10.824202427732285"><ele>133.0</ele><time>2026-04-19T10:39:30Z</time></trkpt><trkpt lat="43.35314788671866" lon="10.823956035412465"><ele>133.0</ele><time>2026-04-19T10:39:31Z</time></trkpt><trkpt lat="43.3531611541446" lon="10.823702664064962"><ele>133.0</ele><time>2026-04-19T10:39:32Z</time></trkpt><trkpt lat="43.35313674927413" lon="10.823453273169958"><ele>133.0</ele><time>2026-04-19T10:39:33Z</time></trkpt><trkpt lat="43.35314178386717" lon="10.823210626611383"><ele>133.0</ele><time>2026-04-19T10:39:34Z</time></trkpt><trkpt lat="43.353132864607296" lon="10.82295668453846"><ele>133.0</ele><time>2026-04-19T10:39:35Z</time></trkpt><trkpt lat="43.35313415431134" lon="10.822710829523015"><ele>132.33333333333334</ele><time>2026-04-19T10:39:36Z</time></trkpt><trkpt lat="43.35320816064794" lon="10.822468378987667"><ele>131.66666666666666</ele><time>2026-04-19T10:39:37Z</time></trkpt><trkpt lat="43.353306225390895" lon="10.822250130228904"><ele>131.0</ele><time>2026-04-19T10:39:38Z</time></trkpt><trkpt lat="43.35340677805929" lon="10.822019298052409"><ele>130.33333333333331</ele><time>2026-04-19T10:39:39Z</time></trkpt><trkpt lat="43.35349754536735" lon="10.821775575669246"><ele>129.66666666666666</ele><time>2026-04-19T10:39:40Z</time></trkpt><trkpt lat="43.35356387785699" lon="10.82151871844266"><ele>129.0</ele><time>2026-04-19T10:39:41Z</time></trkpt><trkpt lat="43.35358649848188" lon="10.821249463962687"><ele>128.66666666666666</ele><time>2026-04-19T10:39:42Z</time></trkpt><trkpt lat="43.35356590726811" lon="10.820970032809534"><ele>128.33333333333331</ele><time>2026-04-19T10:39:43Z</time></trkpt><trkpt lat="43.35351024923614" lon="10.820711400366221"><ele>128.0</ele><time>2026-04-19T10:39:44Z</time></trkpt><trkpt lat="43.35344978582061" lon="10.82044382445552"><ele>128.0</ele><time>2026-04-19T10:39:45Z</time></trkpt><trkpt lat="43.35339570221586" lon="10.820184486900585"><ele>128.0</ele><time>2026-04-19T10:39:46Z</time></trkpt><trkpt lat="43.35336137156172" lon="10.81992090767452"><ele>128.0</ele><time>2026-04-19T10:39:47Z</time></trkpt><trkpt lat="43.35334815333295" lon="10.81966465498759"><ele>128.33333333333331</ele><time>2026-04-19T10:39:48Z</time></trkpt><trkpt lat="43.35337316308737" lon="10.81941680010572"><ele>128.66666666666666</ele><time>2026-04-19T10:39:49Z</time></trkpt><trkpt lat="43.35343282191059" lon="10.819161122585058"><ele>129.0</ele><time>2026-04-19T10:39:50Z</time></trkpt><trkpt lat="43.353516437352575" lon="10.818904679758354"><ele>129.0</ele><time>2026-04-19T10:39:51Z</time></trkpt><trkpt lat="43.353610419139656" lon="10.818658908247725"><ele>129.0</ele><time>2026-04-19T10:39:52Z</time></trkpt><trkpt lat="43.353698324423995" lon="10.818424483320614"><ele>129.0</ele><time>2026-04-19T10:39:53Z</time></trkpt><trkpt lat="43.353788177936735" lon="10.818222787951953"><ele>127.66666666666666</ele><time>2026-04-19T10:39:54Z</time></trkpt><trkpt lat="43.35391867539989" lon="10.818044379404828"><ele>126.33333333333333</ele><time>2026-04-19T10:39:55Z</time></trkpt><trkpt lat="43.354089704562426" lon="10.817940117926607"><ele>125.0</ele><time>2026-04-19T10:39:56Z</time></trkpt><trkpt lat="43.35426914991655" lon="10.817901782718634"><ele>125.0</ele><time>2026-04-19T10:39:57Z</time></trkpt><trkpt lat="43.354440899494016" lon="10.817869181741843"><ele>125.0</ele><time>2026-04-19T10:39:58Z</time></trkpt><trkpt lat="43.354609211720785" lon="10.817782771797274"><ele>125.0</ele><time>2026-04-19T10:39:58.999Z</time></trkpt><trkpt lat="43.35475798659733" lon="10.817621504088564"><ele>124.33333333333333</ele><time>2026-04-19T10:39:59.999Z</time></trkpt><trkpt lat="43.35488699760723" lon="10.81743037900967"><ele>123.66666666666666</ele><time>2026-04-19T10:40:00.999Z</time></trkpt><trkpt lat="43.35498367700991" lon="10.81720420063735"><ele>123.0</ele><time>2026-04-19T10:40:01.999Z</time></trkpt><trkpt lat="43.35504315674667" lon="10.816941787925137"><ele>124.33333333333334</ele><time>2026-04-19T10:40:02.999Z</time></trkpt><trkpt lat="43.35509564562591" lon="10.816673459821523"><ele>125.66666666666667</ele><time>2026-04-19T10:40:03.999Z</time></trkpt><trkpt lat="43.355155786844996" lon="10.81640923898922"><ele>127.0</ele><time>2026-04-19T10:40:04.999Z</time></trkpt><trkpt lat="43.3552245171567" lon="10.816147877076213"><ele>128.33333333333334</ele><time>2026-04-19T10:40:05.999Z</time></trkpt><trkpt lat="43.35529694807398" lon="10.815894490410695"><ele>129.66666666666666</ele><time>2026-04-19T10:40:06.999Z</time></trkpt><trkpt lat="43.35536068515071" lon="10.815651213417391"><ele>131.0</ele><time>2026-04-19T10:40:07.999Z</time></trkpt><trkpt lat="43.3554119776783" lon="10.815413115778783"><ele>131.0</ele><time>2026-04-19T10:40:08.999Z</time></trkpt><trkpt lat="43.355468836612744" lon="10.815174645741164"><ele>131.0</ele><time>2026-04-19T10:40:09.999Z</time></trkpt><trkpt lat="43.355522180121135" lon="10.814943986903685"><ele>131.0</ele><time>2026-04-19T10:40:10.999Z</time></trkpt><trkpt lat="43.355572787450434" lon="10.81472741218"><ele>128.0</ele><time>2026-04-19T10:40:11.999Z</time></trkpt><trkpt lat="43.35564491884122" lon="10.814537971142913"><ele>125.0</ele><time>2026-04-19T10:40:12.999Z</time></trkpt><trkpt lat="43.35576567601555" lon="10.814374145852216"><ele>122.0</ele><time>2026-04-19T10:40:13.999Z</time></trkpt><trkpt lat="43.35592103855584" lon="10.814267344088254"><ele>122.0</ele><time>2026-04-19T10:40:14.999Z</time></trkpt><trkpt lat="43.35608216120801" lon="10.814207970138144"><ele>122.0</ele><time>2026-04-19T10:40:15.999Z</time></trkpt><trkpt lat="43.3562348502995" lon="10.814152480654265"><ele>122.0</ele><time>2026-04-19T10:40:16.999Z</time></trkpt><trkpt lat="43.35638362461747" lon="10.814071634913795"><ele>118.33333333333333</ele><time>2026-04-19T10:40:17.999Z</time></trkpt><trkpt lat="43.35652707866322" lon="10.813959870104691"><ele>114.66666666666666</ele><time>2026-04-19T10:40:18.999Z</time></trkpt><trkpt lat="43.356653260645594" lon="10.81382283576498"><ele>111.0</ele><time>2026-04-19T10:40:19.999Z</time></trkpt><trkpt lat="43.356765548485576" lon="10.813656498674312"><ele>111.66666666666666</ele><time>2026-04-19T10:40:20.999Z</time></trkpt><trkpt lat="43.35687727920121" lon="10.81346490644257"><ele>112.33333333333333</ele><time>2026-04-19T10:40:21.999Z</time></trkpt><trkpt lat="43.357007176001204" lon="10.81331634278202"><ele>113.0</ele><time>2026-04-19T10:40:22.999Z</time></trkpt><trkpt lat="43.35711843977167" lon="10.813146284967281"><ele>111.75</ele><time>2026-04-19T10:40:23.999Z</time></trkpt><trkpt lat="43.35722791032127" lon="10.812981043431066"><ele>110.5</ele><time>2026-04-19T10:40:24.999Z</time></trkpt><trkpt lat="43.357327330324544" lon="10.812833327339906"><ele>109.25</ele><time>2026-04-19T10:40:25.999Z</time></trkpt><trkpt lat="43.3574243833197" lon="10.812707137832597"><ele>108.0</ele><time>2026-04-19T10:40:26.999Z</time></trkpt><trkpt lat="43.357539968566144" lon="10.812643727304666"><ele>108.0</ele><time>2026-04-19T10:40:27.999Z</time></trkpt><trkpt lat="43.35768132186897" lon="10.812640620146395"><ele>108.0</ele><time>2026-04-19T10:40:28.999Z</time></trkpt><trkpt lat="43.357823720830346" lon="10.812635224691673"><ele>108.0</ele><time>2026-04-19T10:40:29.999Z</time></trkpt><trkpt lat="43.357966901558406" lon="10.812649688666593"><ele>108.0</ele><time>2026-04-19T10:40:30.999Z</time></trkpt><trkpt lat="43.35808096853684" lon="10.812671636719886"><ele>104.25</ele><time>2026-04-19T10:40:31.999Z</time></trkpt><trkpt lat="43.35819896411048" lon="10.812723680132114"><ele>100.5</ele><time>2026-04-19T10:40:32.999Z</time></trkpt><trkpt lat="43.358260326182936" lon="10.812859714612113"><ele>96.75</ele><time>2026-04-19T10:40:33.999Z</time></trkpt><trkpt lat="43.3582666427942" lon="10.813004713658508"><ele>93.0</ele><time>2026-04-19T10:40:34.999Z</time></trkpt><trkpt lat="43.35821567498786" lon="10.813165576735974"><ele>93.0</ele><time>2026-04-19T10:40:35.999Z</time></trkpt><trkpt lat="43.35812328534326" lon="10.813317738765575"><ele>93.0</ele><time>2026-04-19T10:40:36.999Z</time></trkpt><trkpt lat="43.35801088452025" lon="10.813461486309508"><ele>93.0</ele><time>2026-04-19T10:40:37.999Z</time></trkpt><trkpt lat="43.35790807009398" lon="10.813607619332082"><ele>93.0</ele><time>2026-04-19T10:40:38.999Z</time></trkpt><trkpt lat="43.35780876246424" lon="10.8137784963247"><ele>93.33333333333333</ele><time>2026-04-19T10:40:39.999Z</time></trkpt><trkpt lat="43.357718868396084" lon="10.81395688695986"><ele>93.66666666666666</ele><time>2026-04-19T10:40:40.999Z</time></trkpt><trkpt lat="43.35761486924365" lon="10.814071397597152"><ele>94.0</ele><time>2026-04-19T10:40:41.999Z</time></trkpt><trkpt lat="43.35750128995583" lon="10.814250889287012"><ele>92.6</ele><time>2026-04-19T10:40:42.999Z</time></trkpt><trkpt lat="43.357412881733545" lon="10.814384339791895"><ele>91.2</ele><time>2026-04-19T10:40:43.999Z</time></trkpt><trkpt lat="43.3573597970023" lon="10.814513709986032"><ele>89.8</ele><time>2026-04-19T10:40:44.999Z</time></trkpt><trkpt lat="43.35735480378725" lon="10.814642936563398"><ele>88.39999999999999</ele><time>2026-04-19T10:40:45.999Z</time></trkpt><trkpt lat="43.357411476816935" lon="10.81475469219991"><ele>87.0</ele><time>2026-04-19T10:40:46.999Z</time></trkpt><trkpt lat="43.35745921915535" lon="10.814818029340463"><ele>87.0</ele><time>2026-04-19T10:40:47.999Z</time></trkpt><trkpt lat="43.357547307895096" lon="10.81484213243279"><ele>87.0</ele><time>2026-04-19T10:40:48.999Z</time></trkpt><trkpt lat="43.35764573249537" lon="10.814789254414778"><ele>87.0</ele><time>2026-04-19T10:40:49.999Z</time></trkpt><trkpt lat="43.35778543375444" lon="10.814709382656778"><ele>87.0</ele><time>2026-04-19T10:40:50.999Z</time></trkpt><trkpt lat="43.35795740198286" lon="10.814642970500309"><ele>84.66666666666667</ele><time>2026-04-19T10:40:51.999Z</time></trkpt><trkpt lat="43.35811503844519" lon="10.814582093035693"><ele>82.33333333333334</ele><time>2026-04-19T10:40:52.999Z</time></trkpt><trkpt lat="43.35828675575183" lon="10.814515777716686"><ele>80.0</ele><time>2026-04-19T10:40:53.999Z</time></trkpt><trkpt lat="43.35843770567593" lon="10.81445748255611"><ele>80.0</ele><time>2026-04-19T10:40:54.999Z</time></trkpt><trkpt lat="43.35858938738973" lon="10.814410028105021"><ele>80.0</ele><time>2026-04-19T10:40:55.998Z</time></trkpt><trkpt lat="43.35873780422268" lon="10.814343453608753"><ele>80.0</ele><time>2026-04-19T10:40:56.998Z</time></trkpt><trkpt lat="43.35885861448805" lon="10.8142344612731"><ele>78.66666666666667</ele><time>2026-04-19T10:40:57.998Z</time></trkpt><trkpt lat="43.358968003405494" lon="10.814152077702479"><ele>77.33333333333333</ele><time>2026-04-19T10:40:58.998Z</time></trkpt><trkpt lat="43.359104033899186" lon="10.813905032273555"><ele>76.0</ele><time>2026-04-19T10:40:59.998Z</time></trkpt><trkpt lat="43.35923523375845" lon="10.813747294004271"><ele>76.0</ele><time>2026-04-19T10:41:00.998Z</time></trkpt><trkpt lat="43.35933144547441" lon="10.813614928739923"><ele>76.0</ele><time>2026-04-19T10:41:01.998Z</time></trkpt><trkpt lat="43.35941890599628" lon="10.813492777060842"><ele>76.0</ele><time>2026-04-19T10:41:02.998Z</time></trkpt><trkpt lat="43.359491228126544" lon="10.813391362955608"><ele>76.0</ele><time>2026-04-19T10:41:03.998Z</time></trkpt><trkpt lat="43.359551885582164" lon="10.813290567976209"><ele>75.66666666666666</ele><time>2026-04-19T10:41:05Z</time></trkpt><trkpt lat="43.35960968830336" lon="10.813212450632248"><ele>75.33333333333333</ele><time>2026-04-19T10:41:06Z</time></trkpt><trkpt lat="43.359657130219574" lon="10.81313500242272"><ele>75.0</ele><time>2026-04-19T10:41:07Z</time></trkpt><trkpt lat="43.35969877097906" lon="10.813054692964425"><ele>74.66666666666667</ele><time>2026-04-19T10:41:08Z</time></trkpt><trkpt lat="43.359743231944115" lon="10.812987861421922"><ele>74.33333333333334</ele><time>2026-04-19T10:41:09Z</time></trkpt><trkpt lat="43.359799466851804" lon="10.81288827382868"><ele>74.0</ele><time>2026-04-19T10:41:11Z</time></trkpt><trkpt lat="43.35985295255133" lon="10.812814895113153"><ele>74.0</ele><time>2026-04-19T10:41:14Z</time></trkpt><trkpt lat="43.35991709571994" lon="10.81273502642308"><ele>74.0</ele><time>2026-04-19T10:41:31Z</time></trkpt><trkpt lat="43.35997977006122" lon="10.81264385243135"><ele>74.0</ele><time>2026-04-19T10:41:33Z</time></trkpt><trkpt lat="43.36003397280107" lon="10.812546634957375"><ele>74.0</ele><time>2026-04-19T10:41:35Z</time></trkpt><trkpt lat="43.360130303712005" lon="10.812500383054816"><ele>74.0</ele><time>2026-04-19T10:41:37Z</time></trkpt><trkpt lat="43.36016435403714" lon="10.812426151610858"><ele>74.0</ele><time>2026-04-19T10:41:38Z</time></trkpt><trkpt lat="43.36024631788596" lon="10.812334792909791"><ele>73.83333333333334</ele><time>2026-04-19T10:41:40Z</time></trkpt><trkpt lat="43.36033303710077" lon="10.812269660337298"><ele>73.66666666666667</ele><time>2026-04-19T10:41:42Z</time></trkpt><trkpt lat="43.360450441396715" lon="10.812256129900844"><ele>73.5</ele><time>2026-04-19T10:41:44Z</time></trkpt><trkpt lat="43.36050978559349" lon="10.81229373054323"><ele>73.33333333333333</ele><time>2026-04-19T10:41:45Z</time></trkpt><trkpt lat="43.360569258617005" lon="10.812323927130745"><ele>73.16666666666666</ele><time>2026-04-19T10:41:46Z</time></trkpt><trkpt lat="43.36063874646427" lon="10.812342551112373"><ele>73.0</ele><time>2026-04-19T10:41:47Z</time></trkpt><trkpt lat="43.36071880451907" lon="10.812358822297933"><ele>73.0</ele><time>2026-04-19T10:41:48Z</time></trkpt><trkpt lat="43.36080882036882" lon="10.812369268048249"><ele>73.0</ele><time>2026-04-19T10:41:49Z</time></trkpt><trkpt lat="43.3609027102963" lon="10.812366205191442"><ele>73.0</ele><time>2026-04-19T10:41:50Z</time></trkpt><trkpt lat="43.36099225300461" lon="10.812344718952575"><ele>73.0</ele><time>2026-04-19T10:41:51Z</time></trkpt><trkpt lat="43.36107205323438" lon="10.812318436373106"><ele>73.0</ele><time>2026-04-19T10:41:52Z</time></trkpt><trkpt lat="43.36113422745778" lon="10.812292575440303"><ele>73.0</ele><time>2026-04-19T10:41:53Z</time></trkpt><trkpt lat="43.361199255256416" lon="10.812253856401785"><ele>73.0</ele><time>2026-04-19T10:41:55Z</time></trkpt><trkpt lat="43.36132960688313" lon="10.812259187006424"><ele>73.0</ele><time>2026-04-19T10:42:01Z</time></trkpt><trkpt lat="43.36142484044322" lon="10.812338721175323"><ele>73.0</ele><time>2026-04-19T10:42:03Z</time></trkpt><trkpt lat="43.36150932453924" lon="10.812427648061425"><ele>73.0</ele><time>2026-04-19T10:42:05Z</time></trkpt><trkpt lat="43.36160234905637" lon="10.812489821819243"><ele>72.66666666666666</ele><time>2026-04-19T10:42:07Z</time></trkpt><trkpt lat="43.36169535611033" lon="10.812542435023309"><ele>72.33333333333333</ele><time>2026-04-19T10:42:09Z</time></trkpt><trkpt lat="43.36181212253105" lon="10.81258048192362"><ele>72.0</ele><time>2026-04-19T10:42:11Z</time></trkpt><trkpt lat="43.36188261862553" lon="10.812599654813988"><ele>71.66666666666667</ele><time>2026-04-19T10:42:12Z</time></trkpt><trkpt lat="43.36195085539826" lon="10.81262126661744"><ele>71.33333333333334</ele><time>2026-04-19T10:42:13Z</time></trkpt><trkpt lat="43.362015168982616" lon="10.812638775549443"><ele>71.0</ele><time>2026-04-19T10:42:13.999Z</time></trkpt><trkpt lat="43.36213201783214" lon="10.81266581031678"><ele>71.33333333333334</ele><time>2026-04-19T10:42:15.999Z</time></trkpt><trkpt lat="43.3622208485792" lon="10.81269950686036"><ele>71.66666666666667</ele><time>2026-04-19T10:42:17.999Z</time></trkpt><trkpt lat="43.36228545170388" lon="10.812739428584454"><ele>72.0</ele><time>2026-04-19T10:42:19.999Z</time></trkpt><trkpt lat="43.36234619847604" lon="10.812707990294301"><ele>72.33333333333333</ele><time>2026-04-19T10:46:11.999Z</time></trkpt><trkpt lat="43.36241492963922" lon="10.812654527120868"><ele>72.66666666666666</ele><time>2026-04-19T10:46:14.999Z</time></trkpt><trkpt lat="43.36254998009459" lon="10.812618045897654"><ele>73.0</ele><time>2026-04-19T10:46:17.999Z</time></trkpt><trkpt lat="43.36271649665719" lon="10.812620033872738"><ele>73.2</ele><time>2026-04-19T10:46:19.999Z</time></trkpt><trkpt lat="43.36280492986799" lon="10.81262359993194"><ele>73.4</ele><time>2026-04-19T10:46:20.999Z</time></trkpt><trkpt lat="43.36289982865809" lon="10.812623248141737"><ele>73.60000000000001</ele><time>2026-04-19T10:46:21.999Z</time></trkpt><trkpt lat="43.362993168833384" lon="10.812626520887902"><ele>73.8</ele><time>2026-04-19T10:46:22.999Z</time></trkpt><trkpt lat="43.36308434159223" lon="10.812679536366174"><ele>74.0</ele><time>2026-04-19T10:46:23.999Z</time></trkpt><trkpt lat="43.363172748340965" lon="10.812680019170356"><ele>74.0</ele><time>2026-04-19T10:46:24.999Z</time></trkpt><trkpt lat="43.363257701802496" lon="10.812680483113851"><ele>74.0</ele><time>2026-04-19T10:46:25.999Z</time></trkpt><trkpt lat="43.363340006209945" lon="10.812680967368246"><ele>74.0</ele><time>2026-04-19T10:46:26.999Z</time></trkpt><trkpt lat="43.36342160328302" lon="10.812681552891636"><ele>74.0</ele><time>2026-04-19T10:46:27.999Z</time></trkpt><trkpt lat="43.36349730327575" lon="10.812682096096472"><ele>74.0</ele><time>2026-04-19T10:46:28.999Z</time></trkpt><trkpt lat="43.363576554368386" lon="10.812663253270856"><ele>74.0</ele><time>2026-04-19T10:46:29.999Z</time></trkpt><trkpt lat="43.36365038503935" lon="10.812680300524004"><ele>74.0</ele><time>2026-04-19T10:46:30.998Z</time></trkpt><trkpt lat="43.36372938913164" lon="10.812714334380187"><ele>74.0</ele><time>2026-04-19T10:46:31.998Z</time></trkpt><trkpt lat="43.36380854954317" lon="10.812771714800096"><ele>74.0</ele><time>2026-04-19T10:46:32.998Z</time></trkpt><trkpt lat="43.36389333352277" lon="10.812843973666565"><ele>74.0</ele><time>2026-04-19T10:46:33.998Z</time></trkpt><trkpt lat="43.36397811859303" lon="10.812924690058994"><ele>74.0</ele><time>2026-04-19T10:46:34.998Z</time></trkpt><trkpt lat="43.36406933988671" lon="10.813013781302082"><ele>75.0</ele><time>2026-04-19T10:46:35.998Z</time></trkpt><trkpt lat="43.3641650587212" lon="10.813112499061047"><ele>76.0</ele><time>2026-04-19T10:46:36.998Z</time></trkpt><trkpt lat="43.36426207648007" lon="10.813211919966653"><ele>77.0</ele><time>2026-04-19T10:46:37.998Z</time></trkpt><trkpt lat="43.364365058230035" lon="10.813309583613014"><ele>78.0</ele><time>2026-04-19T10:46:38.998Z</time></trkpt><trkpt lat="43.36446705921218" lon="10.81339315166727"><ele>78.2</ele><time>2026-04-19T10:46:39.998Z</time></trkpt><trkpt lat="43.36457037891601" lon="10.813491104477214"><ele>78.4</ele><time>2026-04-19T10:46:40.998Z</time></trkpt><trkpt lat="43.36466205362786" lon="10.813582079352576"><ele>78.60000000000001</ele><time>2026-04-19T10:46:41.998Z</time></trkpt><trkpt lat="43.36474838621862" lon="10.813660614920977"><ele>78.8</ele><time>2026-04-19T10:46:42.998Z</time></trkpt><trkpt lat="43.364833058753234" lon="10.813744077588726"><ele>79.0</ele><time>2026-04-19T10:46:43.998Z</time></trkpt><trkpt lat="43.36492154108809" lon="10.813830990620765"><ele>79.0</ele><time>2026-04-19T10:46:44.998Z</time></trkpt><trkpt lat="43.36500883052453" lon="10.813912993837203"><ele>79.0</ele><time>2026-04-19T10:46:45.998Z</time></trkpt><trkpt lat="43.36509625247648" lon="10.814004167991621"><ele>79.0</ele><time>2026-04-19T10:46:46.998Z</time></trkpt><trkpt lat="43.36518479080697" lon="10.81409747305553"><ele>79.0</ele><time>2026-04-19T10:46:47.998Z</time></trkpt><trkpt lat="43.36528382747439" lon="10.814191594018633"><ele>79.0</ele><time>2026-04-19T10:46:48.998Z</time></trkpt><trkpt lat="43.365385853356635" lon="10.814290122275109"><ele>78.25</ele><time>2026-04-19T10:46:49.998Z</time></trkpt><trkpt lat="43.3654930995326" lon="10.81438715779788"><ele>77.5</ele><time>2026-04-19T10:46:50.998Z</time></trkpt><trkpt lat="43.36560512610517" lon="10.814489177027907"><ele>76.75</ele><time>2026-04-19T10:46:51.998Z</time></trkpt><trkpt lat="43.365718433827446" lon="10.814588122080524"><ele>76.0</ele><time>2026-04-19T10:46:52.998Z</time></trkpt><trkpt lat="43.36583401980984" lon="10.81468488983721"><ele>77.75</ele><time>2026-04-19T10:46:53.998Z</time></trkpt><trkpt lat="43.365955617111226" lon="10.814776200381917"><ele>79.5</ele><time>2026-04-19T10:46:54.998Z</time></trkpt><trkpt lat="43.366081658447364" lon="10.81484740538648"><ele>81.25</ele><time>2026-04-19T10:46:55.998Z</time></trkpt><trkpt lat="43.36620737690141" lon="10.81491396849267"><ele>83.0</ele><time>2026-04-19T10:46:56.998Z</time></trkpt><trkpt lat="43.36633716889409" lon="10.814970789878583"><ele>85.25</ele><time>2026-04-19T10:46:57.998Z</time></trkpt><trkpt lat="43.36646434287973" lon="10.815037018167242"><ele>87.5</ele><time>2026-04-19T10:46:58.998Z</time></trkpt><trkpt lat="43.36659693127627" lon="10.81510455196054"><ele>89.75</ele><time>2026-04-19T10:46:59.998Z</time></trkpt><trkpt lat="43.3667346864694" lon="10.815155081727708"><ele>92.0</ele><time>2026-04-19T10:47:00.998Z</time></trkpt><trkpt lat="43.366875651386664" lon="10.815174423382091"><ele>92.0</ele><time>2026-04-19T10:47:01.998Z</time></trkpt><trkpt lat="43.3670164555415" lon="10.8151589308457"><ele>92.0</ele><time>2026-04-19T10:47:02.998Z</time></trkpt><trkpt lat="43.36715788510733" lon="10.815115836254515"><ele>92.0</ele><time>2026-04-19T10:47:03.998Z</time></trkpt><trkpt lat="43.36729823286174" lon="10.815059274649224"><ele>92.0</ele><time>2026-04-19T10:47:04.998Z</time></trkpt><trkpt lat="43.367436088525864" lon="10.814995995859276"><ele>92.5</ele><time>2026-04-19T10:47:05.998Z</time></trkpt><trkpt lat="43.36757417698886" lon="10.814933018840145"><ele>93.0</ele><time>2026-04-19T10:47:06.998Z</time></trkpt><trkpt lat="43.36771426184121" lon="10.81487494423841"><ele>93.5</ele><time>2026-04-19T10:47:07.998Z</time></trkpt><trkpt lat="43.36785589740729" lon="10.814828637058818"><ele>94.0</ele><time>2026-04-19T10:47:08.998Z</time></trkpt><trkpt lat="43.368000302104136" lon="10.814802783866176"><ele>94.5</ele><time>2026-04-19T10:47:09.998Z</time></trkpt><trkpt lat="43.36813874331991" lon="10.814796704599715"><ele>95.0</ele><time>2026-04-19T10:47:10.998Z</time></trkpt><trkpt lat="43.368263442834056" lon="10.814837229478176"><ele>95.5</ele><time>2026-04-19T10:47:11.998Z</time></trkpt><trkpt lat="43.368370869157836" lon="10.81492276233299"><ele>96.0</ele><time>2026-04-19T10:47:12.998Z</time></trkpt><trkpt lat="43.368437162631345" lon="10.815048756070857"><ele>97.25</ele><time>2026-04-19T10:47:13.998Z</time></trkpt><trkpt lat="43.368467701708965" lon="10.815200275213117"><ele>98.5</ele><time>2026-04-19T10:47:14.998Z</time></trkpt><trkpt lat="43.36846957586229" lon="10.81537621905656"><ele>99.75</ele><time>2026-04-19T10:47:15.998Z</time></trkpt><trkpt lat="43.368467469418434" lon="10.815564609273405"><ele>101.0</ele><time>2026-04-19T10:47:16.998Z</time></trkpt><trkpt lat="43.36846219870079" lon="10.815735633988883"><ele>101.0</ele><time>2026-04-19T10:47:17.998Z</time></trkpt><trkpt lat="43.36846983661026" lon="10.815923888058096"><ele>101.0</ele><time>2026-04-19T10:47:18.998Z</time></trkpt><trkpt lat="43.36849163187898" lon="10.816118137348385"><ele>101.0</ele><time>2026-04-19T10:47:19.998Z</time></trkpt><trkpt lat="43.36852743005834" lon="10.816310114750774"><ele>101.0</ele><time>2026-04-19T10:47:20.998Z</time></trkpt><trkpt lat="43.368613764438905" lon="10.816465482352383"><ele>101.75</ele><time>2026-04-19T10:47:21.998Z</time></trkpt><trkpt lat="43.36872863848534" lon="10.816585040568228"><ele>102.5</ele><time>2026-04-19T10:47:23Z</time></trkpt><trkpt lat="43.36887154275547" lon="10.816694630357016"><ele>103.25</ele><time>2026-04-19T10:47:24Z</time></trkpt><trkpt lat="43.36894573265197" lon="10.816819916814328"><ele>104.0</ele><time>2026-04-19T10:47:25Z</time></trkpt><trkpt lat="43.36899942042562" lon="10.81697488639609"><ele>105.75</ele><time>2026-04-19T10:47:26Z</time></trkpt><trkpt lat="43.36904084208277" lon="10.817129382429359"><ele>107.5</ele><time>2026-04-19T10:47:27Z</time></trkpt><trkpt lat="43.36909465212372" lon="10.817330088403782"><ele>109.25</ele><time>2026-04-19T10:47:28Z</time></trkpt><trkpt lat="43.369153467130175" lon="10.81751106411565"><ele>111.0</ele><time>2026-04-19T10:47:29Z</time></trkpt><trkpt lat="43.369212329834816" lon="10.817695480448592"><ele>113.66666666666666</ele><time>2026-04-19T10:47:30Z</time></trkpt><trkpt lat="43.369270692526484" lon="10.81788945209376"><ele>116.33333333333333</ele><time>2026-04-19T10:47:31Z</time></trkpt><trkpt lat="43.36932975645044" lon="10.818090275735823"><ele>119.0</ele><time>2026-04-19T10:47:32Z</time></trkpt><trkpt lat="43.369388022511" lon="10.81828977482474"><ele>121.0</ele><time>2026-04-19T10:47:33Z</time></trkpt><trkpt lat="43.36944568693154" lon="10.818490954499698"><ele>123.0</ele><time>2026-04-19T10:47:34Z</time></trkpt><trkpt lat="43.36951677683174" lon="10.818685399473068"><ele>125.0</ele><time>2026-04-19T10:47:35Z</time></trkpt><trkpt lat="43.36960288270898" lon="10.818860688671412"><ele>124.33333333333333</ele><time>2026-04-19T10:47:36Z</time></trkpt><trkpt lat="43.36969719062439" lon="10.819022837546452"><ele>123.66666666666666</ele><time>2026-04-19T10:47:37Z</time></trkpt><trkpt lat="43.36978888449241" lon="10.819190943498018"><ele>123.0</ele><time>2026-04-19T10:47:38Z</time></trkpt><trkpt lat="43.36988252205922" lon="10.819357173444214"><ele>123.0</ele><time>2026-04-19T10:47:39Z</time></trkpt><trkpt lat="43.369976444812394" lon="10.819534373033198"><ele>123.0</ele><time>2026-04-19T10:47:40Z</time></trkpt><trkpt lat="43.370069619336945" lon="10.819710275048175"><ele>123.0</ele><time>2026-04-19T10:47:41Z</time></trkpt><trkpt lat="43.37016449757025" lon="10.819878625454043"><ele>123.0</ele><time>2026-04-19T10:47:42Z</time></trkpt><trkpt lat="43.37026615067005" lon="10.8200442470143"><ele>123.0</ele><time>2026-04-19T10:47:43Z</time></trkpt><trkpt lat="43.3703807902429" lon="10.820203750887705"><ele>123.0</ele><time>2026-04-19T10:47:43.999Z</time></trkpt><trkpt lat="43.37051382573081" lon="10.820344547352066"><ele>123.0</ele><time>2026-04-19T10:47:44.999Z</time></trkpt><trkpt lat="43.370657145266755" lon="10.820463619021771"><ele>123.0</ele><time>2026-04-19T10:47:45.999Z</time></trkpt><trkpt lat="43.37081187766541" lon="10.820580114661409"><ele>123.0</ele><time>2026-04-19T10:47:46.999Z</time></trkpt><trkpt lat="43.370956092388084" lon="10.82070692728287"><ele>123.0</ele><time>2026-04-19T10:47:47.999Z</time></trkpt><trkpt lat="43.371107875941505" lon="10.820845410708198"><ele>123.0</ele><time>2026-04-19T10:47:48.999Z</time></trkpt><trkpt lat="43.371267692890896" lon="10.820981731204208"><ele>123.0</ele><time>2026-04-19T10:47:49.999Z</time></trkpt><trkpt lat="43.37142057724811" lon="10.82112200282391"><ele>123.33333333333334</ele><time>2026-04-19T10:47:50.999Z</time></trkpt><trkpt lat="43.37156417101332" lon="10.821249263506674"><ele>123.66666666666667</ele><time>2026-04-19T10:47:51.999Z</time></trkpt><trkpt lat="43.37170942094835" lon="10.821381492215838"><ele>124.0</ele><time>2026-04-19T10:47:52.999Z</time></trkpt><trkpt lat="43.37185304901079" lon="10.821516681807847"><ele>124.0</ele><time>2026-04-19T10:47:53.999Z</time></trkpt><trkpt lat="43.3719951729761" lon="10.821646446954245"><ele>124.0</ele><time>2026-04-19T10:47:54.999Z</time></trkpt><trkpt lat="43.37213982058323" lon="10.821764413582178"><ele>124.0</ele><time>2026-04-19T10:47:55.999Z</time></trkpt><trkpt lat="43.37229484280445" lon="10.821837281002512"><ele>124.0</ele><time>2026-04-19T10:47:56.999Z</time></trkpt><trkpt lat="43.372468293123255" lon="10.821834989878605"><ele>124.0</ele><time>2026-04-19T10:47:57.999Z</time></trkpt><trkpt lat="43.37263928277109" lon="10.821804627692133"><ele>124.0</ele><time>2026-04-19T10:47:58.999Z</time></trkpt><trkpt lat="43.37280071733338" lon="10.821823078610462"><ele>124.66666666666667</ele><time>2026-04-19T10:47:59.999Z</time></trkpt><trkpt lat="43.37295613626215" lon="10.82191726438048"><ele>125.33333333333334</ele><time>2026-04-19T10:48:00.999Z</time></trkpt><trkpt lat="43.373094926465264" lon="10.822093414498783"><ele>126.0</ele><time>2026-04-19T10:48:01.999Z</time></trkpt><trkpt lat="43.37319652309833" lon="10.822265310493561"><ele>126.0</ele><time>2026-04-19T10:48:02.999Z</time></trkpt><trkpt lat="43.37331619139686" lon="10.82241233938346"><ele>126.0</ele><time>2026-04-19T10:48:03.999Z</time></trkpt><trkpt lat="43.373448312348444" lon="10.822517222440517"><ele>126.0</ele><time>2026-04-19T10:48:04.999Z</time></trkpt><trkpt lat="43.37359298084776" lon="10.82256876160754"><ele>126.0</ele><time>2026-04-19T10:48:05.999Z</time></trkpt><trkpt lat="43.373745968511926" lon="10.822587417928533"><ele>126.0</ele><time>2026-04-19T10:48:06.999Z</time></trkpt><trkpt lat="43.37390074003876" lon="10.822581817645208"><ele>126.0</ele><time>2026-04-19T10:48:07.999Z</time></trkpt><trkpt lat="43.37405401685253" lon="10.822571180064267"><ele>128.33333333333334</ele><time>2026-04-19T10:48:08.999Z</time></trkpt><trkpt lat="43.37420578499956" lon="10.822537953173626"><ele>130.66666666666669</ele><time>2026-04-19T10:48:09.999Z</time></trkpt><trkpt lat="43.374354060477124" lon="10.822481289537418"><ele>133.0</ele><time>2026-04-19T10:48:10.999Z</time></trkpt><trkpt lat="43.37449811759555" lon="10.822397407661834"><ele>133.0</ele><time>2026-04-19T10:48:11.999Z</time></trkpt><trkpt lat="43.374636554096014" lon="10.822309201322186"><ele>133.0</ele><time>2026-04-19T10:48:12.999Z</time></trkpt><trkpt lat="43.3747686029023" lon="10.822236217391813"><ele>133.0</ele><time>2026-04-19T10:48:13.999Z</time></trkpt><trkpt lat="43.37490234732195" lon="10.822191702114031"><ele>133.0</ele><time>2026-04-19T10:48:14.999Z</time></trkpt><trkpt lat="43.37504488129841" lon="10.82219755065841"><ele>133.0</ele><time>2026-04-19T10:48:15.999Z</time></trkpt><trkpt lat="43.37519350077178" lon="10.822243073619058"><ele>133.0</ele><time>2026-04-19T10:48:16.999Z</time></trkpt><trkpt lat="43.37534966559036" lon="10.822303694605534"><ele>133.0</ele><time>2026-04-19T10:48:17.999Z</time></trkpt><trkpt lat="43.37551067959886" lon="10.822353047140924"><ele>131.66666666666669</ele><time>2026-04-19T10:48:18.999Z</time></trkpt><trkpt lat="43.37568416185267" lon="10.822382195607213"><ele>130.33333333333334</ele><time>2026-04-19T10:48:19.999Z</time></trkpt><trkpt lat="43.3758598972757" lon="10.822404120929795"><ele>129.0</ele><time>2026-04-19T10:48:20.999Z</time></trkpt><trkpt lat="43.37603903201731" lon="10.822426856164519"><ele>129.0</ele><time>2026-04-19T10:48:21.999Z</time></trkpt><trkpt lat="43.37622072511306" lon="10.822439913687694"><ele>129.0</ele><time>2026-04-19T10:48:22.999Z</time></trkpt><trkpt lat="43.376405902273724" lon="10.82244930402533"><ele>129.0</ele><time>2026-04-19T10:48:23.999Z</time></trkpt><trkpt lat="43.37659040838502" lon="10.82246381111103"><ele>129.0</ele><time>2026-04-19T10:48:24.999Z</time></trkpt><trkpt lat="43.37677018580149" lon="10.822479143785378"><ele>129.0</ele><time>2026-04-19T10:48:25.999Z</time></trkpt><trkpt lat="43.37694492284511" lon="10.822494045402161"><ele>129.0</ele><time>2026-04-19T10:48:26.999Z</time></trkpt><trkpt lat="43.37711405978227" lon="10.822515399746292"><ele>129.66666666666666</ele><time>2026-04-19T10:48:27.999Z</time></trkpt><trkpt lat="43.37727235356706" lon="10.822551450429266"><ele>130.33333333333331</ele><time>2026-04-19T10:48:28.999Z</time></trkpt><trkpt lat="43.37741704413516" lon="10.822627549152601"><ele>131.0</ele><time>2026-04-19T10:48:29.999Z</time></trkpt><trkpt lat="43.377543465035814" lon="10.82275245678881"><ele>131.0</ele><time>2026-04-19T10:48:30.999Z</time></trkpt><trkpt lat="43.37764224441614" lon="10.82290966769277"><ele>131.0</ele><time>2026-04-19T10:48:31.999Z</time></trkpt><trkpt lat="43.37770971599989" lon="10.823105203256711"><ele>131.0</ele><time>2026-04-19T10:48:32.999Z</time></trkpt><trkpt lat="43.377776011613655" lon="10.823273284634201"><ele>131.0</ele><time>2026-04-19T10:48:33.999Z</time></trkpt><trkpt lat="43.3778688889653" lon="10.823425271384478"><ele>133.0</ele><time>2026-04-19T10:48:34.998Z</time></trkpt><trkpt lat="43.37798172608272" lon="10.823550215043513"><ele>135.0</ele><time>2026-04-19T10:48:35.998Z</time></trkpt><trkpt lat="43.3781218754862" lon="10.8236313891674"><ele>137.0</ele><time>2026-04-19T10:48:36.998Z</time></trkpt><trkpt lat="43.37827949439989" lon="10.82368445576664"><ele>137.0</ele><time>2026-04-19T10:48:37.998Z</time></trkpt><trkpt lat="43.378434073725714" lon="10.8237241644983"><ele>137.0</ele><time>2026-04-19T10:48:38.998Z</time></trkpt><trkpt lat="43.378582757409426" lon="10.823771211821182"><ele>137.0</ele><time>2026-04-19T10:48:39.998Z</time></trkpt><trkpt lat="43.37873036872989" lon="10.823832265580975"><ele>139.33333333333331</ele><time>2026-04-19T10:48:40.998Z</time></trkpt><trkpt lat="43.37887179574963" lon="10.823918761642211"><ele>141.66666666666666</ele><time>2026-04-19T10:48:41.998Z</time></trkpt><trkpt lat="43.37899704268142" lon="10.82403969106255"><ele>144.0</ele><time>2026-04-19T10:48:42.998Z</time></trkpt><trkpt lat="43.37911671228336" lon="10.824192035329364"><ele>146.0</ele><time>2026-04-19T10:48:43.998Z</time></trkpt><trkpt lat="43.37923239792015" lon="10.824345365062772"><ele>148.0</ele><time>2026-04-19T10:48:44.998Z</time></trkpt><trkpt lat="43.37935509868546" lon="10.824479761505653"><ele>150.0</ele><time>2026-04-19T10:48:45.998Z</time></trkpt><trkpt lat="43.37949359108742" lon="10.824590146997739"><ele>150.0</ele><time>2026-04-19T10:48:46.998Z</time></trkpt><trkpt lat="43.37963911909204" lon="10.824667025568056"><ele>150.0</ele><time>2026-04-19T10:48:47.998Z</time></trkpt><trkpt lat="43.379780193730674" lon="10.82473788256945"><ele>150.0</ele><time>2026-04-19T10:48:48.998Z</time></trkpt><trkpt lat="43.379912175629805" lon="10.824815501725046"><ele>150.75</ele><time>2026-04-19T10:48:49.998Z</time></trkpt><trkpt lat="43.38003102266606" lon="10.824910957490632"><ele>151.5</ele><time>2026-04-19T10:48:50.998Z</time></trkpt><trkpt lat="43.380140277209" lon="10.825038520627716"><ele>152.25</ele><time>2026-04-19T10:48:51.998Z</time></trkpt><trkpt lat="43.380224410832234" lon="10.82520692759284"><ele>153.0</ele><time>2026-04-19T10:48:52.998Z</time></trkpt><trkpt lat="43.380276685467045" lon="10.82539657991416"><ele>154.66666666666666</ele><time>2026-04-19T10:48:53.998Z</time></trkpt><trkpt lat="43.380283771168514" lon="10.82560794784392"><ele>156.33333333333331</ele><time>2026-04-19T10:48:54.998Z</time></trkpt><trkpt lat="43.38027881234467" lon="10.825820725519653"><ele>158.0</ele><time>2026-04-19T10:48:55.998Z</time></trkpt><trkpt lat="43.38028286664055" lon="10.82603009388932"><ele>158.0</ele><time>2026-04-19T10:48:56.998Z</time></trkpt><trkpt lat="43.38028933608642" lon="10.826238878854285"><ele>158.0</ele><time>2026-04-19T10:48:57.998Z</time></trkpt><trkpt lat="43.38029781099023" lon="10.826447178248769"><ele>158.0</ele><time>2026-04-19T10:48:58.998Z</time></trkpt><trkpt lat="43.380312628860636" lon="10.826644621816616"><ele>158.0</ele><time>2026-04-19T10:48:59.998Z</time></trkpt><trkpt lat="43.3803560912499" lon="10.826839916690233"><ele>158.25</ele><time>2026-04-19T10:49:00.998Z</time></trkpt><trkpt lat="43.38044332194964" lon="10.826984451103321"><ele>158.5</ele><time>2026-04-19T10:49:01.998Z</time></trkpt><trkpt lat="43.380573792148354" lon="10.827080496290224"><ele>158.75</ele><time>2026-04-19T10:49:02.998Z</time></trkpt><trkpt lat="43.380701877574595" lon="10.827172164175193"><ele>159.0</ele><time>2026-04-19T10:49:03.998Z</time></trkpt><trkpt lat="43.380809200360055" lon="10.827284835273355"><ele>159.75</ele><time>2026-04-19T10:49:04.998Z</time></trkpt><trkpt lat="43.38089310237692" lon="10.827446241327829"><ele>160.5</ele><time>2026-04-19T10:49:05.998Z</time></trkpt><trkpt lat="43.380952088060766" lon="10.827634435724294"><ele>161.25</ele><time>2026-04-19T10:49:06.998Z</time></trkpt><trkpt lat="43.380990380169344" lon="10.827824003797735"><ele>162.0</ele><time>2026-04-19T10:49:07.998Z</time></trkpt><trkpt lat="43.38102744469531" lon="10.828029094730493"><ele>162.0</ele><time>2026-04-19T10:49:08.998Z</time></trkpt><trkpt lat="43.38105050651954" lon="10.828228088284028"><ele>162.0</ele><time>2026-04-19T10:49:09.998Z</time></trkpt><trkpt lat="43.38104014309261" lon="10.828442188092339"><ele>162.0</ele><time>2026-04-19T10:49:10.998Z</time></trkpt><trkpt lat="43.381011909811825" lon="10.828656650862976"><ele>161.33333333333334</ele><time>2026-04-19T10:49:11.998Z</time></trkpt><trkpt lat="43.380977395260196" lon="10.828867713803216"><ele>160.66666666666669</ele><time>2026-04-19T10:49:12.998Z</time></trkpt><trkpt lat="43.380951025320094" lon="10.829088544648863"><ele>160.0</ele><time>2026-04-19T10:49:13.998Z</time></trkpt><trkpt lat="43.38092767516312" lon="10.829321546845385"><ele>160.0</ele><time>2026-04-19T10:49:14.998Z</time></trkpt><trkpt lat="43.380901825574824" lon="10.829562115850257"><ele>160.0</ele><time>2026-04-19T10:49:15.998Z</time></trkpt><trkpt lat="43.38087165088648" lon="10.829806343294294"><ele>160.0</ele><time>2026-04-19T10:49:16.998Z</time></trkpt><trkpt lat="43.38084544682209" lon="10.830051129516784"><ele>160.33333333333334</ele><time>2026-04-19T10:49:17.998Z</time></trkpt><trkpt lat="43.38081926332554" lon="10.83030102268462"><ele>160.66666666666666</ele><time>2026-04-19T10:49:18.998Z</time></trkpt><trkpt lat="43.38079180482593" lon="10.830550617196625"><ele>161.0</ele><time>2026-04-19T10:49:19.998Z</time></trkpt><trkpt lat="43.38076139360878" lon="10.830799802043948"><ele>162.33333333333331</ele><time>2026-04-19T10:49:20.998Z</time></trkpt><trkpt lat="43.38074439647778" lon="10.831048655182785"><ele>163.66666666666666</ele><time>2026-04-19T10:49:21.998Z</time></trkpt><trkpt lat="43.38075079612021" lon="10.831295799492006"><ele>165.0</ele><time>2026-04-19T10:49:22.998Z</time></trkpt><trkpt lat="43.380798335911734" lon="10.831538547792473"><ele>165.0</ele><time>2026-04-19T10:49:23.998Z</time></trkpt><trkpt lat="43.38085800674426" lon="10.831767899465344"><ele>165.0</ele><time>2026-04-19T10:49:24.998Z</time></trkpt><trkpt lat="43.380906924511955" lon="10.831994070727744"><ele>165.0</ele><time>2026-04-19T10:49:25.998Z</time></trkpt><trkpt lat="43.3809648440343" lon="10.832212227961394"><ele>165.0</ele><time>2026-04-19T10:49:26.998Z</time></trkpt><trkpt lat="43.381039411259486" lon="10.832422540314695"><ele>165.0</ele><time>2026-04-19T10:49:27.998Z</time></trkpt><trkpt lat="43.38111679168248" lon="10.832639745800554"><ele>165.0</ele><time>2026-04-19T10:49:29Z</time></trkpt><trkpt lat="43.381201872466804" lon="10.832853934494427"><ele>165.0</ele><time>2026-04-19T10:49:30Z</time></trkpt><trkpt lat="43.38130152471686" lon="10.833060204571755"><ele>165.0</ele><time>2026-04-19T10:49:31Z</time></trkpt><trkpt lat="43.381412778044016" lon="10.833251777532515"><ele>165.0</ele><time>2026-04-19T10:49:32Z</time></trkpt><trkpt lat="43.381525035934985" lon="10.83344590537073"><ele>168.33333333333334</ele><time>2026-04-19T10:49:33Z</time></trkpt><trkpt lat="43.3816368085959" lon="10.833641849673509"><ele>171.66666666666669</ele><time>2026-04-19T10:49:34Z</time></trkpt><trkpt lat="43.38174988084311" lon="10.833838052545477"><ele>175.0</ele><time>2026-04-19T10:49:35Z</time></trkpt><trkpt lat="43.38186573950473" lon="10.834037456059374"><ele>175.0</ele><time>2026-04-19T10:49:36Z</time></trkpt><trkpt lat="43.381983547242825" lon="10.834237072152073"><ele>175.0</ele><time>2026-04-19T10:49:37Z</time></trkpt><trkpt lat="43.38210398073994" lon="10.834435610977808"><ele>175.0</ele><time>2026-04-19T10:49:38Z</time></trkpt><trkpt lat="43.38222734571165" lon="10.83462637857439"><ele>175.33333333333334</ele><time>2026-04-19T10:49:39Z</time></trkpt><trkpt lat="43.38235415438481" lon="10.834815156119992"><ele>175.66666666666666</ele><time>2026-04-19T10:49:40Z</time></trkpt><trkpt lat="43.38248603290744" lon="10.834999542164635"><ele>176.0</ele><time>2026-04-19T10:49:41Z</time></trkpt><trkpt lat="43.38261838637857" lon="10.835179054039957"><ele>176.0</ele><time>2026-04-19T10:49:42Z</time></trkpt><trkpt lat="43.38274903822178" lon="10.835358117421675"><ele>176.0</ele><time>2026-04-19T10:49:43Z</time></trkpt><trkpt lat="43.38287333267234" lon="10.835530987215718"><ele>176.0</ele><time>2026-04-19T10:49:44Z</time></trkpt><trkpt lat="43.382992123814965" lon="10.835690071563747"><ele>176.66666666666666</ele><time>2026-04-19T10:49:45Z</time></trkpt><trkpt lat="43.38310408100057" lon="10.83583160522285"><ele>177.33333333333334</ele><time>2026-04-19T10:49:46Z</time></trkpt><trkpt lat="43.383214705489394" lon="10.835972973810586"><ele>178.0</ele><time>2026-04-19T10:49:47Z</time></trkpt><trkpt lat="43.38332952540573" lon="10.836115713776929"><ele>178.0</ele><time>2026-04-19T10:49:48Z</time></trkpt><trkpt lat="43.38344833488788" lon="10.836259854651049"><ele>178.0</ele><time>2026-04-19T10:49:49Z</time></trkpt><trkpt lat="43.383576856410215" lon="10.836405385463602"><ele>178.0</ele><time>2026-04-19T10:49:49.999Z</time></trkpt><trkpt lat="43.38370587661763" lon="10.836546651741788"><ele>178.0</ele><time>2026-04-19T10:49:50.999Z</time></trkpt><trkpt lat="43.38383319557855" lon="10.836689676562576"><ele>178.0</ele><time>2026-04-19T10:49:51.999Z</time></trkpt><trkpt lat="43.38395689268439" lon="10.836833811066985"><ele>178.0</ele><time>2026-04-19T10:49:52.999Z</time></trkpt><trkpt lat="43.38407592411421" lon="10.836968561742442"><ele>178.5</ele><time>2026-04-19T10:49:53.999Z</time></trkpt><trkpt lat="43.384186866844864" lon="10.837095851261"><ele>179.0</ele><time>2026-04-19T10:49:54.999Z</time></trkpt><trkpt lat="43.3842926863494" lon="10.837217727142852"><ele>179.5</ele><time>2026-04-19T10:49:55.999Z</time></trkpt><trkpt lat="43.384397354837866" lon="10.837336933212757"><ele>180.0</ele><time>2026-04-19T10:49:56.999Z</time></trkpt><trkpt lat="43.38449283948144" lon="10.837441220885765"><ele>180.0</ele><time>2026-04-19T10:49:57.999Z</time></trkpt><trkpt lat="43.38458369068627" lon="10.83753173722317"><ele>180.0</ele><time>2026-04-19T10:49:58.999Z</time></trkpt><trkpt lat="43.38467957016097" lon="10.837600595529844"><ele>180.0</ele><time>2026-04-19T10:49:59.999Z</time></trkpt><trkpt lat="43.38478483169063" lon="10.83765091137363"><ele>180.0</ele><time>2026-04-19T10:50:00.999Z</time></trkpt><trkpt lat="43.38490318824364" lon="10.837679328252454"><ele>182.5</ele><time>2026-04-19T10:50:01.999Z</time></trkpt><trkpt lat="43.38502192848902" lon="10.837678562534455"><ele>185.0</ele><time>2026-04-19T10:50:02.999Z</time></trkpt><trkpt lat="43.38514619976405" lon="10.837675189243178"><ele>187.5</ele><time>2026-04-19T10:50:03.999Z</time></trkpt><trkpt lat="43.38527227840071" lon="10.837674694519661"><ele>190.0</ele><time>2026-04-19T10:50:04.999Z</time></trkpt><trkpt lat="43.385403764668276" lon="10.837683799506703"><ele>192.0</ele><time>2026-04-19T10:50:05.999Z</time></trkpt><trkpt lat="43.38553635755286" lon="10.837707021908574"><ele>194.0</ele><time>2026-04-19T10:50:06.999Z</time></trkpt><trkpt lat="43.38567278049739" lon="10.837745010791199"><ele>196.0</ele><time>2026-04-19T10:50:07.999Z</time></trkpt><trkpt lat="43.385808707191735" lon="10.83779387214115"><ele>198.0</ele><time>2026-04-19T10:50:08.999Z</time></trkpt><trkpt lat="43.38594332446805" lon="10.837851565884604"><ele>198.0</ele><time>2026-04-19T10:50:09.999Z</time></trkpt><trkpt lat="43.386088566834374" lon="10.837932149510442"><ele>198.0</ele><time>2026-04-19T10:50:10.999Z</time></trkpt><trkpt lat="43.386238413121724" lon="10.838014173844316"><ele>198.0</ele><time>2026-04-19T10:50:11.999Z</time></trkpt><trkpt lat="43.386374797057904" lon="10.83812274326363"><ele>199.33333333333331</ele><time>2026-04-19T10:50:12.999Z</time></trkpt><trkpt lat="43.38651357154521" lon="10.838213253360593"><ele>200.66666666666666</ele><time>2026-04-19T10:50:13.999Z</time></trkpt><trkpt lat="43.38665131002511" lon="10.838305403625853"><ele>202.0</ele><time>2026-04-19T10:50:14.999Z</time></trkpt><trkpt lat="43.38678340782644" lon="10.838399148445639"><ele>204.5</ele><time>2026-04-19T10:50:15.999Z</time></trkpt><trkpt lat="43.38691004869065" lon="10.83849526833569"><ele>207.0</ele><time>2026-04-19T10:50:16.999Z</time></trkpt><trkpt lat="43.38700873753168" lon="10.838657286496733"><ele>209.5</ele><time>2026-04-19T10:50:17.999Z</time></trkpt><trkpt lat="43.38706392760278" lon="10.838848564311583"><ele>212.0</ele><time>2026-04-19T10:50:18.999Z</time></trkpt><trkpt lat="43.38711449585094" lon="10.839017959927714"><ele>214.0</ele><time>2026-04-19T10:50:19.999Z</time></trkpt><trkpt lat="43.3871992455628" lon="10.839181990776748"><ele>216.0</ele><time>2026-04-19T10:50:20.999Z</time></trkpt><trkpt lat="43.38731680492713" lon="10.839355690236642"><ele>218.0</ele><time>2026-04-19T10:50:21.999Z</time></trkpt><trkpt lat="43.3874432156581" lon="10.839495976426203"><ele>218.0</ele><time>2026-04-19T10:50:22.999Z</time></trkpt><trkpt lat="43.38757524092734" lon="10.839624038771376"><ele>218.0</ele><time>2026-04-19T10:50:23.999Z</time></trkpt><trkpt lat="43.38770986971638" lon="10.839754707725886"><ele>218.0</ele><time>2026-04-19T10:50:24.999Z</time></trkpt><trkpt lat="43.387835499244375" lon="10.839884435621386"><ele>218.0</ele><time>2026-04-19T10:50:25.999Z</time></trkpt><trkpt lat="43.38795535594355" lon="10.840031446432256"><ele>218.0</ele><time>2026-04-19T10:50:26.999Z</time></trkpt><trkpt lat="43.3880769344292" lon="10.840171155507303"><ele>218.0</ele><time>2026-04-19T10:50:27.999Z</time></trkpt><trkpt lat="43.38819875438581" lon="10.840320819368758"><ele>219.0</ele><time>2026-04-19T10:50:28.999Z</time></trkpt><trkpt lat="43.38831627869355" lon="10.840473511810254"><ele>220.0</ele><time>2026-04-19T10:50:29.999Z</time></trkpt><trkpt lat="43.388428738828644" lon="10.840629301635175"><ele>221.0</ele><time>2026-04-19T10:50:30.999Z</time></trkpt><trkpt lat="43.38853692666989" lon="10.840789025492679"><ele>221.0</ele><time>2026-04-19T10:50:31.999Z</time></trkpt><trkpt lat="43.388642625469814" lon="10.840937441458422"><ele>221.0</ele><time>2026-04-19T10:50:32.999Z</time></trkpt><trkpt lat="43.38875470993589" lon="10.841091488838993"><ele>221.0</ele><time>2026-04-19T10:50:33.999Z</time></trkpt><trkpt lat="43.388841490048605" lon="10.841243252652058"><ele>222.25</ele><time>2026-04-19T10:50:34.999Z</time></trkpt><trkpt lat="43.388901158487" lon="10.841420685335025"><ele>223.5</ele><time>2026-04-19T10:50:35.999Z</time></trkpt><trkpt lat="43.38895355724784" lon="10.841585409431278"><ele>224.75</ele><time>2026-04-19T10:50:36.999Z</time></trkpt><trkpt lat="43.38904166201951" lon="10.84170349047528"><ele>226.0</ele><time>2026-04-19T10:50:37.999Z</time></trkpt><trkpt lat="43.3891552711951" lon="10.841779666564094"><ele>226.0</ele><time>2026-04-19T10:50:38.999Z</time></trkpt><trkpt lat="43.38929116527672" lon="10.841813578652273"><ele>226.0</ele><time>2026-04-19T10:50:39.999Z</time></trkpt><trkpt lat="43.38943125939058" lon="10.841804532358221"><ele>226.0</ele><time>2026-04-19T10:50:40.999Z</time></trkpt><trkpt lat="43.38956496905398" lon="10.841776567534795"><ele>226.0</ele><time>2026-04-19T10:50:41.999Z</time></trkpt><trkpt lat="43.389709850658875" lon="10.841776191405167"><ele>226.5</ele><time>2026-04-19T10:50:42.999Z</time></trkpt><trkpt lat="43.3898505233121" lon="10.841771612425212"><ele>227.0</ele><time>2026-04-19T10:50:43.999Z</time></trkpt><trkpt lat="43.3899949388174" lon="10.841768070619738"><ele>227.5</ele><time>2026-04-19T10:50:44.998Z</time></trkpt><trkpt lat="43.39014216557517" lon="10.841767059306566"><ele>228.0</ele><time>2026-04-19T10:50:45.998Z</time></trkpt><trkpt lat="43.39028794368644" lon="10.841762974021147"><ele>228.0</ele><time>2026-04-19T10:50:46.998Z</time></trkpt><trkpt lat="43.390426095419" lon="10.841754399366271"><ele>228.0</ele><time>2026-04-19T10:50:47.998Z</time></trkpt><trkpt lat="43.39055236620508" lon="10.841767566763002"><ele>228.0</ele><time>2026-04-19T10:50:48.998Z</time></trkpt><trkpt lat="43.39070021194811" lon="10.841801039824292"><ele>228.0</ele><time>2026-04-19T10:50:49.998Z</time></trkpt><trkpt lat="43.390799743988694" lon="10.841910813881217"><ele>231.25</ele><time>2026-04-19T10:50:50.998Z</time></trkpt><trkpt lat="43.39091128184663" lon="10.842030197264704"><ele>234.5</ele><time>2026-04-19T10:50:51.998Z</time></trkpt><trkpt lat="43.39101438909868" lon="10.842162755025175"><ele>237.75</ele><time>2026-04-19T10:50:52.998Z</time></trkpt><trkpt lat="43.39110836239703" lon="10.842285426319913"><ele>241.0</ele><time>2026-04-19T10:50:53.998Z</time></trkpt><trkpt lat="43.391192100487245" lon="10.842390039342044"><ele>240.99999999999997</ele><time>2026-04-19T10:50:54.998Z</time></trkpt><trkpt lat="43.3912534517278" lon="10.8424999591014"><ele>241.0</ele><time>2026-04-19T10:50:55.998Z</time></trkpt><trkpt lat="43.39127051534205" lon="10.842619569005201"><ele>241.0</ele><time>2026-04-19T10:50:56.998Z</time></trkpt><trkpt lat="43.39124145875667" lon="10.842733784274987"><ele>241.0</ele><time>2026-04-19T10:50:57.998Z</time></trkpt><trkpt lat="43.39118126173706" lon="10.842797685978987"><ele>240.99999999999997</ele><time>2026-04-19T10:50:58.998Z</time></trkpt><trkpt lat="43.39110211599817" lon="10.84280527768775"><ele>241.0</ele><time>2026-04-19T10:50:59.998Z</time></trkpt><trkpt lat="43.39102268541741" lon="10.842748819630964"><ele>241.0</ele><time>2026-04-19T10:51:00.998Z</time></trkpt><trkpt lat="43.390955968078984" lon="10.842669392073505"><ele>241.00000000000003</ele><time>2026-04-19T10:51:01.998Z</time></trkpt><trkpt lat="43.3908619482139" lon="10.842593328766398"><ele>241.00000000000003</ele><time>2026-04-19T10:51:02.998Z</time></trkpt><trkpt lat="43.390774649080235" lon="10.842528970461466"><ele>241.0</ele><time>2026-04-19T10:51:03.998Z</time></trkpt><trkpt lat="43.390666503533275" lon="10.84246697615145"><ele>241.0</ele><time>2026-04-19T10:51:04.998Z</time></trkpt><trkpt lat="43.39054520582925" lon="10.842463491598522"><ele>240.75</ele><time>2026-04-19T10:51:05.998Z</time></trkpt><trkpt lat="43.39042508082521" lon="10.842504606155918"><ele>240.5</ele><time>2026-04-19T10:51:06.998Z</time></trkpt><trkpt lat="43.39033596325002" lon="10.842606236124237"><ele>240.25</ele><time>2026-04-19T10:51:07.998Z</time></trkpt><trkpt lat="43.39027217532346" lon="10.842760478002871"><ele>240.0</ele><time>2026-04-19T10:51:08.998Z</time></trkpt><trkpt lat="43.3902432424978" lon="10.842922556223348"><ele>243.75</ele><time>2026-04-19T10:51:09.998Z</time></trkpt><trkpt lat="43.390233771295804" lon="10.843096707315858"><ele>247.5</ele><time>2026-04-19T10:51:10.998Z</time></trkpt><trkpt lat="43.39023418988534" lon="10.843278284583533"><ele>251.25</ele><time>2026-04-19T10:51:11.998Z</time></trkpt><trkpt lat="43.390293734943555" lon="10.843407588879304"><ele>255.0</ele><time>2026-04-19T10:51:12.998Z</time></trkpt><trkpt lat="43.39040335136005" lon="10.843487330235147"><ele>256.0</ele><time>2026-04-19T10:51:13.998Z</time></trkpt><trkpt lat="43.39052465305039" lon="10.843544501547024"><ele>257.0</ele><time>2026-04-19T10:51:14.998Z</time></trkpt><trkpt lat="43.3906189602348" lon="10.843606108730649"><ele>258.0</ele><time>2026-04-19T10:51:15.998Z</time></trkpt><trkpt lat="43.39070775965527" lon="10.843688252925562"><ele>259.0</ele><time>2026-04-19T10:51:16.998Z</time></trkpt><trkpt lat="43.39078869836033" lon="10.843768822643797"><ele>260.0</ele><time>2026-04-19T10:51:17.998Z</time></trkpt><trkpt lat="43.39086246202372" lon="10.843865090541609"><ele>260.0</ele><time>2026-04-19T10:51:18.998Z</time></trkpt><trkpt lat="43.39091288193151" lon="10.843978869310261"><ele>260.0</ele><time>2026-04-19T10:51:19.998Z</time></trkpt><trkpt lat="43.39092422328606" lon="10.844102884682506"><ele>260.0</ele><time>2026-04-19T10:51:20.998Z</time></trkpt><trkpt lat="43.39089849391145" lon="10.8442498174844"><ele>260.0</ele><time>2026-04-19T10:51:21.998Z</time></trkpt><trkpt lat="43.390808240408354" lon="10.84432895940345"><ele>260.0</ele><time>2026-04-19T10:51:22.998Z</time></trkpt><trkpt lat="43.39072853525988" lon="10.844336793936915"><ele>261.25</ele><time>2026-04-19T10:51:23.998Z</time></trkpt><trkpt lat="43.39063767963512" lon="10.84430399576749"><ele>262.5</ele><time>2026-04-19T10:51:24.998Z</time></trkpt><trkpt lat="43.39049577760171" lon="10.844269925039573"><ele>263.75</ele><time>2026-04-19T10:51:25.998Z</time></trkpt><trkpt lat="43.39036515048894" lon="10.844233750896173"><ele>265.0</ele><time>2026-04-19T10:51:26.998Z</time></trkpt><trkpt lat="43.39024310746508" lon="10.8441999539763"><ele>265.0</ele><time>2026-04-19T10:51:27.998Z</time></trkpt><trkpt lat="43.390123720182714" lon="10.844212450402553"><ele>265.0</ele><time>2026-04-19T10:51:28.998Z</time></trkpt><trkpt lat="43.390009514372586" lon="10.844179809013237"><ele>265.0</ele><time>2026-04-19T10:51:29.998Z</time></trkpt><trkpt lat="43.389884451198284" lon="10.844157769938164"><ele>265.0</ele><time>2026-04-19T10:51:30.998Z</time></trkpt><trkpt lat="43.389746080320535" lon="10.844170368695007"><ele>265.0</ele><time>2026-04-19T10:51:31.998Z</time></trkpt><trkpt lat="43.38959022625211" lon="10.844220295786117"><ele>265.0</ele><time>2026-04-19T10:51:32.998Z</time></trkpt><trkpt lat="43.38941717665699" lon="10.844272683000453"><ele>265.0</ele><time>2026-04-19T10:51:34Z</time></trkpt><trkpt lat="43.38923787122712" lon="10.84432395653069"><ele>264.3333333333333</ele><time>2026-04-19T10:51:35Z</time></trkpt><trkpt lat="43.38907490512915" lon="10.844400320439316"><ele>263.6666666666667</ele><time>2026-04-19T10:51:36Z</time></trkpt><trkpt lat="43.38892999707783" lon="10.84444452891521"><ele>263.0</ele><time>2026-04-19T10:51:37Z</time></trkpt><trkpt lat="43.38881144994937" lon="10.844550788662035"><ele>263.0</ele><time>2026-04-19T10:51:38Z</time></trkpt><trkpt lat="43.38872420891151" lon="10.844731682399994"><ele>263.0</ele><time>2026-04-19T10:51:39Z</time></trkpt><trkpt lat="43.38866448450416" lon="10.84492961256391"><ele>263.0</ele><time>2026-04-19T10:51:40Z</time></trkpt><trkpt lat="43.38861766803621" lon="10.845144005465647"><ele>263.25</ele><time>2026-04-19T10:51:41Z</time></trkpt><trkpt lat="43.38860976965078" lon="10.845345341070805"><ele>263.5</ele><time>2026-04-19T10:51:42Z</time></trkpt><trkpt lat="43.3886102712745" lon="10.845540738473312"><ele>263.75</ele><time>2026-04-19T10:51:43Z</time></trkpt><trkpt lat="43.3886274586938" lon="10.8457379514173"><ele>264.0</ele><time>2026-04-19T10:51:44Z</time></trkpt><trkpt lat="43.38867895149648" lon="10.845924787361067"><ele>262.25</ele><time>2026-04-19T10:51:45Z</time></trkpt><trkpt lat="43.38875993007486" lon="10.84606147083262"><ele>260.5</ele><time>2026-04-19T10:51:46Z</time></trkpt><trkpt lat="43.38888500721125" lon="10.846152268222076"><ele>258.75</ele><time>2026-04-19T10:51:47Z</time></trkpt><trkpt lat="43.389027759539786" lon="10.846221107788072"><ele>257.0</ele><time>2026-04-19T10:51:48Z</time></trkpt><trkpt lat="43.38919745852669" lon="10.846291118246771"><ele>263.6666666666667</ele><time>2026-04-19T10:51:49Z</time></trkpt><trkpt lat="43.38937899594083" lon="10.846377057600348"><ele>270.3333333333333</ele><time>2026-04-19T10:51:50Z</time></trkpt><trkpt lat="43.389532773720596" lon="10.846419506582611"><ele>277.0</ele><time>2026-04-19T10:51:51Z</time></trkpt><trkpt lat="43.38969260802183" lon="10.846377142474728"><ele>281.3333333333333</ele><time>2026-04-19T10:51:52Z</time></trkpt><trkpt lat="43.38984640971731" lon="10.846263600179647"><ele>285.6666666666667</ele><time>2026-04-19T10:51:53Z</time></trkpt><trkpt lat="43.390006208017475" lon="10.846147672106357"><ele>290.0</ele><time>2026-04-19T10:51:54Z</time></trkpt><trkpt lat="43.390134602556685" lon="10.846031240036629"><ele>290.0</ele><time>2026-04-19T10:51:55Z</time></trkpt><trkpt lat="43.3902996179833" lon="10.846013376692033"><ele>290.0</ele><time>2026-04-19T10:51:56Z</time></trkpt><trkpt lat="43.39044635422125" lon="10.84606046636185"><ele>290.0</ele><time>2026-04-19T10:51:56.999Z</time></trkpt><trkpt lat="43.39057321741301" lon="10.846149827548548"><ele>290.33333333333337</ele><time>2026-04-19T10:51:57.999Z</time></trkpt><trkpt lat="43.390677664003384" lon="10.846307558473937"><ele>290.6666666666667</ele><time>2026-04-19T10:51:58.999Z</time></trkpt><trkpt lat="43.39074859246055" lon="10.846485520673529"><ele>291.0</ele><time>2026-04-19T10:51:59.999Z</time></trkpt><trkpt lat="43.39081726167706" lon="10.846666885781131"><ele>291.6666666666667</ele><time>2026-04-19T10:52:00.999Z</time></trkpt><trkpt lat="43.39088030170768" lon="10.846833893968379"><ele>292.33333333333337</ele><time>2026-04-19T10:52:01.999Z</time></trkpt><trkpt lat="43.39095612327318" lon="10.847012246737782"><ele>293.0</ele><time>2026-04-19T10:52:02.999Z</time></trkpt><trkpt lat="43.39106953685678" lon="10.847246084250916"><ele>293.0</ele><time>2026-04-19T10:52:03.999Z</time></trkpt><trkpt lat="43.391182475567845" lon="10.84749856690377"><ele>293.0</ele><time>2026-04-19T10:52:04.999Z</time></trkpt><trkpt lat="43.391292929783226" lon="10.847732310946906"><ele>293.0</ele><time>2026-04-19T10:52:05.999Z</time></trkpt><trkpt lat="43.39141981478026" lon="10.847935971271978"><ele>292.33333333333337</ele><time>2026-04-19T10:52:06.999Z</time></trkpt><trkpt lat="43.39157018734322" lon="10.848101108417135"><ele>291.6666666666667</ele><time>2026-04-19T10:52:07.999Z</time></trkpt><trkpt lat="43.39173147740162" lon="10.848264878061313"><ele>291.0</ele><time>2026-04-19T10:52:08.999Z</time></trkpt><trkpt lat="43.391883807474485" lon="10.84843308552038"><ele>293.6666666666667</ele><time>2026-04-19T10:52:09.999Z</time></trkpt><trkpt lat="43.39204360398194" lon="10.848604197759192"><ele>296.33333333333337</ele><time>2026-04-19T10:52:10.999Z</time></trkpt><trkpt lat="43.39221088126386" lon="10.84877052577945"><ele>299.0</ele><time>2026-04-19T10:52:11.999Z</time></trkpt><trkpt lat="43.39238805253885" lon="10.848916063851009"><ele>299.0</ele><time>2026-04-19T10:52:12.999Z</time></trkpt><trkpt lat="43.39257638691763" lon="10.849020142375515"><ele>299.0</ele><time>2026-04-19T10:52:13.999Z</time></trkpt><trkpt lat="43.39277489639301" lon="10.849087280858678"><ele>299.0</ele><time>2026-04-19T10:52:14.999Z</time></trkpt><trkpt lat="43.39298255410337" lon="10.849124373343058"><ele>302.6666666666667</ele><time>2026-04-19T10:52:15.999Z</time></trkpt><trkpt lat="43.393187038026916" lon="10.849118786542"><ele>306.3333333333333</ele><time>2026-04-19T10:52:16.999Z</time></trkpt><trkpt lat="43.39338386188602" lon="10.849076297037232"><ele>310.0</ele><time>2026-04-19T10:52:17.999Z</time></trkpt><trkpt lat="43.393576907428546" lon="10.849042846194553"><ele>310.0</ele><time>2026-04-19T10:52:18.999Z</time></trkpt><trkpt lat="43.3937627138591" lon="10.849039317839184"><ele>310.0</ele><time>2026-04-19T10:52:19.999Z</time></trkpt><trkpt lat="43.393943877359305" lon="10.8490822730013"><ele>310.0</ele><time>2026-04-19T10:52:20.999Z</time></trkpt><trkpt lat="43.39410293472486" lon="10.849151875371348"><ele>311.3333333333333</ele><time>2026-04-19T10:52:21.999Z</time></trkpt><trkpt lat="43.394249117273155" lon="10.849168180115441"><ele>312.6666666666667</ele><time>2026-04-19T10:52:22.999Z</time></trkpt><trkpt lat="43.39440539509657" lon="10.849150665586619"><ele>314.0</ele><time>2026-04-19T10:52:23.999Z</time></trkpt><trkpt lat="43.39454099845685" lon="10.84903400224638"><ele>314.0</ele><time>2026-04-19T10:52:24.999Z</time></trkpt><trkpt lat="43.39463611439573" lon="10.84884553354031"><ele>314.0</ele><time>2026-04-19T10:52:25.999Z</time></trkpt><trkpt lat="43.39469889713843" lon="10.848648546314624"><ele>314.0</ele><time>2026-04-19T10:52:26.999Z</time></trkpt><trkpt lat="43.394754478655784" lon="10.848451776601518"><ele>315.25</ele><time>2026-04-19T10:52:27.999Z</time></trkpt><trkpt lat="43.39481893177036" lon="10.848281840673856"><ele>316.5</ele><time>2026-04-19T10:52:28.999Z</time></trkpt><trkpt lat="43.394915408202905" lon="10.848159735292146"><ele>317.75</ele><time>2026-04-19T10:52:29.999Z</time></trkpt><trkpt lat="43.3950274371345" lon="10.84805831742403"><ele>319.0</ele><time>2026-04-19T10:52:30.999Z</time></trkpt><trkpt lat="43.39515332811243" lon="10.84805136151239"><ele>319.0</ele><time>2026-04-19T10:52:31.999Z</time></trkpt><trkpt lat="43.39525185104452" lon="10.848098790532017"><ele>319.0</ele><time>2026-04-19T10:52:32.999Z</time></trkpt><trkpt lat="43.39531740934299" lon="10.848185535592908"><ele>319.0</ele><time>2026-04-19T10:52:33.999Z</time></trkpt><trkpt lat="43.395450723059454" lon="10.848252490218258"><ele>319.0</ele><time>2026-04-19T10:52:34.999Z</time></trkpt><trkpt lat="43.39552590052131" lon="10.848364617684888"><ele>319.0</ele><time>2026-04-19T10:52:35.999Z</time></trkpt><trkpt lat="43.39520398137556" lon="10.848659156840815"><ele>321.0</ele><time>2026-04-19T10:52:36.999Z</time></trkpt><trkpt lat="43.39515750815368" lon="10.848841663055715"><ele>323.0</ele><time>2026-04-19T10:52:37.999Z</time></trkpt><trkpt lat="43.395096391521555" lon="10.84908707538249"><ele>325.0</ele><time>2026-04-19T10:52:38.999Z</time></trkpt><trkpt lat="43.39503427460347" lon="10.84931947344277"><ele>328.0</ele><time>2026-04-19T10:52:39.999Z</time></trkpt><trkpt lat="43.39497497110236" lon="10.849522912292072"><ele>331.0</ele><time>2026-04-19T10:52:40.999Z</time></trkpt><trkpt lat="43.39490443766311" lon="10.849740263649952"><ele>334.0</ele><time>2026-04-19T10:52:41.999Z</time></trkpt><trkpt lat="43.39483626624291" lon="10.849933243292442"><ele>334.0</ele><time>2026-04-19T10:52:42.999Z</time></trkpt><trkpt lat="43.39477314217471" lon="10.850121659798166"><ele>334.0</ele><time>2026-04-19T10:52:43.999Z</time></trkpt><trkpt lat="43.39471854394073" lon="10.850302724520759"><ele>334.0</ele><time>2026-04-19T10:52:44.999Z</time></trkpt><trkpt lat="43.39467890213536" lon="10.850438646875327"><ele>334.0</ele><time>2026-04-19T10:52:45.999Z</time></trkpt><trkpt lat="43.3946832479068" lon="10.850561531289728"><ele>333.79999999999995</ele><time>2026-04-19T10:52:46.999Z</time></trkpt><trkpt lat="43.39474033491126" lon="10.85063335233404"><ele>333.59999999999997</ele><time>2026-04-19T10:52:47.999Z</time></trkpt><trkpt lat="43.3948168231916" lon="10.850638101440005"><ele>333.4</ele><time>2026-04-19T10:52:48.999Z</time></trkpt><trkpt lat="43.39491062017764" lon="10.850651084461271"><ele>333.2</ele><time>2026-04-19T10:52:49.999Z</time></trkpt><trkpt lat="43.3949641100403" lon="10.850538023990442"><ele>333.0</ele><time>2026-04-19T10:52:50.998Z</time></trkpt><trkpt lat="43.3950289133524" lon="10.850397732629814"><ele>333.0</ele><time>2026-04-19T10:52:51.998Z</time></trkpt><trkpt lat="43.3950661251964" lon="10.850271612360778"><ele>333.0</ele><time>2026-04-19T10:52:52.998Z</time></trkpt><trkpt lat="43.39515611242473" lon="10.850016913894796"><ele>333.0</ele><time>2026-04-19T10:52:53.998Z</time></trkpt><trkpt lat="43.395317646057855" lon="10.849831627488253"><ele>333.3333333333333</ele><time>2026-04-19T10:52:54.998Z</time></trkpt><trkpt lat="43.395384499258974" lon="10.84975422554297"><ele>333.66666666666663</ele><time>2026-04-19T10:52:55.998Z</time></trkpt><trkpt lat="43.3955322132364" lon="10.849516491401582"><ele>334.0</ele><time>2026-04-19T10:52:56.998Z</time></trkpt><trkpt lat="43.39568428951571" lon="10.84939262471391"><ele>335.3333333333333</ele><time>2026-04-19T10:52:57.998Z</time></trkpt><trkpt lat="43.39585080489358" lon="10.849318068416142"><ele>336.6666666666667</ele><time>2026-04-19T10:52:58.998Z</time></trkpt><trkpt lat="43.39598900911426" lon="10.849226853117381"><ele>338.0</ele><time>2026-04-19T10:52:59.998Z</time></trkpt><trkpt lat="43.396150651424655" lon="10.849178221191737"><ele>338.0</ele><time>2026-04-19T10:53:00.998Z</time></trkpt><trkpt lat="43.39631060299075" lon="10.849078801856615"><ele>338.0</ele><time>2026-04-19T10:53:01.998Z</time></trkpt><trkpt lat="43.3964607056287" lon="10.848937241051125"><ele>338.0</ele><time>2026-04-19T10:53:02.998Z</time></trkpt><trkpt lat="43.3965722826266" lon="10.848728336681098"><ele>340.0</ele><time>2026-04-19T10:53:03.998Z</time></trkpt><trkpt lat="43.39669182410797" lon="10.848556135378503"><ele>342.0</ele><time>2026-04-19T10:53:04.998Z</time></trkpt><trkpt lat="43.396806421553165" lon="10.848410855783923"><ele>344.0</ele><time>2026-04-19T10:53:05.998Z</time></trkpt><trkpt lat="43.39692039021863" lon="10.848303039900914"><ele>344.0</ele><time>2026-04-19T10:53:06.998Z</time></trkpt><trkpt lat="43.39704256361376" lon="10.848289051108976"><ele>344.0</ele><time>2026-04-19T10:53:07.998Z</time></trkpt><trkpt lat="43.39712875682862" lon="10.848267374665186"><ele>344.0</ele><time>2026-04-19T10:53:08.998Z</time></trkpt><trkpt lat="43.39720112557755" lon="10.848366779187446"><ele>344.0</ele><time>2026-04-19T10:53:09.998Z</time></trkpt><trkpt lat="43.39721618806127" lon="10.848519009268864"><ele>344.0</ele><time>2026-04-19T10:53:10.998Z</time></trkpt><trkpt lat="43.397198820828194" lon="10.848679366648584"><ele>345.5</ele><time>2026-04-19T10:53:11.998Z</time></trkpt><trkpt lat="43.3971311859746" lon="10.848820429911177"><ele>347.0</ele><time>2026-04-19T10:53:12.998Z</time></trkpt><trkpt lat="43.397066588262184" lon="10.848969255915222"><ele>348.5</ele><time>2026-04-19T10:53:13.998Z</time></trkpt><trkpt lat="43.39700086618707" lon="10.849118097531274"><ele>350.0</ele><time>2026-04-19T10:53:14.998Z</time></trkpt><trkpt lat="43.396918428820825" lon="10.849336444177219"><ele>353.33333333333337</ele><time>2026-04-19T10:53:15.998Z</time></trkpt><trkpt lat="43.39683081090179" lon="10.849558812626935"><ele>356.6666666666667</ele><time>2026-04-19T10:53:16.998Z</time></trkpt><trkpt lat="43.39672057375897" lon="10.849810974623844"><ele>360.0</ele><time>2026-04-19T10:53:17.998Z</time></trkpt><trkpt lat="43.39663597897944" lon="10.850074122870565"><ele>364.0</ele><time>2026-04-19T10:53:18.998Z</time></trkpt><trkpt lat="43.39656928940684" lon="10.850368858260348"><ele>368.0</ele><time>2026-04-19T10:53:19.998Z</time></trkpt><trkpt lat="43.396494021468726" lon="10.850661244662033"><ele>371.0</ele><time>2026-04-19T10:53:20.998Z</time></trkpt><trkpt lat="43.39643615476682" lon="10.850959524660194"><ele>374.0</ele><time>2026-04-19T10:53:21.998Z</time></trkpt><trkpt lat="43.39639527888278" lon="10.851267297450084"><ele>374.0</ele><time>2026-04-19T10:53:22.998Z</time></trkpt><trkpt lat="43.39636114231508" lon="10.85155871410093"><ele>374.0</ele><time>2026-04-19T10:53:23.998Z</time></trkpt><trkpt lat="43.396319541927134" lon="10.851855620666335"><ele>374.0</ele><time>2026-04-19T10:53:24.998Z</time></trkpt><trkpt lat="43.39628831728303" lon="10.852142844577473"><ele>373.33333333333337</ele><time>2026-04-19T10:53:25.998Z</time></trkpt><trkpt lat="43.39623432769302" lon="10.852401357567047"><ele>372.6666666666667</ele><time>2026-04-19T10:53:26.998Z</time></trkpt><trkpt lat="43.39615356045069" lon="10.852627388817364"><ele>372.0</ele><time>2026-04-19T10:53:27.998Z</time></trkpt><trkpt lat="43.39604004575914" lon="10.85277316875301"><ele>372.0</ele><time>2026-04-19T10:53:28.998Z</time></trkpt><trkpt lat="43.39591978282164" lon="10.852888598707686"><ele>372.0</ele><time>2026-04-19T10:53:29.998Z</time></trkpt><trkpt lat="43.39579683664741" lon="10.85300739965354"><ele>372.0</ele><time>2026-04-19T10:53:30.998Z</time></trkpt><trkpt lat="43.3956980912077" lon="10.853145996766784"><ele>372.0</ele><time>2026-04-19T10:53:31.998Z</time></trkpt><trkpt lat="43.39562942681221" lon="10.853294255310459"><ele>371.25</ele><time>2026-04-19T10:53:32.998Z</time></trkpt><trkpt lat="43.395616964754566" lon="10.853459162264846"><ele>370.5</ele><time>2026-04-19T10:53:33.998Z</time></trkpt><trkpt lat="43.39560070938134" lon="10.853598943987857"><ele>369.75</ele><time>2026-04-19T10:53:34.998Z</time></trkpt><trkpt lat="43.39568035627253" lon="10.853618175775068"><ele>369.0</ele><time>2026-04-19T10:53:35.998Z</time></trkpt><trkpt lat="43.39582501915953" lon="10.853503135806672"><ele>370.0</ele><time>2026-04-19T10:53:37.998Z</time></trkpt><trkpt lat="43.39598822551771" lon="10.853446182052373"><ele>371.0</ele><time>2026-04-19T10:53:39Z</time></trkpt><trkpt lat="43.39610842182346" lon="10.853357644641349"><ele>372.0</ele><time>2026-04-19T10:53:40Z</time></trkpt><trkpt lat="43.39624114229553" lon="10.853240758207898"><ele>377.33333333333337</ele><time>2026-04-19T10:53:41Z</time></trkpt><trkpt lat="43.39641833338289" lon="10.8530862041006"><ele>382.6666666666667</ele><time>2026-04-19T10:53:42Z</time></trkpt><trkpt lat="43.39661089751971" lon="10.852930357988974"><ele>388.0</ele><time>2026-04-19T10:53:43Z</time></trkpt><trkpt lat="43.39679808668352" lon="10.852771277665807"><ele>386.0</ele><time>2026-04-19T10:53:44Z</time></trkpt><trkpt lat="43.39697698185699" lon="10.85259465332202"><ele>384.0</ele><time>2026-04-19T10:53:45Z</time></trkpt><trkpt lat="43.397113616048316" lon="10.852367358326065"><ele>382.0</ele><time>2026-04-19T10:53:46Z</time></trkpt><trkpt lat="43.3972291223565" lon="10.852126186262941"><ele>384.0</ele><time>2026-04-19T10:53:47Z</time></trkpt><trkpt lat="43.39735644816855" lon="10.851913945692443"><ele>386.0</ele><time>2026-04-19T10:53:48Z</time></trkpt><trkpt lat="43.39748610204989" lon="10.851720254626095"><ele>388.0</ele><time>2026-04-19T10:53:49Z</time></trkpt><trkpt lat="43.39762383653893" lon="10.851574251449327"><ele>388.0</ele><time>2026-04-19T10:53:50Z</time></trkpt><trkpt lat="43.3977769166523" lon="10.851455920978232"><ele>388.0</ele><time>2026-04-19T10:53:51Z</time></trkpt><trkpt lat="43.39794456954659" lon="10.85133595198785"><ele>388.0</ele><time>2026-04-19T10:53:52Z</time></trkpt><trkpt lat="43.398080583832574" lon="10.851240857721317"><ele>390.0</ele><time>2026-04-19T10:53:53Z</time></trkpt><trkpt lat="43.398139913730105" lon="10.851199554649737"><ele>392.0</ele><time>2026-04-19T10:53:54Z</time></trkpt><trkpt lat="43.39821936599106" lon="10.851154252456594"><ele>394.0</ele><time>2026-04-19T10:53:55Z</time></trkpt><trkpt lat="43.39831408112399" lon="10.851147542004957"><ele>396.0</ele><time>2026-04-19T10:53:56Z</time></trkpt><trkpt lat="43.39838351498856" lon="10.851250946664479"><ele>398.0</ele><time>2026-04-19T10:53:57Z</time></trkpt><trkpt lat="43.39845867741246" lon="10.851381301414907"><ele>398.0</ele><time>2026-04-19T10:53:58Z</time></trkpt><trkpt lat="43.39850799508088" lon="10.85154890819507"><ele>398.0</ele><time>2026-04-19T10:53:59Z</time></trkpt><trkpt lat="43.398550544764234" lon="10.851741999533118"><ele>398.0</ele><time>2026-04-19T10:54:00Z</time></trkpt><trkpt lat="43.39860118583343" lon="10.851958366972731"><ele>398.0</ele><time>2026-04-19T10:54:01Z</time></trkpt><trkpt lat="43.398654783108114" lon="10.852182368021014"><ele>399.0</ele><time>2026-04-19T10:54:01.999Z</time></trkpt><trkpt lat="43.39872762670631" lon="10.852398276125399"><ele>400.0</ele><time>2026-04-19T10:54:02.999Z</time></trkpt><trkpt lat="43.39884912524711" lon="10.852568802133627"><ele>401.0</ele><time>2026-04-19T10:54:03.999Z</time></trkpt><trkpt lat="43.39899751778556" lon="10.85273047013436"><ele>404.0</ele><time>2026-04-19T10:54:04.999Z</time></trkpt><trkpt lat="43.399127276562005" lon="10.852910216947624"><ele>407.0</ele><time>2026-04-19T10:54:05.999Z</time></trkpt><trkpt lat="43.39927821411804" lon="10.853098823294882"><ele>410.0</ele><time>2026-04-19T10:54:06.999Z</time></trkpt><trkpt lat="43.39940087575766" lon="10.853210859136512"><ele>410.0</ele><time>2026-04-19T10:54:07.999Z</time></trkpt><trkpt lat="43.39952171910407" lon="10.853254898291961"><ele>410.0</ele><time>2026-04-19T10:54:08.999Z</time></trkpt><trkpt lat="43.39965968628758" lon="10.85321549366043"><ele>410.0</ele><time>2026-04-19T10:54:09.999Z</time></trkpt><trkpt lat="43.39974818857776" lon="10.853131952306619"><ele>410.0</ele><time>2026-04-19T10:54:10.999Z</time></trkpt><trkpt lat="43.39982397084133" lon="10.852938922651456"><ele>410.3333333333333</ele><time>2026-04-19T10:54:11.999Z</time></trkpt><trkpt lat="43.39991390929284" lon="10.852770684070327"><ele>410.66666666666663</ele><time>2026-04-19T10:54:12.999Z</time></trkpt><trkpt lat="43.40001766058403" lon="10.852601436347046"><ele>411.0</ele><time>2026-04-19T10:54:13.999Z</time></trkpt><trkpt lat="43.400161051578586" lon="10.852448149438407"><ele>411.0</ele><time>2026-04-19T10:54:14.999Z</time></trkpt><trkpt lat="43.40029059163974" lon="10.85233708021261"><ele>411.0</ele><time>2026-04-19T10:54:15.999Z</time></trkpt><trkpt lat="43.400465152333375" lon="10.852185274512687"><ele>411.0</ele><time>2026-04-19T10:54:16.999Z</time></trkpt><trkpt lat="43.400601565929065" lon="10.852025294275736"><ele>411.66666666666663</ele><time>2026-04-19T10:54:17.999Z</time></trkpt><trkpt lat="43.40073037231025" lon="10.851854884773473"><ele>412.3333333333333</ele><time>2026-04-19T10:54:18.999Z</time></trkpt><trkpt lat="43.400869576692145" lon="10.851708025162102"><ele>413.0</ele><time>2026-04-19T10:54:19.999Z</time></trkpt><trkpt lat="43.4010178911823" lon="10.851637359403144"><ele>413.0</ele><time>2026-04-19T10:54:20.999Z</time></trkpt><trkpt lat="43.401167586190944" lon="10.85157929166674"><ele>413.0</ele><time>2026-04-19T10:54:21.999Z</time></trkpt><trkpt lat="43.40132045479413" lon="10.851523277348411"><ele>413.0</ele><time>2026-04-19T10:54:22.999Z</time></trkpt><trkpt lat="43.40149041579019" lon="10.851458005912821"><ele>416.25</ele><time>2026-04-19T10:54:23.999Z</time></trkpt><trkpt lat="43.4016563807776" lon="10.851393719618972"><ele>419.5</ele><time>2026-04-19T10:54:24.999Z</time></trkpt><trkpt lat="43.40180614474454" lon="10.851332869076012"><ele>422.75</ele><time>2026-04-19T10:54:25.999Z</time></trkpt><trkpt lat="43.4019113082478" lon="10.851308842703999"><ele>426.0</ele><time>2026-04-19T10:54:26.999Z</time></trkpt><trkpt lat="43.402023549136395" lon="10.851327441157046"><ele>426.0</ele><time>2026-04-19T10:54:27.999Z</time></trkpt><trkpt lat="43.4020739351411" lon="10.851392202136658"><ele>426.0</ele><time>2026-04-19T10:54:28.999Z</time></trkpt><trkpt lat="43.402028915076734" lon="10.851530572990258"><ele>426.0</ele><time>2026-04-19T10:54:30.999Z</time></trkpt><trkpt lat="43.40182107455602" lon="10.851655940447994"><ele>426.0</ele><time>2026-04-19T10:54:32.999Z</time></trkpt><trkpt lat="43.401559449612186" lon="10.851824763907164"><ele>425.0</ele><time>2026-04-19T10:54:33.999Z</time></trkpt><trkpt lat="43.40142211623848" lon="10.851936127821299"><ele>424.0</ele><time>2026-04-19T10:54:34.999Z</time></trkpt><trkpt lat="43.40132415226565" lon="10.852048478326784"><ele>423.0</ele><time>2026-04-19T10:54:35.999Z</time></trkpt><trkpt lat="43.40119298586973" lon="10.852224673378176"><ele>423.0</ele><time>2026-04-19T10:54:36.999Z</time></trkpt><trkpt lat="43.40108557987825" lon="10.852382057970742"><ele>423.0</ele><time>2026-04-19T10:54:37.999Z</time></trkpt><trkpt lat="43.40101902969471" lon="10.852580526711437"><ele>423.0</ele><time>2026-04-19T10:54:38.999Z</time></trkpt><trkpt lat="43.400954554296504" lon="10.852775948397076"><ele>425.66666666666663</ele><time>2026-04-19T10:54:39.999Z</time></trkpt><trkpt lat="43.40095305869814" lon="10.853002976193224"><ele>428.3333333333333</ele><time>2026-04-19T10:54:40.999Z</time></trkpt><trkpt lat="43.4009365474728" lon="10.853227886187767"><ele>431.0</ele><time>2026-04-19T10:54:41.999Z</time></trkpt><trkpt lat="43.400869379962614" lon="10.853420048909943"><ele>433.66666666666663</ele><time>2026-04-19T10:54:42.999Z</time></trkpt><trkpt lat="43.40077984509573" lon="10.853630997248535"><ele>436.33333333333337</ele><time>2026-04-19T10:54:43.999Z</time></trkpt><trkpt lat="43.40070829986212" lon="10.853852877281401"><ele>439.0</ele><time>2026-04-19T10:54:44.999Z</time></trkpt><trkpt lat="43.40067932119869" lon="10.854064658367673"><ele>439.0</ele><time>2026-04-19T10:54:45.999Z</time></trkpt><trkpt lat="43.40065665453591" lon="10.854287557399982"><ele>439.0</ele><time>2026-04-19T10:54:46.999Z</time></trkpt><trkpt lat="43.400621658466264" lon="10.85447288876278"><ele>439.0</ele><time>2026-04-19T10:54:47.999Z</time></trkpt><trkpt lat="43.40054271371877" lon="10.854650846730339"><ele>439.33333333333337</ele><time>2026-04-19T10:54:48.999Z</time></trkpt><trkpt lat="43.40044512832997" lon="10.854824775788012"><ele>439.66666666666663</ele><time>2026-04-19T10:54:49.999Z</time></trkpt><trkpt lat="43.400295479175675" lon="10.854912696839476"><ele>440.0</ele><time>2026-04-19T10:54:50.999Z</time></trkpt><trkpt lat="43.40013628733919" lon="10.855034336222209"><ele>444.66666666666663</ele><time>2026-04-19T10:54:51.999Z</time></trkpt><trkpt lat="43.40000492801296" lon="10.855193331029554"><ele>449.33333333333337</ele><time>2026-04-19T10:54:52.999Z</time></trkpt><trkpt lat="43.399859508037544" lon="10.855306368057153"><ele>454.0</ele><time>2026-04-19T10:54:53.999Z</time></trkpt><trkpt lat="43.399706140393874" lon="10.855416692049207"><ele>453.33333333333337</ele><time>2026-04-19T10:54:54.998Z</time></trkpt><trkpt lat="43.399547496720345" lon="10.855503019696556"><ele>452.66666666666663</ele><time>2026-04-19T10:54:55.998Z</time></trkpt><trkpt lat="43.39937886437422" lon="10.855485662876482"><ele>452.0</ele><time>2026-04-19T10:54:56.998Z</time></trkpt><trkpt lat="43.399223785738954" lon="10.85551256454485"><ele>452.0</ele><time>2026-04-19T10:54:57.998Z</time></trkpt><trkpt lat="43.399079643739405" lon="10.855536222795987"><ele>452.0</ele><time>2026-04-19T10:54:58.998Z</time></trkpt><trkpt lat="43.39896258058035" lon="10.855606230570892"><ele>452.0</ele><time>2026-04-19T10:54:59.998Z</time></trkpt><trkpt lat="43.39886590093285" lon="10.855698480468151"><ele>452.0</ele><time>2026-04-19T10:55:00.998Z</time></trkpt><trkpt lat="43.39879269739681" lon="10.855869325555393"><ele>451.0</ele><time>2026-04-19T10:55:01.998Z</time></trkpt><trkpt lat="43.39874592010161" lon="10.856080313899863"><ele>450.0</ele><time>2026-04-19T10:55:02.998Z</time></trkpt><trkpt lat="43.39873363803757" lon="10.856268202560537"><ele>449.0</ele><time>2026-04-19T10:55:03.998Z</time></trkpt><trkpt lat="43.39873428322177" lon="10.856458491258696"><ele>448.0</ele><time>2026-04-19T10:55:04.998Z</time></trkpt><trkpt lat="43.39874026476553" lon="10.85665084727222"><ele>449.5</ele><time>2026-04-19T10:55:05.998Z</time></trkpt><trkpt lat="43.39875895730559" lon="10.856854370165992"><ele>451.0</ele><time>2026-04-19T10:55:06.998Z</time></trkpt><trkpt lat="43.39876804712615" lon="10.857034904601964"><ele>452.5</ele><time>2026-04-19T10:55:07.998Z</time></trkpt><trkpt lat="43.39875414369795" lon="10.857199645109326"><ele>454.0</ele><time>2026-04-19T10:55:08.998Z</time></trkpt><trkpt lat="43.39874215790806" lon="10.857349282721763"><ele>454.0</ele><time>2026-04-19T10:55:09.998Z</time></trkpt><trkpt lat="43.39868859869632" lon="10.857490685563373"><ele>454.0</ele><time>2026-04-19T10:55:10.998Z</time></trkpt><trkpt lat="43.39864287038473" lon="10.857628237824144"><ele>454.0</ele><time>2026-04-19T10:55:11.998Z</time></trkpt><trkpt lat="43.398594655028376" lon="10.85777140256095"><ele>454.0</ele><time>2026-04-19T10:55:12.998Z</time></trkpt><trkpt lat="43.39854893736285" lon="10.85790715066461"><ele>454.0</ele><time>2026-04-19T10:55:13.998Z</time></trkpt><trkpt lat="43.39852319422911" lon="10.858049022302467"><ele>454.4</ele><time>2026-04-19T10:55:14.998Z</time></trkpt><trkpt lat="43.398495739195575" lon="10.858181881768925"><ele>454.79999999999995</ele><time>2026-04-19T10:55:15.998Z</time></trkpt><trkpt lat="43.398488326677246" lon="10.85831970340835"><ele>455.20000000000005</ele><time>2026-04-19T10:55:16.998Z</time></trkpt><trkpt lat="43.39850672532064" lon="10.858443628178758"><ele>455.6</ele><time>2026-04-19T10:55:17.998Z</time></trkpt><trkpt lat="43.39853298100204" lon="10.858578949234586"><ele>456.0</ele><time>2026-04-19T10:55:18.998Z</time></trkpt><trkpt lat="43.39856167724116" lon="10.858722220612554"><ele>456.20000000000005</ele><time>2026-04-19T10:55:19.998Z</time></trkpt><trkpt lat="43.39857954688794" lon="10.858876921131609"><ele>456.40000000000003</ele><time>2026-04-19T10:55:20.998Z</time></trkpt><trkpt lat="43.39858433015031" lon="10.859033974563761"><ele>456.6</ele><time>2026-04-19T10:55:21.998Z</time></trkpt><trkpt lat="43.39858171795614" lon="10.85917632100636"><ele>456.8</ele><time>2026-04-19T10:55:22.998Z</time></trkpt><trkpt lat="43.39858313491183" lon="10.85929386869626"><ele>457.0</ele><time>2026-04-19T10:55:23.998Z</time></trkpt><trkpt lat="43.39859548736376" lon="10.859383639444244"><ele>457.75</ele><time>2026-04-19T10:55:24.998Z</time></trkpt><trkpt lat="43.39869683481831" lon="10.859470101454011"><ele>458.5</ele><time>2026-04-19T10:55:26.998Z</time></trkpt><trkpt lat="43.398824342404104" lon="10.859335197759071"><ele>459.25</ele><time>2026-04-19T10:55:28.998Z</time></trkpt><trkpt lat="43.39888078451091" lon="10.859216271218704"><ele>460.0</ele><time>2026-04-19T10:55:29.998Z</time></trkpt><trkpt lat="43.398915680614394" lon="10.859089391290315"><ele>464.0</ele><time>2026-04-19T10:55:30.998Z</time></trkpt><trkpt lat="43.39895759049717" lon="10.858952978476067"><ele>468.0</ele><time>2026-04-19T10:55:31.998Z</time></trkpt><trkpt lat="43.39902059439287" lon="10.858825480062942"><ele>472.0</ele><time>2026-04-19T10:55:32.998Z</time></trkpt><trkpt lat="43.39909142668609" lon="10.858717429014439"><ele>476.0</ele><time>2026-04-19T10:55:33.998Z</time></trkpt><trkpt lat="43.399174169901904" lon="10.858623555587233"><ele>480.0</ele><time>2026-04-19T10:55:34.998Z</time></trkpt><trkpt lat="43.39925843710686" lon="10.858545008642343"><ele>480.0</ele><time>2026-04-19T10:55:35.998Z</time></trkpt><trkpt lat="43.39934664376871" lon="10.858471318041959"><ele>480.0</ele><time>2026-04-19T10:55:36.998Z</time></trkpt><trkpt lat="43.39942975260252" lon="10.858413313208663"><ele>480.0</ele><time>2026-04-19T10:55:37.998Z</time></trkpt><trkpt lat="43.39952217311952" lon="10.858356069538194"><ele>480.0</ele><time>2026-04-19T10:55:38.998Z</time></trkpt><trkpt lat="43.39963098060104" lon="10.858330663015137"><ele>480.0</ele><time>2026-04-19T10:55:39.998Z</time></trkpt><trkpt lat="43.399756494084826" lon="10.858317631148973"><ele>481.5</ele><time>2026-04-19T10:55:40.998Z</time></trkpt><trkpt lat="43.39988318595437" lon="10.858281544831378"><ele>483.0</ele><time>2026-04-19T10:55:41.998Z</time></trkpt><trkpt lat="43.40000498561963" lon="10.85822680240193"><ele>484.5</ele><time>2026-04-19T10:55:42.998Z</time></trkpt><trkpt lat="43.400118816994755" lon="10.85816552675841"><ele>486.0</ele><time>2026-04-19T10:55:43.998Z</time></trkpt><trkpt lat="43.40021698989486" lon="10.85810528598524"><ele>486.0</ele><time>2026-04-19T10:55:45Z</time></trkpt><trkpt lat="43.400304990260075" lon="10.858064938517728"><ele>486.0</ele><time>2026-04-19T10:55:46Z</time></trkpt><trkpt lat="43.40037305840202" lon="10.858059968140553"><ele>486.0</ele><time>2026-04-19T10:55:47Z</time></trkpt><trkpt lat="43.40043589890323" lon="10.858169245276958"><ele>486.0</ele><time>2026-04-19T10:55:49Z</time></trkpt><trkpt lat="43.40050852071653" lon="10.858158017487632"><ele>486.0</ele><time>2026-04-19T10:55:52Z</time></trkpt><trkpt lat="43.40056850980006" lon="10.858073201305858"><ele>486.0</ele><time>2026-04-19T10:55:53Z</time></trkpt><trkpt lat="43.400646597946746" lon="10.857989032526094"><ele>487.75</ele><time>2026-04-19T10:55:54Z</time></trkpt><trkpt lat="43.40073242802808" lon="10.857901142093576"><ele>489.5</ele><time>2026-04-19T10:55:55Z</time></trkpt><trkpt lat="43.40081494318463" lon="10.857782482136294"><ele>491.25</ele><time>2026-04-19T10:55:56Z</time></trkpt><trkpt lat="43.40090488155518" lon="10.85764840406741"><ele>493.0</ele><time>2026-04-19T10:55:57Z</time></trkpt><trkpt lat="43.40100132412095" lon="10.857520557200807"><ele>493.0</ele><time>2026-04-19T10:55:58Z</time></trkpt><trkpt lat="43.401106767101105" lon="10.8573861526332"><ele>493.0</ele><time>2026-04-19T10:55:59Z</time></trkpt><trkpt lat="43.40121725351249" lon="10.857240393539941"><ele>493.0</ele><time>2026-04-19T10:56:00Z</time></trkpt><trkpt lat="43.40132384961299" lon="10.857099699707941"><ele>493.0</ele><time>2026-04-19T10:56:01Z</time></trkpt><trkpt lat="43.40142146614455" lon="10.856968379421545"><ele>494.25</ele><time>2026-04-19T10:56:02Z</time></trkpt><trkpt lat="43.4015106221913" lon="10.856845259438291"><ele>495.5</ele><time>2026-04-19T10:56:03Z</time></trkpt><trkpt lat="43.401593914486256" lon="10.85673005124191"><ele>496.75</ele><time>2026-04-19T10:56:04Z</time></trkpt><trkpt lat="43.40167678897839" lon="10.856625466079688"><ele>498.0</ele><time>2026-04-19T10:56:05Z</time></trkpt><trkpt lat="43.40175343355388" lon="10.856530631848598"><ele>498.0</ele><time>2026-04-19T10:56:06Z</time></trkpt><trkpt lat="43.401829168969144" lon="10.856430765310197"><ele>497.99999999999994</ele><time>2026-04-19T10:56:06.999Z</time></trkpt><trkpt lat="43.401911551134084" lon="10.856341902238832"><ele>497.99999999999994</ele><time>2026-04-19T10:56:07.999Z</time></trkpt><trkpt lat="43.402004590798064" lon="10.856266850830945"><ele>498.0</ele><time>2026-04-19T10:56:08.999Z</time></trkpt><trkpt lat="43.40209643297765" lon="10.856210184904636"><ele>498.0</ele><time>2026-04-19T10:56:09.999Z</time></trkpt><trkpt lat="43.402188538399884" lon="10.856154724920074"><ele>496.59999999999997</ele><time>2026-04-19T10:56:10.999Z</time></trkpt><trkpt lat="43.40228090437041" lon="10.856103947994121"><ele>495.19999999999993</ele><time>2026-04-19T10:56:11.999Z</time></trkpt><trkpt lat="43.40237046404993" lon="10.856055349548308"><ele>493.8</ele><time>2026-04-19T10:56:12.999Z</time></trkpt><trkpt lat="43.40245927824658" lon="10.856001741989791"><ele>492.4</ele><time>2026-04-19T10:56:13.999Z</time></trkpt><trkpt lat="43.402548603159076" lon="10.855954737625343"><ele>491.0</ele><time>2026-04-19T10:56:14.999Z</time></trkpt><trkpt lat="43.40263617984904" lon="10.855915805624214"><ele>491.0</ele><time>2026-04-19T10:56:15.999Z</time></trkpt><trkpt lat="43.40273081788802" lon="10.855881491979659"><ele>491.0</ele><time>2026-04-19T10:56:16.999Z</time></trkpt><trkpt lat="43.402824011777845" lon="10.855846219175884"><ele>491.0</ele><time>2026-04-19T10:56:17.999Z</time></trkpt><trkpt lat="43.402915451926305" lon="10.85580069305785"><ele>491.0</ele><time>2026-04-19T10:56:18.999Z</time></trkpt><trkpt lat="43.40300375369172" lon="10.855736808801309"><ele>491.0</ele><time>2026-04-19T10:56:19.999Z</time></trkpt><trkpt lat="43.40307363293637" lon="10.855653306652117"><ele>492.6</ele><time>2026-04-19T10:56:20.999Z</time></trkpt><trkpt lat="43.4031199786988" lon="10.855530111036865"><ele>494.20000000000005</ele><time>2026-04-19T10:56:21.999Z</time></trkpt><trkpt lat="43.403132486146724" lon="10.85539147409459"><ele>495.79999999999995</ele><time>2026-04-19T10:56:22.999Z</time></trkpt><trkpt lat="43.40319584337889" lon="10.855289587195651"><ele>497.4</ele><time>2026-04-19T10:56:23.999Z</time></trkpt><trkpt lat="43.40326422753698" lon="10.85516842775015"><ele>499.0</ele><time>2026-04-19T10:56:24.999Z</time></trkpt><trkpt lat="43.403336947785675" lon="10.855064554015753"><ele>499.0</ele><time>2026-04-19T10:56:25.999Z</time></trkpt><trkpt lat="43.40339994870715" lon="10.854960194837277"><ele>499.0</ele><time>2026-04-19T10:56:26.999Z</time></trkpt><trkpt lat="43.40347330175214" lon="10.854862362047557"><ele>499.0</ele><time>2026-04-19T10:56:27.999Z</time></trkpt><trkpt lat="43.403548344095164" lon="10.854775427642515"><ele>499.0</ele><time>2026-04-19T10:56:28.999Z</time></trkpt><trkpt lat="43.40362450660448" lon="10.854699614866833"><ele>499.0</ele><time>2026-04-19T10:56:29.999Z</time></trkpt><trkpt lat="43.40370770151023" lon="10.854646002880536"><ele>499.00000000000006</ele><time>2026-04-19T10:56:30.999Z</time></trkpt><trkpt lat="43.4037754688771" lon="10.854590105363215"><ele>499.0</ele><time>2026-04-19T10:56:31.999Z</time></trkpt><trkpt lat="43.403890041489966" lon="10.854587311845364"><ele>499.0</ele><time>2026-04-19T10:56:33.999Z</time></trkpt><trkpt lat="43.403946961047076" lon="10.854633667160531"><ele>499.0</ele><time>2026-04-19T10:56:34.999Z</time></trkpt><trkpt lat="43.403995056288316" lon="10.854712827673303"><ele>499.00000000000006</ele><time>2026-04-19T10:56:35.999Z</time></trkpt><trkpt lat="43.40405479329011" lon="10.854763777683207"><ele>499.0</ele><time>2026-04-19T10:56:36.999Z</time></trkpt><trkpt lat="43.40409171728873" lon="10.85483626885297"><ele>501.4</ele><time>2026-04-19T10:56:37.999Z</time></trkpt><trkpt lat="43.4041578488926" lon="10.854904551200507"><ele>503.79999999999995</ele><time>2026-04-19T10:56:39.999Z</time></trkpt><trkpt lat="43.404206252514165" lon="10.854988115412558"><ele>506.20000000000005</ele><time>2026-04-19T10:56:42.999Z</time></trkpt><trkpt lat="43.4042789795638" lon="10.855032029523478"><ele>508.6</ele><time>2026-04-19T10:56:44.999Z</time></trkpt><trkpt lat="43.40438644701641" lon="10.855052574003954"><ele>511.0</ele><time>2026-04-19T10:56:46.999Z</time></trkpt><trkpt lat="43.40450171592192" lon="10.855053534463806"><ele>511.00000000000006</ele><time>2026-04-19T10:56:48.999Z</time></trkpt><trkpt lat="43.40457038011931" lon="10.855066836606618"><ele>511.0</ele><time>2026-04-19T10:56:49.999Z</time></trkpt><trkpt lat="43.40464170694168" lon="10.855072573360781"><ele>511.0</ele><time>2026-04-19T10:56:50.999Z</time></trkpt><trkpt lat="43.40471521952064" lon="10.855081658584542"><ele>511.0</ele><time>2026-04-19T10:56:51.999Z</time></trkpt><trkpt lat="43.40479180556345" lon="10.855091004538174"><ele>511.00000000000006</ele><time>2026-04-19T10:56:52.999Z</time></trkpt><trkpt lat="43.404865394829784" lon="10.855093995945456"><ele>511.0</ele><time>2026-04-19T10:56:53.999Z</time></trkpt><trkpt lat="43.40499262629739" lon="10.855187827544245"><ele>510.50000000000006</ele><time>2026-04-19T10:56:55.999Z</time></trkpt><trkpt lat="43.405041296918135" lon="10.855296402366328"><ele>510.0</ele><time>2026-04-19T10:56:56.999Z</time></trkpt><trkpt lat="43.405062633685496" lon="10.855402521090488"><ele>509.5</ele><time>2026-04-19T10:56:57.999Z</time></trkpt><trkpt lat="43.40506798068186" lon="10.8555130925628"><ele>509.0</ele><time>2026-04-19T10:56:58.999Z</time></trkpt><trkpt lat="43.40507872842323" lon="10.855617214258249"><ele>508.50000000000006</ele><time>2026-04-19T10:56:59.998Z</time></trkpt><trkpt lat="43.40508297569517" lon="10.855722440974306"><ele>508.0</ele><time>2026-04-19T10:57:00.998Z</time></trkpt><trkpt lat="43.40509606255501" lon="10.855832408224058"><ele>508.00000000000006</ele><time>2026-04-19T10:57:01.998Z</time></trkpt><trkpt lat="43.40509947286021" lon="10.8559472395083"><ele>508.0</ele><time>2026-04-19T10:57:02.998Z</time></trkpt><trkpt lat="43.405081051265554" lon="10.856052783567222"><ele>508.0</ele><time>2026-04-19T10:57:03.998Z</time></trkpt><trkpt lat="43.40503557249744" lon="10.856138091421412"><ele>508.0</ele><time>2026-04-19T10:57:04.998Z</time></trkpt><trkpt lat="43.40498116329374" lon="10.856204916296031"><ele>508.00000000000006</ele><time>2026-04-19T10:57:05.998Z</time></trkpt><trkpt lat="43.40493309860226" lon="10.856281092130661"><ele>508.0</ele><time>2026-04-19T10:57:06.998Z</time></trkpt><trkpt lat="43.40483515481215" lon="10.856449554485058"><ele>508.33333333333337</ele><time>2026-04-19T10:57:08.998Z</time></trkpt><trkpt lat="43.40477293541945" lon="10.856532466658418"><ele>508.6666666666667</ele><time>2026-04-19T10:57:09.998Z</time></trkpt><trkpt lat="43.404698022034125" lon="10.856617143392821"><ele>509.0</ele><time>2026-04-19T10:57:10.998Z</time></trkpt><trkpt lat="43.40464599037743" lon="10.856708169479262"><ele>509.33333333333337</ele><time>2026-04-19T10:57:11.998Z</time></trkpt><trkpt lat="43.40459011219311" lon="10.856798997192803"><ele>509.6666666666667</ele><time>2026-04-19T10:57:12.998Z</time></trkpt><trkpt lat="43.404530849967465" lon="10.856890608859212"><ele>510.0</ele><time>2026-04-19T10:57:13.998Z</time></trkpt><trkpt lat="43.404468102857194" lon="10.856988868362302"><ele>510.0</ele><time>2026-04-19T10:57:14.998Z</time></trkpt><trkpt lat="43.404409906199724" lon="10.857102684046312"><ele>510.0</ele><time>2026-04-19T10:57:15.998Z</time></trkpt><trkpt lat="43.40435848522686" lon="10.85722929284655"><ele>510.0</ele><time>2026-04-19T10:57:16.998Z</time></trkpt><trkpt lat="43.40432057445491" lon="10.857372586035485"><ele>510.0</ele><time>2026-04-19T10:57:17.998Z</time></trkpt><trkpt lat="43.40428749060247" lon="10.857523908453272"><ele>510.0</ele><time>2026-04-19T10:57:18.998Z</time></trkpt><trkpt lat="43.40425190594206" lon="10.857667530141244"><ele>508.6</ele><time>2026-04-19T10:57:19.998Z</time></trkpt><trkpt lat="43.40421630192885" lon="10.8578070652308"><ele>507.2</ele><time>2026-04-19T10:57:20.998Z</time></trkpt><trkpt lat="43.40418213790007" lon="10.857939063150125"><ele>505.79999999999995</ele><time>2026-04-19T10:57:21.998Z</time></trkpt><trkpt lat="43.40415829809366" lon="10.858084443872642"><ele>504.4</ele><time>2026-04-19T10:57:22.998Z</time></trkpt><trkpt lat="43.40415049296266" lon="10.858253164902866"><ele>503.0</ele><time>2026-04-19T10:57:23.998Z</time></trkpt><trkpt lat="43.404156399262874" lon="10.858435741212734"><ele>502.25</ele><time>2026-04-19T10:57:24.998Z</time></trkpt><trkpt lat="43.4041642431424" lon="10.858619495018942"><ele>501.5</ele><time>2026-04-19T10:57:25.998Z</time></trkpt><trkpt lat="43.4041640739023" lon="10.858799714845306"><ele>500.75</ele><time>2026-04-19T10:57:26.998Z</time></trkpt><trkpt lat="43.40416617033952" lon="10.858984105725504"><ele>500.0</ele><time>2026-04-19T10:57:27.998Z</time></trkpt><trkpt lat="43.40416213200689" lon="10.859165678925821"><ele>500.25</ele><time>2026-04-19T10:57:28.998Z</time></trkpt><trkpt lat="43.40416686147163" lon="10.859324519531237"><ele>500.5</ele><time>2026-04-19T10:57:29.998Z</time></trkpt><trkpt lat="43.404160312874026" lon="10.859486905800928"><ele>500.75</ele><time>2026-04-19T10:57:30.998Z</time></trkpt><trkpt lat="43.40414627035197" lon="10.859657252503062"><ele>501.0</ele><time>2026-04-19T10:57:31.998Z</time></trkpt><trkpt lat="43.40412532720392" lon="10.85982967635023"><ele>501.0</ele><time>2026-04-19T10:57:32.998Z</time></trkpt><trkpt lat="43.40410510044891" lon="10.859997719010734"><ele>501.0</ele><time>2026-04-19T10:57:33.998Z</time></trkpt><trkpt lat="43.404094995146785" lon="10.860165910058589"><ele>501.0</ele><time>2026-04-19T10:57:34.998Z</time></trkpt><trkpt lat="43.404098567984185" lon="10.86032715203238"><ele>501.0</ele><time>2026-04-19T10:57:35.998Z</time></trkpt><trkpt lat="43.40410836074267" lon="10.86048542967963"><ele>502.8</ele><time>2026-04-19T10:57:36.998Z</time></trkpt><trkpt lat="43.40411501863287" lon="10.860642071924017"><ele>504.6</ele><time>2026-04-19T10:57:37.998Z</time></trkpt><trkpt lat="43.40409924973896" lon="10.860798944388947"><ele>506.4</ele><time>2026-04-19T10:57:38.998Z</time></trkpt><trkpt lat="43.40410189620028" lon="10.860939245241449"><ele>508.2</ele><time>2026-04-19T10:57:39.998Z</time></trkpt><trkpt lat="43.404105227688504" lon="10.861068864341686"><ele>510.0</ele><time>2026-04-19T10:57:40.998Z</time></trkpt><trkpt lat="43.404107340352915" lon="10.861166911530473"><ele>510.2</ele><time>2026-04-19T10:57:41.998Z</time></trkpt><trkpt lat="43.404121588328515" lon="10.861292055351711"><ele>510.4</ele><time>2026-04-19T10:57:43.998Z</time></trkpt><trkpt lat="43.40415773168496" lon="10.861460154193967"><ele>510.6</ele><time>2026-04-19T10:57:45.998Z</time></trkpt><trkpt lat="43.404181170257516" lon="10.861570190737483"><ele>510.8</ele><time>2026-04-19T10:57:46.998Z</time></trkpt><trkpt lat="43.40420446432942" lon="10.861679357683837"><ele>511.0</ele><time>2026-04-19T10:57:47.998Z</time></trkpt><trkpt lat="43.404227584369195" lon="10.861789249258475"><ele>511.00000000000006</ele><time>2026-04-19T10:57:48.998Z</time></trkpt><trkpt lat="43.40424640072738" lon="10.861901427938637"><ele>511.0</ele><time>2026-04-19T10:57:49.998Z</time></trkpt><trkpt lat="43.40427479093374" lon="10.862005806120262"><ele>511.0</ele><time>2026-04-19T10:57:51Z</time></trkpt><trkpt lat="43.404284750515814" lon="10.86211259039199"><ele>511.0</ele><time>2026-04-19T10:57:52Z</time></trkpt><trkpt lat="43.40428444975404" lon="10.862208053840806"><ele>511.00000000000006</ele><time>2026-04-19T10:57:53Z</time></trkpt><trkpt lat="43.40426734256947" lon="10.862370771598167"><ele>511.0</ele><time>2026-04-19T10:57:55Z</time></trkpt><trkpt lat="43.40426629187018" lon="10.862510224376063"><ele>511.0</ele><time>2026-04-19T10:57:57Z</time></trkpt><trkpt lat="43.404283000592095" lon="10.862652188778062"><ele>511.0</ele><time>2026-04-19T10:57:59Z</time></trkpt><trkpt lat="43.40435033000081" lon="10.862732538419621"><ele>511.0</ele><time>2026-04-19T10:58:01Z</time></trkpt><trkpt lat="43.404402662081644" lon="10.862559786480897"><ele>511.0</ele><time>2026-04-19T10:58:04Z</time></trkpt><trkpt lat="43.40439946713937" lon="10.862429981279261"><ele>511.0</ele><time>2026-04-19T10:58:06Z</time></trkpt><trkpt lat="43.404425964162385" lon="10.86232238384183"><ele>511.0</ele><time>2026-04-19T10:58:08Z</time></trkpt><trkpt lat="43.40450749252975" lon="10.862181158035984"><ele>511.0</ele><time>2026-04-19T10:58:10Z</time></trkpt><trkpt lat="43.40457788904197" lon="10.862141959964852"><ele>511.0</ele><time>2026-04-19T10:58:11Z</time></trkpt><trkpt lat="43.40465020713152" lon="10.862087466297506"><ele>511.0</ele><time>2026-04-19T10:58:12Z</time></trkpt><trkpt lat="43.40472973150504" lon="10.862053568702457"><ele>511.0</ele><time>2026-04-19T10:58:13Z</time></trkpt><trkpt lat="43.4048177388772" lon="10.862026879892813"><ele>508.50000000000006</ele><time>2026-04-19T10:58:14Z</time></trkpt><trkpt lat="43.40490145248779" lon="10.86202837316428"><ele>506.0</ele><time>2026-04-19T10:58:15Z</time></trkpt><trkpt lat="43.404991383331534" lon="10.862065560063794"><ele>503.5</ele><time>2026-04-19T10:58:15.999Z</time></trkpt><trkpt lat="43.405045592488015" lon="10.862112526583592"><ele>501.0</ele><time>2026-04-19T10:58:16.999Z</time></trkpt><trkpt lat="43.405118583896304" lon="10.862187840986863"><ele>498.50000000000006</ele><time>2026-04-19T10:58:18.999Z</time></trkpt><trkpt lat="43.40508991629388" lon="10.86229191883915"><ele>496.0</ele><time>2026-04-19T10:58:19.999Z</time></trkpt><trkpt lat="43.405035544273" lon="10.862383166279654"><ele>496.00000000000006</ele><time>2026-04-19T10:58:20.999Z</time></trkpt><trkpt lat="43.404966023342695" lon="10.862419137065633"><ele>496.0</ele><time>2026-04-19T10:58:21.999Z</time></trkpt><trkpt lat="43.40488531600962" lon="10.862466376734806"><ele>496.0</ele><time>2026-04-19T10:58:22.999Z</time></trkpt><trkpt lat="43.40483290909176" lon="10.862530890830152"><ele>496.0</ele><time>2026-04-19T10:58:23.999Z</time></trkpt><trkpt lat="43.40479558386526" lon="10.862613718914877"><ele>496.00000000000006</ele><time>2026-04-19T10:58:24.999Z</time></trkpt><trkpt lat="43.40475768600454" lon="10.86272643120942"><ele>496.0</ele><time>2026-04-19T10:58:25.999Z</time></trkpt><trkpt lat="43.40476284593415" lon="10.862855741028849"><ele>494.83333333333337</ele><time>2026-04-19T10:58:26.999Z</time></trkpt><trkpt lat="43.40475834098976" lon="10.862968144525464"><ele>493.6666666666667</ele><time>2026-04-19T10:58:27.999Z</time></trkpt><trkpt lat="43.40476850885784" lon="10.86306684478483"><ele>492.5</ele><time>2026-04-19T10:58:28.999Z</time></trkpt><trkpt lat="43.40470400179826" lon="10.86314732288922"><ele>491.33333333333337</ele><time>2026-04-19T10:58:29.999Z</time></trkpt><trkpt lat="43.40462032721323" lon="10.86318082380301"><ele>490.1666666666667</ele><time>2026-04-19T10:58:30.999Z</time></trkpt><trkpt lat="43.40452135452855" lon="10.863193708769527"><ele>489.0</ele><time>2026-04-19T10:58:31.999Z</time></trkpt><trkpt lat="43.404418417660274" lon="10.863225286882448"><ele>489.0</ele><time>2026-04-19T10:58:32.999Z</time></trkpt><trkpt lat="43.4043167421016" lon="10.863252314528786"><ele>489.0</ele><time>2026-04-19T10:58:33.999Z</time></trkpt><trkpt lat="43.40419842086177" lon="10.863245518479106"><ele>489.0</ele><time>2026-04-19T10:58:34.999Z</time></trkpt><trkpt lat="43.404083076698896" lon="10.863242235552097"><ele>489.0</ele><time>2026-04-19T10:58:35.999Z</time></trkpt><trkpt lat="43.40396775740631" lon="10.863230419225141"><ele>489.0</ele><time>2026-04-19T10:58:36.999Z</time></trkpt><trkpt lat="43.40385121479224" lon="10.863200167021397"><ele>489.0</ele><time>2026-04-19T10:58:37.999Z</time></trkpt><trkpt lat="43.40373195345674" lon="10.863164877424435"><ele>489.0</ele><time>2026-04-19T10:58:38.999Z</time></trkpt><trkpt lat="43.40361029139441" lon="10.863120980213488"><ele>489.0</ele><time>2026-04-19T10:58:39.999Z</time></trkpt><trkpt lat="43.40349678107456" lon="10.863070220742474"><ele>490.4</ele><time>2026-04-19T10:58:40.999Z</time></trkpt><trkpt lat="43.40338960146028" lon="10.863080374126366"><ele>491.79999999999995</ele><time>2026-04-19T10:58:41.999Z</time></trkpt><trkpt lat="43.403291143104234" lon="10.863066874992601"><ele>493.20000000000005</ele><time>2026-04-19T10:58:42.999Z</time></trkpt><trkpt lat="43.40319821972751" lon="10.863069070827864"><ele>494.6</ele><time>2026-04-19T10:58:43.999Z</time></trkpt><trkpt lat="43.403108608206054" lon="10.86308045270471"><ele>496.0</ele><time>2026-04-19T10:58:44.999Z</time></trkpt><trkpt lat="43.40303838718459" lon="10.86309760100302"><ele>496.0</ele><time>2026-04-19T10:58:45.999Z</time></trkpt><trkpt lat="43.402999815514825" lon="10.863169919546413"><ele>496.0</ele><time>2026-04-19T10:58:46.999Z</time></trkpt><trkpt lat="43.402975759551005" lon="10.863290282920982"><ele>496.0</ele><time>2026-04-19T10:58:47.999Z</time></trkpt><trkpt lat="43.40297102914077" lon="10.863422561451868"><ele>496.0</ele><time>2026-04-19T10:58:48.999Z</time></trkpt><trkpt lat="43.40295523006871" lon="10.863571298992523"><ele>496.0</ele><time>2026-04-19T10:58:49.999Z</time></trkpt><trkpt lat="43.40298612568682" lon="10.863710361335478"><ele>499.0</ele><time>2026-04-19T10:58:50.999Z</time></trkpt><trkpt lat="43.40299049965938" lon="10.863862900807387"><ele>502.0</ele><time>2026-04-19T10:58:51.999Z</time></trkpt><trkpt lat="43.40297712316471" lon="10.864029251143213"><ele>505.0</ele><time>2026-04-19T10:58:52.999Z</time></trkpt><trkpt lat="43.40296505723665" lon="10.864203413580292"><ele>508.0</ele><time>2026-04-19T10:58:53.999Z</time></trkpt><trkpt lat="43.40294151077555" lon="10.864367219150623"><ele>508.0</ele><time>2026-04-19T10:58:54.999Z</time></trkpt><trkpt lat="43.40292094935148" lon="10.864541237707975"><ele>508.0</ele><time>2026-04-19T10:58:55.999Z</time></trkpt><trkpt lat="43.402926113657095" lon="10.864698736518774"><ele>508.0</ele><time>2026-04-19T10:58:56.999Z</time></trkpt><trkpt lat="43.402929048265236" lon="10.864868812880088"><ele>508.0</ele><time>2026-04-19T10:58:57.999Z</time></trkpt><trkpt lat="43.40300463912569" lon="10.864981584002459"><ele>507.75</ele><time>2026-04-19T10:58:58.999Z</time></trkpt><trkpt lat="43.403078066957605" lon="10.865074519426967"><ele>507.5</ele><time>2026-04-19T10:58:59.999Z</time></trkpt><trkpt lat="43.403151660598404" lon="10.865157010690258"><ele>507.25</ele><time>2026-04-19T10:59:00.999Z</time></trkpt><trkpt lat="43.40323346226005" lon="10.865153465578782"><ele>507.0</ele><time>2026-04-19T10:59:01.999Z</time></trkpt><trkpt lat="43.40348656025986" lon="10.865161326666943"><ele>507.0</ele><time>2026-04-19T10:59:03.999Z</time></trkpt><trkpt lat="43.403642832880415" lon="10.865149674399332"><ele>507.0</ele><time>2026-04-19T10:59:04.999Z</time></trkpt><trkpt lat="43.40382054447608" lon="10.865137700018595"><ele>507.0</ele><time>2026-04-19T10:59:05.999Z</time></trkpt><trkpt lat="43.40395294240412" lon="10.865150585141311"><ele>506.25</ele><time>2026-04-19T10:59:06.999Z</time></trkpt><trkpt lat="43.404086725510155" lon="10.86519836937666"><ele>505.5</ele><time>2026-04-19T10:59:07.999Z</time></trkpt><trkpt lat="43.40421381623961" lon="10.865262981780626"><ele>504.75</ele><time>2026-04-19T10:59:08.999Z</time></trkpt><trkpt lat="43.40432420813131" lon="10.865330592120861"><ele>504.0</ele><time>2026-04-19T10:59:09.998Z</time></trkpt><trkpt lat="43.40446413574209" lon="10.865418252259866"><ele>504.0</ele><time>2026-04-19T10:59:10.998Z</time></trkpt><trkpt lat="43.404566143709246" lon="10.865474094564876"><ele>504.0</ele><time>2026-04-19T10:59:11.998Z</time></trkpt><trkpt lat="43.40468787688107" lon="10.865541061900014"><ele>504.0</ele><time>2026-04-19T10:59:12.998Z</time></trkpt><trkpt lat="43.40479098983956" lon="10.865585537817033"><ele>504.0</ele><time>2026-04-19T10:59:13.998Z</time></trkpt><trkpt lat="43.40490759402181" lon="10.865654323900733"><ele>499.79999999999995</ele><time>2026-04-19T10:59:14.998Z</time></trkpt><trkpt lat="43.40500141977146" lon="10.865753741907799"><ele>495.59999999999997</ele><time>2026-04-19T10:59:15.998Z</time></trkpt><trkpt lat="43.40501439236611" lon="10.865928295935763"><ele>491.4</ele><time>2026-04-19T10:59:16.998Z</time></trkpt><trkpt lat="43.404991622293885" lon="10.866057154151894"><ele>487.2</ele><time>2026-04-19T10:59:17.998Z</time></trkpt><trkpt lat="43.40498768325626" lon="10.866179915357373"><ele>483.0</ele><time>2026-04-19T10:59:18.998Z</time></trkpt><trkpt lat="43.40490241881174" lon="10.866169072432598"><ele>483.0</ele><time>2026-04-19T10:59:19.998Z</time></trkpt><trkpt lat="43.4047909873641" lon="10.8662803736353"><ele>483.0</ele><time>2026-04-19T10:59:21.998Z</time></trkpt><trkpt lat="43.4047019512158" lon="10.866398778964433"><ele>483.0</ele><time>2026-04-19T10:59:22.998Z</time></trkpt><trkpt lat="43.40461016857044" lon="10.866525660708584"><ele>483.0</ele><time>2026-04-19T10:59:23.998Z</time></trkpt><trkpt lat="43.40453602456965" lon="10.866636280653305"><ele>487.25</ele><time>2026-04-19T10:59:24.998Z</time></trkpt><trkpt lat="43.40446353877034" lon="10.866787936727858"><ele>491.5</ele><time>2026-04-19T10:59:25.998Z</time></trkpt><trkpt lat="43.40444348466006" lon="10.866985117284706"><ele>495.75</ele><time>2026-04-19T10:59:26.998Z</time></trkpt><trkpt lat="43.40441201245577" lon="10.867144793015129"><ele>500.0</ele><time>2026-04-19T10:59:27.998Z</time></trkpt><trkpt lat="43.40439463321457" lon="10.867283708418968"><ele>500.0</ele><time>2026-04-19T10:59:28.998Z</time></trkpt><trkpt lat="43.404374800436436" lon="10.867427996730463"><ele>500.0</ele><time>2026-04-19T10:59:29.998Z</time></trkpt><trkpt lat="43.40434292305232" lon="10.867571651904958"><ele>500.0</ele><time>2026-04-19T10:59:30.998Z</time></trkpt><trkpt lat="43.404305658348285" lon="10.867661186900367"><ele>500.0</ele><time>2026-04-19T10:59:31.998Z</time></trkpt><trkpt lat="43.404293135683794" lon="10.86774723558143"><ele>500.0</ele><time>2026-04-19T10:59:32.998Z</time></trkpt><trkpt lat="43.4041875950222" lon="10.867753484370791"><ele>497.4</ele><time>2026-04-19T10:59:34.998Z</time></trkpt><trkpt lat="43.40410702321409" lon="10.86772503529475"><ele>494.8</ele><time>2026-04-19T10:59:35.998Z</time></trkpt><trkpt lat="43.40400437062715" lon="10.867748486969168"><ele>492.20000000000005</ele><time>2026-04-19T10:59:36.998Z</time></trkpt><trkpt lat="43.40388089713204" lon="10.867783846950454"><ele>489.6</ele><time>2026-04-19T10:59:37.998Z</time></trkpt><trkpt lat="43.4037574143681" lon="10.867821673065752"><ele>487.0</ele><time>2026-04-19T10:59:38.998Z</time></trkpt><trkpt lat="43.40359384391088" lon="10.867876902677132"><ele>487.0</ele><time>2026-04-19T10:59:39.998Z</time></trkpt><trkpt lat="43.40344661664722" lon="10.86793863106707"><ele>487.0</ele><time>2026-04-19T10:59:40.998Z</time></trkpt><trkpt lat="43.40330830143616" lon="10.867995467894032"><ele>487.0</ele><time>2026-04-19T10:59:41.998Z</time></trkpt><trkpt lat="43.40315856432739" lon="10.868075005802895"><ele>491.0</ele><time>2026-04-19T10:59:42.998Z</time></trkpt><trkpt lat="43.40296976129906" lon="10.868107947896158"><ele>495.0</ele><time>2026-04-19T10:59:43.998Z</time></trkpt><trkpt lat="43.4028205296867" lon="10.868164708515364"><ele>499.0</ele><time>2026-04-19T10:59:44.998Z</time></trkpt><trkpt lat="43.40266813306652" lon="10.868232848371198"><ele>499.0</ele><time>2026-04-19T10:59:45.998Z</time></trkpt><trkpt lat="43.40251437645497" lon="10.868302755524596"><ele>499.0</ele><time>2026-04-19T10:59:46.998Z</time></trkpt><trkpt lat="43.40236339044294" lon="10.868374331260322"><ele>499.0</ele><time>2026-04-19T10:59:47.998Z</time></trkpt><trkpt lat="43.40221022252082" lon="10.86843045737817"><ele>499.5</ele><time>2026-04-19T10:59:48.998Z</time></trkpt><trkpt lat="43.40206615526352" lon="10.868472564955566"><ele>500.0</ele><time>2026-04-19T10:59:49.998Z</time></trkpt><trkpt lat="43.40191909641588" lon="10.8684928323787"><ele>500.5</ele><time>2026-04-19T10:59:50.998Z</time></trkpt><trkpt lat="43.40177119211052" lon="10.868478249634913"><ele>501.0</ele><time>2026-04-19T10:59:51.998Z</time></trkpt><trkpt lat="43.40163342409272" lon="10.868436599464097"><ele>501.0</ele><time>2026-04-19T10:59:52.998Z</time></trkpt><trkpt lat="43.40150027642987" lon="10.86836826487033"><ele>501.0</ele><time>2026-04-19T10:59:53.998Z</time></trkpt><trkpt lat="43.40135542090905" lon="10.868314691565418"><ele>501.0</ele><time>2026-04-19T10:59:54.998Z</time></trkpt><trkpt lat="43.40121827289606" lon="10.868254336201954"><ele>501.0</ele><time>2026-04-19T10:59:55.998Z</time></trkpt><trkpt lat="43.40107691264797" lon="10.86816575001284"><ele>498.66666666666663</ele><time>2026-04-19T10:59:57Z</time></trkpt><trkpt lat="43.40093324591583" lon="10.868116661398366"><ele>496.3333333333333</ele><time>2026-04-19T10:59:58Z</time></trkpt><trkpt lat="43.400793414577294" lon="10.868032980803582"><ele>494.0</ele><time>2026-04-19T10:59:59Z</time></trkpt><trkpt lat="43.400652668812874" lon="10.867954234264745"><ele>494.0</ele><time>2026-04-19T11:00:00Z</time></trkpt><trkpt lat="43.40051494332935" lon="10.867888337082762"><ele>494.0</ele><time>2026-04-19T11:00:01Z</time></trkpt><trkpt lat="43.400369382982966" lon="10.86783346863387"><ele>494.0</ele><time>2026-04-19T11:00:02Z</time></trkpt><trkpt lat="43.40022405848048" lon="10.86779231487976"><ele>494.0</ele><time>2026-04-19T11:00:03Z</time></trkpt><trkpt lat="43.400083174783276" lon="10.867763095943166"><ele>495.5</ele><time>2026-04-19T11:00:04Z</time></trkpt><trkpt lat="43.399962004738754" lon="10.867789467826752"><ele>497.0</ele><time>2026-04-19T11:00:05Z</time></trkpt><trkpt lat="43.399820607372476" lon="10.867792794833479"><ele>498.5</ele><time>2026-04-19T11:00:06Z</time></trkpt><trkpt lat="43.39971018715532" lon="10.867811967151546"><ele>500.0</ele><time>2026-04-19T11:00:07Z</time></trkpt><trkpt lat="43.3996099245754" lon="10.867835274260145"><ele>500.16666666666663</ele><time>2026-04-19T11:00:08Z</time></trkpt><trkpt lat="43.39952000185927" lon="10.867844906767793"><ele>500.3333333333333</ele><time>2026-04-19T11:00:09Z</time></trkpt><trkpt lat="43.39944367082425" lon="10.867853096633308"><ele>500.5</ele><time>2026-04-19T11:00:10Z</time></trkpt><trkpt lat="43.39937944928742" lon="10.867867081471054"><ele>500.66666666666663</ele><time>2026-04-19T11:00:11Z</time></trkpt><trkpt lat="43.39929415973557" lon="10.86792850257204"><ele>500.8333333333333</ele><time>2026-04-19T11:00:13Z</time></trkpt><trkpt lat="43.399268433063305" lon="10.867804209516615"><ele>501.0</ele><time>2026-04-19T11:00:15Z</time></trkpt><trkpt lat="43.39924825748326" lon="10.867680611594839"><ele>502.20000000000005</ele><time>2026-04-19T11:00:17Z</time></trkpt><trkpt lat="43.39923710937352" lon="10.867563562987344"><ele>503.40000000000003</ele><time>2026-04-19T11:00:18Z</time></trkpt><trkpt lat="43.399229222634844" lon="10.867445610040514"><ele>504.6</ele><time>2026-04-19T11:00:19Z</time></trkpt><trkpt lat="43.39922678375455" lon="10.867312374060063"><ele>505.8</ele><time>2026-04-19T11:00:20Z</time></trkpt><trkpt lat="43.39922773681697" lon="10.867175527189692"><ele>507.0</ele><time>2026-04-19T11:00:21Z</time></trkpt><trkpt lat="43.39922859736217" lon="10.867036462965814"><ele>507.0</ele><time>2026-04-19T11:00:22Z</time></trkpt><trkpt lat="43.39922961680387" lon="10.866889545751064"><ele>507.00000000000006</ele><time>2026-04-19T11:00:22.999Z</time></trkpt><trkpt lat="43.399230713819534" lon="10.866737753078445"><ele>507.00000000000006</ele><time>2026-04-19T11:00:23.999Z</time></trkpt><trkpt lat="43.39923286702173" lon="10.866590903954396"><ele>507.0</ele><time>2026-04-19T11:00:24.999Z</time></trkpt><trkpt lat="43.39923709581006" lon="10.866438314581005"><ele>507.0</ele><time>2026-04-19T11:00:25.999Z</time></trkpt><trkpt lat="43.39924286510845" lon="10.86628426392931"><ele>508.1666666666667</ele><time>2026-04-19T11:00:26.999Z</time></trkpt><trkpt lat="43.39924932167218" lon="10.866138662996297"><ele>509.33333333333337</ele><time>2026-04-19T11:00:27.999Z</time></trkpt><trkpt lat="43.399256955753835" lon="10.865998770940863"><ele>510.5</ele><time>2026-04-19T11:00:28.999Z</time></trkpt><trkpt lat="43.399265822385395" lon="10.865873405253431"><ele>511.6666666666667</ele><time>2026-04-19T11:00:29.999Z</time></trkpt><trkpt lat="43.39926368246837" lon="10.865759636640313"><ele>512.8333333333334</ele><time>2026-04-19T11:00:30.999Z</time></trkpt><trkpt lat="43.39924635970916" lon="10.865670042706315"><ele>514.0</ele><time>2026-04-19T11:00:31.999Z</time></trkpt><trkpt lat="43.399260490919744" lon="10.865503345228364"><ele>514.8</ele><time>2026-04-19T11:00:33.999Z</time></trkpt><trkpt lat="43.39925134693064" lon="10.865411833715472"><ele>515.5999999999999</ele><time>2026-04-19T11:00:34.999Z</time></trkpt><trkpt lat="43.39934494802882" lon="10.86535823193817"><ele>516.4</ele><time>2026-04-19T11:00:36.999Z</time></trkpt><trkpt lat="43.39936939495371" lon="10.865515637528365"><ele>517.1999999999999</ele><time>2026-04-19T11:00:39.999Z</time></trkpt><trkpt lat="43.3993551565724" lon="10.865605862916262"><ele>518.0</ele><time>2026-04-19T11:00:40.999Z</time></trkpt><trkpt lat="43.399342784410976" lon="10.865742975778769"><ele>518.0</ele><time>2026-04-19T11:00:42.999Z</time></trkpt><trkpt lat="43.39933498807181" lon="10.865841146287137"><ele>518.0</ele><time>2026-04-19T11:00:43.999Z</time></trkpt><trkpt lat="43.39933002462108" lon="10.86593957779127"><ele>518.0</ele><time>2026-04-19T11:00:44.999Z</time></trkpt><trkpt lat="43.39931544894729" lon="10.866035201847877"><ele>518.0</ele><time>2026-04-19T11:00:45.999Z</time></trkpt><trkpt lat="43.39932259957429" lon="10.866142164008709"><ele>518.0</ele><time>2026-04-19T11:00:46.999Z</time></trkpt><trkpt lat="43.39933161286455" lon="10.866245226247479"><ele>518.0</ele><time>2026-04-19T11:00:47.999Z</time></trkpt><trkpt lat="43.39935130053998" lon="10.866341714067712"><ele>518.0</ele><time>2026-04-19T11:00:48.999Z</time></trkpt><trkpt lat="43.39939312893254" lon="10.866477187999546"><ele>518.0</ele><time>2026-04-19T11:00:50.999Z</time></trkpt><trkpt lat="43.399350648172955" lon="10.866291192428424"><ele>518.0</ele><time>2026-04-19T11:01:02.999Z</time></trkpt><trkpt lat="43.39934188142918" lon="10.866158128195533"><ele>518.0</ele><time>2026-04-19T11:01:03.999Z</time></trkpt><trkpt lat="43.399338055214265" lon="10.86601129508091"><ele>518.0</ele><time>2026-04-19T11:01:04.999Z</time></trkpt><trkpt lat="43.39935499871754" lon="10.865862465297663"><ele>518.0</ele><time>2026-04-19T11:01:05.999Z</time></trkpt><trkpt lat="43.39936786760908" lon="10.865722332049419"><ele>518.0</ele><time>2026-04-19T11:01:06.999Z</time></trkpt><trkpt lat="43.399386705739126" lon="10.865578395893964"><ele>518.0</ele><time>2026-04-19T11:01:07.999Z</time></trkpt><trkpt lat="43.399398052507806" lon="10.865436912630623"><ele>518.0</ele><time>2026-04-19T11:01:08.999Z</time></trkpt><trkpt lat="43.39939668559624" lon="10.865268426674714"><ele>518.0</ele><time>2026-04-19T11:01:09.999Z</time></trkpt><trkpt lat="43.399387370653464" lon="10.865094676638147"><ele>517.75</ele><time>2026-04-19T11:01:10.999Z</time></trkpt><trkpt lat="43.39938963672096" lon="10.86493643769907"><ele>517.5</ele><time>2026-04-19T11:01:11.999Z</time></trkpt><trkpt lat="43.399446778660575" lon="10.864782705618275"><ele>517.25</ele><time>2026-04-19T11:01:12.999Z</time></trkpt><trkpt lat="43.399477400446216" lon="10.864607233175029"><ele>517.0</ele><time>2026-04-19T11:01:13.999Z</time></trkpt><trkpt lat="43.39951027991797" lon="10.864415976576824"><ele>516.3333333333334</ele><time>2026-04-19T11:01:14.999Z</time></trkpt><trkpt lat="43.39954402028387" lon="10.864209147233652"><ele>515.6666666666666</ele><time>2026-04-19T11:01:15.998Z</time></trkpt><trkpt lat="43.39957629307555" lon="10.864004439971486"><ele>515.0</ele><time>2026-04-19T11:01:16.998Z</time></trkpt><trkpt lat="43.39960706325732" lon="10.863794847925844"><ele>515.0</ele><time>2026-04-19T11:01:17.998Z</time></trkpt><trkpt lat="43.399635637272326" lon="10.863586783906113"><ele>515.0</ele><time>2026-04-19T11:01:18.998Z</time></trkpt><trkpt lat="43.39964591055525" lon="10.863370561273896"><ele>515.0</ele><time>2026-04-19T11:01:19.998Z</time></trkpt><trkpt lat="43.39968475201339" lon="10.863154080720253"><ele>523.0</ele><time>2026-04-19T11:01:20.998Z</time></trkpt><trkpt lat="43.39970786379208" lon="10.862928175660024"><ele>531.0</ele><time>2026-04-19T11:01:21.998Z</time></trkpt><trkpt lat="43.39973109526688" lon="10.862700685258627"><ele>539.0</ele><time>2026-04-19T11:01:22.998Z</time></trkpt><trkpt lat="43.3997546232819" lon="10.862468491481538"><ele>539.0</ele><time>2026-04-19T11:01:23.998Z</time></trkpt><trkpt lat="43.399778080731394" lon="10.86223699392306"><ele>539.0</ele><time>2026-04-19T11:01:24.998Z</time></trkpt><trkpt lat="43.399803107815515" lon="10.862013554017174"><ele>539.0</ele><time>2026-04-19T11:01:25.998Z</time></trkpt><trkpt lat="43.39983084577823" lon="10.861786041183707"><ele>537.6666666666666</ele><time>2026-04-19T11:01:26.998Z</time></trkpt><trkpt lat="43.399857785363764" lon="10.861570477507856"><ele>536.3333333333334</ele><time>2026-04-19T11:01:27.998Z</time></trkpt><trkpt lat="43.3998842034578" lon="10.861362449178747"><ele>535.0</ele><time>2026-04-19T11:01:28.998Z</time></trkpt><trkpt lat="43.399907681671955" lon="10.86115647641055"><ele>535.0</ele><time>2026-04-19T11:01:29.998Z</time></trkpt><trkpt lat="43.39992830778575" lon="10.860949760690902"><ele>535.0</ele><time>2026-04-19T11:01:30.998Z</time></trkpt><trkpt lat="43.399946534741865" lon="10.860778433578938"><ele>535.0</ele><time>2026-04-19T11:01:31.998Z</time></trkpt><trkpt lat="43.39996992192336" lon="10.860613990593695"><ele>535.0</ele><time>2026-04-19T11:01:32.998Z</time></trkpt><trkpt lat="43.400001693097636" lon="10.86044765712111"><ele>533.5</ele><time>2026-04-19T11:01:33.998Z</time></trkpt><trkpt lat="43.400033635321655" lon="10.86030952471385"><ele>532.0</ele><time>2026-04-19T11:01:34.998Z</time></trkpt><trkpt lat="43.4001127702978" lon="10.860181610650235"><ele>530.5</ele><time>2026-04-19T11:01:35.998Z</time></trkpt><trkpt lat="43.400177779189235" lon="10.860050616657563"><ele>529.0</ele><time>2026-04-19T11:01:36.998Z</time></trkpt><trkpt lat="43.40024068532087" lon="10.85992475928615"><ele>530.5</ele><time>2026-04-19T11:01:37.998Z</time></trkpt><trkpt lat="43.40029589598752" lon="10.859814298243974"><ele>532.0</ele><time>2026-04-19T11:01:38.998Z</time></trkpt><trkpt lat="43.400346423955824" lon="10.859710440157453"><ele>533.5</ele><time>2026-04-19T11:01:39.998Z</time></trkpt><trkpt lat="43.400393733935964" lon="10.859611796720207"><ele>535.0</ele><time>2026-04-19T11:01:40.998Z</time></trkpt><trkpt lat="43.400439624588856" lon="10.85951611261186"><ele>536.5</ele><time>2026-04-19T11:01:41.998Z</time></trkpt><trkpt lat="43.40048417789036" lon="10.859429204311429"><ele>538.0</ele><time>2026-04-19T11:01:42.998Z</time></trkpt><trkpt lat="43.400525837564544" lon="10.859350631997911"><ele>535.6666666666667</ele><time>2026-04-19T11:01:43.998Z</time></trkpt><trkpt lat="43.40056771486693" lon="10.859277532501766"><ele>533.3333333333334</ele><time>2026-04-19T11:01:44.998Z</time></trkpt><trkpt lat="43.400645686968204" lon="10.859168350113338"><ele>531.0</ele><time>2026-04-19T11:01:46.998Z</time></trkpt><trkpt lat="43.40071225511457" lon="10.859096226873229"><ele>528.6666666666666</ele><time>2026-04-19T11:01:48.998Z</time></trkpt><trkpt lat="43.400766335285965" lon="10.859050703334596"><ele>526.3333333333333</ele><time>2026-04-19T11:01:50.998Z</time></trkpt><trkpt lat="43.40084710789292" lon="10.85902369042194"><ele>524.0</ele><time>2026-04-19T11:01:53.998Z</time></trkpt><trkpt lat="43.40092210445361" lon="10.859083746492152"><ele>524.0</ele><time>2026-04-19T11:01:56.998Z</time></trkpt><trkpt lat="43.400974725528485" lon="10.859153581481706"><ele>524.0</ele><time>2026-04-19T11:01:59.998Z</time></trkpt><trkpt lat="43.40099085232633" lon="10.859245868829413"><ele>524.0</ele><time>2026-04-19T11:02:04Z</time></trkpt><trkpt lat="43.40102981145226" lon="10.859325839777341"><ele>524.0</ele><time>2026-04-19T11:02:08Z</time></trkpt><trkpt lat="43.40098856095012" lon="10.8594165363241"><ele>524.0</ele><time>2026-04-19T11:02:10Z</time></trkpt><trkpt lat="43.40105354999878" lon="10.859452907336879"><ele>524.0</ele><time>2026-04-19T11:02:24Z</time></trkpt><trkpt lat="43.401117024283685" lon="10.85952164409927"><ele>524.0</ele><time>2026-04-19T11:02:28Z</time></trkpt><trkpt lat="43.40117152394182" lon="10.859602513275489"><ele>524.0</ele><time>2026-04-19T11:02:31.999Z</time></trkpt><trkpt lat="43.40114783751958" lon="10.859510249402158"><ele>524.0</ele><time>2026-04-19T11:03:12.999Z</time></trkpt><trkpt lat="43.40108195730678" lon="10.859433148505685"><ele>524.0</ele><time>2026-04-19T11:03:14.999Z</time></trkpt><trkpt lat="43.40103889634803" lon="10.859354452780918"><ele>524.0</ele><time>2026-04-19T11:03:16.999Z</time></trkpt><trkpt lat="43.40100531962012" lon="10.859232345002248"><ele>524.0</ele><time>2026-04-19T11:03:18.999Z</time></trkpt><trkpt lat="43.400967692466985" lon="10.859133298405842"><ele>524.0</ele><time>2026-04-19T11:03:20.999Z</time></trkpt><trkpt lat="43.40090876844722" lon="10.859041805763942"><ele>524.0</ele><time>2026-04-19T11:03:23.998Z</time></trkpt><trkpt lat="43.40085470306182" lon="10.858992509097412"><ele>524.0</ele><time>2026-04-19T11:03:27.998Z</time></trkpt><trkpt lat="43.40091478386619" lon="10.859062037785227"><ele>524.0</ele><time>2026-04-19T11:03:47.998Z</time></trkpt><trkpt lat="43.400960168572354" lon="10.859131845963919"><ele>524.0</ele><time>2026-04-19T11:03:49.998Z</time></trkpt><trkpt lat="43.40094019618634" lon="10.859238080207541"><ele>524.0</ele><time>2026-04-19T11:03:52.998Z</time></trkpt><trkpt lat="43.400929147426346" lon="10.859341827808649"><ele>524.0</ele><time>2026-04-19T11:03:55.998Z</time></trkpt><trkpt lat="43.401026236898645" lon="10.859383071310871"><ele>538.0</ele><time>2026-04-19T11:03:58.998Z</time></trkpt><trkpt lat="43.40111246598736" lon="10.85944571071948"><ele>538.0</ele><time>2026-04-19T11:04:01.998Z</time></trkpt><trkpt lat="43.40114776888823" lon="10.859523688222197"><ele>538.0</ele><time>2026-04-19T11:04:03.998Z</time></trkpt><trkpt lat="43.4011782498019" lon="10.859611625236802"><ele>538.0</ele><time>2026-04-19T11:04:06.998Z</time></trkpt></trkseg><trkseg><trkpt lat="43.39916799223119" lon="10.865164704548882"><ele>517.8</ele><time>2026-04-19T14:14:09Z</time></trkpt><trkpt lat="43.399183905664366" lon="10.865033604838954"><ele>517.5999999999999</ele><time>2026-04-19T14:14:10Z</time></trkpt><trkpt lat="43.39919587330904" lon="10.864906528472373"><ele>517.4000000000001</ele><time>2026-04-19T14:14:11Z</time></trkpt><trkpt lat="43.399211168275144" lon="10.86477477444578"><ele>517.2</ele><time>2026-04-19T14:14:12Z</time></trkpt><trkpt lat="43.39921851436746" lon="10.864644129622564"><ele>517.0</ele><time>2026-04-19T14:14:13Z</time></trkpt><trkpt lat="43.3992250310365" lon="10.864522657140814"><ele>517.0</ele><time>2026-04-19T14:14:14Z</time></trkpt><trkpt lat="43.399243472794915" lon="10.864358809698029"><ele>517.0</ele><time>2026-04-19T14:14:15Z</time></trkpt><trkpt lat="43.39924423051261" lon="10.864198316800374"><ele>517.0</ele><time>2026-04-19T14:14:16Z</time></trkpt><trkpt lat="43.399257468262576" lon="10.864035717946747"><ele>517.0</ele><time>2026-04-19T14:14:17Z</time></trkpt><trkpt lat="43.3992739883452" lon="10.863870729235312"><ele>516.5</ele><time>2026-04-19T14:14:18Z</time></trkpt><trkpt lat="43.39929997230324" lon="10.86370654159511"><ele>516.0</ele><time>2026-04-19T14:14:19Z</time></trkpt><trkpt lat="43.39930544493089" lon="10.863510284588054"><ele>515.5</ele><time>2026-04-19T14:14:20Z</time></trkpt><trkpt lat="43.39931951154801" lon="10.863321535666705"><ele>515.0</ele><time>2026-04-19T14:14:21Z</time></trkpt><trkpt lat="43.39933430118186" lon="10.86312985616173"><ele>513.75</ele><time>2026-04-19T14:14:22Z</time></trkpt><trkpt lat="43.39934925270947" lon="10.862936488544884"><ele>512.5</ele><time>2026-04-19T14:14:23Z</time></trkpt><trkpt lat="43.39935903026626" lon="10.8627452030747"><ele>511.25</ele><time>2026-04-19T14:14:24Z</time></trkpt><trkpt lat="43.399373211586486" lon="10.86254097962708"><ele>510.0</ele><time>2026-04-19T14:14:25Z</time></trkpt><trkpt lat="43.39938615056794" lon="10.862335555997596"><ele>507.66666666666663</ele><time>2026-04-19T14:14:26Z</time></trkpt><trkpt lat="43.399398744885346" lon="10.862129742078443"><ele>505.3333333333333</ele><time>2026-04-19T14:14:27Z</time></trkpt><trkpt lat="43.39941347630949" lon="10.86192526367913"><ele>503.0</ele><time>2026-04-19T14:14:28Z</time></trkpt><trkpt lat="43.39943117829034" lon="10.861712024710073"><ele>500.3333333333333</ele><time>2026-04-19T14:14:29Z</time></trkpt><trkpt lat="43.39944451759227" lon="10.861504803971878"><ele>497.66666666666663</ele><time>2026-04-19T14:14:30Z</time></trkpt><trkpt lat="43.3994577207041" lon="10.86129246751785"><ele>495.0</ele><time>2026-04-19T14:14:31Z</time></trkpt><trkpt lat="43.39947220166975" lon="10.86108875505196"><ele>493.75</ele><time>2026-04-19T14:14:32Z</time></trkpt><trkpt lat="43.39948776208332" lon="10.860890441462539"><ele>492.5</ele><time>2026-04-19T14:14:33Z</time></trkpt><trkpt lat="43.39950410461358" lon="10.860697227164925"><ele>491.25</ele><time>2026-04-19T14:14:34Z</time></trkpt><trkpt lat="43.39951685390024" lon="10.860505067932262"><ele>490.0</ele><time>2026-04-19T14:14:35Z</time></trkpt><trkpt lat="43.39952909088075" lon="10.860321495405264"><ele>490.0</ele><time>2026-04-19T14:14:36Z</time></trkpt><trkpt lat="43.39953860380156" lon="10.860149615227826"><ele>490.0</ele><time>2026-04-19T14:14:37Z</time></trkpt><trkpt lat="43.39954916561593" lon="10.859983862130388"><ele>490.0</ele><time>2026-04-19T14:14:38Z</time></trkpt><trkpt lat="43.399558183836476" lon="10.859825655550875"><ele>490.0</ele><time>2026-04-19T14:14:39Z</time></trkpt><trkpt lat="43.3995684155436" lon="10.859673478335427"><ele>489.2</ele><time>2026-04-19T14:14:40Z</time></trkpt><trkpt lat="43.399580274872044" lon="10.8595320383292"><ele>488.4</ele><time>2026-04-19T14:14:41Z</time></trkpt><trkpt lat="43.39961319926849" lon="10.859401924649445"><ele>487.6</ele><time>2026-04-19T14:14:42Z</time></trkpt><trkpt lat="43.399688313040606" lon="10.859296859099777"><ele>486.8</ele><time>2026-04-19T14:14:43Z</time></trkpt><trkpt lat="43.39976352636484" lon="10.859202968819202"><ele>486.0</ele><time>2026-04-19T14:14:44Z</time></trkpt><trkpt lat="43.399833128281465" lon="10.85909488176605"><ele>489.25</ele><time>2026-04-19T14:14:45Z</time></trkpt><trkpt lat="43.39991025155325" lon="10.858983072679978"><ele>492.5</ele><time>2026-04-19T14:14:46Z</time></trkpt><trkpt lat="43.39999316686086" lon="10.85887237700785"><ele>495.75</ele><time>2026-04-19T14:14:47Z</time></trkpt><trkpt lat="43.400071608102785" lon="10.858757240580687"><ele>499.0</ele><time>2026-04-19T14:14:48Z</time></trkpt><trkpt lat="43.40015398150363" lon="10.858642005996705"><ele>499.0</ele><time>2026-04-19T14:14:49Z</time></trkpt><trkpt lat="43.400238340934095" lon="10.858528653768108"><ele>499.0</ele><time>2026-04-19T14:14:50Z</time></trkpt><trkpt lat="43.4003201598656" lon="10.858423970533051"><ele>499.0</ele><time>2026-04-19T14:14:51Z</time></trkpt><trkpt lat="43.400389310868526" lon="10.858334953439261"><ele>499.0</ele><time>2026-04-19T14:14:52Z</time></trkpt><trkpt lat="43.40044789667063" lon="10.85825191857592"><ele>499.0</ele><time>2026-04-19T14:14:53Z</time></trkpt><trkpt lat="43.40049106574598" lon="10.858169354591098"><ele>501.4</ele><time>2026-04-19T14:14:54Z</time></trkpt><trkpt lat="43.40056459135262" lon="10.858083147112103"><ele>503.79999999999995</ele><time>2026-04-19T14:14:55Z</time></trkpt><trkpt lat="43.400644307768516" lon="10.857993731761331"><ele>506.20000000000005</ele><time>2026-04-19T14:14:56Z</time></trkpt><trkpt lat="43.40072286169996" lon="10.85791135357686"><ele>508.6</ele><time>2026-04-19T14:14:57Z</time></trkpt><trkpt lat="43.4008024088095" lon="10.857813601252928"><ele>511.0</ele><time>2026-04-19T14:14:58Z</time></trkpt><trkpt lat="43.40087782305698" lon="10.857699970851835"><ele>506.5</ele><time>2026-04-19T14:14:59Z</time></trkpt><trkpt lat="43.400968275772556" lon="10.85758264002703"><ele>502.0</ele><time>2026-04-19T14:15:00Z</time></trkpt><trkpt lat="43.401057000090056" lon="10.857456832370278"><ele>497.5</ele><time>2026-04-19T14:15:01Z</time></trkpt><trkpt lat="43.401148985104875" lon="10.857328640109001"><ele>493.0</ele><time>2026-04-19T14:15:02Z</time></trkpt><trkpt lat="43.40123893247005" lon="10.857195749956935"><ele>494.25</ele><time>2026-04-19T14:15:03Z</time></trkpt><trkpt lat="43.40134646129653" lon="10.857078064180685"><ele>495.5</ele><time>2026-04-19T14:15:04Z</time></trkpt><trkpt lat="43.40143588159553" lon="10.856933318794217"><ele>496.75</ele><time>2026-04-19T14:15:05Z</time></trkpt><trkpt lat="43.40153646419646" lon="10.856807000557861"><ele>498.0</ele><time>2026-04-19T14:15:06Z</time></trkpt><trkpt lat="43.40163913824677" lon="10.856682963886874"><ele>498.0</ele><time>2026-04-19T14:15:07Z</time></trkpt><trkpt lat="43.401736902212335" lon="10.856555769902839"><ele>498.0</ele><time>2026-04-19T14:15:08Z</time></trkpt><trkpt lat="43.40183237363146" lon="10.856425124732983"><ele>498.0</ele><time>2026-04-19T14:15:09Z</time></trkpt><trkpt lat="43.401938050342025" lon="10.856311921366796"><ele>498.0</ele><time>2026-04-19T14:15:10Z</time></trkpt><trkpt lat="43.402054612613114" lon="10.856219386702309"><ele>502.75</ele><time>2026-04-19T14:15:11Z</time></trkpt><trkpt lat="43.40218021437314" lon="10.856140663170898"><ele>507.5</ele><time>2026-04-19T14:15:12Z</time></trkpt><trkpt lat="43.40231046821254" lon="10.85607926700139"><ele>512.25</ele><time>2026-04-19T14:15:13Z</time></trkpt><trkpt lat="43.40243949815426" lon="10.856022759869418"><ele>517.0</ele><time>2026-04-19T14:15:14Z</time></trkpt><trkpt lat="43.402560393299616" lon="10.855962236021409"><ele>515.0</ele><time>2026-04-19T14:15:15Z</time></trkpt><trkpt lat="43.40267329646766" lon="10.855901429341964"><ele>513.0</ele><time>2026-04-19T14:15:16Z</time></trkpt><trkpt lat="43.402789440338914" lon="10.855856244265805"><ele>511.0</ele><time>2026-04-19T14:15:17Z</time></trkpt><trkpt lat="43.40290165409043" lon="10.855816092388585"><ele>509.0</ele><time>2026-04-19T14:15:18Z</time></trkpt><trkpt lat="43.40300162908681" lon="10.855766368792606"><ele>509.0</ele><time>2026-04-19T14:15:19Z</time></trkpt><trkpt lat="43.40308535371296" lon="10.855702387526598"><ele>509.0</ele><time>2026-04-19T14:15:20Z</time></trkpt><trkpt lat="43.403136190808745" lon="10.855613959778646"><ele>509.0</ele><time>2026-04-19T14:15:21Z</time></trkpt><trkpt lat="43.40315953506609" lon="10.855491627683707"><ele>509.0</ele><time>2026-04-19T14:15:22Z</time></trkpt><trkpt lat="43.403183795135774" lon="10.855345328219686"><ele>509.0</ele><time>2026-04-19T14:15:23Z</time></trkpt><trkpt lat="43.40324196744963" lon="10.85523162475044"><ele>509.0</ele><time>2026-04-19T14:15:24Z</time></trkpt><trkpt lat="43.40331363811784" lon="10.85513016649035"><ele>509.0</ele><time>2026-04-19T14:15:25Z</time></trkpt><trkpt lat="43.40339888589244" lon="10.855029179896922"><ele>509.0</ele><time>2026-04-19T14:15:26Z</time></trkpt><trkpt lat="43.40347355616961" lon="10.854924849361664"><ele>509.0</ele><time>2026-04-19T14:15:27Z</time></trkpt><trkpt lat="43.40355536094786" lon="10.854819276577722"><ele>509.0</ele><time>2026-04-19T14:15:28Z</time></trkpt><trkpt lat="43.403637953251085" lon="10.854724700984166"><ele>509.4</ele><time>2026-04-19T14:15:29Z</time></trkpt><trkpt lat="43.40372219456046" lon="10.854642765675786"><ele>509.79999999999995</ele><time>2026-04-19T14:15:29.999Z</time></trkpt><trkpt lat="43.40380401857164" lon="10.854580550173122"><ele>510.20000000000005</ele><time>2026-04-19T14:15:30.999Z</time></trkpt><trkpt lat="43.403879546757686" lon="10.854552102881653"><ele>510.6</ele><time>2026-04-19T14:15:31.999Z</time></trkpt><trkpt lat="43.403940662613216" lon="10.854590868769845"><ele>511.0</ele><time>2026-04-19T14:15:32.999Z</time></trkpt><trkpt lat="43.4040038608762" lon="10.854724171689007"><ele>511.00000000000006</ele><time>2026-04-19T14:15:34.999Z</time></trkpt><trkpt lat="43.4040514881642" lon="10.85478502740538"><ele>511.0</ele><time>2026-04-19T14:15:35.999Z</time></trkpt><trkpt lat="43.40415310440755" lon="10.854913200798684"><ele>511.0</ele><time>2026-04-19T14:15:37.999Z</time></trkpt><trkpt lat="43.40420630965418" lon="10.854977476659052"><ele>511.0</ele><time>2026-04-19T14:15:38.999Z</time></trkpt><trkpt lat="43.404262956982485" lon="10.855033748311723"><ele>511.00000000000006</ele><time>2026-04-19T14:15:39.999Z</time></trkpt><trkpt lat="43.40433292336384" lon="10.855064643560805"><ele>511.0</ele><time>2026-04-19T14:15:40.999Z</time></trkpt><trkpt lat="43.40442617404833" lon="10.85506069255056"><ele>511.0</ele><time>2026-04-19T14:15:41.999Z</time></trkpt><trkpt lat="43.40452503424036" lon="10.855054671558197"><ele>511.0</ele><time>2026-04-19T14:15:42.999Z</time></trkpt><trkpt lat="43.40462616189554" lon="10.855079460824886"><ele>511.0</ele><time>2026-04-19T14:15:44.001Z</time></trkpt><trkpt lat="43.40472516536263" lon="10.855085344752473"><ele>511.0</ele><time>2026-04-19T14:15:45.001Z</time></trkpt><trkpt lat="43.40481959228046" lon="10.855090683729479"><ele>511.0</ele><time>2026-04-19T14:15:46.001Z</time></trkpt><trkpt lat="43.404909632450206" lon="10.85509524296638"><ele>510.33333333333337</ele><time>2026-04-19T14:15:47.001Z</time></trkpt><trkpt lat="43.40499279406673" lon="10.855099452180832"><ele>509.6666666666667</ele><time>2026-04-19T14:15:48.001Z</time></trkpt><trkpt lat="43.40506923104136" lon="10.855104272795764"><ele>509.0</ele><time>2026-04-19T14:15:49.001Z</time></trkpt><trkpt lat="43.40515155280639" lon="10.855110086500032"><ele>508.33333333333337</ele><time>2026-04-19T14:15:50.001Z</time></trkpt><trkpt lat="43.4052382756584" lon="10.855114041930264"><ele>507.6666666666667</ele><time>2026-04-19T14:15:51.001Z</time></trkpt><trkpt lat="43.40532703469768" lon="10.855113131183527"><ele>507.0</ele><time>2026-04-19T14:15:52.001Z</time></trkpt><trkpt lat="43.405412422424824" lon="10.855067660321962"><ele>507.0</ele><time>2026-04-19T14:15:53.001Z</time></trkpt><trkpt lat="43.40549109157441" lon="10.8550059085296"><ele>507.00000000000006</ele><time>2026-04-19T14:15:54.001Z</time></trkpt><trkpt lat="43.40557392751451" lon="10.85491411360068"><ele>507.00000000000006</ele><time>2026-04-19T14:15:55.001Z</time></trkpt><trkpt lat="43.40566806999986" lon="10.854831272530896"><ele>507.0</ele><time>2026-04-19T14:15:56.001Z</time></trkpt><trkpt lat="43.405760379332776" lon="10.854740093132403"><ele>507.0</ele><time>2026-04-19T14:15:57.001Z</time></trkpt><trkpt lat="43.405856998176155" lon="10.854654444486576"><ele>503.75</ele><time>2026-04-19T14:15:58.001Z</time></trkpt><trkpt lat="43.405954827176295" lon="10.854571046087665"><ele>500.5</ele><time>2026-04-19T14:15:59.001Z</time></trkpt><trkpt lat="43.40605270841021" lon="10.854481083283638"><ele>497.25</ele><time>2026-04-19T14:16:00.001Z</time></trkpt><trkpt lat="43.406152952081094" lon="10.854386271619276"><ele>494.0</ele><time>2026-04-19T14:16:01.001Z</time></trkpt><trkpt lat="43.40625390124792" lon="10.854290705757133"><ele>491.5</ele><time>2026-04-19T14:16:02.001Z</time></trkpt><trkpt lat="43.4063555120372" lon="10.854196299148626"><ele>489.0</ele><time>2026-04-19T14:16:03.001Z</time></trkpt><trkpt lat="43.406464791928116" lon="10.854113485625923"><ele>486.5</ele><time>2026-04-19T14:16:04.001Z</time></trkpt><trkpt lat="43.40658166401097" lon="10.85404261570157"><ele>484.0</ele><time>2026-04-19T14:16:05.001Z</time></trkpt><trkpt lat="43.40670390404682" lon="10.853989894521472"><ele>484.0</ele><time>2026-04-19T14:16:06.001Z</time></trkpt><trkpt lat="43.406831633550446" lon="10.853948597660564"><ele>484.0</ele><time>2026-04-19T14:16:07Z</time></trkpt><trkpt lat="43.40696159808349" lon="10.853910251000109"><ele>484.0</ele><time>2026-04-19T14:16:08Z</time></trkpt><trkpt lat="43.40709390240861" lon="10.85386705052401"><ele>484.0</ele><time>2026-04-19T14:16:09Z</time></trkpt><trkpt lat="43.40722215338891" lon="10.85382310298116"><ele>482.75</ele><time>2026-04-19T14:16:10Z</time></trkpt><trkpt lat="43.40734927618587" lon="10.853782906008172"><ele>481.5</ele><time>2026-04-19T14:16:11Z</time></trkpt><trkpt lat="43.40747822374539" lon="10.853740799628214"><ele>480.25</ele><time>2026-04-19T14:16:12Z</time></trkpt><trkpt lat="43.407605978879936" lon="10.853694994776257"><ele>479.0</ele><time>2026-04-19T14:16:13Z</time></trkpt><trkpt lat="43.40773981314405" lon="10.853664403387075"><ele>479.0</ele><time>2026-04-19T14:16:14Z</time></trkpt><trkpt lat="43.40786221304938" lon="10.853627672944986"><ele>479.0</ele><time>2026-04-19T14:16:15Z</time></trkpt><trkpt lat="43.407977906585" lon="10.85358189897418"><ele>479.0</ele><time>2026-04-19T14:16:16Z</time></trkpt><trkpt lat="43.40809156468861" lon="10.853533514697375"><ele>479.0</ele><time>2026-04-19T14:16:17Z</time></trkpt><trkpt lat="43.408190767895505" lon="10.853443803618857"><ele>477.79999999999995</ele><time>2026-04-19T14:16:18Z</time></trkpt><trkpt lat="43.408280329564505" lon="10.853353857591875"><ele>476.59999999999997</ele><time>2026-04-19T14:16:19Z</time></trkpt><trkpt lat="43.408334841718066" lon="10.853234709017723"><ele>475.4</ele><time>2026-04-19T14:16:20Z</time></trkpt><trkpt lat="43.40838658113725" lon="10.853117326973875"><ele>474.2</ele><time>2026-04-19T14:16:21Z</time></trkpt><trkpt lat="43.40844146820195" lon="10.853011937247755"><ele>473.0</ele><time>2026-04-19T14:16:22Z</time></trkpt><trkpt lat="43.40850013075284" lon="10.852928997437619"><ele>472.99999999999994</ele><time>2026-04-19T14:16:23Z</time></trkpt><trkpt lat="43.40856168677367" lon="10.852860269074638"><ele>473.0</ele><time>2026-04-19T14:16:24Z</time></trkpt><trkpt lat="43.40862020457231" lon="10.852787109388814"><ele>473.0</ele><time>2026-04-19T14:16:25Z</time></trkpt><trkpt lat="43.40862725629896" lon="10.852674594529724"><ele>473.0</ele><time>2026-04-19T14:16:26Z</time></trkpt><trkpt lat="43.40866617470191" lon="10.852572844723515"><ele>472.99999999999994</ele><time>2026-04-19T14:16:27Z</time></trkpt><trkpt lat="43.40873473615169" lon="10.852489028276924"><ele>473.0</ele><time>2026-04-19T14:16:28Z</time></trkpt><trkpt lat="43.40882414598779" lon="10.852424666818802"><ele>469.0</ele><time>2026-04-19T14:16:29Z</time></trkpt><trkpt lat="43.40892624274679" lon="10.852369725957622"><ele>465.0</ele><time>2026-04-19T14:16:30Z</time></trkpt><trkpt lat="43.409033413288654" lon="10.85231776619855"><ele>461.0</ele><time>2026-04-19T14:16:31Z</time></trkpt><trkpt lat="43.40914533950897" lon="10.85230054564788"><ele>457.0</ele><time>2026-04-19T14:16:32Z</time></trkpt><trkpt lat="43.40926238511506" lon="10.85227019815456"><ele>457.0</ele><time>2026-04-19T14:16:33Z</time></trkpt><trkpt lat="43.40938622422436" lon="10.852240368085159"><ele>457.0</ele><time>2026-04-19T14:16:34Z</time></trkpt><trkpt lat="43.409511943338316" lon="10.852190856602784"><ele>457.0</ele><time>2026-04-19T14:16:35Z</time></trkpt><trkpt lat="43.409646668993005" lon="10.852162978040052"><ele>457.0</ele><time>2026-04-19T14:16:36Z</time></trkpt><trkpt lat="43.409785339302445" lon="10.852132051921181"><ele>453.75</ele><time>2026-04-19T14:16:37Z</time></trkpt><trkpt lat="43.409927734016904" lon="10.852102733621795"><ele>450.5</ele><time>2026-04-19T14:16:38Z</time></trkpt><trkpt lat="43.410071602034705" lon="10.85207820324537"><ele>447.25</ele><time>2026-04-19T14:16:39Z</time></trkpt><trkpt lat="43.41021608822556" lon="10.852066169057135"><ele>444.0</ele><time>2026-04-19T14:16:40Z</time></trkpt><trkpt lat="43.410361013240916" lon="10.852061457674749"><ele>442.75</ele><time>2026-04-19T14:16:41Z</time></trkpt><trkpt lat="43.41050598517828" lon="10.85206338311411"><ele>441.5</ele><time>2026-04-19T14:16:42Z</time></trkpt><trkpt lat="43.410651851581825" lon="10.852066309929768"><ele>440.25</ele><time>2026-04-19T14:16:43Z</time></trkpt><trkpt lat="43.41079587630172" lon="10.852068192695171"><ele>439.0</ele><time>2026-04-19T14:16:44Z</time></trkpt><trkpt lat="43.41093959738951" lon="10.852077553533421"><ele>439.0</ele><time>2026-04-19T14:16:45Z</time></trkpt><trkpt lat="43.4110827902646" lon="10.852086622573097"><ele>439.0</ele><time>2026-04-19T14:16:46Z</time></trkpt><trkpt lat="43.41122536769495" lon="10.852086683869684"><ele>439.0</ele><time>2026-04-19T14:16:47Z</time></trkpt><trkpt lat="43.41136431138905" lon="10.852073994610507"><ele>439.0</ele><time>2026-04-19T14:16:48Z</time></trkpt><trkpt lat="43.411499364937846" lon="10.852041068822384"><ele>437.0</ele><time>2026-04-19T14:16:49Z</time></trkpt><trkpt lat="43.411628039904" lon="10.851975824668735"><ele>435.0</ele><time>2026-04-19T14:16:50Z</time></trkpt><trkpt lat="43.411749186352914" lon="10.851893712045083"><ele>433.0</ele><time>2026-04-19T14:16:51Z</time></trkpt><trkpt lat="43.411870124831125" lon="10.851818465102271"><ele>431.0</ele><time>2026-04-19T14:16:52Z</time></trkpt><trkpt lat="43.411990651184894" lon="10.851748350468771"><ele>434.75</ele><time>2026-04-19T14:16:53Z</time></trkpt><trkpt lat="43.41210990957916" lon="10.851689483878761"><ele>438.5</ele><time>2026-04-19T14:16:54Z</time></trkpt><trkpt lat="43.41223528637108" lon="10.851658768602405"><ele>442.25</ele><time>2026-04-19T14:16:55Z</time></trkpt><trkpt lat="43.41234135478771" lon="10.851708661063686"><ele>446.0</ele><time>2026-04-19T14:16:56Z</time></trkpt><trkpt lat="43.41244716538781" lon="10.851779400914493"><ele>441.0</ele><time>2026-04-19T14:16:57Z</time></trkpt><trkpt lat="43.41255959806705" lon="10.851835611947918"><ele>436.0</ele><time>2026-04-19T14:16:58Z</time></trkpt><trkpt lat="43.4126578186207" lon="10.851941424486967"><ele>431.0</ele><time>2026-04-19T14:16:59Z</time></trkpt><trkpt lat="43.41276968444177" lon="10.852030042113165"><ele>426.0</ele><time>2026-04-19T14:17:00Z</time></trkpt><trkpt lat="43.412853513165885" lon="10.852168714757584"><ele>426.0</ele><time>2026-04-19T14:17:01Z</time></trkpt><trkpt lat="43.41293764510631" lon="10.852313060422901"><ele>426.0</ele><time>2026-04-19T14:17:02Z</time></trkpt><trkpt lat="43.41302886058912" lon="10.85245407034689"><ele>426.0</ele><time>2026-04-19T14:17:03Z</time></trkpt><trkpt lat="43.41312148502867" lon="10.85259277585606"><ele>426.0</ele><time>2026-04-19T14:17:04Z</time></trkpt><trkpt lat="43.41320895009112" lon="10.85273231854152"><ele>426.0</ele><time>2026-04-19T14:17:05Z</time></trkpt><trkpt lat="43.413288665912" lon="10.852862653031192"><ele>426.0</ele><time>2026-04-19T14:17:06Z</time></trkpt><trkpt lat="43.4133799158524" lon="10.852966348829813"><ele>426.0</ele><time>2026-04-19T14:17:07Z</time></trkpt><trkpt lat="43.41348557664569" lon="10.853040995708481"><ele>426.0</ele><time>2026-04-19T14:17:08Z</time></trkpt><trkpt lat="43.41359944728144" lon="10.853051089937049"><ele>426.0</ele><time>2026-04-19T14:17:09Z</time></trkpt><trkpt lat="43.41369012633158" lon="10.852996668978461"><ele>426.0</ele><time>2026-04-19T14:17:10Z</time></trkpt><trkpt lat="43.41377717717942" lon="10.852902189636827"><ele>426.0</ele><time>2026-04-19T14:17:11Z</time></trkpt><trkpt lat="43.41385504271055" lon="10.852786981498982"><ele>426.0</ele><time>2026-04-19T14:17:12Z</time></trkpt><trkpt lat="43.41393115655374" lon="10.85265309397594"><ele>426.0</ele><time>2026-04-19T14:17:13Z</time></trkpt><trkpt lat="43.41399894684258" lon="10.852509899476978"><ele>426.5</ele><time>2026-04-19T14:17:14Z</time></trkpt><trkpt lat="43.41406308860131" lon="10.852355999234266"><ele>427.0</ele><time>2026-04-19T14:17:15Z</time></trkpt><trkpt lat="43.41410670056759" lon="10.852188570715848"><ele>427.5</ele><time>2026-04-19T14:17:16Z</time></trkpt><trkpt lat="43.41414242387325" lon="10.85202553837476"><ele>428.0</ele><time>2026-04-19T14:17:17Z</time></trkpt><trkpt lat="43.41418232723877" lon="10.851870085793987"><ele>429.0</ele><time>2026-04-19T14:17:18Z</time></trkpt><trkpt lat="43.41422558027762" lon="10.851716210180882"><ele>429.99999999999994</ele><time>2026-04-19T14:17:18.999Z</time></trkpt><trkpt lat="43.41426967703361" lon="10.851577601130105"><ele>430.99999999999994</ele><time>2026-04-19T14:17:19.999Z</time></trkpt><trkpt lat="43.41431829843989" lon="10.851443708782634"><ele>432.0</ele><time>2026-04-19T14:17:20.999Z</time></trkpt><trkpt lat="43.41437814978973" lon="10.851325193969949"><ele>433.0</ele><time>2026-04-19T14:17:21.999Z</time></trkpt><trkpt lat="43.41445189580298" lon="10.851236974396215"><ele>433.00000000000006</ele><time>2026-04-19T14:17:22.999Z</time></trkpt><trkpt lat="43.41452870603178" lon="10.851180300088508"><ele>433.0</ele><time>2026-04-19T14:17:23.999Z</time></trkpt><trkpt lat="43.41459624216153" lon="10.851152431976102"><ele>433.0</ele><time>2026-04-19T14:17:24.999Z</time></trkpt><trkpt lat="43.414684791137695" lon="10.851120029131154"><ele>433.0</ele><time>2026-04-19T14:17:26.999Z</time></trkpt><trkpt lat="43.414754535618805" lon="10.85109218818817"><ele>433.00000000000006</ele><time>2026-04-19T14:17:29.999Z</time></trkpt><trkpt lat="43.41484432377876" lon="10.851068680479122"><ele>433.0</ele><time>2026-04-19T14:17:33.999Z</time></trkpt><trkpt lat="43.414928073100455" lon="10.851071983932574"><ele>428.4</ele><time>2026-04-19T14:17:35.999Z</time></trkpt><trkpt lat="43.41501503523445" lon="10.85110826406667"><ele>423.79999999999995</ele><time>2026-04-19T14:17:37.999Z</time></trkpt><trkpt lat="43.415100096308535" lon="10.85117856181542"><ele>419.2</ele><time>2026-04-19T14:17:39.999Z</time></trkpt><trkpt lat="43.415201717450984" lon="10.851253913181523"><ele>414.6</ele><time>2026-04-19T14:17:41.999Z</time></trkpt><trkpt lat="43.41530169945973" lon="10.851358572642672"><ele>410.0</ele><time>2026-04-19T14:17:43.999Z</time></trkpt><trkpt lat="43.41535388155421" lon="10.85141755704682"><ele>410.0</ele><time>2026-04-19T14:17:44.999Z</time></trkpt><trkpt lat="43.41540936928606" lon="10.85147560371808"><ele>410.0</ele><time>2026-04-19T14:17:45.999Z</time></trkpt><trkpt lat="43.41547023470971" lon="10.851532170833085"><ele>410.0</ele><time>2026-04-19T14:17:46.999Z</time></trkpt><trkpt lat="43.41553707443532" lon="10.851586022121147"><ele>410.0</ele><time>2026-04-19T14:17:47.999Z</time></trkpt><trkpt lat="43.415606860432156" lon="10.851639646351435"><ele>410.0</ele><time>2026-04-19T14:17:49.001Z</time></trkpt><trkpt lat="43.41567176581604" lon="10.851688753579623"><ele>410.0</ele><time>2026-04-19T14:17:50.001Z</time></trkpt><trkpt lat="43.41573512454858" lon="10.851741078147878"><ele>410.0</ele><time>2026-04-19T14:17:51.001Z</time></trkpt><trkpt lat="43.41579869172757" lon="10.85180054955168"><ele>408.8333333333333</ele><time>2026-04-19T14:17:52.001Z</time></trkpt><trkpt lat="43.41586191280694" lon="10.851865360637932"><ele>407.66666666666663</ele><time>2026-04-19T14:17:53.001Z</time></trkpt><trkpt lat="43.415923028947226" lon="10.851932909563061"><ele>406.5</ele><time>2026-04-19T14:17:54.001Z</time></trkpt><trkpt lat="43.41598141827837" lon="10.852006896658857"><ele>405.33333333333337</ele><time>2026-04-19T14:17:55.001Z</time></trkpt><trkpt lat="43.416034455791475" lon="10.852087363216066"><ele>404.1666666666667</ele><time>2026-04-19T14:17:56.001Z</time></trkpt><trkpt lat="43.41608300990582" lon="10.852176251833276"><ele>403.0</ele><time>2026-04-19T14:17:57.001Z</time></trkpt><trkpt lat="43.41613007227397" lon="10.852266337022854"><ele>403.0</ele><time>2026-04-19T14:17:58.001Z</time></trkpt><trkpt lat="43.41617724283631" lon="10.852349448701506"><ele>403.0</ele><time>2026-04-19T14:17:59.001Z</time></trkpt><trkpt lat="43.41622284285055" lon="10.852430688114822"><ele>403.0</ele><time>2026-04-19T14:18:00.001Z</time></trkpt><trkpt lat="43.41626503792158" lon="10.852509679115967"><ele>403.0</ele><time>2026-04-19T14:18:01.001Z</time></trkpt><trkpt lat="43.41630460893291" lon="10.852587660192482"><ele>403.0</ele><time>2026-04-19T14:18:02.001Z</time></trkpt><trkpt lat="43.41634453559072" lon="10.852663725785932"><ele>403.0</ele><time>2026-04-19T14:18:03.001Z</time></trkpt><trkpt lat="43.41638602526933" lon="10.85273624424499"><ele>403.0</ele><time>2026-04-19T14:18:04.001Z</time></trkpt><trkpt lat="43.41642239303542" lon="10.852820300527533"><ele>403.00000000000006</ele><time>2026-04-19T14:18:05.001Z</time></trkpt><trkpt lat="43.41648284941489" lon="10.852888700542469"><ele>403.0</ele><time>2026-04-19T14:18:06.001Z</time></trkpt><trkpt lat="43.416561171001604" lon="10.85293140106096"><ele>403.0</ele><time>2026-04-19T14:18:07.001Z</time></trkpt><trkpt lat="43.41662925103459" lon="10.852987471826694"><ele>403.0</ele><time>2026-04-19T14:18:08.001Z</time></trkpt><trkpt lat="43.41669655481585" lon="10.853043261415234"><ele>403.00000000000006</ele><time>2026-04-19T14:18:09.001Z</time></trkpt><trkpt lat="43.4167628250463" lon="10.853104347614005"><ele>403.0</ele><time>2026-04-19T14:18:10.001Z</time></trkpt><trkpt lat="43.41682400718354" lon="10.853179791030197"><ele>403.0</ele><time>2026-04-19T14:18:11.001Z</time></trkpt><trkpt lat="43.41687507783767" lon="10.853275891971014"><ele>403.0</ele><time>2026-04-19T14:18:12.001Z</time></trkpt><trkpt lat="43.416908817392994" lon="10.853389172586395"><ele>403.0</ele><time>2026-04-19T14:18:13.001Z</time></trkpt><trkpt lat="43.41692099648913" lon="10.853511720508587"><ele>403.0</ele><time>2026-04-19T14:18:14.001Z</time></trkpt><trkpt lat="43.416927272476016" lon="10.853641581271672"><ele>403.0</ele><time>2026-04-19T14:18:15Z</time></trkpt><trkpt lat="43.41692697290115" lon="10.85377198403225"><ele>398.59999999999997</ele><time>2026-04-19T14:18:16Z</time></trkpt><trkpt lat="43.41692654044289" lon="10.853905634927406"><ele>394.2</ele><time>2026-04-19T14:18:17Z</time></trkpt><trkpt lat="43.416931599523345" lon="10.8540421146975"><ele>389.8</ele><time>2026-04-19T14:18:18Z</time></trkpt><trkpt lat="43.416956285618554" lon="10.854179377406552"><ele>385.4</ele><time>2026-04-19T14:18:19Z</time></trkpt><trkpt lat="43.416992427921144" lon="10.854316661585322"><ele>381.0</ele><time>2026-04-19T14:18:20Z</time></trkpt><trkpt lat="43.41703186989479" lon="10.85445832926938"><ele>383.25</ele><time>2026-04-19T14:18:21Z</time></trkpt><trkpt lat="43.41707014112352" lon="10.854599949986996"><ele>385.5</ele><time>2026-04-19T14:18:22Z</time></trkpt><trkpt lat="43.41711071506381" lon="10.854743574546537"><ele>387.75</ele><time>2026-04-19T14:18:23Z</time></trkpt><trkpt lat="43.417150837930734" lon="10.854891517852264"><ele>390.0</ele><time>2026-04-19T14:18:24Z</time></trkpt><trkpt lat="43.41718898827847" lon="10.85503985794556"><ele>388.0</ele><time>2026-04-19T14:18:25Z</time></trkpt><trkpt lat="43.41722241973751" lon="10.855195549203325"><ele>386.0</ele><time>2026-04-19T14:18:26Z</time></trkpt><trkpt lat="43.417248332462194" lon="10.85535246669915"><ele>384.0</ele><time>2026-04-19T14:18:27Z</time></trkpt><trkpt lat="43.41726699844671" lon="10.855508808640502"><ele>382.0</ele><time>2026-04-19T14:18:28Z</time></trkpt><trkpt lat="43.41728677959594" lon="10.855678030934618"><ele>382.0</ele><time>2026-04-19T14:18:29Z</time></trkpt><trkpt lat="43.41729974788564" lon="10.85583784723113"><ele>382.0</ele><time>2026-04-19T14:18:30Z</time></trkpt><trkpt lat="43.41730654435621" lon="10.85599161894369"><ele>382.0</ele><time>2026-04-19T14:18:31Z</time></trkpt><trkpt lat="43.417299754458625" lon="10.856117226937807"><ele>382.0</ele><time>2026-04-19T14:18:32Z</time></trkpt><trkpt lat="43.4173064702961" lon="10.856252459094879"><ele>382.0</ele><time>2026-04-19T14:18:33Z</time></trkpt><trkpt lat="43.41731195172947" lon="10.856382255560858"><ele>379.40000000000003</ele><time>2026-04-19T14:18:34Z</time></trkpt><trkpt lat="43.41732220846005" lon="10.856507059355527"><ele>376.8</ele><time>2026-04-19T14:18:35Z</time></trkpt><trkpt lat="43.417350334450866" lon="10.856626466540273"><ele>374.2</ele><time>2026-04-19T14:18:36Z</time></trkpt><trkpt lat="43.417398221973926" lon="10.856733888526843"><ele>371.6</ele><time>2026-04-19T14:18:37Z</time></trkpt><trkpt lat="43.417455865581424" lon="10.856833257417014"><ele>369.0</ele><time>2026-04-19T14:18:38Z</time></trkpt><trkpt lat="43.41752566732955" lon="10.85690452420997"><ele>363.8333333333333</ele><time>2026-04-19T14:18:39Z</time></trkpt><trkpt lat="43.41760231022014" lon="10.856950908362505"><ele>358.6666666666667</ele><time>2026-04-19T14:18:40Z</time></trkpt><trkpt lat="43.41768206890893" lon="10.856975611205673"><ele>353.5</ele><time>2026-04-19T14:18:41Z</time></trkpt><trkpt lat="43.41776184550771" lon="10.856971344511459"><ele>348.33333333333337</ele><time>2026-04-19T14:18:42Z</time></trkpt><trkpt lat="43.41783171056205" lon="10.856939661492735"><ele>343.1666666666667</ele><time>2026-04-19T14:18:43Z</time></trkpt><trkpt lat="43.41789235458009" lon="10.856882444454378"><ele>338.0</ele><time>2026-04-19T14:18:44Z</time></trkpt><trkpt lat="43.417925892349736" lon="10.856789201640398"><ele>341.33333333333337</ele><time>2026-04-19T14:18:45Z</time></trkpt><trkpt lat="43.41793413342649" lon="10.856683472613142"><ele>344.6666666666667</ele><time>2026-04-19T14:18:46Z</time></trkpt><trkpt lat="43.417938609454865" lon="10.856572721391245"><ele>348.0</ele><time>2026-04-19T14:18:47Z</time></trkpt><trkpt lat="43.41794545150603" lon="10.856462359716266"><ele>351.3333333333333</ele><time>2026-04-19T14:18:48Z</time></trkpt><trkpt lat="43.417962009897295" lon="10.856350371535628"><ele>354.66666666666663</ele><time>2026-04-19T14:18:49Z</time></trkpt><trkpt lat="43.41798855072521" lon="10.856234295903361"><ele>358.0</ele><time>2026-04-19T14:18:50Z</time></trkpt><trkpt lat="43.418030554263524" lon="10.856127625049172"><ele>358.0</ele><time>2026-04-19T14:18:51Z</time></trkpt><trkpt lat="43.41808707681565" lon="10.85603945928901"><ele>358.0</ele><time>2026-04-19T14:18:52Z</time></trkpt><trkpt lat="43.418161389515966" lon="10.85597483880307"><ele>358.0</ele><time>2026-04-19T14:18:53Z</time></trkpt><trkpt lat="43.4182423978044" lon="10.855932221920643"><ele>358.0</ele><time>2026-04-19T14:18:54Z</time></trkpt><trkpt lat="43.418328560128444" lon="10.855892860949806"><ele>358.0</ele><time>2026-04-19T14:18:55Z</time></trkpt><trkpt lat="43.41841022578131" lon="10.855844346950377"><ele>358.0</ele><time>2026-04-19T14:18:56Z</time></trkpt><trkpt lat="43.41848234548157" lon="10.855769157840562"><ele>360.2</ele><time>2026-04-19T14:18:57Z</time></trkpt><trkpt lat="43.41853869782562" lon="10.855671713062534"><ele>362.4</ele><time>2026-04-19T14:18:58Z</time></trkpt><trkpt lat="43.41856831123036" lon="10.85556161025854"><ele>364.59999999999997</ele><time>2026-04-19T14:18:59Z</time></trkpt><trkpt lat="43.418578921234655" lon="10.855435677306632"><ele>366.79999999999995</ele><time>2026-04-19T14:19:00Z</time></trkpt><trkpt lat="43.41857920140131" lon="10.855311669181162"><ele>369.0</ele><time>2026-04-19T14:19:01Z</time></trkpt><trkpt lat="43.41858027370564" lon="10.855169668668493"><ele>370.6</ele><time>2026-04-19T14:19:02Z</time></trkpt><trkpt lat="43.41858704524693" lon="10.855036021793804"><ele>372.2</ele><time>2026-04-19T14:19:03Z</time></trkpt><trkpt lat="43.418588654752156" lon="10.854899034273357"><ele>373.8</ele><time>2026-04-19T14:19:04Z</time></trkpt><trkpt lat="43.41858336379128" lon="10.854771808381832"><ele>375.40000000000003</ele><time>2026-04-19T14:19:05Z</time></trkpt><trkpt lat="43.418576924522355" lon="10.854647424674761"><ele>377.0</ele><time>2026-04-19T14:19:06Z</time></trkpt><trkpt lat="43.41858507369645" lon="10.854525381879263"><ele>377.0</ele><time>2026-04-19T14:19:07Z</time></trkpt><trkpt lat="43.41860084403324" lon="10.854412374335856"><ele>377.0</ele><time>2026-04-19T14:19:08Z</time></trkpt><trkpt lat="43.41861606182893" lon="10.854297513020628"><ele>377.0</ele><time>2026-04-19T14:19:09Z</time></trkpt><trkpt lat="43.41862962782543" lon="10.854183918420153"><ele>377.0</ele><time>2026-04-19T14:19:10Z</time></trkpt><trkpt lat="43.4186423625256" lon="10.854078263320346"><ele>377.0</ele><time>2026-04-19T14:19:11Z</time></trkpt><trkpt lat="43.41866327233426" lon="10.853976469045437"><ele>377.0</ele><time>2026-04-19T14:19:12Z</time></trkpt><trkpt lat="43.41869043342936" lon="10.853876036998338"><ele>377.0</ele><time>2026-04-19T14:19:13Z</time></trkpt><trkpt lat="43.41872152575173" lon="10.853776303996872"><ele>377.0</ele><time>2026-04-19T14:19:14Z</time></trkpt><trkpt lat="43.4187630555539" lon="10.85368399293733"><ele>377.0</ele><time>2026-04-19T14:19:15Z</time></trkpt><trkpt lat="43.41880372107201" lon="10.853581560306717"><ele>377.0</ele><time>2026-04-19T14:19:16Z</time></trkpt><trkpt lat="43.41882528786248" lon="10.85347030198796"><ele>377.0</ele><time>2026-04-19T14:19:16.999Z</time></trkpt><trkpt lat="43.41883078837846" lon="10.853345455939596"><ele>377.0</ele><time>2026-04-19T14:19:17.999Z</time></trkpt><trkpt lat="43.41882819087074" lon="10.853223489547329"><ele>376.99999999999994</ele><time>2026-04-19T14:19:18.999Z</time></trkpt><trkpt lat="43.418822439653994" lon="10.853108152637633"><ele>377.0</ele><time>2026-04-19T14:19:19.999Z</time></trkpt><trkpt lat="43.41881211383927" lon="10.85301339047023"><ele>377.0</ele><time>2026-04-19T14:19:20.999Z</time></trkpt><trkpt lat="43.41879805155629" lon="10.85292857189022"><ele>377.0</ele><time>2026-04-19T14:19:21.999Z</time></trkpt><trkpt lat="43.418785986248984" lon="10.852811200716861"><ele>377.0</ele><time>2026-04-19T14:19:23.999Z</time></trkpt><trkpt lat="43.41878851242942" lon="10.852715408902679"><ele>376.99999999999994</ele><time>2026-04-19T14:19:26.999Z</time></trkpt><trkpt lat="43.41876217342104" lon="10.85279646720133"><ele>377.0</ele><time>2026-04-19T14:19:49.999Z</time></trkpt><trkpt lat="43.41876098512462" lon="10.852938263897897"><ele>367.75</ele><time>2026-04-19T14:19:51.999Z</time></trkpt><trkpt lat="43.418870405867615" lon="10.85315088458771"><ele>358.5</ele><time>2026-04-19T14:19:53.999Z</time></trkpt><trkpt lat="43.41890721289425" lon="10.853299228981895"><ele>349.25</ele><time>2026-04-19T14:19:55.001Z</time></trkpt><trkpt lat="43.41891899876819" lon="10.853455283530526"><ele>340.0</ele><time>2026-04-19T14:19:56.001Z</time></trkpt><trkpt lat="43.418894316072624" lon="10.853659202200726"><ele>339.5</ele><time>2026-04-19T14:19:57.001Z</time></trkpt><trkpt lat="43.41885610711416" lon="10.853823645999505"><ele>339.0</ele><time>2026-04-19T14:19:58.001Z</time></trkpt><trkpt lat="43.41881652973404" lon="10.853984991100885"><ele>338.5</ele><time>2026-04-19T14:19:59.001Z</time></trkpt><trkpt lat="43.41877907304417" lon="10.854139267922651"><ele>338.0</ele><time>2026-04-19T14:20:00.001Z</time></trkpt><trkpt lat="43.4187484082886" lon="10.854288026341921"><ele>347.75</ele><time>2026-04-19T14:20:01.001Z</time></trkpt><trkpt lat="43.41873693837755" lon="10.854447843541253"><ele>357.5</ele><time>2026-04-19T14:20:02.001Z</time></trkpt><trkpt lat="43.418734041565735" lon="10.85461273904331"><ele>367.25</ele><time>2026-04-19T14:20:03.001Z</time></trkpt><trkpt lat="43.41873810775179" lon="10.854780072907976"><ele>377.0</ele><time>2026-04-19T14:20:04.001Z</time></trkpt><trkpt lat="43.4187509165548" lon="10.85495373295065"><ele>375.40000000000003</ele><time>2026-04-19T14:20:05.001Z</time></trkpt><trkpt lat="43.41876457330298" lon="10.85512793333303"><ele>373.8</ele><time>2026-04-19T14:20:06.001Z</time></trkpt><trkpt lat="43.418781066277376" lon="10.855291819568045"><ele>372.2</ele><time>2026-04-19T14:20:07.001Z</time></trkpt><trkpt lat="43.41880192025117" lon="10.855452054844895"><ele>370.6</ele><time>2026-04-19T14:20:08.001Z</time></trkpt><trkpt lat="43.41883140339192" lon="10.855559928095781"><ele>369.0</ele><time>2026-04-19T14:20:09.001Z</time></trkpt><trkpt lat="43.41848428267255" lon="10.855825843968931"><ele>369.0</ele><time>2026-04-19T14:20:10.001Z</time></trkpt><trkpt lat="43.41840326792224" lon="10.855912119324103"><ele>369.0</ele><time>2026-04-19T14:20:11.001Z</time></trkpt><trkpt lat="43.4182749479214" lon="10.855937137102796"><ele>369.0</ele><time>2026-04-19T14:20:12.001Z</time></trkpt><trkpt lat="43.41813242622184" lon="10.855947342703901"><ele>369.0</ele><time>2026-04-19T14:20:13.001Z</time></trkpt><trkpt lat="43.41805861600574" lon="10.856020503208624"><ele>369.0</ele><time>2026-04-19T14:20:14.001Z</time></trkpt><trkpt lat="43.41798735713315" lon="10.856130360815671"><ele>369.0</ele><time>2026-04-19T14:20:15.001Z</time></trkpt><trkpt lat="43.41792697501222" lon="10.856332880259986"><ele>369.0</ele><time>2026-04-19T14:20:16.001Z</time></trkpt><trkpt lat="43.41790734797651" lon="10.856480735658742"><ele>369.0</ele><time>2026-04-19T14:20:17Z</time></trkpt><trkpt lat="43.417895492809315" lon="10.856628328451707"><ele>369.0</ele><time>2026-04-19T14:20:18Z</time></trkpt><trkpt lat="43.417885505720804" lon="10.856757537747955"><ele>369.0</ele><time>2026-04-19T14:20:19Z</time></trkpt><trkpt lat="43.41785049179509" lon="10.856873126377806"><ele>369.0</ele><time>2026-04-19T14:20:20Z</time></trkpt><trkpt lat="43.41776486736763" lon="10.856924134410189"><ele>369.0</ele><time>2026-04-19T14:20:21Z</time></trkpt><trkpt lat="43.41766718436715" lon="10.856912117631628"><ele>369.0</ele><time>2026-04-19T14:20:22Z</time></trkpt><trkpt lat="43.41757019471589" lon="10.856869131917783"><ele>369.0</ele><time>2026-04-19T14:20:23Z</time></trkpt><trkpt lat="43.41748370238311" lon="10.856781223909396"><ele>369.0</ele><time>2026-04-19T14:20:24Z</time></trkpt><trkpt lat="43.41741212816511" lon="10.856682029294804"><ele>369.0</ele><time>2026-04-19T14:20:25Z</time></trkpt><trkpt lat="43.4173783669196" lon="10.856568555429977"><ele>369.0</ele><time>2026-04-19T14:20:26Z</time></trkpt><trkpt lat="43.41734944545684" lon="10.856427047708433"><ele>369.0</ele><time>2026-04-19T14:20:27Z</time></trkpt><trkpt lat="43.417336327829844" lon="10.856277670604273"><ele>369.0</ele><time>2026-04-19T14:20:28Z</time></trkpt><trkpt lat="43.417330716229216" lon="10.856111188285897"><ele>369.0</ele><time>2026-04-19T14:20:29Z</time></trkpt><trkpt lat="43.41732917697836" lon="10.855937787669392"><ele>369.0</ele><time>2026-04-19T14:20:30Z</time></trkpt><trkpt lat="43.417318405267956" lon="10.855767184579653"><ele>369.0</ele><time>2026-04-19T14:20:31Z</time></trkpt><trkpt lat="43.41730416896255" lon="10.855593890067846"><ele>372.25</ele><time>2026-04-19T14:20:32Z</time></trkpt><trkpt lat="43.417281746168825" lon="10.855416708682968"><ele>375.5</ele><time>2026-04-19T14:20:33Z</time></trkpt><trkpt lat="43.41725704630329" lon="10.85523791207176"><ele>378.75</ele><time>2026-04-19T14:20:34Z</time></trkpt><trkpt lat="43.41722208216282" lon="10.855056768967863"><ele>382.0</ele><time>2026-04-19T14:20:35Z</time></trkpt><trkpt lat="43.41717973737539" lon="10.854886937904812"><ele>381.75</ele><time>2026-04-19T14:20:36Z</time></trkpt><trkpt lat="43.41713410309116" lon="10.854716540134687"><ele>381.5</ele><time>2026-04-19T14:20:37Z</time></trkpt><trkpt lat="43.41708662210569" lon="10.854538168623424"><ele>381.25</ele><time>2026-04-19T14:20:38Z</time></trkpt><trkpt lat="43.41704638705079" lon="10.8543690753671"><ele>381.0</ele><time>2026-04-19T14:20:39Z</time></trkpt><trkpt lat="43.41700264458119" lon="10.85420234654457"><ele>381.0</ele><time>2026-04-19T14:20:40Z</time></trkpt><trkpt lat="43.41696913230607" lon="10.854033607763016"><ele>381.0</ele><time>2026-04-19T14:20:41Z</time></trkpt><trkpt lat="43.41695459407546" lon="10.853857796122007"><ele>381.0</ele><time>2026-04-19T14:20:42Z</time></trkpt><trkpt lat="43.41695753289302" lon="10.853684918170217"><ele>381.0</ele><time>2026-04-19T14:20:43Z</time></trkpt><trkpt lat="43.416964673345035" lon="10.853526424335108"><ele>386.5</ele><time>2026-04-19T14:20:44Z</time></trkpt><trkpt lat="43.4169508204429" lon="10.853358897879357"><ele>392.0</ele><time>2026-04-19T14:20:45Z</time></trkpt><trkpt lat="43.416907344051616" lon="10.853208465805603"><ele>397.5</ele><time>2026-04-19T14:20:46Z</time></trkpt><trkpt lat="43.41682862431505" lon="10.853085606983647"><ele>403.0</ele><time>2026-04-19T14:20:47Z</time></trkpt><trkpt lat="43.41672673492132" lon="10.852996480537854"><ele>403.0</ele><time>2026-04-19T14:20:48Z</time></trkpt><trkpt lat="43.41662589986485" lon="10.852920147234256"><ele>403.0</ele><time>2026-04-19T14:20:49Z</time></trkpt><trkpt lat="43.41652800030468" lon="10.852829032944019"><ele>403.0</ele><time>2026-04-19T14:20:50Z</time></trkpt><trkpt lat="43.416439597299316" lon="10.852740428513382"><ele>403.0</ele><time>2026-04-19T14:20:51Z</time></trkpt><trkpt lat="43.41636705442419" lon="10.852623861341666"><ele>403.0</ele><time>2026-04-19T14:20:52Z</time></trkpt><trkpt lat="43.41630560129173" lon="10.852498685559436"><ele>403.0</ele><time>2026-04-19T14:20:53Z</time></trkpt><trkpt lat="43.41624449336702" lon="10.852375961890237"><ele>403.0</ele><time>2026-04-19T14:20:54Z</time></trkpt><trkpt lat="43.416182187798434" lon="10.852250988647107"><ele>403.0</ele><time>2026-04-19T14:20:55Z</time></trkpt><trkpt lat="43.41611186062508" lon="10.8521270438692"><ele>403.0</ele><time>2026-04-19T14:20:56Z</time></trkpt><trkpt lat="43.416034873504934" lon="10.85200442316231"><ele>403.0</ele><time>2026-04-19T14:20:57Z</time></trkpt><trkpt lat="43.41595284581563" lon="10.851884115550174"><ele>403.0</ele><time>2026-04-19T14:20:58Z</time></trkpt><trkpt lat="43.41586083329103" lon="10.85177712879442"><ele>403.0</ele><time>2026-04-19T14:20:59Z</time></trkpt><trkpt lat="43.415759550140955" lon="10.851689659508933"><ele>403.0</ele><time>2026-04-19T14:21:00Z</time></trkpt><trkpt lat="43.41565334659686" lon="10.851607554595022"><ele>404.75</ele><time>2026-04-19T14:21:01Z</time></trkpt><trkpt lat="43.41555130419632" lon="10.851520860529307"><ele>406.5</ele><time>2026-04-19T14:21:02Z</time></trkpt><trkpt lat="43.41545559203634" lon="10.851424830528705"><ele>408.25</ele><time>2026-04-19T14:21:03Z</time></trkpt><trkpt lat="43.4153624957534" lon="10.851330610281984"><ele>410.0</ele><time>2026-04-19T14:21:04Z</time></trkpt><trkpt lat="43.41526972840052" lon="10.851237724136231"><ele>410.0</ele><time>2026-04-19T14:21:05Z</time></trkpt><trkpt lat="43.415178652413516" lon="10.851155054083723"><ele>410.0</ele><time>2026-04-19T14:21:05.999Z</time></trkpt><trkpt lat="43.415089786753896" lon="10.851088582276253"><ele>410.0</ele><time>2026-04-19T14:21:06.999Z</time></trkpt><trkpt lat="43.41500195581666" lon="10.851045766352291"><ele>410.0</ele><time>2026-04-19T14:21:07.999Z</time></trkpt><trkpt lat="43.41492039074692" lon="10.851019837182312"><ele>410.0</ele><time>2026-04-19T14:21:08.999Z</time></trkpt><trkpt lat="43.41485425649724" lon="10.851005058733113"><ele>410.0</ele><time>2026-04-19T14:21:09.999Z</time></trkpt><trkpt lat="43.41477311895415" lon="10.85100360760137"><ele>410.0</ele><time>2026-04-19T14:21:11.999Z</time></trkpt><trkpt lat="43.41482841292444" lon="10.850955220739156"><ele>410.0</ele><time>2026-04-19T14:21:32.999Z</time></trkpt><trkpt lat="43.41483793881107" lon="10.85082154986235"><ele>410.0</ele><time>2026-04-19T14:22:33Z</time></trkpt><trkpt lat="43.41490294902503" lon="10.850828835032733"><ele>410.0</ele><time>2026-04-19T14:25:25.999Z</time></trkpt><trkpt lat="43.41493102740507" lon="10.850744686509307"><ele>410.0</ele><time>2026-04-19T14:25:33.999Z</time></trkpt><trkpt lat="43.414944266968774" lon="10.850655327798234"><ele>410.0</ele><time>2026-04-19T14:25:41.999Z</time></trkpt><trkpt lat="43.414975012058676" lon="10.850573917051403"><ele>411.2857142857143</ele><time>2026-04-19T14:25:49.998Z</time></trkpt><trkpt lat="43.415001862648204" lon="10.850485306918388"><ele>412.57142857142856</ele><time>2026-04-19T14:25:58.998Z</time></trkpt><trkpt lat="43.41505710595341" lon="10.85042217119434"><ele>413.85714285714283</ele><time>2026-04-19T14:26:06.998Z</time></trkpt><trkpt lat="43.41511361423128" lon="10.850367248112958"><ele>415.1428571428571</ele><time>2026-04-19T14:26:14.999Z</time></trkpt><trkpt lat="43.41516434910287" lon="10.850313353911886"><ele>416.42857142857144</ele><time>2026-04-19T14:26:23.999Z</time></trkpt><trkpt lat="43.41522612227082" lon="10.85027619581384"><ele>417.71428571428567</ele><time>2026-04-19T14:26:31.999Z</time></trkpt><trkpt lat="43.41529075664936" lon="10.850273808289012"><ele>419.0</ele><time>2026-04-19T14:26:39.999Z</time></trkpt><trkpt lat="43.41534539038214" lon="10.850211382400444"><ele>418.85714285714283</ele><time>2026-04-19T14:26:53.999Z</time></trkpt><trkpt lat="43.4153583750751" lon="10.850120966312783"><ele>418.7142857142857</ele><time>2026-04-19T14:27:01.999Z</time></trkpt><trkpt lat="43.41529387154695" lon="10.85011309718111"><ele>418.57142857142856</ele><time>2026-04-19T14:27:12.999Z</time></trkpt><trkpt lat="43.41535190512258" lon="10.850078979104344"><ele>418.42857142857144</ele><time>2026-04-19T14:28:33.998Z</time></trkpt><trkpt lat="43.41541815401238" lon="10.850050940459916"><ele>418.2857142857143</ele><time>2026-04-19T14:28:55.998Z</time></trkpt><trkpt lat="43.41547626923884" lon="10.850010241065345"><ele>418.1428571428571</ele><time>2026-04-19T14:29:03.998Z</time></trkpt><trkpt lat="43.41554036379238" lon="10.850003808205875"><ele>418.0</ele><time>2026-04-19T14:29:10.998Z</time></trkpt><trkpt lat="43.41560463239123" lon="10.849995198213001"><ele>418.0</ele><time>2026-04-19T14:29:17.998Z</time></trkpt><trkpt lat="43.41566874589854" lon="10.84999181280227"><ele>418.0</ele><time>2026-04-19T14:29:25.998Z</time></trkpt><trkpt lat="43.41574717261635" lon="10.849995186454082"><ele>418.0</ele><time>2026-04-19T14:29:45.998Z</time></trkpt><trkpt lat="43.41581007792579" lon="10.84995777218306"><ele>418.0</ele><time>2026-04-19T14:29:53.998Z</time></trkpt><trkpt lat="43.41587448147968" lon="10.850047088163569"><ele>418.0</ele><time>2026-04-19T14:30:36.997Z</time></trkpt><trkpt lat="43.41588377558184" lon="10.850136925864993"><ele>418.0</ele><time>2026-04-19T14:30:49.997Z</time></trkpt><trkpt lat="43.41581834800949" lon="10.850124106184158"><ele>418.0</ele><time>2026-04-19T14:31:32.998Z</time></trkpt><trkpt lat="43.41577751109943" lon="10.850195260676184"><ele>418.1666666666667</ele><time>2026-04-19T14:31:44.998Z</time></trkpt><trkpt lat="43.415694881167106" lon="10.85017871524633"><ele>418.33333333333337</ele><time>2026-04-19T14:32:25.997Z</time></trkpt><trkpt lat="43.41562262984218" lon="10.850207822928189"><ele>418.5</ele><time>2026-04-19T14:32:27.997Z</time></trkpt><trkpt lat="43.41553667697401" lon="10.850240244137636"><ele>418.66666666666663</ele><time>2026-04-19T14:32:34.996Z</time></trkpt><trkpt lat="43.415460027736074" lon="10.8502706534278"><ele>418.8333333333333</ele><time>2026-04-19T14:32:37.996Z</time></trkpt><trkpt lat="43.41536218312312" lon="10.850218750098163"><ele>419.0</ele><time>2026-04-19T14:32:38.996Z</time></trkpt><trkpt lat="43.41527381716538" lon="10.850273030951245"><ele>419.0</ele><time>2026-04-19T14:32:40.996Z</time></trkpt><trkpt lat="43.41517143512435" lon="10.850319155703318"><ele>419.0</ele><time>2026-04-19T14:32:42.996Z</time></trkpt><trkpt lat="43.415254248933984" lon="10.850273629468557"><ele>419.0</ele><time>2026-04-19T14:32:48.024Z</time></trkpt><trkpt lat="43.415367518638014" lon="10.850255847534594"><ele>419.0</ele><time>2026-04-19T14:32:51.024Z</time></trkpt><trkpt lat="43.41543155829601" lon="10.850176559463323"><ele>419.0</ele><time>2026-04-19T14:32:55.997Z</time></trkpt><trkpt lat="43.4154924372474" lon="10.849915991525096"><ele>418.66666666666663</ele><time>2026-04-19T14:32:56.997Z</time></trkpt><trkpt lat="43.415757855435494" lon="10.84994010946591"><ele>418.33333333333337</ele><time>2026-04-19T14:33:03.998Z</time></trkpt><trkpt lat="43.415777245753816" lon="10.850109840562162"><ele>418.0</ele><time>2026-04-19T14:33:05.998Z</time></trkpt><trkpt lat="43.41581022248704" lon="10.850031549999251"><ele>418.0</ele><time>2026-04-19T14:33:18.998Z</time></trkpt><trkpt lat="43.415872350657764" lon="10.849996718420062"><ele>418.0</ele><time>2026-04-19T14:39:59Z</time></trkpt><trkpt lat="43.4159302955981" lon="10.850036189483857"><ele>418.0</ele><time>2026-04-19T14:40:06Z</time></trkpt><trkpt lat="43.41586434752863" lon="10.849994616253792"><ele>418.0</ele><time>2026-04-19T14:40:23Z</time></trkpt><trkpt lat="43.415797006833756" lon="10.849993072964159"><ele>418.0</ele><time>2026-04-19T14:42:08.001Z</time></trkpt><trkpt lat="43.415733479745526" lon="10.850027717145942"><ele>418.0</ele><time>2026-04-19T14:42:19.001Z</time></trkpt><trkpt lat="43.415666282770225" lon="10.850020109610568"><ele>418.0</ele><time>2026-04-19T14:42:29.001Z</time></trkpt><trkpt lat="43.415597890869364" lon="10.850034086061521"><ele>418.0</ele><time>2026-04-19T14:42:40.001Z</time></trkpt><trkpt lat="43.41552616078956" lon="10.850028471570193"><ele>418.0</ele><time>2026-04-19T14:42:49.001Z</time></trkpt><trkpt lat="43.41546203513589" lon="10.850028491833866"><ele>394.0</ele><time>2026-04-19T14:42:56.001Z</time></trkpt><trkpt lat="43.4154019835238" lon="10.850073054036534"><ele>394.0</ele><time>2026-04-19T14:43:04.002Z</time></trkpt><trkpt lat="43.41533726007127" lon="10.850080836310248"><ele>394.0</ele><time>2026-04-19T14:43:19.002Z</time></trkpt><trkpt lat="43.415408613020176" lon="10.8501230131173"><ele>394.0</ele><time>2026-04-19T14:53:20.999Z</time></trkpt><trkpt lat="43.415371905559546" lon="10.850209603952305"><ele>419.0</ele><time>2026-04-19T14:55:20.999Z</time></trkpt></trkseg></trk></gpx>